GFSSGP_prec_precacc24_027.txt.gz
Total_Precipitation_Accumulation
0.00 0.00 0.00 0.00 0.00 0.00 0.00 0.00 0.00 0.00 0.00 0.00 0.00 0.00 0.00 0.00 0.00 0.00 0.00 0.00 0.00 0.00 0.00 0.00 0.02 0.05 0.05 0.06 0.03 0.01 0.00 0.00 0.00 0.00 0.00 0.01 0.00 0.00 0.00 0.00 0.00 0.00 0.00 0.00 0.00 0.00 0.00 0.00 0.01
0.00 0.00 0.00 0.00 0.00 0.00 0.00 0.00 0.00 0.00 0.00 0.00 0.00 0.00 0.00 0.00 0.00 0.00 0.00 0.00 0.00 0.00 0.00 0.00 0.02 0.03 0.06 0.08 0.03 0.00 0.00 0.00 0.00 0.00 0.00 0.01 0.00 0.00 0.00 0.00 0.00 0.00 0.00 0.00 0.00 0.00 0.00 0.00 0.01
0.00 0.00 0.00 0.00 0.00 0.00 0.00 0.00 0.00 0.00 0.00 0.00 0.00 0.00 0.00 0.00 0.00 0.00 0.00 0.00 0.00 0.00 0.00 0.00 0.00 0.02 0.06 0.07 0.03 0.01 0.00 0.00 0.00 0.00 0.00 0.03 0.03 0.01 0.00 0.00 0.00 0.00 0.00 0.00 0.00 0.00 0.00 0.00 0.00
0.00 0.00 0.00 0.00 0.00 0.00 0.00 0.00 0.00 0.00 0.00 0.00 0.00 0.00 0.00 0.00 0.00 0.00 0.00 0.00 0.00 0.00 0.00 0.00 0.00 0.02 0.05 0.03 0.02 0.00 0.00 0.00 0.00 0.00 0.00 0.03 0.07 0.06 0.02 0.00 0.00 0.00 0.00 0.00 0.00 0.00 0.00 0.00 0.00
0.00 0.00 0.00 0.00 0.00 0.00 0.00 0.00 0.00 0.00 0.00 0.00 0.00 0.00 0.00 0.00 0.00 0.00 0.00 0.00 0.00 0.00 0.00 0.00 0.00 0.01 0.02 0.01 0.00 0.00 0.00 0.00 0.00 0.00 0.00 0.03 0.07 0.08 0.06 0.00 0.00 0.00 0.00 0.00 0.00 0.00 0.00 0.00 0.00
0.00 0.00 0.00 0.00 0.00 0.00 0.00 0.00 0.00 0.00 0.00 0.00 0.00 0.00 0.00 0.00 0.00 0.00 0.00 0.00 0.00 0.00 0.00 0.00 0.00 0.01 0.02 0.01 0.00 0.00 0.00 0.00 0.00 0.00 0.00 0.02 0.04 0.06 0.09 0.02 0.00 0.00 0.00 0.00 0.00 0.00 0.01 0.01 0.01
0.00 0.00 0.00 0.00 0.00 0.00 0.00 0.00 0.00 0.00 0.00 0.00 0.00 0.00 0.00 0.00 0.00 0.00 0.00 0.00 0.00 0.00 0.00 0.00 0.00 0.01 0.01 0.01 0.01 0.00 0.00 0.00 0.00 0.00 0.00 0.00 0.00 0.01 0.02 0.01 0.00 0.01 0.01 0.00 0.01 0.02 0.02 0.02 0.01
0.00 0.00 0.00 0.00 0.00 0.00 0.00 0.00 0.00 0.00 0.00 0.00 0.00 0.00 0.00 0.00 0.00 0.00 0.00 0.00 0.00 0.00 0.00 0.00 0.00 0.00 0.00 0.00 0.01 0.01 0.01 0.00 0.00 0.00 0.00 0.00 0.00 0.00 0.00 0.00 0.00 0.00 0.00 0.00 0.01 0.02 0.01 0.01 0.01
0.00 0.00 0.00 0.00 0.00 0.00 0.00 0.00 0.00 0.00 0.00 0.00 0.00 0.00 0.00 0.00 0.00 0.00 0.00 0.00 0.00 0.00 0.00 0.00 0.00 0.00 0.00 0.00 0.00 0.01 0.01 0.01 0.00 0.00 0.00 0.00 0.00 0.00 0.00 0.00 0.00 0.00 0.00 0.00 0.00 0.00 0.01 0.01 0.00
0.00 0.00 0.00 0.00 0.00 0.00 0.00 0.00 0.00 0.00 0.00 0.00 0.00 0.00 0.00 0.00 0.00 0.00 0.00 0.00 0.00 0.00 0.00 0.00 0.00 0.00 0.00 0.00 0.00 0.00 0.00 0.00 0.00 0.00 0.00 0.00 0.00 0.00 0.00 0.00 0.00 0.00 0.00 0.00 0.00 0.00 0.00 0.00 0.00
0.00 0.00 0.00 0.00 0.00 0.00 0.00 0.00 0.00 0.00 0.00 0.00 0.00 0.00 0.00 0.00 0.00 0.00 0.00 0.00 0.00 0.00 0.00 0.00 0.00 0.00 0.00 0.00 0.00 0.00 0.00 0.00 0.00 0.00 0.00 0.00 0.00 0.00 0.00 0.00 0.00 0.00 0.00 0.00 0.00 0.00 0.00 0.00 0.00
0.00 0.00 0.00 0.00 0.00 0.00 0.00 0.00 0.00 0.00 0.00 0.00 0.00 0.00 0.00 0.00 0.00 0.00 0.00 0.00 0.00 0.00 0.00 0.00 0.00 0.00 0.00 0.00 0.00 0.00 0.00 0.00 0.00 0.00 0.00 0.00 0.00 0.00 0.00 0.00 0.00 0.00 0.00 0.00 0.00 0.00 0.00 0.00 0.00
0.00 0.00 0.00 0.00 0.00 0.00 0.00 0.00 0.00 0.00 0.00 0.00 0.00 0.00 0.00 0.00 0.00 0.00 0.00 0.00 0.00 0.00 0.00 0.00 0.00 0.00 0.00 0.00 0.00 0.00 0.00 0.00 0.00 0.00 0.00 0.00 0.00 0.00 0.00 0.00 0.00 0.00 0.00 0.00 0.00 0.00 0.00 0.00 0.00
0.00 0.00 0.00 0.00 0.00 0.00 0.00 0.00 0.00 0.00 0.00 0.00 0.00 0.00 0.00 0.00 0.00 0.00 0.00 0.00 0.00 0.00 0.00 0.00 0.00 0.00 0.00 0.00 0.00 0.00 0.00 0.00 0.00 0.00 0.00 0.00 0.00 0.00 0.00 0.00 0.00 0.00 0.00 0.00 0.00 0.00 0.00 0.00 0.00
0.00 0.01 0.00 0.00 0.00 0.00 0.00 0.00 0.00 0.00 0.00 0.00 0.00 0.00 0.00 0.00 0.00 0.00 0.00 0.00 0.00 0.00 0.00 0.00 0.00 0.00 0.00 0.00 0.00 0.00 0.00 0.00 0.00 0.00 0.00 0.00 0.00 0.00 0.00 0.00 0.00 0.00 0.00 0.00 0.00 0.00 0.00 0.00 0.00
0.03 0.04 0.01 0.00 0.00 0.00 0.01 0.00 0.00 0.00 0.00 0.00 0.00 0.00 0.00 0.00 0.00 0.00 0.00 0.00 0.00 0.00 0.00 0.00 0.00 0.00 0.00 0.00 0.00 0.00 0.00 0.00 0.00 0.00 0.00 0.00 0.00 0.00 0.00 0.00 0.00 0.00 0.00 0.00 0.00 0.00 0.00 0.00 0.00
0.07 0.03 0.01 0.00 0.00 0.00 0.00 0.00 0.00 0.00 0.00 0.00 0.00 0.00 0.00 0.00 0.00 0.00 0.00 0.00 0.00 0.00 0.00 0.00 0.00 0.00 0.00 0.00 0.00 0.00 0.00 0.00 0.00 0.00 0.00 0.00 0.00 0.00 0.00 0.00 0.00 0.00 0.00 0.00 0.00 0.00 0.00 0.00 0.00
0.02 0.01 0.00 0.00 0.00 0.00 0.00 0.00 0.00 0.00 0.00 0.00 0.00 0.00 0.00 0.00 0.00 0.00 0.00 0.00 0.00 0.00 0.00 0.00 0.00 0.00 0.00 0.00 0.00 0.00 0.00 0.00 0.00 0.00 0.00 0.00 0.00 0.00 0.00 0.00 0.00 0.00 0.00 0.00 0.00 0.00 0.00 0.00 0.00
0.01 0.02 0.01 0.00 0.00 0.00 0.00 0.00 0.00 0.00 0.00 0.00 0.00 0.00 0.00 0.00 0.00 0.00 0.00 0.00 0.00 0.00 0.00 0.00 0.00 0.00 0.00 0.00 0.00 0.00 0.00 0.00 0.00 0.00 0.00 0.00 0.00 0.00 0.00 0.00 0.00 0.00 0.00 0.00 0.00 0.00 0.00 0.00 0.00
0.04 0.04 0.04 0.01 0.00 0.01 0.00 0.00 0.00 0.00 0.00 0.00 0.00 0.00 0.00 0.00 0.00 0.00 0.00 0.00 0.00 0.00 0.00 0.00 0.00 0.00 0.00 0.00 0.00 0.00 0.00 0.00 0.00 0.00 0.00 0.00 0.00 0.00 0.00 0.00 0.00 0.00 0.00 0.00 0.00 0.00 0.00 0.00 0.00
0.13 0.04 0.03 0.03 0.01 0.01 0.01 0.00 0.00 0.00 0.00 0.00 0.00 0.00 0.00 0.00 0.00 0.00 0.00 0.00 0.00 0.00 0.00 0.00 0.00 0.00 0.00 0.00 0.00 0.00 0.00 0.00 0.00 0.00 0.00 0.00 0.00 0.00 0.00 0.00 0.00 0.00 0.00 0.00 0.00 0.00 0.00 0.00 0.00
0.16 0.07 0.01 0.05 0.10 0.07 0.04 0.02 0.00 0.00 0.00 0.00 0.00 0.00 0.00 0.00 0.00 0.00 0.00 0.00 0.00 0.00 0.00 0.00 0.00 0.00 0.00 0.00 0.00 0.00 0.00 0.00 0.00 0.00 0.00 0.00 0.00 0.00 0.00 0.00 0.00 0.00 0.00 0.00 0.00 0.00 0.00 0.00 0.01
0.16 0.10 0.03 0.08 0.16 0.16 0.11 0.07 0.01 0.00 0.00 0.00 0.00 0.00 0.00 0.00 0.00 0.00 0.00 0.00 0.00 0.00 0.00 0.00 0.00 0.00 0.00 0.00 0.00 0.00 0.00 0.00 0.00 0.00 0.00 0.00 0.00 0.00 0.00 0.00 0.00 0.00 0.00 0.00 0.00 0.00 0.00 0.00 0.00
0.17 0.20 0.19 0.12 0.34 0.34 0.11 0.14 0.07 0.00 0.00 0.00 0.00 0.00 0.00 0.00 0.00 0.00 0.00 0.00 0.00 0.00 0.00 0.00 0.00 0.00 0.00 0.00 0.00 0.00 0.00 0.00 0.00 0.00 0.00 0.00 0.00 0.00 0.00 0.00 0.00 0.00 0.00 0.00 0.00 0.00 0.00 0.00 0.00
0.55 0.61 0.77 0.49 0.44 0.38 0.07 0.06 0.07 0.00 0.00 0.00 0.00 0.00 0.00 0.00 0.00 0.00 0.00 0.00 0.00 0.00 0.00 0.00 0.00 0.00 0.00 0.00 0.00 0.00 0.00 0.00 0.00 0.00 0.00 0.00 0.00 0.00 0.00 0.00 0.00 0.00 0.00 0.00 0.00 0.00 0.00 0.00 0.00
0.58 0.75 0.67 0.30 0.14 0.12 0.05 0.11 0.02 0.00 0.00 0.00 0.00 0.00 0.00 0.00 0.00 0.00 0.00 0.00 0.00 0.00 0.00 0.00 0.00 0.00 0.00 0.00 0.00 0.00 0.00 0.00 0.00 0.00 0.00 0.00 0.00 0.00 0.00 0.00 0.00 0.00 0.00 0.00 0.00 0.00 0.00 0.00 0.00
0.58 0.73 0.40 0.31 0.11 0.10 0.09 0.01 0.00 0.00 0.00 0.00 0.00 0.00 0.00 0.00 0.00 0.00 0.00 0.00 0.00 0.00 0.00 0.00 0.00 0.00 0.00 0.00 0.00 0.00 0.00 0.00 0.00 0.00 0.00 0.00 0.00 0.00 0.00 0.00 0.00 0.00 0.00 0.00 0.00 0.00 0.00 0.00 0.00
0.55 0.34 0.43 0.70 0.36 0.15 0.09 0.03 0.00 0.00 0.00 0.00 0.00 0.00 0.00 0.00 0.00 0.00 0.00 0.00 0.00 0.00 0.00 0.00 0.00 0.00 0.00 0.00 0.00 0.00 0.00 0.00 0.00 0.00 0.00 0.00 0.00 0.00 0.00 0.00 0.00 0.00 0.00 0.00 0.00 0.00 0.00 0.00 0.00
0.71 0.79 0.41 0.34 0.21 0.25 0.05 0.02 0.00 0.00 0.00 0.00 0.00 0.00 0.00 0.00 0.00 0.00 0.00 0.00 0.00 0.00 0.00 0.00 0.00 0.00 0.00 0.00 0.00 0.00 0.00 0.00 0.00 0.00 0.00 0.00 0.00 0.00 0.00 0.00 0.00 0.00 0.00 0.00 0.00 0.00 0.00 0.00 0.00
0.34 0.35 0.26 0.39 0.19 0.20 0.17 0.02 0.00 0.00 0.00 0.00 0.01 0.02 0.01 0.00 0.00 0.00 0.00 0.00 0.00 0.00 0.00 0.00 0.00 0.00 0.00 0.00 0.00 0.00 0.00 0.00 0.00 0.00 0.00 0.00 0.00 0.00 0.00 0.00 0.00 0.00 0.00 0.00 0.00 0.00 0.00 0.00 0.00

GFSSGP_prec_precacc24_030.txt.gz
Total_Precipitation_Accumulation
0.00 0.00 0.00 0.00 0.00 0.00 0.00 0.00 0.00 0.00 0.00 0.00 0.00 0.00 0.00 0.00 0.00 0.00 0.00 0.00 0.00 0.00 0.00 0.01 0.03 0.05 0.05 0.05 0.03 0.01 0.00 0.00 0.00 0.00 0.00 0.02 0.00 0.00 0.00 0.00 0.00 0.00 0.00 0.00 0.00 0.00 0.00 0.00 0.00
0.00 0.00 0.00 0.00 0.00 0.00 0.00 0.00 0.00 0.00 0.00 0.00 0.00 0.00 0.00 0.00 0.00 0.00 0.00 0.00 0.00 0.00 0.00 0.00 0.02 0.03 0.04 0.07 0.03 0.00 0.00 0.00 0.00 0.00 0.00 0.01 0.01 0.00 0.00 0.00 0.00 0.00 0.00 0.00 0.00 0.00 0.00 0.00 0.00
0.00 0.00 0.00 0.00 0.00 0.00 0.00 0.00 0.00 0.00 0.00 0.00 0.00 0.00 0.00 0.00 0.00 0.00 0.00 0.00 0.00 0.00 0.00 0.00 0.00 0.01 0.05 0.06 0.03 0.01 0.00 0.00 0.00 0.00 0.00 0.02 0.03 0.01 0.00 0.00 0.00 0.00 0.00 0.00 0.00 0.00 0.00 0.00 0.00
0.00 0.00 0.00 0.00 0.00 0.00 0.00 0.00 0.00 0.00 0.00 0.00 0.00 0.00 0.00 0.00 0.00 0.00 0.00 0.00 0.00 0.00 0.00 0.00 0.00 0.02 0.06 0.04 0.02 0.00 0.00 0.00 0.00 0.00 0.00 0.02 0.06 0.06 0.02 0.00 0.00 0.00 0.00 0.00 0.00 0.00 0.00 0.00 0.00
0.00 0.00 0.00 0.00 0.00 0.00 0.00 0.00 0.00 0.00 0.00 0.00 0.00 0.00 0.00 0.00 0.00 0.00 0.00 0.00 0.00 0.00 0.00 0.00 0.00 0.01 0.03 0.02 0.00 0.00 0.00 0.00 0.00 0.00 0.00 0.01 0.06 0.09 0.06 0.00 0.00 0.00 0.00 0.00 0.00 0.00 0.00 0.00 0.00
0.00 0.00 0.00 0.00 0.00 0.00 0.00 0.00 0.00 0.00 0.00 0.00 0.00 0.00 0.00 0.00 0.00 0.00 0.00 0.00 0.00 0.00 0.00 0.00 0.00 0.01 0.02 0.01 0.00 0.00 0.00 0.00 0.00 0.00 0.00 0.01 0.03 0.06 0.10 0.02 0.00 0.00 0.00 0.00 0.00 0.00 0.01 0.01 0.01
0.00 0.00 0.00 0.00 0.00 0.00 0.00 0.00 0.00 0.00 0.00 0.00 0.00 0.00 0.00 0.00 0.00 0.00 0.00 0.00 0.00 0.00 0.00 0.00 0.00 0.00 0.01 0.01 0.01 0.00 0.00 0.00 0.00 0.00 0.00 0.00 0.00 0.01 0.03 0.01 0.00 0.01 0.01 0.00 0.01 0.02 0.02 0.02 0.01
0.00 0.00 0.00 0.00 0.00 0.00 0.00 0.00 0.00 0.00 0.00 0.00 0.00 0.00 0.00 0.00 0.00 0.00 0.00 0.00 0.00 0.00 0.00 0.00 0.00 0.00 0.00 0.00 0.01 0.01 0.01 0.00 0.00 0.00 0.00 0.00 0.00 0.00 0.00 0.00 0.00 0.00 0.00 0.00 0.00 0.01 0.01 0.01 0.01
0.00 0.00 0.00 0.00 0.00 0.00 0.00 0.00 0.00 0.00 0.00 0.00 0.00 0.00 0.00 0.00 0.00 0.00 0.00 0.00 0.00 0.00 0.00 0.00 0.00 0.00 0.00 0.00 0.00 0.00 0.01 0.01 0.00 0.00 0.00 0.00 0.00 0.00 0.00 0.00 0.00 0.00 0.00 0.00 0.00 0.00 0.01 0.01 0.00
0.00 0.00 0.00 0.00 0.00 0.00 0.00 0.00 0.00 0.00 0.00 0.00 0.00 0.00 0.00 0.00 0.00 0.00 0.00 0.00 0.00 0.00 0.00 0.00 0.00 0.00 0.00 0.00 0.00 0.00 0.00 0.00 0.00 0.00 0.00 0.00 0.00 0.00 0.00 0.00 0.00 0.00 0.00 0.00 0.00 0.00 0.00 0.00 0.00
0.00 0.00 0.00 0.00 0.00 0.00 0.00 0.00 0.00 0.00 0.00 0.00 0.00 0.00 0.00 0.00 0.00 0.00 0.00 0.00 0.00 0.00 0.00 0.00 0.00 0.00 0.00 0.00 0.00 0.00 0.00 0.00 0.00 0.00 0.00 0.00 0.00 0.00 0.00 0.00 0.00 0.00 0.00 0.00 0.00 0.00 0.00 0.00 0.00
0.00 0.00 0.00 0.00 0.00 0.00 0.00 0.00 0.00 0.00 0.00 0.00 0.00 0.00 0.00 0.00 0.00 0.00 0.00 0.00 0.00 0.00 0.00 0.00 0.00 0.00 0.00 0.00 0.00 0.00 0.00 0.00 0.00 0.00 0.00 0.00 0.00 0.00 0.00 0.00 0.00 0.00 0.00 0.00 0.00 0.00 0.00 0.00 0.00
0.00 0.00 0.00 0.00 0.00 0.00 0.00 0.00 0.00 0.00 0.00 0.00 0.00 0.00 0.00 0.00 0.00 0.00 0.00 0.00 0.00 0.00 0.00 0.00 0.00 0.00 0.00 0.00 0.00 0.00 0.00 0.00 0.00 0.00 0.00 0.00 0.00 0.00 0.00 0.00 0.00 0.00 0.00 0.00 0.00 0.00 0.00 0.00 0.00
0.00 0.00 0.00 0.00 0.00 0.00 0.00 0.00 0.00 0.00 0.00 0.00 0.00 0.00 0.00 0.00 0.00 0.00 0.00 0.00 0.00 0.00 0.00 0.00 0.00 0.00 0.00 0.00 0.00 0.00 0.00 0.00 0.00 0.00 0.00 0.00 0.00 0.00 0.00 0.00 0.00 0.00 0.00 0.00 0.00 0.00 0.00 0.00 0.00
0.00 0.01 0.00 0.00 0.00 0.00 0.00 0.00 0.00 0.00 0.00 0.00 0.00 0.00 0.00 0.00 0.00 0.00 0.00 0.00 0.00 0.00 0.00 0.00 0.00 0.00 0.00 0.00 0.00 0.00 0.00 0.00 0.00 0.00 0.00 0.00 0.00 0.00 0.00 0.00 0.00 0.00 0.00 0.00 0.00 0.00 0.00 0.00 0.00
0.03 0.04 0.01 0.00 0.00 0.00 0.01 0.00 0.00 0.00 0.00 0.00 0.00 0.00 0.00 0.00 0.00 0.00 0.00 0.00 0.00 0.00 0.00 0.00 0.00 0.00 0.00 0.00 0.00 0.00 0.00 0.00 0.00 0.00 0.00 0.00 0.00 0.00 0.00 0.00 0.00 0.00 0.00 0.00 0.00 0.00 0.00 0.00 0.00
0.08 0.03 0.01 0.00 0.00 0.00 0.00 0.00 0.00 0.00 0.00 0.00 0.00 0.00 0.00 0.00 0.00 0.00 0.00 0.00 0.00 0.00 0.00 0.00 0.00 0.00 0.00 0.00 0.00 0.00 0.00 0.00 0.00 0.00 0.00 0.00 0.00 0.00 0.00 0.00 0.00 0.00 0.00 0.00 0.00 0.00 0.00 0.00 0.00
0.02 0.01 0.00 0.00 0.00 0.00 0.00 0.00 0.00 0.00 0.00 0.00 0.00 0.00 0.00 0.00 0.00 0.00 0.00 0.00 0.00 0.00 0.00 0.00 0.00 0.00 0.00 0.00 0.00 0.00 0.00 0.00 0.00 0.00 0.00 0.00 0.00 0.00 0.00 0.00 0.00 0.00 0.00 0.00 0.00 0.00 0.00 0.00 0.00
0.01 0.02 0.01 0.00 0.00 0.00 0.00 0.00 0.00 0.00 0.00 0.00 0.00 0.00 0.00 0.00 0.00 0.00 0.00 0.00 0.00 0.00 0.00 0.00 0.00 0.00 0.00 0.00 0.00 0.00 0.00 0.00 0.00 0.00 0.00 0.00 0.00 0.00 0.00 0.00 0.00 0.00 0.00 0.00 0.00 0.00 0.00 0.00 0.00
0.04 0.04 0.04 0.01 0.00 0.01 0.00 0.00 0.00 0.00 0.00 0.00 0.00 0.00 0.00 0.00 0.00 0.00 0.00 0.00 0.00 0.00 0.00 0.00 0.00 0.00 0.00 0.00 0.00 0.00 0.00 0.00 0.00 0.00 0.00 0.00 0.00 0.00 0.00 0.00 0.00 0.00 0.00 0.00 0.00 0.00 0.00 0.00 0.00
0.13 0.04 0.03 0.03 0.01 0.01 0.01 0.00 0.00 0.00 0.00 0.00 0.00 0.00 0.00 0.00 0.00 0.00 0.00 0.00 0.00 0.00 0.00 0.00 0.00 0.00 0.00 0.00 0.00 0.00 0.00 0.00 0.00 0.00 0.00 0.00 0.00 0.00 0.00 0.00 0.00 0.00 0.00 0.00 0.00 0.00 0.00 0.00 0.00
0.15 0.07 0.01 0.05 0.10 0.08 0.04 0.02 0.00 0.00 0.00 0.00 0.00 0.00 0.00 0.00 0.00 0.00 0.00 0.00 0.00 0.00 0.00 0.00 0.00 0.00 0.00 0.00 0.00 0.00 0.00 0.00 0.00 0.00 0.00 0.00 0.00 0.00 0.00 0.00 0.00 0.00 0.00 0.00 0.00 0.00 0.00 0.00 0.00
0.16 0.10 0.03 0.09 0.16 0.16 0.11 0.07 0.01 0.00 0.00 0.00 0.00 0.00 0.00 0.00 0.00 0.00 0.00 0.00 0.00 0.00 0.00 0.00 0.00 0.00 0.00 0.00 0.00 0.00 0.00 0.00 0.00 0.00 0.00 0.00 0.00 0.00 0.00 0.00 0.00 0.00 0.00 0.00 0.00 0.00 0.00 0.00 0.00
0.17 0.20 0.20 0.14 0.36 0.36 0.11 0.14 0.07 0.00 0.00 0.00 0.00 0.00 0.00 0.00 0.00 0.00 0.00 0.00 0.00 0.00 0.00 0.00 0.00 0.00 0.00 0.00 0.00 0.00 0.00 0.00 0.00 0.00 0.00 0.00 0.00 0.00 0.00 0.00 0.00 0.00 0.00 0.00 0.00 0.00 0.00 0.00 0.00
0.55 0.67 0.85 0.56 0.50 0.40 0.07 0.06 0.07 0.00 0.00 0.00 0.00 0.00 0.00 0.00 0.00 0.00 0.00 0.00 0.00 0.00 0.00 0.00 0.00 0.00 0.00 0.00 0.00 0.00 0.00 0.00 0.00 0.00 0.00 0.00 0.00 0.00 0.00 0.00 0.00 0.00 0.00 0.00 0.00 0.00 0.00 0.00 0.00
0.57 0.78 0.78 0.33 0.15 0.12 0.05 0.11 0.02 0.00 0.00 0.00 0.00 0.00 0.00 0.00 0.00 0.00 0.00 0.00 0.00 0.00 0.00 0.00 0.00 0.00 0.00 0.00 0.00 0.00 0.00 0.00 0.00 0.00 0.00 0.00 0.00 0.00 0.00 0.00 0.00 0.00 0.00 0.00 0.00 0.00 0.00 0.00 0.00
0.61 0.82 0.47 0.40 0.18 0.16 0.09 0.01 0.00 0.00 0.00 0.00 0.00 0.00 0.00 0.00 0.00 0.00 0.00 0.00 0.00 0.00 0.00 0.00 0.00 0.00 0.00 0.00 0.00 0.00 0.00 0.00 0.00 0.00 0.00 0.00 0.00 0.00 0.00 0.00 0.00 0.00 0.00 0.00 0.00 0.00 0.00 0.00 0.00
0.58 0.36 0.48 0.88 0.47 0.17 0.09 0.03 0.00 0.00 0.00 0.00 0.00 0.00 0.00 0.00 0.00 0.00 0.00 0.00 0.00 0.00 0.00 0.00 0.00 0.00 0.00 0.00 0.00 0.00 0.00 0.00 0.00 0.00 0.00 0.00 0.00 0.00 0.00 0.00 0.00 0.00 0.00 0.00 0.00 0.00 0.00 0.00 0.00
0.71 0.84 0.45 0.36 0.21 0.25 0.05 0.02 0.00 0.00 0.00 0.00 0.00 0.00 0.00 0.00 0.00 0.00 0.00 0.00 0.00 0.00 0.00 0.00 0.00 0.00 0.00 0.00 0.00 0.00 0.00 0.00 0.00 0.00 0.00 0.00 0.00 0.00 0.00 0.00 0.00 0.00 0.00 0.00 0.00 0.00 0.00 0.00 0.00
0.34 0.35 0.26 0.39 0.19 0.20 0.17 0.02 0.00 0.00 0.00 0.00 0.01 0.02 0.01 0.00 0.00 0.00 0.00 0.00 0.00 0.00 0.00 0.00 0.00 0.00 0.00 0.00 0.00 0.00 0.00 0.00 0.00 0.00 0.00 0.00 0.00 0.00 0.00 0.00 0.00 0.00 0.00 0.00 0.00 0.00 0.00 0.00 0.00

GFSSGP_prec_precacc24_033.txt.gz
Total_Precipitation_Accumulation
0.00 0.00 0.00 0.00 0.00 0.00 0.00 0.00 0.00 0.00 0.00 0.00 0.00 0.00 0.00 0.00 0.00 0.00 0.00 0.00 0.00 0.00 0.00 0.01 0.02 0.05 0.03 0.05 0.03 0.01 0.00 0.00 0.00 0.00 0.00 0.03 0.01 0.00 0.00 0.00 0.00 0.00 0.00 0.00 0.00 0.01 0.00 0.00 0.00
0.00 0.00 0.00 0.00 0.00 0.00 0.00 0.00 0.00 0.00 0.00 0.00 0.00 0.00 0.00 0.00 0.00 0.00 0.00 0.00 0.00 0.00 0.00 0.00 0.02 0.03 0.03 0.06 0.02 0.00 0.00 0.00 0.00 0.00 0.01 0.02 0.01 0.00 0.00 0.00 0.00 0.00 0.00 0.00 0.00 0.00 0.00 0.00 0.00
0.00 0.00 0.00 0.00 0.00 0.00 0.00 0.00 0.00 0.00 0.00 0.00 0.00 0.00 0.00 0.00 0.00 0.00 0.00 0.00 0.00 0.00 0.00 0.00 0.00 0.02 0.04 0.04 0.01 0.00 0.00 0.00 0.00 0.00 0.00 0.01 0.02 0.01 0.00 0.00 0.00 0.00 0.00 0.00 0.00 0.00 0.00 0.00 0.00
0.00 0.00 0.00 0.00 0.00 0.00 0.00 0.00 0.00 0.00 0.00 0.00 0.00 0.00 0.00 0.00 0.00 0.00 0.00 0.00 0.00 0.00 0.00 0.00 0.00 0.01 0.05 0.03 0.01 0.00 0.00 0.00 0.00 0.00 0.00 0.00 0.04 0.06 0.02 0.00 0.00 0.00 0.00 0.00 0.00 0.00 0.00 0.00 0.00
0.00 0.00 0.00 0.00 0.00 0.00 0.00 0.00 0.00 0.00 0.00 0.00 0.00 0.00 0.00 0.00 0.00 0.00 0.00 0.00 0.00 0.00 0.00 0.00 0.00 0.01 0.03 0.02 0.00 0.00 0.00 0.00 0.00 0.00 0.00 0.01 0.04 0.09 0.07 0.00 0.00 0.00 0.00 0.00 0.00 0.00 0.00 0.00 0.00
0.00 0.00 0.00 0.00 0.00 0.00 0.00 0.00 0.00 0.00 0.00 0.00 0.00 0.00 0.00 0.00 0.00 0.00 0.00 0.00 0.00 0.00 0.00 0.00 0.00 0.01 0.02 0.01 0.00 0.00 0.00 0.00 0.00 0.00 0.00 0.00 0.03 0.07 0.12 0.03 0.00 0.00 0.00 0.00 0.00 0.00 0.01 0.01 0.01
0.00 0.00 0.00 0.00 0.00 0.00 0.00 0.00 0.00 0.00 0.00 0.00 0.00 0.00 0.00 0.00 0.00 0.00 0.00 0.00 0.00 0.00 0.00 0.00 0.00 0.00 0.00 0.01 0.01 0.00 0.00 0.00 0.00 0.00 0.00 0.00 0.01 0.00 0.05 0.03 0.01 0.01 0.01 0.00 0.00 0.01 0.02 0.02 0.01
0.00 0.00 0.00 0.00 0.00 0.00 0.00 0.00 0.00 0.00 0.00 0.00 0.00 0.00 0.00 0.00 0.00 0.00 0.00 0.00 0.00 0.00 0.00 0.00 0.00 0.00 0.00 0.00 0.00 0.00 0.01 0.00 0.00 0.00 0.00 0.00 0.00 0.00 0.01 0.01 0.00 0.00 0.00 0.00 0.00 0.00 0.01 0.01 0.00
0.00 0.00 0.00 0.00 0.00 0.00 0.00 0.00 0.00 0.00 0.00 0.00 0.00 0.00 0.00 0.00 0.00 0.00 0.00 0.00 0.00 0.00 0.00 0.00 0.00 0.00 0.00 0.00 0.00 0.00 0.01 0.01 0.00 0.00 0.00 0.00 0.00 0.00 0.00 0.00 0.00 0.00 0.01 0.00 0.00 0.00 0.00 0.00 0.00
0.00 0.00 0.00 0.00 0.00 0.00 0.00 0.00 0.00 0.00 0.00 0.00 0.00 0.00 0.00 0.00 0.00 0.00 0.00 0.00 0.00 0.00 0.00 0.00 0.00 0.00 0.00 0.00 0.00 0.00 0.00 0.00 0.00 0.00 0.00 0.00 0.00 0.00 0.00 0.00 0.00 0.00 0.00 0.00 0.00 0.00 0.00 0.00 0.00
0.00 0.00 0.00 0.00 0.00 0.00 0.00 0.00 0.00 0.00 0.00 0.00 0.00 0.00 0.00 0.00 0.00 0.00 0.00 0.00 0.00 0.00 0.00 0.00 0.00 0.00 0.00 0.00 0.00 0.00 0.00 0.00 0.00 0.00 0.00 0.00 0.00 0.00 0.00 0.00 0.00 0.00 0.00 0.00 0.00 0.00 0.00 0.00 0.00
0.00 0.00 0.00 0.00 0.00 0.00 0.00 0.00 0.00 0.00 0.00 0.00 0.00 0.00 0.00 0.00 0.00 0.00 0.00 0.00 0.00 0.00 0.00 0.00 0.00 0.00 0.00 0.00 0.00 0.00 0.00 0.00 0.00 0.00 0.00 0.00 0.00 0.00 0.00 0.00 0.00 0.00 0.00 0.00 0.00 0.00 0.00 0.00 0.00
0.00 0.00 0.00 0.00 0.00 0.00 0.00 0.00 0.00 0.00 0.00 0.00 0.00 0.00 0.00 0.00 0.00 0.00 0.00 0.00 0.00 0.00 0.00 0.00 0.00 0.00 0.00 0.00 0.00 0.00 0.00 0.00 0.00 0.00 0.00 0.00 0.00 0.00 0.00 0.00 0.00 0.00 0.00 0.00 0.00 0.00 0.00 0.00 0.00
0.00 0.00 0.00 0.00 0.00 0.00 0.00 0.00 0.00 0.00 0.00 0.00 0.00 0.00 0.00 0.00 0.00 0.00 0.00 0.00 0.00 0.00 0.00 0.00 0.00 0.00 0.00 0.00 0.00 0.00 0.00 0.00 0.00 0.00 0.00 0.00 0.00 0.00 0.00 0.00 0.00 0.00 0.00 0.00 0.00 0.00 0.00 0.00 0.00
0.00 0.01 0.00 0.00 0.00 0.00 0.00 0.00 0.00 0.00 0.00 0.00 0.00 0.00 0.00 0.00 0.00 0.00 0.00 0.00 0.00 0.00 0.00 0.00 0.00 0.00 0.00 0.00 0.00 0.00 0.00 0.00 0.00 0.00 0.00 0.00 0.00 0.00 0.00 0.00 0.00 0.00 0.00 0.00 0.00 0.00 0.00 0.00 0.00
0.03 0.04 0.01 0.00 0.00 0.00 0.01 0.00 0.00 0.00 0.00 0.00 0.00 0.00 0.00 0.00 0.00 0.00 0.00 0.00 0.00 0.00 0.00 0.00 0.00 0.00 0.00 0.00 0.00 0.00 0.00 0.00 0.00 0.00 0.00 0.00 0.00 0.00 0.00 0.00 0.00 0.00 0.00 0.00 0.00 0.00 0.00 0.00 0.00
0.07 0.03 0.01 0.00 0.00 0.00 0.00 0.00 0.00 0.00 0.00 0.00 0.00 0.00 0.00 0.00 0.00 0.00 0.00 0.00 0.00 0.00 0.00 0.00 0.00 0.00 0.00 0.00 0.00 0.00 0.00 0.00 0.00 0.00 0.00 0.00 0.00 0.00 0.00 0.00 0.00 0.00 0.00 0.00 0.00 0.00 0.00 0.00 0.00
0.02 0.01 0.00 0.00 0.00 0.00 0.00 0.00 0.00 0.00 0.00 0.00 0.00 0.00 0.00 0.00 0.00 0.00 0.00 0.00 0.00 0.00 0.00 0.00 0.00 0.00 0.00 0.00 0.00 0.00 0.02 0.02 0.01 0.00 0.00 0.00 0.00 0.00 0.00 0.00 0.00 0.00 0.00 0.00 0.00 0.00 0.00 0.00 0.00
0.01 0.02 0.01 0.00 0.00 0.00 0.00 0.00 0.00 0.00 0.00 0.00 0.00 0.00 0.00 0.00 0.00 0.00 0.00 0.00 0.00 0.00 0.00 0.00 0.00 0.00 0.00 0.00 0.00 0.01 0.06 0.04 0.01 0.00 0.00 0.00 0.00 0.00 0.00 0.00 0.00 0.00 0.00 0.00 0.00 0.00 0.00 0.00 0.00
0.04 0.04 0.04 0.01 0.00 0.01 0.00 0.00 0.00 0.00 0.00 0.00 0.00 0.00 0.00 0.00 0.00 0.00 0.00 0.00 0.00 0.00 0.00 0.00 0.00 0.00 0.00 0.00 0.00 0.02 0.07 0.04 0.01 0.00 0.00 0.00 0.00 0.00 0.00 0.00 0.00 0.00 0.00 0.00 0.00 0.00 0.00 0.00 0.00
0.13 0.04 0.03 0.03 0.01 0.01 0.01 0.00 0.00 0.00 0.00 0.00 0.00 0.00 0.00 0.00 0.00 0.00 0.00 0.00 0.00 0.00 0.00 0.00 0.00 0.00 0.00 0.00 0.00 0.01 0.03 0.02 0.01 0.00 0.00 0.00 0.00 0.00 0.00 0.00 0.00 0.00 0.00 0.00 0.00 0.00 0.00 0.00 0.00
0.15 0.07 0.01 0.05 0.10 0.08 0.04 0.02 0.00 0.00 0.00 0.00 0.00 0.00 0.00 0.00 0.00 0.00 0.00 0.00 0.00 0.00 0.00 0.00 0.00 0.00 0.00 0.00 0.00 0.00 0.03 0.03 0.01 0.00 0.00 0.00 0.00 0.00 0.00 0.00 0.00 0.00 0.00 0.00 0.00 0.00 0.00 0.00 0.00
0.16 0.10 0.03 0.09 0.16 0.17 0.11 0.07 0.01 0.00 0.00 0.00 0.00 0.00 0.00 0.00 0.00 0.00 0.00 0.00 0.00 0.00 0.00 0.00 0.00 0.00 0.00 0.00 0.00 0.00 0.02 0.02 0.00 0.00 0.00 0.00 0.00 0.00 0.00 0.00 0.00 0.00 0.00 0.00 0.00 0.00 0.00 0.00 0.00
0.18 0.20 0.19 0.15 0.39 0.40 0.11 0.14 0.07 0.00 0.00 0.00 0.00 0.00 0.00 0.00 0.00 0.00 0.00 0.00 0.00 0.00 0.00 0.00 0.00 0.00 0.00 0.00 0.00 0.00 0.01 0.00 0.00 0.00 0.00 0.00 0.00 0.00 0.00 0.00 0.00 0.00 0.00 0.00 0.00 0.00 0.00 0.00 0.00
0.55 0.71 0.83 0.59 0.55 0.41 0.07 0.06 0.07 0.00 0.00 0.00 0.00 0.00 0.00 0.00 0.00 0.00 0.00 0.00 0.00 0.00 0.00 0.00 0.00 0.00 0.00 0.00 0.00 0.00 0.00 0.00 0.00 0.00 0.00 0.00 0.00 0.00 0.00 0.00 0.00 0.00 0.00 0.00 0.00 0.00 0.00 0.00 0.00
0.55 0.78 0.82 0.35 0.15 0.12 0.05 0.11 0.02 0.00 0.00 0.00 0.00 0.00 0.00 0.00 0.00 0.00 0.00 0.00 0.00 0.00 0.00 0.00 0.00 0.00 0.00 0.00 0.00 0.00 0.00 0.00 0.00 0.00 0.00 0.00 0.00 0.00 0.00 0.00 0.00 0.00 0.00 0.00 0.00 0.00 0.00 0.00 0.00
0.58 0.83 0.48 0.45 0.23 0.24 0.10 0.01 0.00 0.00 0.00 0.00 0.00 0.00 0.00 0.00 0.00 0.00 0.00 0.00 0.00 0.00 0.00 0.00 0.00 0.00 0.00 0.00 0.00 0.00 0.00 0.00 0.00 0.00 0.00 0.00 0.00 0.00 0.00 0.00 0.00 0.00 0.00 0.00 0.00 0.00 0.00 0.00 0.00
0.58 0.36 0.49 0.95 0.53 0.21 0.09 0.03 0.00 0.00 0.00 0.00 0.00 0.00 0.00 0.00 0.00 0.00 0.00 0.00 0.00 0.00 0.00 0.00 0.00 0.00 0.00 0.00 0.00 0.00 0.00 0.00 0.00 0.00 0.00 0.00 0.00 0.00 0.00 0.00 0.00 0.00 0.00 0.00 0.00 0.00 0.00 0.00 0.00
0.72 0.84 0.47 0.38 0.23 0.26 0.06 0.02 0.00 0.00 0.00 0.00 0.00 0.00 0.00 0.00 0.00 0.00 0.00 0.00 0.00 0.00 0.00 0.00 0.00 0.00 0.00 0.00 0.00 0.00 0.00 0.00 0.00 0.00 0.00 0.00 0.00 0.00 0.00 0.00 0.00 0.00 0.00 0.00 0.00 0.00 0.00 0.00 0.00
0.34 0.36 0.29 0.46 0.21 0.23 0.18 0.03 0.00 0.00 0.00 0.00 0.01 0.02 0.01 0.00 0.00 0.00 0.00 0.00 0.00 0.00 0.00 0.00 0.00 0.00 0.00 0.00 0.00 0.00 0.00 0.00 0.00 0.00 0.00 0.00 0.00 0.00 0.00 0.00 0.00 0.00 0.00 0.00 0.00 0.00 0.00 0.00 0.00

GFSSGP_prec_precacc24_036.txt.gz
Total_Precipitation_Accumulation
0.00 0.00 0.00 0.00 0.00 0.00 0.00 0.00 0.00 0.00 0.00 0.00 0.00 0.00 0.00 0.00 0.00 0.00 0.00 0.00 0.00 0.00 0.00 0.01 0.02 0.05 0.02 0.04 0.03 0.01 0.00 0.00 0.00 0.00 0.01 0.05 0.02 0.00 0.00 0.00 0.00 0.00 0.00 0.00 0.00 0.02 0.01 0.00 0.00
0.00 0.00 0.00 0.00 0.00 0.00 0.00 0.00 0.00 0.00 0.00 0.00 0.00 0.00 0.00 0.00 0.00 0.00 0.00 0.00 0.00 0.00 0.00 0.00 0.01 0.03 0.02 0.06 0.02 0.00 0.00 0.00 0.00 0.00 0.02 0.03 0.00 0.00 0.00 0.00 0.00 0.00 0.00 0.00 0.00 0.00 0.00 0.00 0.00
0.00 0.00 0.00 0.00 0.00 0.00 0.00 0.00 0.00 0.00 0.00 0.00 0.00 0.00 0.00 0.00 0.00 0.00 0.00 0.00 0.00 0.00 0.00 0.00 0.01 0.01 0.03 0.03 0.00 0.00 0.00 0.00 0.00 0.00 0.01 0.01 0.01 0.01 0.00 0.00 0.00 0.00 0.00 0.00 0.00 0.00 0.00 0.00 0.00
0.00 0.00 0.00 0.00 0.00 0.00 0.00 0.00 0.00 0.00 0.00 0.00 0.00 0.00 0.00 0.00 0.00 0.00 0.00 0.00 0.00 0.00 0.00 0.00 0.01 0.01 0.04 0.02 0.01 0.00 0.00 0.00 0.00 0.00 0.00 0.00 0.02 0.05 0.02 0.00 0.00 0.00 0.00 0.00 0.00 0.00 0.00 0.00 0.00
0.00 0.00 0.00 0.00 0.00 0.00 0.00 0.00 0.00 0.00 0.00 0.00 0.00 0.00 0.00 0.00 0.00 0.00 0.00 0.00 0.00 0.00 0.00 0.00 0.01 0.01 0.03 0.01 0.00 0.00 0.00 0.00 0.00 0.00 0.00 0.01 0.03 0.07 0.07 0.00 0.00 0.00 0.00 0.00 0.00 0.00 0.00 0.00 0.00
0.00 0.00 0.00 0.00 0.00 0.00 0.00 0.00 0.00 0.00 0.00 0.00 0.00 0.00 0.00 0.00 0.00 0.00 0.00 0.00 0.00 0.00 0.00 0.00 0.01 0.02 0.02 0.01 0.00 0.00 0.00 0.00 0.00 0.00 0.00 0.00 0.03 0.05 0.12 0.04 0.00 0.00 0.00 0.00 0.00 0.00 0.00 0.01 0.01
0.00 0.00 0.00 0.00 0.00 0.00 0.00 0.00 0.00 0.00 0.00 0.00 0.00 0.00 0.00 0.00 0.00 0.00 0.00 0.00 0.00 0.00 0.00 0.00 0.00 0.01 0.01 0.01 0.01 0.00 0.00 0.00 0.00 0.00 0.00 0.00 0.01 0.00 0.06 0.04 0.01 0.00 0.00 0.00 0.00 0.00 0.00 0.01 0.00
0.00 0.00 0.00 0.00 0.00 0.00 0.00 0.00 0.00 0.00 0.00 0.00 0.00 0.00 0.00 0.00 0.00 0.00 0.00 0.00 0.00 0.00 0.00 0.00 0.00 0.00 0.00 0.01 0.00 0.00 0.00 0.00 0.00 0.00 0.00 0.00 0.00 0.00 0.02 0.02 0.01 0.00 0.00 0.00 0.00 0.00 0.00 0.00 0.00
0.00 0.00 0.00 0.00 0.00 0.00 0.00 0.00 0.00 0.00 0.00 0.00 0.00 0.00 0.00 0.00 0.00 0.00 0.00 0.00 0.00 0.00 0.00 0.00 0.00 0.00 0.00 0.00 0.00 0.00 0.00 0.00 0.00 0.00 0.00 0.00 0.00 0.00 0.00 0.00 0.00 0.00 0.01 0.00 0.00 0.00 0.00 0.00 0.00
0.00 0.00 0.00 0.00 0.00 0.00 0.00 0.00 0.00 0.00 0.00 0.00 0.00 0.00 0.00 0.00 0.00 0.00 0.00 0.00 0.00 0.00 0.00 0.00 0.00 0.00 0.00 0.00 0.00 0.00 0.00 0.00 0.00 0.00 0.00 0.00 0.00 0.00 0.00 0.00 0.00 0.00 0.00 0.00 0.00 0.00 0.00 0.00 0.00
0.00 0.00 0.00 0.00 0.00 0.00 0.00 0.00 0.00 0.00 0.00 0.00 0.00 0.00 0.00 0.00 0.00 0.00 0.00 0.00 0.00 0.00 0.00 0.00 0.00 0.00 0.00 0.00 0.00 0.00 0.00 0.00 0.00 0.00 0.00 0.00 0.00 0.00 0.00 0.00 0.00 0.00 0.00 0.00 0.00 0.00 0.00 0.00 0.00
0.00 0.00 0.00 0.00 0.00 0.00 0.00 0.00 0.00 0.00 0.00 0.00 0.00 0.00 0.00 0.00 0.00 0.00 0.00 0.00 0.00 0.00 0.00 0.00 0.00 0.00 0.00 0.00 0.00 0.00 0.00 0.00 0.00 0.00 0.00 0.00 0.00 0.00 0.00 0.00 0.00 0.00 0.00 0.00 0.00 0.00 0.00 0.00 0.00
0.00 0.00 0.00 0.00 0.00 0.00 0.00 0.00 0.00 0.00 0.00 0.00 0.00 0.00 0.00 0.00 0.00 0.00 0.00 0.00 0.00 0.00 0.00 0.00 0.00 0.00 0.00 0.00 0.00 0.00 0.00 0.00 0.00 0.00 0.00 0.00 0.00 0.00 0.00 0.00 0.00 0.00 0.00 0.00 0.00 0.00 0.00 0.00 0.00
0.00 0.00 0.00 0.00 0.00 0.00 0.00 0.00 0.00 0.00 0.00 0.00 0.00 0.00 0.00 0.00 0.00 0.00 0.00 0.00 0.00 0.00 0.00 0.00 0.00 0.00 0.00 0.00 0.00 0.00 0.00 0.00 0.00 0.00 0.00 0.00 0.00 0.00 0.00 0.00 0.00 0.00 0.00 0.00 0.00 0.00 0.00 0.00 0.00
0.00 0.01 0.00 0.00 0.00 0.00 0.00 0.00 0.00 0.00 0.00 0.00 0.00 0.00 0.00 0.00 0.00 0.00 0.00 0.00 0.00 0.00 0.00 0.00 0.00 0.00 0.00 0.00 0.00 0.00 0.00 0.00 0.00 0.00 0.00 0.00 0.00 0.00 0.00 0.00 0.00 0.00 0.00 0.00 0.00 0.00 0.00 0.00 0.00
0.02 0.03 0.01 0.00 0.00 0.00 0.01 0.00 0.00 0.00 0.00 0.00 0.00 0.00 0.00 0.00 0.00 0.00 0.00 0.00 0.00 0.00 0.00 0.00 0.00 0.00 0.00 0.00 0.00 0.00 0.00 0.00 0.00 0.00 0.00 0.00 0.00 0.00 0.00 0.00 0.00 0.00 0.00 0.00 0.00 0.00 0.00 0.00 0.00
0.06 0.02 0.01 0.00 0.00 0.00 0.00 0.00 0.00 0.00 0.00 0.00 0.00 0.00 0.00 0.00 0.00 0.00 0.00 0.00 0.00 0.00 0.00 0.00 0.00 0.00 0.00 0.00 0.00 0.00 0.00 0.00 0.00 0.00 0.00 0.00 0.00 0.00 0.00 0.00 0.00 0.00 0.00 0.00 0.00 0.00 0.00 0.00 0.00
0.02 0.01 0.00 0.00 0.00 0.00 0.00 0.00 0.00 0.00 0.00 0.00 0.00 0.00 0.00 0.00 0.00 0.00 0.00 0.00 0.00 0.00 0.00 0.00 0.00 0.00 0.00 0.00 0.00 0.00 0.02 0.06 0.03 0.00 0.00 0.00 0.00 0.00 0.00 0.00 0.00 0.00 0.00 0.00 0.00 0.00 0.00 0.00 0.00
0.01 0.02 0.01 0.00 0.00 0.00 0.00 0.00 0.00 0.00 0.00 0.00 0.00 0.00 0.00 0.00 0.00 0.00 0.00 0.00 0.00 0.00 0.00 0.00 0.00 0.00 0.00 0.00 0.00 0.01 0.06 0.14 0.06 0.03 0.01 0.00 0.00 0.00 0.00 0.00 0.00 0.00 0.00 0.00 0.00 0.00 0.00 0.00 0.00
0.04 0.05 0.04 0.01 0.00 0.01 0.00 0.00 0.00 0.00 0.00 0.00 0.00 0.00 0.00 0.00 0.00 0.00 0.00 0.00 0.00 0.00 0.00 0.00 0.00 0.00 0.00 0.00 0.00 0.02 0.08 0.11 0.08 0.03 0.01 0.00 0.01 0.00 0.00 0.00 0.00 0.00 0.00 0.00 0.00 0.00 0.00 0.00 0.00
0.13 0.04 0.03 0.03 0.01 0.01 0.01 0.00 0.00 0.00 0.00 0.00 0.00 0.00 0.00 0.00 0.00 0.00 0.00 0.00 0.00 0.00 0.00 0.00 0.00 0.00 0.00 0.00 0.00 0.01 0.03 0.04 0.04 0.01 0.01 0.01 0.00 0.00 0.00 0.00 0.00 0.00 0.00 0.00 0.00 0.00 0.00 0.00 0.00
0.15 0.07 0.01 0.05 0.10 0.07 0.04 0.02 0.00 0.00 0.00 0.00 0.00 0.00 0.00 0.00 0.00 0.00 0.00 0.00 0.00 0.00 0.00 0.00 0.00 0.00 0.00 0.00 0.00 0.00 0.03 0.06 0.05 0.03 0.02 0.01 0.01 0.01 0.00 0.00 0.00 0.00 0.00 0.00 0.00 0.00 0.00 0.00 0.00
0.16 0.10 0.03 0.09 0.16 0.17 0.11 0.08 0.01 0.00 0.00 0.00 0.00 0.00 0.00 0.00 0.00 0.00 0.00 0.00 0.00 0.00 0.00 0.00 0.00 0.00 0.00 0.00 0.00 0.00 0.02 0.05 0.04 0.02 0.01 0.01 0.00 0.00 0.00 0.00 0.00 0.00 0.00 0.00 0.00 0.00 0.00 0.00 0.00
0.17 0.20 0.19 0.15 0.40 0.42 0.11 0.14 0.07 0.00 0.00 0.00 0.00 0.00 0.00 0.00 0.00 0.00 0.00 0.00 0.00 0.00 0.00 0.00 0.00 0.00 0.00 0.00 0.00 0.00 0.03 0.05 0.02 0.00 0.00 0.00 0.00 0.00 0.00 0.00 0.00 0.00 0.00 0.00 0.00 0.00 0.00 0.00 0.00
0.55 0.71 0.81 0.59 0.58 0.42 0.07 0.06 0.07 0.00 0.00 0.00 0.00 0.00 0.00 0.00 0.00 0.00 0.00 0.00 0.00 0.00 0.00 0.00 0.00 0.00 0.00 0.00 0.00 0.00 0.00 0.03 0.02 0.01 0.00 0.00 0.00 0.00 0.00 0.00 0.00 0.00 0.00 0.00 0.00 0.00 0.00 0.00 0.00
0.53 0.78 0.82 0.34 0.15 0.12 0.05 0.11 0.02 0.00 0.00 0.00 0.00 0.00 0.00 0.00 0.00 0.00 0.00 0.00 0.00 0.00 0.00 0.00 0.00 0.00 0.00 0.00 0.00 0.00 0.00 0.00 0.00 0.00 0.00 0.00 0.00 0.00 0.00 0.00 0.00 0.00 0.00 0.00 0.00 0.00 0.00 0.00 0.00
0.54 0.82 0.48 0.47 0.24 0.25 0.10 0.01 0.00 0.00 0.00 0.00 0.00 0.00 0.00 0.00 0.00 0.00 0.00 0.00 0.00 0.00 0.00 0.00 0.00 0.00 0.00 0.00 0.00 0.00 0.00 0.00 0.01 0.00 0.00 0.00 0.00 0.00 0.00 0.00 0.00 0.00 0.00 0.00 0.00 0.00 0.00 0.00 0.00
0.56 0.35 0.50 0.98 0.54 0.21 0.09 0.03 0.00 0.00 0.00 0.00 0.00 0.00 0.00 0.00 0.00 0.00 0.00 0.00 0.00 0.00 0.00 0.00 0.00 0.00 0.00 0.00 0.00 0.00 0.00 0.00 0.00 0.00 0.00 0.00 0.00 0.00 0.00 0.00 0.00 0.00 0.00 0.00 0.00 0.00 0.00 0.00 0.00
0.71 0.83 0.48 0.42 0.23 0.27 0.06 0.02 0.00 0.00 0.00 0.00 0.00 0.00 0.00 0.00 0.00 0.00 0.00 0.00 0.00 0.00 0.00 0.00 0.00 0.00 0.00 0.00 0.00 0.00 0.00 0.00 0.00 0.00 0.00 0.00 0.00 0.00 0.00 0.00 0.00 0.00 0.00 0.00 0.00 0.00 0.00 0.00 0.00
0.34 0.36 0.30 0.55 0.24 0.29 0.22 0.04 0.00 0.00 0.00 0.00 0.01 0.02 0.01 0.00 0.00 0.00 0.00 0.00 0.00 0.00 0.00 0.00 0.00 0.00 0.00 0.00 0.00 0.00 0.00 0.00 0.00 0.00 0.00 0.00 0.00 0.00 0.00 0.00 0.00 0.00 0.00 0.00 0.00 0.00 0.00 0.00 0.00

GFSSGP_prec_precacc24_039.txt.gz
Total_Precipitation_Accumulation
0.00 0.00 0.00 0.00 0.00 0.00 0.00 0.00 0.00 0.00 0.00 0.00 0.00 0.00 0.00 0.00 0.00 0.00 0.00 0.00 0.00 0.00 0.00 0.01 0.02 0.04 0.01 0.02 0.03 0.01 0.00 0.00 0.00 0.00 0.01 0.07 0.03 0.00 0.00 0.00 0.00 0.00 0.00 0.00 0.00 0.02 0.01 0.01 0.00
0.00 0.00 0.00 0.00 0.00 0.00 0.00 0.00 0.00 0.00 0.00 0.00 0.00 0.00 0.00 0.00 0.00 0.00 0.00 0.00 0.00 0.00 0.00 0.00 0.01 0.02 0.01 0.04 0.02 0.00 0.00 0.00 0.00 0.00 0.02 0.04 0.00 0.00 0.00 0.00 0.00 0.00 0.00 0.00 0.00 0.00 0.00 0.00 0.00
0.00 0.00 0.00 0.00 0.00 0.00 0.00 0.00 0.00 0.00 0.00 0.00 0.00 0.00 0.00 0.00 0.00 0.00 0.00 0.00 0.00 0.00 0.00 0.00 0.01 0.01 0.02 0.02 0.00 0.00 0.00 0.00 0.00 0.00 0.02 0.01 0.01 0.01 0.00 0.00 0.00 0.00 0.00 0.00 0.00 0.00 0.00 0.00 0.00
0.00 0.00 0.00 0.00 0.00 0.00 0.00 0.00 0.00 0.00 0.00 0.00 0.00 0.00 0.00 0.00 0.00 0.00 0.00 0.00 0.00 0.00 0.00 0.00 0.01 0.01 0.03 0.01 0.00 0.00 0.00 0.00 0.00 0.00 0.00 0.00 0.01 0.03 0.02 0.00 0.00 0.00 0.00 0.00 0.00 0.00 0.00 0.00 0.00
0.00 0.00 0.00 0.00 0.00 0.00 0.00 0.00 0.00 0.00 0.00 0.00 0.00 0.00 0.00 0.00 0.00 0.00 0.00 0.00 0.00 0.00 0.00 0.00 0.01 0.02 0.02 0.00 0.00 0.00 0.00 0.00 0.00 0.00 0.00 0.00 0.02 0.05 0.06 0.00 0.00 0.00 0.00 0.00 0.00 0.00 0.00 0.00 0.00
0.00 0.00 0.00 0.00 0.00 0.00 0.00 0.00 0.00 0.00 0.00 0.00 0.00 0.00 0.00 0.00 0.00 0.00 0.00 0.00 0.00 0.00 0.00 0.00 0.01 0.02 0.02 0.00 0.00 0.00 0.00 0.00 0.00 0.00 0.00 0.00 0.03 0.04 0.10 0.03 0.00 0.00 0.00 0.00 0.00 0.00 0.00 0.00 0.00
0.00 0.00 0.00 0.00 0.00 0.00 0.00 0.00 0.00 0.00 0.00 0.00 0.00 0.00 0.00 0.00 0.00 0.00 0.00 0.00 0.00 0.00 0.00 0.00 0.00 0.02 0.02 0.01 0.00 0.00 0.00 0.00 0.00 0.00 0.00 0.00 0.01 0.00 0.06 0.05 0.01 0.00 0.00 0.00 0.01 0.00 0.00 0.00 0.00
0.00 0.00 0.00 0.00 0.00 0.00 0.00 0.00 0.00 0.00 0.00 0.00 0.00 0.00 0.00 0.00 0.00 0.00 0.00 0.00 0.00 0.00 0.00 0.00 0.00 0.01 0.01 0.01 0.00 0.00 0.00 0.00 0.00 0.00 0.00 0.00 0.00 0.00 0.03 0.03 0.01 0.00 0.00 0.00 0.01 0.00 0.00 0.00 0.00
0.00 0.00 0.00 0.00 0.00 0.00 0.00 0.00 0.00 0.00 0.00 0.00 0.00 0.00 0.00 0.00 0.00 0.00 0.00 0.00 0.00 0.00 0.00 0.00 0.00 0.00 0.00 0.01 0.01 0.00 0.00 0.00 0.00 0.00 0.00 0.00 0.00 0.00 0.00 0.01 0.00 0.00 0.01 0.00 0.00 0.00 0.00 0.00 0.00
0.00 0.00 0.00 0.00 0.00 0.00 0.00 0.00 0.00 0.00 0.00 0.00 0.00 0.00 0.00 0.00 0.00 0.00 0.00 0.00 0.00 0.00 0.00 0.00 0.00 0.00 0.00 0.00 0.01 0.00 0.00 0.00 0.00 0.00 0.00 0.00 0.00 0.00 0.00 0.00 0.00 0.00 0.00 0.00 0.00 0.00 0.00 0.00 0.00
0.00 0.00 0.00 0.00 0.00 0.00 0.00 0.00 0.00 0.00 0.00 0.00 0.00 0.00 0.00 0.00 0.00 0.00 0.00 0.00 0.00 0.00 0.00 0.00 0.00 0.00 0.00 0.00 0.00 0.00 0.00 0.00 0.00 0.00 0.00 0.00 0.00 0.00 0.00 0.00 0.00 0.00 0.00 0.00 0.00 0.00 0.00 0.00 0.00
0.00 0.00 0.00 0.00 0.00 0.00 0.00 0.00 0.00 0.00 0.00 0.00 0.00 0.00 0.00 0.00 0.00 0.00 0.00 0.00 0.00 0.00 0.00 0.00 0.00 0.00 0.00 0.00 0.00 0.00 0.00 0.00 0.00 0.00 0.00 0.00 0.00 0.00 0.00 0.00 0.00 0.00 0.00 0.00 0.00 0.00 0.00 0.00 0.00
0.00 0.00 0.00 0.00 0.00 0.00 0.00 0.00 0.00 0.00 0.00 0.00 0.00 0.00 0.00 0.00 0.00 0.00 0.00 0.00 0.00 0.00 0.00 0.00 0.00 0.00 0.00 0.00 0.00 0.00 0.00 0.00 0.00 0.00 0.00 0.00 0.00 0.00 0.00 0.00 0.00 0.00 0.00 0.00 0.00 0.00 0.00 0.00 0.00
0.00 0.00 0.00 0.00 0.00 0.00 0.00 0.00 0.00 0.00 0.00 0.00 0.00 0.00 0.00 0.00 0.00 0.00 0.00 0.00 0.00 0.00 0.00 0.00 0.00 0.00 0.00 0.00 0.00 0.00 0.00 0.00 0.00 0.00 0.00 0.00 0.00 0.00 0.00 0.00 0.00 0.00 0.00 0.00 0.00 0.00 0.00 0.00 0.00
0.00 0.01 0.00 0.00 0.00 0.00 0.00 0.00 0.00 0.00 0.00 0.00 0.00 0.00 0.00 0.00 0.00 0.00 0.00 0.00 0.00 0.00 0.00 0.00 0.00 0.00 0.00 0.00 0.00 0.00 0.00 0.00 0.00 0.00 0.00 0.00 0.00 0.00 0.00 0.00 0.00 0.00 0.00 0.00 0.00 0.00 0.00 0.00 0.00
0.02 0.02 0.00 0.00 0.00 0.00 0.01 0.00 0.00 0.00 0.00 0.00 0.00 0.00 0.00 0.00 0.00 0.00 0.00 0.00 0.00 0.00 0.00 0.00 0.00 0.00 0.00 0.00 0.00 0.00 0.00 0.00 0.01 0.00 0.00 0.00 0.00 0.00 0.00 0.00 0.00 0.00 0.00 0.00 0.00 0.00 0.00 0.00 0.00
0.04 0.01 0.00 0.00 0.00 0.00 0.00 0.00 0.00 0.00 0.00 0.00 0.00 0.00 0.00 0.00 0.00 0.00 0.00 0.00 0.00 0.00 0.00 0.00 0.00 0.00 0.00 0.00 0.00 0.00 0.00 0.00 0.00 0.00 0.00 0.00 0.00 0.00 0.00 0.00 0.00 0.00 0.00 0.00 0.00 0.00 0.00 0.00 0.00
0.00 0.00 0.00 0.00 0.00 0.00 0.00 0.00 0.00 0.00 0.00 0.00 0.00 0.00 0.00 0.00 0.00 0.00 0.00 0.00 0.00 0.00 0.00 0.00 0.00 0.00 0.00 0.00 0.00 0.00 0.02 0.06 0.04 0.01 0.00 0.00 0.00 0.00 0.00 0.00 0.00 0.00 0.00 0.00 0.00 0.00 0.00 0.00 0.00
0.01 0.02 0.01 0.00 0.00 0.00 0.00 0.00 0.00 0.00 0.00 0.00 0.00 0.00 0.00 0.00 0.00 0.00 0.00 0.00 0.00 0.00 0.00 0.00 0.00 0.00 0.00 0.00 0.00 0.01 0.06 0.16 0.10 0.07 0.03 0.00 0.00 0.00 0.00 0.00 0.00 0.00 0.00 0.00 0.00 0.00 0.00 0.00 0.00
0.02 0.04 0.04 0.01 0.00 0.01 0.00 0.00 0.00 0.00 0.00 0.00 0.00 0.00 0.00 0.00 0.00 0.00 0.00 0.00 0.00 0.00 0.00 0.00 0.00 0.00 0.00 0.00 0.00 0.02 0.08 0.13 0.13 0.10 0.07 0.07 0.04 0.00 0.00 0.00 0.00 0.00 0.00 0.00 0.00 0.00 0.00 0.00 0.00
0.11 0.04 0.03 0.03 0.01 0.01 0.01 0.00 0.00 0.00 0.00 0.00 0.00 0.00 0.00 0.00 0.00 0.00 0.00 0.00 0.00 0.00 0.00 0.00 0.00 0.00 0.00 0.00 0.00 0.01 0.03 0.04 0.05 0.03 0.04 0.07 0.05 0.02 0.00 0.00 0.00 0.00 0.00 0.00 0.00 0.00 0.00 0.00 0.00
0.10 0.07 0.01 0.05 0.10 0.07 0.04 0.02 0.00 0.00 0.00 0.00 0.00 0.00 0.00 0.00 0.00 0.00 0.00 0.00 0.00 0.00 0.00 0.00 0.00 0.00 0.00 0.00 0.00 0.00 0.03 0.06 0.07 0.08 0.08 0.08 0.05 0.03 0.00 0.00 0.00 0.00 0.00 0.00 0.00 0.00 0.00 0.00 0.00
0.08 0.10 0.03 0.08 0.16 0.17 0.11 0.09 0.01 0.00 0.00 0.00 0.00 0.00 0.00 0.00 0.00 0.00 0.00 0.00 0.00 0.00 0.00 0.00 0.00 0.00 0.00 0.00 0.00 0.00 0.02 0.05 0.05 0.04 0.04 0.03 0.03 0.01 0.01 0.00 0.00 0.00 0.00 0.00 0.00 0.00 0.00 0.00 0.00
0.12 0.19 0.18 0.15 0.40 0.42 0.11 0.14 0.07 0.00 0.00 0.00 0.00 0.00 0.00 0.00 0.00 0.00 0.00 0.00 0.00 0.00 0.00 0.00 0.00 0.00 0.00 0.00 0.00 0.00 0.03 0.06 0.03 0.02 0.02 0.03 0.02 0.01 0.00 0.00 0.00 0.00 0.00 0.00 0.00 0.00 0.00 0.00 0.00
0.37 0.66 0.77 0.57 0.58 0.42 0.07 0.06 0.07 0.00 0.00 0.00 0.00 0.00 0.00 0.00 0.00 0.00 0.00 0.00 0.00 0.00 0.00 0.00 0.00 0.00 0.00 0.00 0.00 0.00 0.00 0.03 0.05 0.04 0.03 0.02 0.01 0.01 0.00 0.00 0.00 0.00 0.00 0.00 0.00 0.00 0.00 0.00 0.00
0.44 0.76 0.81 0.33 0.14 0.12 0.05 0.11 0.02 0.00 0.00 0.00 0.00 0.00 0.00 0.00 0.00 0.00 0.00 0.00 0.00 0.00 0.00 0.00 0.00 0.00 0.00 0.00 0.00 0.00 0.00 0.00 0.02 0.01 0.01 0.00 0.00 0.00 0.00 0.00 0.00 0.00 0.00 0.00 0.00 0.00 0.00 0.00 0.00
0.47 0.82 0.48 0.48 0.25 0.25 0.10 0.01 0.00 0.00 0.00 0.00 0.00 0.00 0.00 0.00 0.00 0.00 0.00 0.00 0.00 0.00 0.00 0.00 0.00 0.00 0.00 0.00 0.00 0.00 0.00 0.01 0.02 0.01 0.00 0.00 0.00 0.00 0.00 0.00 0.00 0.00 0.00 0.00 0.00 0.00 0.00 0.00 0.00
0.52 0.35 0.51 1.00 0.54 0.21 0.09 0.03 0.00 0.00 0.00 0.00 0.00 0.00 0.00 0.00 0.00 0.00 0.00 0.00 0.00 0.00 0.00 0.00 0.00 0.00 0.00 0.00 0.00 0.00 0.00 0.00 0.01 0.01 0.00 0.01 0.00 0.00 0.00 0.00 0.00 0.00 0.00 0.00 0.00 0.00 0.00 0.00 0.00
0.62 0.78 0.48 0.42 0.24 0.27 0.06 0.02 0.00 0.00 0.00 0.00 0.00 0.00 0.00 0.00 0.00 0.00 0.00 0.00 0.00 0.00 0.00 0.00 0.00 0.00 0.00 0.00 0.00 0.00 0.00 0.00 0.00 0.01 0.01 0.01 0.00 0.00 0.00 0.00 0.00 0.00 0.00 0.00 0.00 0.00 0.00 0.00 0.00
0.33 0.34 0.31 0.56 0.24 0.32 0.26 0.06 0.00 0.00 0.00 0.00 0.01 0.02 0.01 0.00 0.00 0.00 0.00 0.00 0.00 0.00 0.00 0.00 0.00 0.00 0.00 0.00 0.00 0.00 0.00 0.00 0.00 0.00 0.00 0.00 0.00 0.00 0.00 0.00 0.00 0.00 0.00 0.00 0.00 0.00 0.00 0.00 0.00

GFSSGP_prec_precacc24_042.txt.gz
Total_Precipitation_Accumulation
0.00 0.00 0.00 0.00 0.00 0.00 0.00 0.00 0.00 0.00 0.00 0.00 0.00 0.00 0.00 0.00 0.00 0.00 0.00 0.00 0.00 0.00 0.00 0.01 0.02 0.03 0.01 0.01 0.01 0.00 0.00 0.00 0.00 0.00 0.02 0.08 0.04 0.00 0.00 0.00 0.00 0.00 0.00 0.00 0.01 0.03 0.02 0.01 0.00
0.00 0.00 0.00 0.00 0.00 0.00 0.00 0.00 0.00 0.00 0.00 0.00 0.00 0.00 0.00 0.00 0.00 0.00 0.00 0.00 0.00 0.00 0.00 0.00 0.01 0.02 0.01 0.02 0.01 0.00 0.00 0.00 0.00 0.00 0.04 0.05 0.01 0.00 0.00 0.00 0.00 0.00 0.00 0.00 0.00 0.00 0.00 0.00 0.00
0.00 0.00 0.00 0.00 0.00 0.00 0.00 0.00 0.00 0.00 0.00 0.00 0.00 0.00 0.00 0.00 0.00 0.00 0.00 0.00 0.00 0.00 0.00 0.00 0.01 0.01 0.02 0.01 0.00 0.00 0.00 0.00 0.00 0.00 0.02 0.01 0.00 0.00 0.00 0.00 0.00 0.00 0.00 0.00 0.00 0.00 0.00 0.00 0.00
0.00 0.00 0.00 0.00 0.00 0.00 0.00 0.00 0.00 0.00 0.00 0.00 0.00 0.00 0.00 0.00 0.00 0.00 0.00 0.00 0.00 0.00 0.00 0.00 0.01 0.01 0.02 0.00 0.00 0.00 0.00 0.00 0.00 0.01 0.00 0.00 0.01 0.02 0.01 0.00 0.00 0.00 0.00 0.00 0.00 0.00 0.00 0.00 0.00
0.00 0.00 0.00 0.00 0.00 0.00 0.00 0.00 0.00 0.00 0.00 0.00 0.00 0.00 0.00 0.00 0.00 0.00 0.00 0.00 0.00 0.00 0.00 0.00 0.01 0.02 0.02 0.00 0.00 0.00 0.00 0.00 0.00 0.00 0.00 0.00 0.02 0.05 0.04 0.00 0.00 0.00 0.00 0.00 0.00 0.00 0.00 0.00 0.00
0.00 0.00 0.00 0.00 0.00 0.00 0.00 0.00 0.00 0.00 0.00 0.00 0.00 0.00 0.00 0.00 0.00 0.00 0.00 0.00 0.00 0.00 0.00 0.00 0.01 0.03 0.02 0.00 0.00 0.00 0.00 0.00 0.00 0.00 0.00 0.00 0.02 0.03 0.08 0.02 0.00 0.00 0.00 0.00 0.00 0.00 0.00 0.00 0.00
0.00 0.00 0.00 0.00 0.00 0.00 0.00 0.00 0.00 0.00 0.00 0.00 0.00 0.00 0.00 0.00 0.00 0.00 0.00 0.00 0.00 0.00 0.00 0.00 0.00 0.02 0.02 0.01 0.00 0.00 0.00 0.00 0.00 0.00 0.00 0.00 0.01 0.00 0.06 0.05 0.01 0.00 0.00 0.00 0.01 0.00 0.00 0.00 0.00
0.00 0.00 0.00 0.00 0.00 0.00 0.00 0.00 0.00 0.00 0.00 0.00 0.00 0.00 0.00 0.00 0.00 0.00 0.00 0.00 0.00 0.00 0.00 0.00 0.00 0.01 0.01 0.01 0.00 0.00 0.00 0.00 0.00 0.00 0.00 0.00 0.00 0.00 0.03 0.03 0.01 0.00 0.00 0.00 0.01 0.00 0.00 0.00 0.00
0.00 0.00 0.00 0.00 0.00 0.00 0.00 0.00 0.00 0.00 0.00 0.00 0.00 0.00 0.00 0.00 0.00 0.00 0.00 0.00 0.00 0.00 0.00 0.00 0.00 0.00 0.00 0.01 0.01 0.00 0.00 0.00 0.00 0.00 0.00 0.00 0.00 0.00 0.00 0.01 0.00 0.00 0.01 0.00 0.00 0.00 0.00 0.00 0.00
0.00 0.00 0.00 0.00 0.00 0.00 0.00 0.00 0.00 0.00 0.00 0.00 0.00 0.00 0.00 0.00 0.00 0.00 0.00 0.00 0.00 0.00 0.00 0.00 0.00 0.00 0.00 0.00 0.01 0.00 0.00 0.00 0.00 0.00 0.00 0.00 0.00 0.00 0.00 0.00 0.00 0.00 0.00 0.00 0.00 0.00 0.00 0.00 0.00
0.00 0.00 0.00 0.00 0.00 0.00 0.00 0.00 0.00 0.00 0.00 0.00 0.00 0.00 0.00 0.00 0.00 0.00 0.00 0.00 0.00 0.00 0.00 0.00 0.00 0.00 0.00 0.00 0.00 0.00 0.00 0.00 0.00 0.00 0.00 0.00 0.00 0.00 0.00 0.00 0.00 0.00 0.00 0.00 0.00 0.00 0.00 0.00 0.00
0.00 0.00 0.00 0.00 0.00 0.00 0.00 0.00 0.00 0.00 0.00 0.00 0.00 0.00 0.00 0.00 0.00 0.00 0.00 0.00 0.00 0.00 0.00 0.00 0.00 0.00 0.00 0.00 0.00 0.00 0.00 0.00 0.00 0.00 0.00 0.00 0.00 0.00 0.00 0.00 0.00 0.00 0.00 0.00 0.00 0.00 0.00 0.00 0.00
0.00 0.00 0.00 0.00 0.00 0.00 0.00 0.00 0.00 0.00 0.00 0.00 0.00 0.00 0.00 0.00 0.00 0.00 0.00 0.00 0.00 0.00 0.00 0.00 0.00 0.00 0.00 0.00 0.00 0.00 0.00 0.00 0.00 0.00 0.00 0.00 0.00 0.00 0.00 0.00 0.00 0.00 0.00 0.00 0.00 0.00 0.00 0.00 0.00
0.00 0.00 0.00 0.00 0.00 0.00 0.00 0.00 0.00 0.00 0.00 0.00 0.00 0.00 0.00 0.00 0.00 0.00 0.00 0.00 0.00 0.00 0.00 0.00 0.00 0.00 0.00 0.00 0.00 0.00 0.00 0.00 0.00 0.00 0.00 0.00 0.00 0.00 0.00 0.00 0.00 0.00 0.00 0.00 0.00 0.00 0.00 0.00 0.00
0.00 0.00 0.00 0.00 0.00 0.00 0.00 0.00 0.00 0.00 0.00 0.00 0.00 0.00 0.00 0.00 0.00 0.00 0.00 0.00 0.00 0.00 0.00 0.00 0.00 0.00 0.00 0.00 0.00 0.00 0.00 0.00 0.02 0.00 0.00 0.00 0.00 0.00 0.00 0.00 0.00 0.00 0.00 0.00 0.00 0.00 0.00 0.00 0.00
0.01 0.00 0.00 0.00 0.00 0.00 0.01 0.00 0.00 0.00 0.00 0.00 0.00 0.00 0.00 0.00 0.00 0.00 0.00 0.00 0.00 0.00 0.00 0.00 0.00 0.00 0.00 0.00 0.00 0.00 0.00 0.00 0.02 0.01 0.00 0.00 0.00 0.00 0.00 0.00 0.00 0.00 0.00 0.00 0.00 0.00 0.00 0.00 0.00
0.01 0.00 0.00 0.00 0.00 0.00 0.00 0.00 0.00 0.00 0.00 0.00 0.00 0.00 0.00 0.00 0.00 0.00 0.00 0.00 0.00 0.00 0.00 0.00 0.00 0.00 0.00 0.00 0.00 0.00 0.00 0.00 0.01 0.01 0.00 0.00 0.00 0.00 0.00 0.00 0.00 0.00 0.00 0.00 0.00 0.00 0.00 0.00 0.00
0.00 0.00 0.00 0.00 0.00 0.00 0.00 0.00 0.00 0.00 0.00 0.00 0.00 0.00 0.00 0.00 0.00 0.00 0.00 0.00 0.00 0.00 0.00 0.00 0.00 0.00 0.00 0.00 0.00 0.00 0.02 0.06 0.04 0.01 0.00 0.02 0.00 0.00 0.00 0.00 0.00 0.00 0.00 0.00 0.00 0.00 0.00 0.00 0.00
0.00 0.00 0.00 0.00 0.00 0.00 0.00 0.00 0.00 0.00 0.00 0.00 0.00 0.00 0.00 0.00 0.00 0.00 0.00 0.00 0.00 0.00 0.00 0.00 0.00 0.00 0.00 0.00 0.00 0.01 0.06 0.16 0.11 0.08 0.04 0.06 0.02 0.00 0.00 0.00 0.00 0.00 0.00 0.00 0.00 0.00 0.00 0.00 0.00
0.00 0.00 0.00 0.00 0.00 0.01 0.00 0.00 0.00 0.00 0.00 0.00 0.00 0.00 0.00 0.00 0.00 0.00 0.00 0.00 0.00 0.00 0.00 0.00 0.00 0.00 0.00 0.00 0.00 0.02 0.08 0.13 0.13 0.10 0.09 0.12 0.10 0.05 0.02 0.00 0.00 0.00 0.00 0.00 0.00 0.00 0.00 0.00 0.00
0.00 0.00 0.00 0.00 0.00 0.01 0.01 0.00 0.00 0.00 0.00 0.00 0.00 0.00 0.00 0.00 0.00 0.00 0.00 0.00 0.00 0.00 0.00 0.00 0.00 0.00 0.00 0.00 0.00 0.01 0.03 0.04 0.05 0.04 0.06 0.09 0.11 0.09 0.02 0.01 0.00 0.00 0.00 0.00 0.00 0.00 0.00 0.00 0.00
0.00 0.00 0.00 0.01 0.05 0.06 0.04 0.02 0.00 0.00 0.00 0.00 0.00 0.00 0.00 0.00 0.00 0.00 0.00 0.00 0.00 0.00 0.00 0.00 0.00 0.00 0.00 0.00 0.00 0.00 0.03 0.06 0.09 0.11 0.10 0.09 0.10 0.07 0.03 0.02 0.01 0.00 0.00 0.00 0.00 0.00 0.00 0.00 0.00
0.00 0.00 0.00 0.01 0.06 0.14 0.10 0.09 0.01 0.00 0.00 0.00 0.00 0.00 0.00 0.00 0.00 0.00 0.00 0.00 0.00 0.00 0.00 0.00 0.00 0.00 0.00 0.00 0.00 0.00 0.03 0.06 0.07 0.05 0.04 0.06 0.06 0.03 0.02 0.01 0.00 0.00 0.00 0.00 0.00 0.00 0.00 0.00 0.00
0.01 0.03 0.05 0.08 0.35 0.40 0.11 0.14 0.07 0.00 0.00 0.00 0.00 0.00 0.00 0.00 0.00 0.00 0.00 0.00 0.00 0.00 0.00 0.00 0.00 0.00 0.00 0.00 0.00 0.00 0.03 0.06 0.03 0.02 0.03 0.05 0.04 0.03 0.01 0.00 0.00 0.00 0.00 0.00 0.00 0.00 0.00 0.00 0.00
0.07 0.25 0.41 0.38 0.51 0.41 0.07 0.06 0.07 0.00 0.00 0.00 0.00 0.00 0.00 0.00 0.00 0.00 0.00 0.00 0.00 0.00 0.00 0.00 0.00 0.00 0.00 0.00 0.00 0.00 0.00 0.03 0.05 0.04 0.03 0.03 0.03 0.02 0.01 0.00 0.00 0.00 0.00 0.00 0.00 0.00 0.00 0.00 0.00
0.05 0.18 0.54 0.27 0.13 0.11 0.05 0.11 0.02 0.00 0.00 0.00 0.00 0.00 0.00 0.00 0.00 0.00 0.00 0.00 0.00 0.00 0.00 0.00 0.00 0.00 0.00 0.00 0.00 0.00 0.00 0.00 0.02 0.02 0.02 0.03 0.03 0.02 0.01 0.01 0.00 0.00 0.00 0.00 0.00 0.00 0.00 0.00 0.00
0.22 0.35 0.35 0.47 0.25 0.25 0.10 0.01 0.00 0.00 0.00 0.00 0.00 0.00 0.00 0.00 0.00 0.00 0.00 0.00 0.00 0.00 0.00 0.00 0.00 0.00 0.00 0.00 0.00 0.00 0.00 0.01 0.03 0.02 0.03 0.03 0.02 0.01 0.00 0.00 0.00 0.00 0.00 0.00 0.00 0.00 0.00 0.00 0.00
0.25 0.16 0.46 0.99 0.54 0.21 0.09 0.03 0.00 0.00 0.00 0.00 0.00 0.00 0.00 0.00 0.00 0.00 0.00 0.00 0.00 0.00 0.00 0.00 0.00 0.00 0.00 0.00 0.00 0.00 0.00 0.01 0.01 0.02 0.02 0.01 0.01 0.00 0.00 0.00 0.00 0.00 0.00 0.00 0.00 0.00 0.00 0.00 0.00
0.27 0.57 0.44 0.42 0.23 0.26 0.05 0.02 0.00 0.00 0.00 0.00 0.00 0.00 0.00 0.00 0.00 0.00 0.00 0.00 0.00 0.00 0.00 0.00 0.00 0.00 0.00 0.00 0.00 0.00 0.00 0.00 0.00 0.02 0.01 0.01 0.01 0.00 0.00 0.00 0.00 0.00 0.00 0.00 0.00 0.00 0.00 0.00 0.00
0.16 0.29 0.30 0.57 0.24 0.32 0.27 0.06 0.00 0.00 0.00 0.00 0.01 0.02 0.01 0.00 0.00 0.00 0.00 0.00 0.00 0.00 0.00 0.00 0.00 0.00 0.00 0.00 0.00 0.00 0.00 0.00 0.00 0.01 0.01 0.01 0.01 0.01 0.00 0.00 0.00 0.00 0.00 0.00 0.00 0.00 0.00 0.00 0.00

GFSSGP_prec_precacc24_045.txt.gz
Total_Precipitation_Accumulation
0.00 0.00 0.00 0.00 0.00 0.00 0.00 0.00 0.00 0.00 0.00 0.00 0.00 0.00 0.00 0.00 0.00 0.00 0.00 0.00 0.00 0.00 0.00 0.01 0.02 0.03 0.01 0.00 0.00 0.00 0.00 0.00 0.00 0.01 0.02 0.08 0.04 0.00 0.00 0.00 0.00 0.00 0.00 0.00 0.01 0.03 0.02 0.01 0.00
0.00 0.00 0.00 0.00 0.00 0.00 0.00 0.00 0.00 0.00 0.00 0.00 0.00 0.00 0.00 0.00 0.00 0.00 0.00 0.00 0.00 0.00 0.00 0.00 0.01 0.01 0.01 0.01 0.00 0.00 0.00 0.00 0.00 0.00 0.06 0.06 0.01 0.00 0.00 0.00 0.00 0.00 0.00 0.00 0.00 0.00 0.00 0.00 0.00
0.00 0.00 0.00 0.00 0.00 0.00 0.00 0.00 0.00 0.00 0.00 0.00 0.00 0.00 0.00 0.00 0.00 0.00 0.00 0.00 0.00 0.00 0.00 0.00 0.01 0.01 0.01 0.01 0.00 0.00 0.00 0.00 0.00 0.01 0.03 0.01 0.00 0.00 0.00 0.00 0.00 0.00 0.00 0.00 0.00 0.00 0.00 0.00 0.00
0.00 0.00 0.00 0.00 0.00 0.00 0.00 0.00 0.00 0.00 0.00 0.00 0.00 0.00 0.00 0.00 0.00 0.00 0.00 0.00 0.00 0.00 0.00 0.00 0.01 0.01 0.02 0.00 0.00 0.00 0.00 0.00 0.00 0.01 0.00 0.00 0.00 0.01 0.00 0.00 0.00 0.00 0.00 0.00 0.00 0.00 0.00 0.00 0.00
0.00 0.00 0.00 0.00 0.00 0.00 0.00 0.00 0.00 0.00 0.00 0.00 0.00 0.00 0.00 0.00 0.00 0.00 0.00 0.00 0.00 0.00 0.00 0.00 0.01 0.02 0.02 0.00 0.00 0.00 0.00 0.00 0.00 0.00 0.00 0.00 0.02 0.04 0.03 0.00 0.00 0.00 0.00 0.00 0.00 0.00 0.00 0.00 0.00
0.00 0.00 0.00 0.00 0.00 0.00 0.00 0.00 0.00 0.00 0.00 0.00 0.00 0.00 0.00 0.00 0.00 0.00 0.00 0.00 0.00 0.00 0.00 0.00 0.01 0.03 0.02 0.00 0.00 0.00 0.00 0.00 0.00 0.00 0.00 0.00 0.02 0.03 0.08 0.02 0.00 0.00 0.00 0.00 0.00 0.00 0.00 0.00 0.00
0.00 0.00 0.00 0.00 0.00 0.00 0.00 0.00 0.00 0.00 0.00 0.00 0.00 0.00 0.00 0.00 0.00 0.00 0.00 0.00 0.00 0.00 0.00 0.00 0.00 0.02 0.02 0.01 0.00 0.00 0.00 0.00 0.00 0.00 0.00 0.00 0.01 0.00 0.06 0.05 0.01 0.00 0.00 0.00 0.01 0.00 0.00 0.00 0.00
0.00 0.00 0.00 0.00 0.00 0.00 0.00 0.00 0.00 0.00 0.00 0.00 0.00 0.00 0.00 0.00 0.00 0.00 0.00 0.00 0.00 0.00 0.00 0.00 0.00 0.01 0.01 0.01 0.00 0.00 0.00 0.00 0.00 0.00 0.00 0.00 0.00 0.00 0.03 0.04 0.01 0.00 0.00 0.00 0.01 0.00 0.00 0.00 0.00
0.00 0.00 0.00 0.00 0.00 0.00 0.00 0.00 0.00 0.00 0.00 0.00 0.00 0.00 0.00 0.00 0.00 0.00 0.00 0.00 0.00 0.00 0.00 0.00 0.00 0.00 0.00 0.01 0.01 0.00 0.00 0.00 0.00 0.00 0.00 0.00 0.00 0.00 0.00 0.01 0.00 0.00 0.01 0.00 0.00 0.00 0.00 0.00 0.00
0.00 0.00 0.00 0.00 0.00 0.00 0.00 0.00 0.00 0.00 0.00 0.00 0.00 0.00 0.00 0.00 0.00 0.00 0.00 0.00 0.00 0.00 0.00 0.00 0.00 0.00 0.00 0.00 0.01 0.00 0.00 0.00 0.00 0.00 0.00 0.00 0.00 0.00 0.00 0.00 0.00 0.00 0.00 0.00 0.00 0.00 0.00 0.00 0.00
0.00 0.00 0.00 0.00 0.00 0.00 0.00 0.00 0.00 0.00 0.00 0.00 0.00 0.00 0.00 0.00 0.00 0.00 0.00 0.00 0.00 0.00 0.00 0.00 0.00 0.00 0.00 0.00 0.00 0.00 0.00 0.00 0.00 0.00 0.00 0.00 0.00 0.00 0.00 0.00 0.00 0.00 0.00 0.00 0.00 0.00 0.00 0.00 0.00
0.00 0.00 0.00 0.00 0.00 0.00 0.00 0.00 0.00 0.00 0.00 0.00 0.00 0.00 0.00 0.00 0.00 0.00 0.00 0.00 0.00 0.00 0.00 0.00 0.00 0.00 0.00 0.00 0.00 0.00 0.00 0.00 0.00 0.00 0.00 0.00 0.00 0.00 0.00 0.00 0.00 0.00 0.00 0.00 0.00 0.00 0.00 0.00 0.00
0.00 0.00 0.00 0.00 0.00 0.00 0.00 0.00 0.00 0.00 0.00 0.00 0.00 0.00 0.00 0.00 0.00 0.00 0.00 0.00 0.00 0.00 0.00 0.00 0.00 0.00 0.00 0.00 0.00 0.00 0.00 0.00 0.00 0.00 0.00 0.00 0.00 0.00 0.00 0.00 0.00 0.00 0.00 0.00 0.00 0.00 0.00 0.00 0.00
0.00 0.00 0.00 0.00 0.00 0.00 0.00 0.00 0.00 0.00 0.00 0.00 0.00 0.00 0.00 0.00 0.00 0.00 0.00 0.00 0.00 0.00 0.00 0.00 0.00 0.00 0.00 0.00 0.01 0.00 0.00 0.00 0.00 0.00 0.00 0.00 0.00 0.00 0.00 0.00 0.00 0.00 0.00 0.00 0.00 0.00 0.00 0.00 0.00
0.00 0.00 0.00 0.00 0.00 0.00 0.00 0.00 0.00 0.00 0.00 0.00 0.00 0.00 0.00 0.00 0.00 0.00 0.00 0.00 0.00 0.00 0.00 0.00 0.00 0.00 0.00 0.00 0.00 0.00 0.00 0.00 0.02 0.00 0.00 0.00 0.00 0.00 0.00 0.00 0.00 0.00 0.00 0.00 0.00 0.00 0.00 0.00 0.00
0.00 0.00 0.00 0.00 0.00 0.00 0.01 0.00 0.00 0.00 0.00 0.00 0.00 0.00 0.00 0.00 0.00 0.00 0.00 0.00 0.00 0.00 0.00 0.00 0.00 0.00 0.00 0.00 0.00 0.01 0.00 0.00 0.05 0.01 0.00 0.00 0.00 0.00 0.00 0.00 0.00 0.00 0.00 0.00 0.00 0.00 0.00 0.00 0.00
0.00 0.00 0.00 0.00 0.00 0.00 0.00 0.00 0.00 0.00 0.00 0.00 0.00 0.00 0.00 0.00 0.00 0.00 0.00 0.00 0.00 0.00 0.00 0.00 0.00 0.00 0.00 0.00 0.00 0.00 0.02 0.00 0.01 0.02 0.00 0.00 0.00 0.00 0.00 0.00 0.00 0.00 0.00 0.00 0.00 0.00 0.00 0.00 0.00
0.00 0.00 0.00 0.00 0.00 0.00 0.00 0.00 0.00 0.00 0.00 0.00 0.00 0.00 0.00 0.00 0.00 0.00 0.00 0.00 0.00 0.00 0.00 0.00 0.00 0.00 0.00 0.00 0.00 0.01 0.04 0.06 0.04 0.01 0.00 0.02 0.00 0.00 0.00 0.00 0.00 0.00 0.00 0.00 0.00 0.00 0.00 0.00 0.00
0.00 0.00 0.00 0.00 0.00 0.00 0.00 0.00 0.00 0.00 0.00 0.00 0.00 0.00 0.00 0.00 0.00 0.00 0.00 0.00 0.00 0.00 0.00 0.00 0.00 0.00 0.00 0.00 0.00 0.01 0.08 0.16 0.11 0.08 0.05 0.06 0.03 0.01 0.00 0.00 0.00 0.00 0.00 0.00 0.00 0.00 0.00 0.00 0.00
0.00 0.00 0.00 0.00 0.00 0.00 0.00 0.00 0.00 0.00 0.00 0.00 0.00 0.00 0.00 0.00 0.00 0.00 0.00 0.00 0.00 0.00 0.00 0.00 0.00 0.00 0.00 0.00 0.00 0.03 0.13 0.19 0.16 0.11 0.10 0.12 0.12 0.09 0.03 0.00 0.00 0.00 0.00 0.00 0.00 0.00 0.00 0.00 0.00
0.00 0.00 0.00 0.00 0.00 0.00 0.00 0.00 0.00 0.00 0.00 0.00 0.00 0.00 0.00 0.00 0.00 0.00 0.00 0.00 0.00 0.00 0.00 0.00 0.00 0.00 0.00 0.00 0.00 0.01 0.06 0.12 0.11 0.05 0.06 0.10 0.15 0.16 0.09 0.02 0.00 0.00 0.00 0.00 0.00 0.00 0.00 0.00 0.00
0.00 0.00 0.00 0.01 0.01 0.00 0.02 0.01 0.00 0.00 0.00 0.00 0.00 0.00 0.00 0.00 0.00 0.00 0.00 0.00 0.00 0.00 0.00 0.00 0.00 0.00 0.00 0.00 0.00 0.00 0.03 0.09 0.14 0.16 0.13 0.14 0.16 0.16 0.10 0.05 0.04 0.02 0.00 0.00 0.00 0.00 0.00 0.00 0.00
0.00 0.00 0.00 0.01 0.01 0.02 0.01 0.04 0.01 0.00 0.00 0.00 0.00 0.00 0.00 0.00 0.00 0.00 0.00 0.00 0.00 0.00 0.00 0.00 0.00 0.00 0.00 0.00 0.00 0.00 0.03 0.08 0.12 0.11 0.09 0.11 0.12 0.09 0.06 0.04 0.03 0.01 0.01 0.00 0.00 0.00 0.00 0.00 0.00
0.01 0.02 0.02 0.04 0.09 0.13 0.00 0.07 0.07 0.00 0.00 0.00 0.00 0.00 0.00 0.00 0.00 0.00 0.00 0.00 0.00 0.00 0.00 0.00 0.00 0.00 0.00 0.00 0.00 0.00 0.03 0.07 0.06 0.05 0.06 0.10 0.09 0.06 0.04 0.02 0.03 0.03 0.02 0.01 0.00 0.00 0.00 0.00 0.00
0.05 0.19 0.20 0.18 0.22 0.06 0.00 0.01 0.05 0.00 0.00 0.00 0.00 0.00 0.00 0.00 0.00 0.00 0.00 0.00 0.00 0.00 0.00 0.00 0.00 0.00 0.00 0.00 0.00 0.00 0.00 0.04 0.07 0.06 0.06 0.05 0.04 0.04 0.03 0.02 0.02 0.02 0.01 0.00 0.00 0.00 0.00 0.00 0.00
0.02 0.08 0.22 0.07 0.00 0.00 0.00 0.01 0.00 0.00 0.00 0.00 0.00 0.00 0.00 0.00 0.00 0.00 0.00 0.00 0.00 0.00 0.00 0.00 0.00 0.00 0.00 0.00 0.00 0.00 0.00 0.02 0.04 0.04 0.05 0.06 0.04 0.03 0.02 0.01 0.02 0.01 0.01 0.01 0.00 0.00 0.00 0.00 0.00
0.13 0.23 0.13 0.20 0.16 0.18 0.03 0.00 0.00 0.00 0.00 0.00 0.00 0.00 0.00 0.00 0.00 0.00 0.00 0.00 0.00 0.00 0.00 0.00 0.00 0.00 0.00 0.00 0.01 0.00 0.01 0.03 0.05 0.04 0.04 0.04 0.02 0.01 0.01 0.01 0.01 0.01 0.00 0.00 0.00 0.00 0.00 0.00 0.00
0.06 0.06 0.14 0.48 0.31 0.13 0.06 0.03 0.00 0.00 0.00 0.00 0.00 0.00 0.00 0.00 0.00 0.00 0.00 0.00 0.00 0.00 0.00 0.00 0.00 0.00 0.01 0.03 0.01 0.00 0.01 0.02 0.02 0.03 0.02 0.01 0.01 0.00 0.01 0.01 0.01 0.01 0.00 0.00 0.00 0.00 0.00 0.00 0.00
0.07 0.25 0.17 0.14 0.09 0.22 0.05 0.02 0.00 0.00 0.00 0.00 0.00 0.00 0.00 0.00 0.00 0.00 0.00 0.00 0.00 0.00 0.00 0.00 0.00 0.00 0.01 0.01 0.00 0.01 0.01 0.01 0.01 0.02 0.01 0.01 0.01 0.01 0.01 0.01 0.00 0.00 0.00 0.00 0.00 0.00 0.00 0.00 0.00
0.07 0.07 0.10 0.22 0.13 0.28 0.26 0.07 0.00 0.00 0.00 0.00 0.01 0.02 0.01 0.00 0.00 0.00 0.00 0.00 0.00 0.00 0.00 0.00 0.00 0.00 0.01 0.00 0.00 0.00 0.00 0.00 0.00 0.01 0.01 0.01 0.01 0.02 0.01 0.00 0.00 0.00 0.00 0.00 0.00 0.00 0.00 0.00 0.00

GFSSGP_prec_precacc24_048.txt.gz
Total_Precipitation_Accumulation
0.00 0.00 0.00 0.00 0.00 0.00 0.00 0.00 0.00 0.00 0.00 0.00 0.00 0.00 0.00 0.00 0.00 0.00 0.00 0.00 0.00 0.00 0.00 0.01 0.02 0.03 0.01 0.00 0.00 0.00 0.00 0.00 0.00 0.01 0.02 0.08 0.04 0.00 0.00 0.00 0.00 0.01 0.02 0.01 0.02 0.04 0.03 0.01 0.00
0.00 0.00 0.00 0.00 0.00 0.00 0.00 0.00 0.00 0.00 0.00 0.00 0.00 0.00 0.00 0.00 0.00 0.00 0.00 0.00 0.00 0.00 0.00 0.00 0.01 0.01 0.00 0.00 0.00 0.00 0.00 0.00 0.00 0.01 0.06 0.06 0.01 0.00 0.00 0.00 0.00 0.00 0.00 0.00 0.00 0.00 0.00 0.00 0.00
0.00 0.00 0.00 0.00 0.00 0.00 0.00 0.00 0.00 0.00 0.00 0.00 0.00 0.00 0.00 0.00 0.00 0.00 0.00 0.00 0.00 0.00 0.00 0.00 0.01 0.01 0.01 0.00 0.00 0.00 0.00 0.00 0.00 0.02 0.03 0.01 0.00 0.00 0.00 0.00 0.00 0.00 0.00 0.00 0.00 0.00 0.00 0.00 0.00
0.00 0.00 0.00 0.00 0.00 0.00 0.00 0.00 0.00 0.00 0.00 0.00 0.00 0.00 0.00 0.00 0.00 0.00 0.00 0.00 0.00 0.00 0.00 0.00 0.01 0.01 0.02 0.00 0.00 0.00 0.00 0.00 0.00 0.01 0.00 0.00 0.00 0.01 0.00 0.00 0.00 0.00 0.00 0.00 0.00 0.00 0.00 0.00 0.00
0.00 0.00 0.00 0.00 0.00 0.00 0.00 0.00 0.00 0.00 0.00 0.00 0.00 0.00 0.00 0.00 0.00 0.00 0.00 0.00 0.00 0.00 0.00 0.00 0.01 0.02 0.02 0.00 0.00 0.00 0.00 0.00 0.00 0.00 0.00 0.00 0.02 0.03 0.02 0.00 0.00 0.00 0.00 0.00 0.00 0.00 0.00 0.00 0.00
0.00 0.00 0.00 0.00 0.00 0.00 0.00 0.00 0.00 0.00 0.00 0.00 0.00 0.00 0.00 0.00 0.00 0.00 0.00 0.00 0.00 0.00 0.00 0.00 0.01 0.03 0.02 0.00 0.00 0.00 0.00 0.00 0.00 0.00 0.00 0.00 0.02 0.03 0.07 0.02 0.00 0.00 0.00 0.00 0.00 0.00 0.00 0.00 0.00
0.00 0.00 0.00 0.00 0.00 0.00 0.00 0.00 0.00 0.00 0.00 0.00 0.00 0.00 0.00 0.00 0.00 0.00 0.00 0.00 0.00 0.00 0.00 0.00 0.00 0.02 0.02 0.01 0.00 0.00 0.00 0.00 0.00 0.00 0.00 0.00 0.01 0.00 0.06 0.05 0.01 0.00 0.00 0.00 0.01 0.00 0.00 0.00 0.00
0.00 0.00 0.00 0.00 0.00 0.00 0.00 0.00 0.00 0.00 0.00 0.00 0.00 0.00 0.00 0.00 0.00 0.00 0.00 0.00 0.00 0.00 0.01 0.00 0.00 0.01 0.01 0.01 0.00 0.00 0.00 0.00 0.00 0.00 0.00 0.00 0.00 0.00 0.03 0.04 0.01 0.00 0.00 0.00 0.01 0.00 0.00 0.00 0.00
0.00 0.00 0.00 0.00 0.00 0.00 0.00 0.00 0.00 0.00 0.00 0.00 0.00 0.00 0.00 0.00 0.00 0.00 0.00 0.00 0.00 0.00 0.00 0.00 0.00 0.00 0.00 0.01 0.01 0.00 0.00 0.00 0.00 0.00 0.00 0.00 0.00 0.00 0.00 0.01 0.00 0.00 0.01 0.00 0.00 0.00 0.00 0.00 0.00
0.00 0.00 0.00 0.00 0.00 0.00 0.00 0.00 0.00 0.00 0.00 0.00 0.00 0.00 0.00 0.00 0.00 0.00 0.00 0.00 0.00 0.00 0.00 0.00 0.00 0.00 0.00 0.00 0.01 0.00 0.00 0.00 0.00 0.00 0.00 0.00 0.00 0.00 0.00 0.00 0.00 0.00 0.00 0.00 0.00 0.00 0.00 0.00 0.00
0.00 0.00 0.00 0.00 0.00 0.00 0.00 0.00 0.00 0.00 0.00 0.00 0.00 0.00 0.00 0.00 0.00 0.00 0.00 0.00 0.00 0.00 0.00 0.00 0.00 0.00 0.00 0.00 0.00 0.00 0.00 0.00 0.00 0.00 0.00 0.00 0.00 0.00 0.00 0.00 0.00 0.00 0.00 0.00 0.00 0.00 0.00 0.00 0.00
0.00 0.00 0.00 0.00 0.00 0.00 0.00 0.00 0.00 0.00 0.00 0.00 0.00 0.00 0.00 0.00 0.00 0.00 0.00 0.00 0.00 0.00 0.00 0.00 0.00 0.00 0.00 0.00 0.00 0.00 0.00 0.00 0.00 0.00 0.00 0.00 0.00 0.00 0.00 0.00 0.00 0.00 0.00 0.00 0.00 0.00 0.00 0.00 0.00
0.00 0.00 0.00 0.00 0.00 0.00 0.00 0.00 0.00 0.00 0.00 0.00 0.00 0.00 0.00 0.00 0.00 0.00 0.00 0.00 0.00 0.00 0.00 0.00 0.00 0.00 0.00 0.00 0.00 0.00 0.00 0.00 0.00 0.00 0.00 0.00 0.00 0.00 0.00 0.00 0.00 0.00 0.00 0.00 0.00 0.00 0.00 0.00 0.00
0.00 0.00 0.00 0.00 0.00 0.00 0.00 0.00 0.00 0.00 0.00 0.00 0.00 0.00 0.00 0.00 0.00 0.00 0.00 0.00 0.00 0.00 0.00 0.00 0.00 0.00 0.00 0.00 0.01 0.00 0.00 0.00 0.00 0.00 0.00 0.00 0.00 0.00 0.00 0.00 0.00 0.00 0.00 0.00 0.00 0.00 0.00 0.00 0.00
0.00 0.00 0.00 0.00 0.00 0.00 0.00 0.00 0.00 0.00 0.00 0.00 0.00 0.00 0.00 0.00 0.00 0.00 0.00 0.00 0.00 0.00 0.00 0.00 0.00 0.00 0.00 0.00 0.00 0.00 0.00 0.00 0.02 0.00 0.00 0.00 0.00 0.00 0.00 0.00 0.00 0.00 0.00 0.00 0.00 0.00 0.00 0.00 0.00
0.00 0.00 0.00 0.00 0.00 0.00 0.00 0.00 0.00 0.00 0.00 0.00 0.00 0.00 0.00 0.00 0.00 0.00 0.00 0.00 0.00 0.00 0.00 0.00 0.00 0.00 0.00 0.00 0.00 0.02 0.01 0.00 0.05 0.02 0.00 0.00 0.00 0.00 0.00 0.00 0.00 0.00 0.00 0.00 0.00 0.00 0.00 0.00 0.00
0.00 0.00 0.00 0.00 0.00 0.00 0.00 0.00 0.00 0.00 0.00 0.00 0.00 0.00 0.00 0.00 0.00 0.00 0.00 0.00 0.00 0.00 0.00 0.00 0.00 0.00 0.01 0.02 0.01 0.03 0.05 0.00 0.02 0.03 0.00 0.00 0.00 0.00 0.00 0.00 0.00 0.00 0.00 0.00 0.00 0.00 0.00 0.00 0.00
0.00 0.00 0.00 0.00 0.00 0.00 0.00 0.00 0.00 0.00 0.00 0.00 0.00 0.00 0.00 0.00 0.00 0.00 0.00 0.00 0.00 0.00 0.00 0.00 0.00 0.00 0.02 0.04 0.05 0.04 0.09 0.07 0.04 0.01 0.01 0.02 0.01 0.00 0.00 0.00 0.00 0.00 0.00 0.00 0.00 0.00 0.00 0.00 0.00
0.00 0.00 0.00 0.00 0.00 0.00 0.00 0.00 0.00 0.00 0.00 0.00 0.00 0.00 0.00 0.00 0.00 0.00 0.00 0.00 0.00 0.00 0.00 0.00 0.00 0.00 0.02 0.03 0.03 0.03 0.12 0.21 0.14 0.09 0.05 0.06 0.04 0.02 0.00 0.00 0.00 0.00 0.00 0.00 0.00 0.00 0.00 0.00 0.00
0.00 0.00 0.00 0.00 0.00 0.00 0.00 0.00 0.00 0.00 0.00 0.00 0.00 0.00 0.00 0.00 0.00 0.00 0.00 0.00 0.00 0.00 0.00 0.00 0.00 0.00 0.00 0.01 0.01 0.06 0.18 0.26 0.24 0.17 0.12 0.12 0.13 0.15 0.06 0.00 0.00 0.00 0.00 0.00 0.00 0.00 0.00 0.00 0.00
0.00 0.00 0.00 0.00 0.00 0.00 0.00 0.00 0.00 0.00 0.00 0.00 0.00 0.00 0.00 0.00 0.00 0.00 0.00 0.00 0.00 0.00 0.00 0.00 0.00 0.00 0.00 0.00 0.03 0.07 0.13 0.17 0.19 0.12 0.08 0.11 0.18 0.29 0.16 0.04 0.01 0.00 0.00 0.00 0.00 0.00 0.00 0.00 0.00
0.00 0.00 0.00 0.00 0.01 0.00 0.00 0.00 0.00 0.00 0.00 0.00 0.00 0.00 0.00 0.00 0.00 0.00 0.00 0.00 0.00 0.00 0.00 0.00 0.00 0.00 0.00 0.00 0.00 0.01 0.04 0.09 0.14 0.18 0.18 0.23 0.24 0.28 0.18 0.10 0.09 0.05 0.02 0.00 0.00 0.00 0.00 0.00 0.00
0.00 0.00 0.00 0.01 0.01 0.01 0.00 0.02 0.00 0.00 0.00 0.00 0.00 0.00 0.00 0.00 0.00 0.00 0.00 0.00 0.00 0.00 0.00 0.00 0.00 0.00 0.00 0.00 0.00 0.00 0.04 0.10 0.13 0.16 0.16 0.20 0.26 0.22 0.16 0.10 0.08 0.05 0.03 0.02 0.02 0.01 0.00 0.00 0.00
0.01 0.01 0.02 0.04 0.07 0.10 0.00 0.00 0.00 0.00 0.00 0.00 0.00 0.00 0.00 0.00 0.00 0.00 0.00 0.00 0.00 0.00 0.00 0.00 0.00 0.00 0.00 0.00 0.00 0.00 0.03 0.07 0.07 0.07 0.09 0.14 0.16 0.15 0.12 0.08 0.05 0.06 0.05 0.05 0.03 0.01 0.00 0.00 0.00
0.04 0.17 0.18 0.18 0.20 0.05 0.00 0.00 0.00 0.00 0.00 0.00 0.00 0.00 0.00 0.00 0.00 0.00 0.00 0.00 0.00 0.00 0.00 0.00 0.00 0.00 0.00 0.00 0.00 0.00 0.00 0.04 0.07 0.07 0.07 0.07 0.08 0.08 0.09 0.07 0.05 0.05 0.03 0.02 0.01 0.00 0.00 0.00 0.00
0.02 0.08 0.22 0.07 0.00 0.00 0.00 0.00 0.00 0.00 0.00 0.00 0.00 0.00 0.00 0.00 0.00 0.00 0.00 0.00 0.00 0.00 0.00 0.00 0.00 0.00 0.00 0.00 0.00 0.00 0.00 0.02 0.05 0.05 0.06 0.07 0.08 0.08 0.05 0.03 0.03 0.02 0.01 0.02 0.01 0.01 0.00 0.00 0.00
0.11 0.19 0.13 0.18 0.14 0.16 0.01 0.00 0.00 0.00 0.00 0.00 0.00 0.00 0.00 0.00 0.00 0.00 0.00 0.00 0.00 0.00 0.00 0.00 0.00 0.00 0.00 0.00 0.01 0.00 0.01 0.04 0.06 0.06 0.07 0.08 0.07 0.05 0.03 0.03 0.03 0.02 0.01 0.01 0.01 0.00 0.00 0.00 0.00
0.05 0.04 0.13 0.41 0.21 0.07 0.00 0.00 0.00 0.00 0.00 0.00 0.00 0.00 0.00 0.00 0.00 0.00 0.00 0.00 0.00 0.00 0.00 0.00 0.00 0.00 0.01 0.03 0.01 0.01 0.01 0.04 0.05 0.06 0.06 0.05 0.03 0.02 0.02 0.01 0.01 0.01 0.01 0.00 0.01 0.00 0.00 0.00 0.00
0.02 0.12 0.14 0.10 0.03 0.02 0.00 0.00 0.00 0.00 0.00 0.00 0.00 0.00 0.00 0.00 0.00 0.00 0.00 0.00 0.00 0.00 0.00 0.00 0.00 0.00 0.01 0.01 0.01 0.02 0.03 0.05 0.04 0.05 0.04 0.03 0.02 0.01 0.01 0.01 0.01 0.00 0.00 0.01 0.01 0.00 0.00 0.00 0.00
0.03 0.03 0.06 0.21 0.05 0.13 0.16 0.05 0.00 0.00 0.00 0.00 0.01 0.02 0.01 0.00 0.00 0.00 0.00 0.00 0.00 0.00 0.00 0.00 0.00 0.00 0.01 0.00 0.00 0.00 0.02 0.04 0.05 0.04 0.03 0.01 0.02 0.02 0.01 0.00 0.00 0.00 0.01 0.00 0.00 0.00 0.00 0.00 0.00

GFSSGP_prec_precacc24_051.txt.gz
Total_Precipitation_Accumulation
0.00 0.00 0.00 0.00 0.00 0.00 0.00 0.00 0.00 0.00 0.00 0.00 0.00 0.00 0.00 0.00 0.00 0.00 0.00 0.00 0.00 0.00 0.00 0.01 0.03 0.03 0.02 0.01 0.00 0.00 0.00 0.00 0.00 0.01 0.02 0.07 0.04 0.00 0.00 0.00 0.01 0.03 0.02 0.02 0.03 0.08 0.05 0.01 0.00
0.00 0.00 0.00 0.00 0.00 0.00 0.00 0.00 0.00 0.00 0.00 0.00 0.00 0.00 0.00 0.00 0.00 0.00 0.00 0.00 0.00 0.00 0.00 0.00 0.02 0.02 0.01 0.00 0.00 0.00 0.00 0.00 0.00 0.01 0.06 0.06 0.01 0.00 0.00 0.00 0.00 0.01 0.02 0.01 0.01 0.00 0.00 0.00 0.00
0.00 0.00 0.00 0.00 0.00 0.00 0.00 0.00 0.00 0.00 0.00 0.00 0.00 0.00 0.00 0.00 0.00 0.00 0.00 0.00 0.00 0.00 0.00 0.00 0.02 0.02 0.01 0.00 0.00 0.00 0.00 0.00 0.00 0.02 0.04 0.01 0.00 0.00 0.00 0.00 0.00 0.00 0.00 0.00 0.00 0.00 0.00 0.00 0.00
0.00 0.00 0.00 0.00 0.00 0.00 0.00 0.00 0.00 0.00 0.00 0.00 0.00 0.00 0.00 0.00 0.00 0.00 0.00 0.00 0.00 0.00 0.00 0.00 0.01 0.01 0.01 0.00 0.00 0.00 0.00 0.00 0.00 0.02 0.01 0.00 0.00 0.00 0.00 0.00 0.00 0.00 0.00 0.00 0.00 0.00 0.00 0.00 0.00
0.00 0.00 0.00 0.00 0.00 0.00 0.00 0.00 0.00 0.00 0.00 0.00 0.00 0.00 0.00 0.00 0.00 0.00 0.00 0.00 0.00 0.00 0.00 0.00 0.01 0.02 0.02 0.00 0.00 0.00 0.00 0.00 0.01 0.01 0.00 0.00 0.01 0.02 0.01 0.00 0.00 0.00 0.00 0.00 0.00 0.00 0.00 0.00 0.00
0.00 0.00 0.00 0.00 0.00 0.00 0.00 0.00 0.00 0.00 0.00 0.00 0.00 0.00 0.00 0.00 0.00 0.00 0.00 0.00 0.00 0.00 0.00 0.00 0.01 0.03 0.02 0.00 0.00 0.00 0.00 0.00 0.01 0.00 0.00 0.00 0.02 0.03 0.05 0.02 0.00 0.00 0.00 0.00 0.00 0.00 0.00 0.00 0.00
0.00 0.00 0.00 0.00 0.00 0.00 0.00 0.00 0.00 0.00 0.00 0.00 0.00 0.00 0.00 0.00 0.00 0.00 0.00 0.00 0.00 0.00 0.00 0.00 0.00 0.02 0.02 0.01 0.00 0.00 0.00 0.00 0.00 0.00 0.00 0.00 0.01 0.00 0.05 0.05 0.01 0.00 0.00 0.00 0.01 0.00 0.00 0.00 0.00
0.00 0.00 0.00 0.00 0.00 0.00 0.00 0.00 0.00 0.00 0.00 0.00 0.00 0.00 0.00 0.00 0.00 0.00 0.00 0.00 0.00 0.00 0.01 0.00 0.00 0.01 0.01 0.01 0.00 0.00 0.00 0.00 0.00 0.00 0.00 0.00 0.00 0.00 0.03 0.04 0.01 0.00 0.00 0.00 0.01 0.00 0.00 0.00 0.00
0.00 0.00 0.00 0.00 0.00 0.00 0.00 0.00 0.00 0.00 0.00 0.00 0.00 0.00 0.00 0.00 0.00 0.00 0.00 0.00 0.00 0.02 0.04 0.01 0.01 0.00 0.00 0.01 0.01 0.00 0.00 0.00 0.00 0.00 0.00 0.00 0.00 0.00 0.00 0.01 0.00 0.00 0.01 0.00 0.00 0.00 0.00 0.00 0.00
0.00 0.00 0.00 0.00 0.00 0.00 0.00 0.00 0.00 0.00 0.00 0.00 0.00 0.00 0.00 0.00 0.00 0.00 0.00 0.00 0.00 0.01 0.04 0.02 0.00 0.00 0.00 0.00 0.01 0.00 0.00 0.00 0.00 0.00 0.00 0.00 0.00 0.00 0.00 0.00 0.00 0.00 0.00 0.00 0.00 0.00 0.00 0.00 0.00
0.00 0.00 0.00 0.00 0.00 0.00 0.00 0.00 0.00 0.00 0.00 0.00 0.00 0.00 0.00 0.00 0.00 0.00 0.00 0.00 0.00 0.00 0.01 0.00 0.00 0.00 0.00 0.00 0.00 0.00 0.00 0.00 0.00 0.00 0.00 0.00 0.00 0.00 0.00 0.00 0.00 0.00 0.00 0.00 0.00 0.00 0.00 0.00 0.00
0.00 0.00 0.00 0.00 0.00 0.00 0.00 0.00 0.00 0.00 0.00 0.00 0.00 0.00 0.00 0.00 0.00 0.00 0.00 0.00 0.00 0.00 0.00 0.00 0.00 0.00 0.00 0.00 0.00 0.00 0.00 0.00 0.00 0.00 0.00 0.00 0.00 0.00 0.00 0.00 0.00 0.00 0.00 0.00 0.00 0.00 0.00 0.00 0.00
0.00 0.00 0.00 0.00 0.00 0.00 0.00 0.00 0.00 0.00 0.00 0.00 0.00 0.00 0.00 0.00 0.00 0.00 0.00 0.00 0.00 0.00 0.00 0.00 0.00 0.00 0.00 0.00 0.00 0.00 0.00 0.00 0.00 0.00 0.00 0.00 0.00 0.00 0.00 0.00 0.00 0.00 0.00 0.00 0.00 0.00 0.00 0.00 0.00
0.00 0.00 0.00 0.00 0.00 0.00 0.00 0.00 0.00 0.00 0.00 0.00 0.00 0.00 0.00 0.00 0.00 0.00 0.00 0.00 0.00 0.00 0.00 0.00 0.00 0.00 0.00 0.00 0.01 0.00 0.00 0.00 0.00 0.00 0.00 0.00 0.00 0.00 0.00 0.00 0.00 0.00 0.00 0.00 0.00 0.00 0.00 0.00 0.00
0.00 0.00 0.00 0.00 0.00 0.00 0.00 0.00 0.00 0.00 0.00 0.00 0.00 0.00 0.00 0.00 0.00 0.00 0.00 0.00 0.00 0.00 0.00 0.00 0.00 0.00 0.00 0.00 0.00 0.02 0.02 0.00 0.02 0.00 0.00 0.00 0.00 0.00 0.00 0.00 0.00 0.00 0.00 0.00 0.00 0.00 0.00 0.00 0.00
0.00 0.00 0.00 0.00 0.00 0.00 0.00 0.00 0.00 0.00 0.00 0.00 0.00 0.00 0.00 0.00 0.00 0.00 0.00 0.00 0.00 0.00 0.00 0.00 0.00 0.03 0.01 0.00 0.01 0.05 0.04 0.01 0.06 0.02 0.00 0.00 0.00 0.00 0.00 0.00 0.00 0.00 0.00 0.00 0.00 0.00 0.00 0.00 0.00
0.00 0.00 0.00 0.00 0.00 0.00 0.00 0.00 0.00 0.00 0.00 0.00 0.00 0.00 0.00 0.00 0.00 0.00 0.00 0.00 0.00 0.00 0.00 0.00 0.00 0.01 0.04 0.07 0.05 0.07 0.10 0.02 0.03 0.04 0.00 0.00 0.00 0.00 0.00 0.00 0.00 0.00 0.00 0.00 0.00 0.00 0.00 0.00 0.00
0.00 0.00 0.00 0.00 0.00 0.00 0.00 0.00 0.00 0.00 0.00 0.00 0.00 0.00 0.00 0.00 0.00 0.00 0.00 0.00 0.00 0.00 0.00 0.00 0.00 0.00 0.03 0.08 0.12 0.11 0.16 0.10 0.04 0.02 0.01 0.02 0.01 0.00 0.00 0.00 0.00 0.00 0.00 0.00 0.00 0.00 0.00 0.00 0.00
0.00 0.00 0.00 0.00 0.00 0.00 0.00 0.00 0.00 0.00 0.00 0.00 0.00 0.00 0.00 0.00 0.00 0.00 0.00 0.00 0.00 0.00 0.00 0.00 0.00 0.00 0.02 0.04 0.05 0.05 0.14 0.24 0.15 0.12 0.10 0.09 0.07 0.05 0.02 0.00 0.00 0.00 0.00 0.00 0.00 0.00 0.00 0.00 0.00
0.00 0.00 0.00 0.00 0.00 0.00 0.00 0.00 0.00 0.00 0.00 0.00 0.00 0.00 0.00 0.00 0.00 0.00 0.00 0.00 0.00 0.00 0.00 0.00 0.00 0.00 0.00 0.01 0.01 0.07 0.19 0.27 0.27 0.22 0.16 0.16 0.16 0.23 0.11 0.01 0.00 0.00 0.00 0.00 0.00 0.00 0.00 0.00 0.00
0.00 0.00 0.00 0.00 0.00 0.00 0.00 0.00 0.00 0.00 0.00 0.00 0.00 0.00 0.00 0.00 0.00 0.00 0.00 0.00 0.00 0.00 0.00 0.00 0.00 0.00 0.00 0.00 0.03 0.09 0.17 0.23 0.23 0.16 0.10 0.12 0.21 0.42 0.25 0.06 0.02 0.00 0.01 0.03 0.01 0.00 0.00 0.00 0.00
0.00 0.00 0.00 0.00 0.00 0.00 0.00 0.00 0.00 0.00 0.00 0.00 0.00 0.00 0.00 0.00 0.00 0.00 0.00 0.00 0.00 0.00 0.00 0.00 0.00 0.00 0.00 0.00 0.00 0.01 0.04 0.10 0.15 0.18 0.19 0.25 0.26 0.40 0.30 0.17 0.13 0.12 0.11 0.10 0.07 0.04 0.01 0.00 0.00
0.00 0.00 0.00 0.00 0.00 0.01 0.00 0.01 0.00 0.00 0.00 0.00 0.00 0.00 0.00 0.00 0.00 0.00 0.00 0.00 0.00 0.00 0.00 0.00 0.00 0.00 0.00 0.00 0.00 0.00 0.04 0.11 0.15 0.17 0.19 0.23 0.29 0.29 0.26 0.21 0.17 0.13 0.10 0.08 0.07 0.06 0.02 0.00 0.00
0.00 0.01 0.01 0.03 0.06 0.09 0.00 0.00 0.00 0.00 0.00 0.00 0.00 0.00 0.00 0.00 0.00 0.00 0.00 0.00 0.00 0.00 0.00 0.00 0.00 0.00 0.00 0.00 0.00 0.00 0.03 0.07 0.07 0.11 0.16 0.18 0.19 0.18 0.16 0.16 0.14 0.14 0.11 0.09 0.06 0.04 0.01 0.01 0.00
0.03 0.14 0.14 0.14 0.17 0.04 0.00 0.00 0.00 0.00 0.00 0.00 0.00 0.00 0.00 0.00 0.00 0.00 0.00 0.00 0.00 0.00 0.00 0.00 0.00 0.00 0.00 0.00 0.00 0.00 0.00 0.04 0.07 0.10 0.12 0.09 0.09 0.09 0.11 0.12 0.10 0.12 0.09 0.06 0.03 0.01 0.01 0.01 0.00
0.01 0.06 0.16 0.06 0.00 0.00 0.00 0.00 0.00 0.00 0.00 0.00 0.00 0.00 0.00 0.00 0.00 0.00 0.00 0.00 0.00 0.00 0.00 0.00 0.00 0.00 0.00 0.00 0.00 0.00 0.00 0.02 0.05 0.05 0.06 0.08 0.09 0.10 0.09 0.09 0.09 0.07 0.05 0.04 0.02 0.01 0.00 0.00 0.00
0.06 0.13 0.09 0.17 0.14 0.15 0.01 0.00 0.00 0.00 0.00 0.00 0.00 0.00 0.00 0.00 0.00 0.00 0.00 0.00 0.00 0.00 0.00 0.00 0.00 0.00 0.00 0.00 0.01 0.00 0.01 0.04 0.06 0.06 0.07 0.09 0.10 0.08 0.07 0.07 0.07 0.04 0.02 0.01 0.01 0.00 0.00 0.00 0.00
0.04 0.03 0.09 0.31 0.18 0.07 0.00 0.00 0.00 0.00 0.00 0.00 0.00 0.00 0.00 0.00 0.00 0.00 0.00 0.00 0.00 0.00 0.00 0.00 0.00 0.00 0.01 0.03 0.01 0.01 0.01 0.04 0.05 0.06 0.07 0.07 0.07 0.06 0.07 0.05 0.03 0.02 0.01 0.00 0.01 0.00 0.00 0.01 0.01
0.01 0.08 0.10 0.09 0.03 0.02 0.00 0.00 0.00 0.00 0.00 0.00 0.00 0.00 0.00 0.00 0.00 0.00 0.00 0.00 0.00 0.00 0.00 0.00 0.00 0.00 0.01 0.01 0.01 0.02 0.03 0.05 0.04 0.06 0.05 0.06 0.05 0.05 0.05 0.03 0.01 0.01 0.00 0.01 0.01 0.00 0.00 0.00 0.00
0.00 0.00 0.04 0.18 0.05 0.13 0.11 0.04 0.00 0.00 0.00 0.00 0.00 0.00 0.00 0.00 0.00 0.00 0.00 0.00 0.00 0.00 0.00 0.00 0.00 0.00 0.01 0.00 0.00 0.00 0.02 0.04 0.05 0.06 0.05 0.04 0.04 0.04 0.03 0.01 0.00 0.00 0.01 0.00 0.00 0.00 0.01 0.01 0.01

GFSSGP_prec_precacc24_054.txt.gz
Total_Precipitation_Accumulation
0.00 0.00 0.00 0.00 0.00 0.00 0.00 0.00 0.00 0.00 0.00 0.00 0.00 0.00 0.00 0.00 0.00 0.00 0.00 0.00 0.00 0.00 0.00 0.01 0.03 0.02 0.02 0.02 0.01 0.01 0.00 0.00 0.01 0.01 0.02 0.06 0.03 0.00 0.00 0.00 0.01 0.03 0.02 0.02 0.09 0.14 0.06 0.01 0.00
0.00 0.00 0.00 0.00 0.00 0.00 0.00 0.00 0.00 0.00 0.00 0.00 0.00 0.00 0.00 0.00 0.00 0.00 0.00 0.00 0.00 0.00 0.00 0.00 0.02 0.02 0.01 0.01 0.01 0.01 0.01 0.00 0.01 0.01 0.06 0.05 0.00 0.00 0.00 0.00 0.02 0.03 0.02 0.03 0.03 0.01 0.00 0.00 0.00
0.00 0.00 0.00 0.00 0.00 0.00 0.00 0.00 0.00 0.00 0.00 0.00 0.00 0.00 0.00 0.00 0.00 0.00 0.00 0.00 0.00 0.00 0.00 0.00 0.02 0.02 0.01 0.01 0.00 0.00 0.01 0.01 0.01 0.02 0.04 0.01 0.00 0.00 0.00 0.00 0.01 0.01 0.01 0.00 0.00 0.00 0.00 0.00 0.00
0.00 0.00 0.00 0.00 0.00 0.00 0.00 0.00 0.00 0.00 0.00 0.00 0.00 0.00 0.00 0.00 0.00 0.00 0.00 0.00 0.00 0.00 0.00 0.00 0.01 0.02 0.01 0.00 0.00 0.00 0.01 0.01 0.01 0.02 0.01 0.00 0.00 0.00 0.00 0.00 0.00 0.00 0.00 0.00 0.00 0.00 0.00 0.00 0.00
0.00 0.00 0.00 0.00 0.00 0.00 0.00 0.00 0.00 0.00 0.00 0.00 0.00 0.00 0.00 0.00 0.00 0.00 0.00 0.00 0.00 0.00 0.00 0.00 0.01 0.02 0.02 0.00 0.00 0.00 0.00 0.00 0.01 0.01 0.00 0.00 0.00 0.00 0.01 0.00 0.00 0.00 0.00 0.00 0.00 0.00 0.00 0.00 0.00
0.00 0.00 0.00 0.00 0.00 0.00 0.00 0.00 0.00 0.00 0.00 0.00 0.00 0.00 0.00 0.00 0.00 0.00 0.00 0.00 0.00 0.00 0.00 0.00 0.01 0.03 0.02 0.00 0.00 0.00 0.00 0.00 0.01 0.01 0.00 0.00 0.02 0.02 0.04 0.02 0.00 0.00 0.00 0.00 0.00 0.00 0.00 0.00 0.00
0.00 0.00 0.00 0.00 0.00 0.00 0.00 0.00 0.00 0.00 0.00 0.00 0.00 0.00 0.00 0.00 0.00 0.00 0.00 0.00 0.00 0.00 0.00 0.00 0.00 0.02 0.02 0.01 0.00 0.00 0.00 0.00 0.01 0.00 0.00 0.00 0.01 0.00 0.03 0.04 0.01 0.00 0.00 0.00 0.01 0.00 0.00 0.00 0.00
0.00 0.00 0.00 0.00 0.00 0.00 0.00 0.00 0.00 0.00 0.00 0.00 0.00 0.00 0.00 0.00 0.00 0.00 0.00 0.00 0.00 0.00 0.01 0.00 0.00 0.01 0.01 0.01 0.00 0.00 0.00 0.00 0.00 0.00 0.00 0.00 0.00 0.00 0.03 0.03 0.01 0.00 0.00 0.00 0.01 0.00 0.00 0.00 0.00
0.00 0.00 0.00 0.00 0.00 0.00 0.00 0.00 0.00 0.00 0.00 0.00 0.00 0.00 0.00 0.00 0.00 0.00 0.00 0.00 0.00 0.02 0.04 0.01 0.01 0.00 0.00 0.01 0.01 0.00 0.00 0.00 0.00 0.00 0.00 0.00 0.00 0.00 0.00 0.01 0.00 0.00 0.01 0.00 0.00 0.00 0.00 0.00 0.00
0.00 0.00 0.00 0.00 0.00 0.00 0.00 0.00 0.00 0.00 0.00 0.00 0.00 0.00 0.00 0.00 0.00 0.00 0.00 0.00 0.01 0.02 0.04 0.02 0.00 0.00 0.00 0.00 0.01 0.00 0.00 0.00 0.00 0.00 0.00 0.00 0.00 0.00 0.00 0.00 0.00 0.00 0.00 0.00 0.00 0.00 0.00 0.00 0.00
0.00 0.00 0.00 0.00 0.00 0.00 0.00 0.00 0.00 0.00 0.00 0.00 0.00 0.00 0.00 0.00 0.00 0.00 0.00 0.00 0.01 0.01 0.01 0.00 0.00 0.00 0.00 0.00 0.00 0.00 0.00 0.00 0.00 0.00 0.00 0.00 0.00 0.00 0.00 0.00 0.00 0.00 0.00 0.00 0.00 0.00 0.00 0.00 0.00
0.00 0.00 0.00 0.00 0.00 0.00 0.00 0.00 0.00 0.00 0.00 0.00 0.00 0.00 0.00 0.00 0.00 0.00 0.00 0.00 0.00 0.00 0.01 0.00 0.00 0.00 0.00 0.00 0.00 0.00 0.00 0.00 0.00 0.00 0.00 0.00 0.00 0.00 0.00 0.00 0.00 0.00 0.00 0.00 0.00 0.00 0.00 0.00 0.00
0.00 0.00 0.00 0.00 0.00 0.00 0.00 0.00 0.00 0.00 0.00 0.00 0.00 0.00 0.00 0.00 0.00 0.00 0.00 0.00 0.00 0.00 0.01 0.00 0.00 0.00 0.00 0.00 0.00 0.00 0.00 0.00 0.00 0.00 0.00 0.00 0.00 0.00 0.00 0.00 0.00 0.00 0.00 0.00 0.00 0.00 0.00 0.00 0.00
0.00 0.00 0.00 0.00 0.00 0.00 0.00 0.00 0.00 0.00 0.00 0.00 0.00 0.00 0.00 0.00 0.00 0.00 0.00 0.00 0.00 0.00 0.01 0.01 0.00 0.00 0.00 0.00 0.01 0.01 0.00 0.00 0.00 0.00 0.00 0.00 0.00 0.00 0.00 0.00 0.00 0.00 0.00 0.00 0.00 0.00 0.00 0.00 0.00
0.00 0.00 0.00 0.00 0.00 0.00 0.00 0.00 0.00 0.00 0.00 0.00 0.00 0.00 0.00 0.00 0.00 0.00 0.00 0.00 0.00 0.00 0.01 0.01 0.01 0.01 0.00 0.00 0.03 0.04 0.05 0.01 0.02 0.00 0.00 0.00 0.00 0.00 0.00 0.00 0.00 0.00 0.00 0.00 0.00 0.00 0.00 0.00 0.00
0.00 0.00 0.00 0.00 0.00 0.00 0.00 0.00 0.00 0.00 0.00 0.00 0.00 0.00 0.00 0.00 0.00 0.00 0.00 0.00 0.00 0.00 0.00 0.00 0.02 0.04 0.01 0.01 0.05 0.07 0.06 0.02 0.06 0.02 0.00 0.00 0.00 0.00 0.00 0.00 0.00 0.00 0.00 0.00 0.00 0.00 0.00 0.00 0.00
0.00 0.00 0.00 0.00 0.00 0.00 0.00 0.00 0.00 0.00 0.00 0.00 0.00 0.00 0.00 0.00 0.00 0.00 0.00 0.00 0.00 0.00 0.00 0.00 0.00 0.01 0.05 0.09 0.07 0.11 0.15 0.05 0.05 0.05 0.00 0.00 0.00 0.00 0.00 0.00 0.00 0.00 0.00 0.00 0.00 0.00 0.00 0.00 0.00
0.00 0.00 0.00 0.00 0.00 0.00 0.00 0.00 0.00 0.00 0.00 0.00 0.00 0.00 0.00 0.00 0.00 0.00 0.00 0.00 0.00 0.00 0.00 0.00 0.00 0.00 0.03 0.09 0.14 0.15 0.17 0.12 0.05 0.06 0.03 0.04 0.01 0.00 0.00 0.00 0.00 0.00 0.00 0.00 0.00 0.00 0.00 0.00 0.00
0.00 0.00 0.00 0.00 0.00 0.00 0.00 0.00 0.00 0.00 0.00 0.00 0.00 0.00 0.00 0.00 0.00 0.00 0.00 0.00 0.00 0.00 0.00 0.00 0.00 0.00 0.02 0.05 0.05 0.06 0.14 0.26 0.16 0.15 0.16 0.11 0.09 0.08 0.05 0.02 0.00 0.00 0.00 0.00 0.00 0.00 0.00 0.00 0.00
0.00 0.00 0.00 0.00 0.00 0.00 0.00 0.00 0.00 0.00 0.00 0.00 0.00 0.00 0.00 0.00 0.00 0.00 0.00 0.00 0.00 0.00 0.00 0.00 0.00 0.00 0.00 0.01 0.02 0.07 0.19 0.27 0.28 0.25 0.19 0.21 0.21 0.28 0.14 0.05 0.01 0.00 0.00 0.00 0.00 0.00 0.00 0.00 0.00
0.00 0.00 0.00 0.00 0.00 0.00 0.00 0.00 0.00 0.00 0.00 0.00 0.00 0.00 0.00 0.00 0.00 0.00 0.00 0.00 0.00 0.00 0.00 0.00 0.00 0.00 0.00 0.00 0.03 0.09 0.17 0.23 0.23 0.16 0.11 0.13 0.26 0.46 0.31 0.11 0.05 0.02 0.02 0.05 0.03 0.04 0.03 0.01 0.00
0.02 0.00 0.00 0.00 0.00 0.00 0.00 0.00 0.00 0.00 0.00 0.00 0.00 0.00 0.00 0.00 0.00 0.00 0.00 0.00 0.00 0.00 0.00 0.00 0.00 0.00 0.00 0.00 0.00 0.01 0.04 0.10 0.15 0.18 0.19 0.25 0.28 0.45 0.38 0.22 0.16 0.15 0.14 0.14 0.14 0.10 0.09 0.05 0.02
0.00 0.00 0.00 0.00 0.00 0.01 0.00 0.01 0.00 0.00 0.00 0.00 0.00 0.00 0.00 0.00 0.00 0.00 0.00 0.00 0.00 0.00 0.00 0.00 0.00 0.00 0.00 0.00 0.00 0.00 0.04 0.11 0.15 0.17 0.19 0.24 0.30 0.33 0.34 0.25 0.21 0.16 0.13 0.12 0.10 0.09 0.05 0.03 0.02
0.00 0.00 0.01 0.01 0.04 0.07 0.00 0.00 0.00 0.00 0.00 0.00 0.00 0.00 0.00 0.00 0.00 0.00 0.00 0.00 0.00 0.00 0.00 0.00 0.00 0.00 0.00 0.00 0.00 0.00 0.03 0.07 0.07 0.11 0.18 0.21 0.21 0.20 0.19 0.18 0.18 0.19 0.14 0.13 0.11 0.08 0.05 0.02 0.01
0.02 0.07 0.06 0.07 0.10 0.03 0.00 0.00 0.00 0.00 0.00 0.00 0.00 0.00 0.00 0.00 0.00 0.00 0.00 0.00 0.00 0.00 0.00 0.00 0.00 0.00 0.00 0.00 0.00 0.00 0.00 0.04 0.07 0.11 0.13 0.14 0.13 0.11 0.14 0.17 0.15 0.16 0.15 0.13 0.08 0.06 0.04 0.02 0.01
0.01 0.03 0.06 0.02 0.00 0.00 0.00 0.00 0.00 0.00 0.00 0.00 0.00 0.00 0.00 0.00 0.00 0.00 0.00 0.00 0.00 0.00 0.00 0.00 0.00 0.00 0.00 0.00 0.00 0.00 0.00 0.02 0.05 0.06 0.07 0.08 0.10 0.14 0.12 0.13 0.14 0.12 0.11 0.10 0.06 0.03 0.02 0.00 0.00
0.02 0.03 0.02 0.08 0.06 0.09 0.01 0.00 0.00 0.00 0.00 0.00 0.00 0.00 0.00 0.00 0.00 0.00 0.00 0.00 0.00 0.00 0.00 0.00 0.00 0.00 0.00 0.00 0.01 0.00 0.01 0.04 0.06 0.06 0.07 0.09 0.10 0.09 0.09 0.12 0.13 0.10 0.07 0.06 0.04 0.01 0.00 0.00 0.00
0.01 0.01 0.04 0.13 0.07 0.04 0.00 0.00 0.00 0.00 0.00 0.00 0.00 0.00 0.00 0.00 0.00 0.00 0.00 0.00 0.00 0.00 0.00 0.00 0.00 0.00 0.01 0.03 0.01 0.01 0.01 0.04 0.05 0.06 0.07 0.07 0.07 0.06 0.09 0.10 0.09 0.07 0.05 0.02 0.02 0.01 0.00 0.01 0.01
0.01 0.03 0.05 0.07 0.02 0.02 0.00 0.00 0.00 0.00 0.00 0.00 0.00 0.00 0.00 0.00 0.00 0.00 0.00 0.00 0.00 0.00 0.00 0.00 0.00 0.00 0.01 0.01 0.01 0.02 0.03 0.05 0.04 0.06 0.05 0.06 0.05 0.05 0.06 0.05 0.05 0.04 0.03 0.02 0.01 0.00 0.00 0.00 0.00
0.00 0.00 0.04 0.18 0.05 0.13 0.11 0.04 0.00 0.00 0.00 0.00 0.00 0.00 0.00 0.00 0.00 0.00 0.00 0.00 0.00 0.00 0.00 0.00 0.00 0.00 0.01 0.00 0.00 0.00 0.02 0.04 0.05 0.06 0.05 0.04 0.04 0.04 0.03 0.02 0.02 0.02 0.01 0.01 0.00 0.00 0.01 0.01 0.01

GFSSGP_prec_precacc24_057.txt.gz
Total_Precipitation_Accumulation
0.00 0.00 0.00 0.00 0.00 0.00 0.00 0.00 0.00 0.00 0.00 0.00 0.00 0.00 0.00 0.00 0.00 0.00 0.00 0.00 0.00 0.00 0.00 0.01 0.03 0.02 0.03 0.04 0.03 0.01 0.01 0.01 0.01 0.02 0.02 0.05 0.03 0.00 0.00 0.00 0.01 0.03 0.02 0.04 0.18 0.18 0.06 0.01 0.00
0.00 0.00 0.00 0.00 0.00 0.00 0.00 0.00 0.00 0.00 0.00 0.00 0.00 0.00 0.00 0.00 0.00 0.00 0.00 0.00 0.00 0.00 0.00 0.01 0.02 0.02 0.02 0.03 0.01 0.01 0.01 0.01 0.01 0.01 0.05 0.04 0.00 0.00 0.00 0.01 0.03 0.03 0.02 0.06 0.06 0.02 0.00 0.00 0.00
0.00 0.00 0.00 0.00 0.00 0.00 0.00 0.00 0.00 0.00 0.00 0.00 0.00 0.00 0.00 0.00 0.00 0.00 0.00 0.00 0.00 0.00 0.00 0.00 0.02 0.02 0.02 0.02 0.01 0.00 0.01 0.01 0.01 0.02 0.04 0.00 0.00 0.00 0.00 0.01 0.02 0.01 0.01 0.00 0.00 0.00 0.00 0.00 0.00
0.00 0.00 0.00 0.00 0.00 0.00 0.00 0.00 0.00 0.00 0.00 0.00 0.00 0.00 0.00 0.00 0.00 0.00 0.00 0.00 0.00 0.00 0.00 0.00 0.01 0.02 0.02 0.01 0.01 0.00 0.01 0.01 0.01 0.02 0.01 0.00 0.00 0.00 0.00 0.00 0.00 0.00 0.00 0.00 0.00 0.00 0.00 0.00 0.00
0.00 0.00 0.00 0.00 0.00 0.00 0.00 0.00 0.00 0.00 0.00 0.00 0.00 0.00 0.00 0.00 0.00 0.00 0.00 0.00 0.00 0.00 0.00 0.00 0.02 0.03 0.02 0.01 0.00 0.00 0.01 0.01 0.01 0.01 0.00 0.00 0.00 0.00 0.00 0.00 0.00 0.00 0.00 0.00 0.00 0.00 0.00 0.00 0.00
0.00 0.00 0.00 0.00 0.00 0.00 0.00 0.00 0.00 0.00 0.00 0.00 0.00 0.00 0.00 0.00 0.00 0.00 0.00 0.00 0.00 0.00 0.00 0.00 0.01 0.03 0.02 0.01 0.00 0.00 0.01 0.01 0.02 0.01 0.00 0.00 0.00 0.01 0.02 0.01 0.00 0.00 0.00 0.00 0.00 0.00 0.00 0.00 0.00
0.00 0.00 0.00 0.00 0.00 0.00 0.00 0.00 0.00 0.00 0.00 0.00 0.00 0.00 0.00 0.00 0.00 0.00 0.00 0.00 0.00 0.00 0.00 0.00 0.00 0.02 0.02 0.01 0.00 0.00 0.00 0.00 0.01 0.01 0.00 0.00 0.01 0.00 0.02 0.03 0.01 0.00 0.00 0.00 0.00 0.00 0.00 0.00 0.00
0.00 0.00 0.00 0.00 0.00 0.00 0.00 0.00 0.00 0.00 0.00 0.00 0.00 0.00 0.00 0.00 0.00 0.00 0.00 0.00 0.00 0.00 0.01 0.00 0.00 0.01 0.01 0.01 0.00 0.00 0.00 0.00 0.01 0.01 0.00 0.00 0.00 0.00 0.02 0.02 0.01 0.00 0.00 0.00 0.00 0.00 0.00 0.00 0.00
0.00 0.00 0.00 0.00 0.00 0.00 0.00 0.00 0.00 0.00 0.00 0.00 0.00 0.00 0.00 0.00 0.00 0.00 0.00 0.00 0.00 0.02 0.04 0.01 0.01 0.00 0.00 0.01 0.01 0.00 0.00 0.00 0.00 0.00 0.00 0.00 0.00 0.00 0.00 0.01 0.00 0.00 0.01 0.00 0.00 0.00 0.00 0.00 0.00
0.00 0.00 0.00 0.00 0.00 0.00 0.00 0.00 0.00 0.00 0.00 0.00 0.00 0.00 0.00 0.00 0.00 0.00 0.00 0.00 0.01 0.02 0.04 0.02 0.00 0.00 0.00 0.00 0.01 0.00 0.00 0.00 0.00 0.00 0.00 0.00 0.00 0.00 0.00 0.00 0.00 0.00 0.00 0.00 0.00 0.00 0.00 0.00 0.00
0.00 0.00 0.00 0.00 0.00 0.00 0.00 0.00 0.00 0.00 0.00 0.00 0.00 0.00 0.00 0.00 0.01 0.01 0.01 0.00 0.01 0.01 0.01 0.00 0.00 0.00 0.00 0.00 0.00 0.00 0.00 0.00 0.00 0.00 0.00 0.00 0.00 0.00 0.00 0.00 0.00 0.00 0.00 0.00 0.00 0.00 0.00 0.00 0.00
0.00 0.00 0.00 0.00 0.00 0.00 0.00 0.00 0.00 0.00 0.00 0.00 0.00 0.00 0.00 0.00 0.00 0.01 0.01 0.01 0.00 0.01 0.01 0.00 0.00 0.00 0.00 0.00 0.00 0.00 0.00 0.00 0.00 0.00 0.00 0.00 0.00 0.00 0.00 0.00 0.00 0.00 0.00 0.00 0.00 0.00 0.00 0.00 0.00
0.00 0.00 0.00 0.00 0.00 0.00 0.00 0.00 0.00 0.00 0.00 0.00 0.00 0.00 0.00 0.00 0.00 0.00 0.00 0.00 0.00 0.01 0.01 0.01 0.00 0.00 0.01 0.00 0.00 0.00 0.00 0.00 0.00 0.00 0.00 0.00 0.00 0.00 0.00 0.00 0.00 0.00 0.00 0.00 0.00 0.00 0.00 0.00 0.00
0.00 0.00 0.00 0.00 0.00 0.00 0.00 0.00 0.00 0.00 0.00 0.00 0.00 0.00 0.00 0.00 0.00 0.00 0.00 0.00 0.00 0.00 0.01 0.02 0.00 0.01 0.01 0.02 0.02 0.01 0.00 0.00 0.00 0.00 0.00 0.00 0.00 0.00 0.00 0.00 0.00 0.00 0.00 0.00 0.00 0.00 0.00 0.00 0.00
0.00 0.00 0.00 0.00 0.00 0.00 0.00 0.00 0.00 0.00 0.00 0.00 0.00 0.00 0.00 0.00 0.00 0.00 0.00 0.00 0.00 0.00 0.01 0.01 0.01 0.02 0.01 0.01 0.04 0.06 0.07 0.02 0.02 0.00 0.00 0.00 0.00 0.00 0.00 0.00 0.00 0.00 0.00 0.00 0.00 0.00 0.00 0.00 0.00
0.00 0.00 0.00 0.00 0.00 0.00 0.00 0.00 0.00 0.00 0.00 0.00 0.00 0.00 0.00 0.00 0.00 0.00 0.00 0.00 0.00 0.00 0.00 0.00 0.03 0.05 0.03 0.03 0.08 0.11 0.10 0.05 0.06 0.02 0.00 0.00 0.00 0.00 0.00 0.00 0.00 0.00 0.00 0.00 0.00 0.00 0.00 0.00 0.00
0.00 0.00 0.00 0.00 0.00 0.00 0.00 0.00 0.00 0.00 0.00 0.00 0.00 0.00 0.00 0.00 0.00 0.00 0.00 0.00 0.00 0.00 0.00 0.00 0.00 0.01 0.07 0.12 0.09 0.17 0.22 0.10 0.08 0.05 0.00 0.00 0.01 0.01 0.00 0.00 0.00 0.00 0.00 0.00 0.00 0.00 0.00 0.00 0.00
0.00 0.00 0.00 0.00 0.00 0.00 0.00 0.00 0.00 0.00 0.00 0.00 0.00 0.00 0.00 0.00 0.00 0.00 0.00 0.00 0.00 0.00 0.00 0.00 0.00 0.00 0.03 0.10 0.18 0.18 0.16 0.10 0.05 0.06 0.03 0.07 0.04 0.03 0.00 0.00 0.00 0.00 0.00 0.00 0.00 0.00 0.00 0.00 0.00
0.00 0.00 0.00 0.00 0.00 0.00 0.00 0.00 0.00 0.00 0.00 0.00 0.00 0.00 0.00 0.00 0.00 0.00 0.00 0.00 0.00 0.00 0.00 0.00 0.00 0.00 0.02 0.05 0.06 0.05 0.08 0.23 0.19 0.15 0.22 0.17 0.15 0.11 0.07 0.02 0.00 0.00 0.00 0.00 0.00 0.00 0.00 0.00 0.00
0.00 0.00 0.00 0.00 0.00 0.00 0.00 0.00 0.00 0.00 0.00 0.00 0.00 0.00 0.00 0.00 0.00 0.00 0.00 0.00 0.00 0.00 0.00 0.00 0.00 0.00 0.00 0.01 0.02 0.05 0.12 0.24 0.29 0.28 0.22 0.22 0.23 0.32 0.18 0.05 0.01 0.00 0.00 0.00 0.00 0.00 0.00 0.00 0.00
0.00 0.00 0.00 0.00 0.00 0.00 0.00 0.00 0.00 0.00 0.00 0.00 0.00 0.00 0.00 0.00 0.00 0.00 0.00 0.00 0.00 0.00 0.00 0.00 0.00 0.00 0.00 0.00 0.03 0.09 0.15 0.21 0.23 0.16 0.11 0.13 0.26 0.47 0.33 0.12 0.05 0.04 0.04 0.05 0.03 0.04 0.03 0.01 0.00
0.02 0.00 0.00 0.00 0.00 0.00 0.00 0.00 0.00 0.00 0.00 0.00 0.00 0.00 0.00 0.00 0.00 0.00 0.00 0.00 0.00 0.00 0.00 0.00 0.00 0.00 0.00 0.00 0.00 0.01 0.01 0.07 0.14 0.18 0.19 0.26 0.29 0.46 0.45 0.27 0.18 0.20 0.17 0.16 0.16 0.11 0.10 0.07 0.03
0.05 0.00 0.00 0.00 0.00 0.00 0.00 0.01 0.00 0.00 0.00 0.00 0.00 0.00 0.00 0.00 0.00 0.00 0.00 0.00 0.00 0.00 0.00 0.00 0.00 0.00 0.00 0.00 0.00 0.00 0.02 0.09 0.14 0.17 0.19 0.24 0.30 0.33 0.36 0.27 0.25 0.18 0.17 0.16 0.13 0.11 0.07 0.05 0.04
0.02 0.00 0.00 0.00 0.02 0.03 0.00 0.00 0.00 0.00 0.00 0.00 0.00 0.00 0.00 0.00 0.00 0.00 0.00 0.00 0.00 0.00 0.00 0.00 0.00 0.00 0.00 0.00 0.00 0.00 0.02 0.07 0.07 0.11 0.18 0.21 0.21 0.21 0.21 0.26 0.22 0.24 0.18 0.15 0.14 0.12 0.07 0.05 0.04
0.01 0.02 0.01 0.01 0.05 0.01 0.00 0.00 0.00 0.00 0.00 0.00 0.00 0.00 0.00 0.00 0.00 0.00 0.00 0.00 0.00 0.00 0.00 0.00 0.00 0.00 0.00 0.00 0.00 0.00 0.00 0.04 0.07 0.11 0.13 0.14 0.13 0.11 0.15 0.21 0.22 0.22 0.21 0.17 0.13 0.10 0.08 0.05 0.03
0.01 0.01 0.01 0.00 0.00 0.00 0.00 0.00 0.00 0.00 0.00 0.00 0.00 0.00 0.00 0.00 0.00 0.00 0.00 0.00 0.00 0.00 0.00 0.00 0.00 0.00 0.00 0.00 0.00 0.00 0.00 0.02 0.05 0.06 0.07 0.08 0.10 0.14 0.13 0.15 0.20 0.21 0.20 0.19 0.15 0.11 0.08 0.04 0.03
0.01 0.02 0.01 0.03 0.01 0.01 0.00 0.00 0.00 0.00 0.00 0.00 0.00 0.00 0.00 0.00 0.00 0.00 0.00 0.00 0.00 0.00 0.00 0.00 0.00 0.00 0.00 0.00 0.01 0.00 0.01 0.04 0.06 0.06 0.07 0.09 0.10 0.09 0.09 0.13 0.15 0.15 0.15 0.16 0.13 0.09 0.06 0.03 0.01
0.00 0.00 0.02 0.06 0.01 0.00 0.00 0.00 0.00 0.00 0.00 0.00 0.00 0.00 0.00 0.00 0.00 0.00 0.00 0.00 0.00 0.00 0.00 0.00 0.00 0.00 0.01 0.03 0.01 0.01 0.01 0.04 0.05 0.06 0.07 0.07 0.07 0.06 0.09 0.10 0.09 0.08 0.08 0.07 0.08 0.06 0.04 0.02 0.01
0.00 0.02 0.02 0.04 0.01 0.01 0.00 0.00 0.00 0.00 0.00 0.00 0.00 0.00 0.00 0.00 0.00 0.00 0.00 0.00 0.00 0.00 0.00 0.00 0.00 0.00 0.01 0.01 0.01 0.02 0.03 0.05 0.04 0.06 0.05 0.06 0.05 0.05 0.06 0.05 0.05 0.04 0.03 0.03 0.03 0.02 0.02 0.02 0.01
0.00 0.00 0.01 0.11 0.03 0.10 0.10 0.04 0.00 0.00 0.00 0.00 0.00 0.00 0.00 0.00 0.00 0.00 0.00 0.00 0.00 0.00 0.00 0.00 0.00 0.00 0.01 0.00 0.00 0.00 0.02 0.04 0.05 0.06 0.05 0.04 0.04 0.04 0.03 0.02 0.02 0.02 0.01 0.01 0.01 0.01 0.01 0.01 0.01

GFSSGP_prec_precacc24_060.txt.gz
Total_Precipitation_Accumulation
0.00 0.00 0.00 0.00 0.00 0.00 0.00 0.00 0.00 0.00 0.00 0.00 0.00 0.00 0.00 0.00 0.00 0.00 0.00 0.00 0.00 0.00 0.00 0.02 0.03 0.02 0.03 0.05 0.03 0.01 0.01 0.01 0.02 0.02 0.02 0.03 0.01 0.00 0.00 0.00 0.01 0.03 0.03 0.09 0.23 0.19 0.06 0.01 0.00
0.00 0.00 0.00 0.00 0.00 0.00 0.00 0.00 0.00 0.00 0.00 0.00 0.00 0.00 0.00 0.00 0.00 0.00 0.00 0.00 0.00 0.00 0.00 0.01 0.02 0.02 0.03 0.05 0.02 0.01 0.01 0.01 0.02 0.02 0.05 0.03 0.00 0.00 0.00 0.01 0.03 0.03 0.04 0.11 0.10 0.02 0.00 0.00 0.00
0.00 0.00 0.00 0.00 0.00 0.00 0.00 0.00 0.00 0.00 0.00 0.00 0.00 0.00 0.00 0.00 0.00 0.00 0.00 0.00 0.00 0.00 0.00 0.00 0.02 0.02 0.03 0.02 0.01 0.01 0.01 0.01 0.01 0.03 0.03 0.00 0.00 0.00 0.01 0.02 0.02 0.02 0.02 0.01 0.00 0.00 0.00 0.00 0.00
0.00 0.00 0.00 0.00 0.00 0.00 0.00 0.00 0.00 0.00 0.00 0.00 0.00 0.00 0.00 0.00 0.00 0.00 0.00 0.00 0.00 0.00 0.00 0.00 0.01 0.02 0.02 0.01 0.01 0.00 0.01 0.01 0.02 0.02 0.01 0.00 0.00 0.00 0.00 0.01 0.01 0.01 0.00 0.00 0.00 0.00 0.00 0.00 0.00
0.00 0.00 0.00 0.00 0.00 0.00 0.00 0.00 0.00 0.00 0.00 0.00 0.00 0.00 0.00 0.00 0.00 0.00 0.00 0.00 0.00 0.00 0.00 0.00 0.02 0.02 0.02 0.01 0.00 0.00 0.01 0.01 0.02 0.02 0.00 0.00 0.00 0.00 0.00 0.00 0.00 0.00 0.00 0.00 0.00 0.00 0.00 0.00 0.00
0.00 0.00 0.00 0.00 0.00 0.00 0.00 0.00 0.00 0.00 0.00 0.00 0.00 0.00 0.00 0.00 0.00 0.00 0.00 0.00 0.00 0.00 0.00 0.00 0.01 0.02 0.02 0.01 0.00 0.00 0.01 0.02 0.02 0.01 0.00 0.00 0.00 0.00 0.01 0.00 0.00 0.00 0.00 0.00 0.00 0.00 0.00 0.00 0.00
0.00 0.00 0.00 0.00 0.00 0.00 0.00 0.00 0.00 0.00 0.00 0.00 0.00 0.00 0.00 0.00 0.00 0.00 0.00 0.00 0.00 0.00 0.00 0.00 0.00 0.01 0.02 0.01 0.01 0.00 0.00 0.01 0.02 0.02 0.00 0.00 0.00 0.00 0.00 0.01 0.00 0.00 0.00 0.00 0.00 0.00 0.00 0.00 0.00
0.00 0.00 0.00 0.00 0.00 0.00 0.00 0.00 0.00 0.00 0.00 0.00 0.00 0.00 0.00 0.00 0.00 0.00 0.00 0.00 0.00 0.00 0.01 0.00 0.00 0.00 0.01 0.01 0.00 0.00 0.00 0.00 0.01 0.02 0.00 0.00 0.00 0.00 0.01 0.01 0.01 0.00 0.00 0.00 0.00 0.00 0.00 0.00 0.00
0.00 0.00 0.00 0.00 0.00 0.00 0.00 0.00 0.00 0.00 0.00 0.00 0.00 0.00 0.00 0.00 0.00 0.00 0.00 0.00 0.00 0.02 0.04 0.01 0.01 0.00 0.00 0.00 0.00 0.00 0.00 0.00 0.00 0.01 0.00 0.00 0.00 0.00 0.00 0.00 0.00 0.00 0.00 0.00 0.00 0.00 0.00 0.00 0.00
0.00 0.00 0.00 0.00 0.00 0.00 0.00 0.00 0.00 0.00 0.00 0.00 0.00 0.00 0.00 0.00 0.00 0.00 0.00 0.00 0.01 0.02 0.04 0.02 0.00 0.00 0.00 0.00 0.00 0.00 0.00 0.00 0.00 0.00 0.00 0.00 0.00 0.00 0.00 0.00 0.00 0.00 0.00 0.00 0.00 0.01 0.00 0.00 0.00
0.00 0.00 0.00 0.00 0.00 0.00 0.00 0.00 0.00 0.00 0.00 0.00 0.00 0.00 0.00 0.00 0.01 0.01 0.01 0.01 0.01 0.01 0.01 0.00 0.00 0.00 0.00 0.00 0.00 0.00 0.00 0.00 0.00 0.00 0.00 0.00 0.00 0.00 0.00 0.00 0.00 0.00 0.00 0.00 0.00 0.00 0.00 0.00 0.00
0.00 0.00 0.00 0.00 0.00 0.00 0.00 0.00 0.00 0.00 0.00 0.00 0.00 0.00 0.00 0.00 0.01 0.02 0.01 0.01 0.00 0.01 0.01 0.00 0.00 0.00 0.00 0.00 0.00 0.00 0.00 0.00 0.00 0.00 0.00 0.00 0.00 0.00 0.00 0.00 0.00 0.00 0.00 0.00 0.00 0.00 0.00 0.00 0.00
0.00 0.00 0.00 0.00 0.00 0.00 0.00 0.00 0.00 0.00 0.00 0.00 0.00 0.00 0.00 0.00 0.00 0.00 0.00 0.00 0.00 0.01 0.01 0.01 0.00 0.00 0.02 0.01 0.01 0.01 0.00 0.00 0.00 0.00 0.00 0.00 0.00 0.00 0.00 0.00 0.00 0.00 0.00 0.00 0.00 0.00 0.00 0.00 0.00
0.00 0.00 0.00 0.00 0.00 0.00 0.00 0.00 0.00 0.00 0.00 0.00 0.00 0.00 0.00 0.00 0.00 0.00 0.00 0.00 0.00 0.00 0.01 0.02 0.00 0.01 0.01 0.03 0.03 0.02 0.00 0.00 0.00 0.00 0.00 0.00 0.00 0.00 0.00 0.00 0.00 0.00 0.00 0.00 0.00 0.00 0.00 0.00 0.00
0.00 0.00 0.00 0.00 0.00 0.00 0.00 0.00 0.00 0.00 0.00 0.00 0.00 0.00 0.00 0.00 0.00 0.00 0.00 0.00 0.00 0.00 0.01 0.01 0.01 0.02 0.01 0.01 0.05 0.07 0.08 0.02 0.02 0.00 0.00 0.00 0.00 0.00 0.00 0.00 0.00 0.00 0.00 0.00 0.00 0.00 0.00 0.00 0.00
0.00 0.00 0.00 0.00 0.00 0.00 0.00 0.00 0.00 0.00 0.00 0.00 0.00 0.00 0.00 0.00 0.00 0.00 0.00 0.00 0.00 0.00 0.00 0.00 0.03 0.05 0.03 0.03 0.08 0.12 0.12 0.06 0.07 0.02 0.00 0.00 0.00 0.00 0.00 0.00 0.00 0.00 0.00 0.00 0.00 0.00 0.00 0.00 0.00
0.00 0.00 0.00 0.00 0.00 0.00 0.00 0.00 0.00 0.00 0.00 0.00 0.00 0.00 0.00 0.00 0.00 0.00 0.00 0.00 0.00 0.00 0.00 0.00 0.00 0.01 0.07 0.12 0.09 0.20 0.23 0.11 0.08 0.06 0.01 0.00 0.02 0.02 0.00 0.00 0.00 0.00 0.00 0.00 0.00 0.00 0.00 0.00 0.00
0.00 0.00 0.00 0.00 0.00 0.00 0.00 0.00 0.00 0.00 0.00 0.00 0.00 0.00 0.00 0.00 0.00 0.00 0.00 0.00 0.00 0.00 0.00 0.00 0.00 0.00 0.03 0.10 0.18 0.19 0.17 0.07 0.03 0.06 0.03 0.10 0.05 0.06 0.03 0.00 0.00 0.00 0.00 0.00 0.00 0.00 0.00 0.00 0.00
0.00 0.00 0.00 0.00 0.00 0.00 0.00 0.00 0.00 0.00 0.00 0.00 0.00 0.00 0.00 0.00 0.00 0.00 0.00 0.00 0.00 0.00 0.00 0.00 0.00 0.00 0.02 0.05 0.06 0.06 0.08 0.14 0.14 0.12 0.22 0.18 0.15 0.12 0.08 0.03 0.01 0.00 0.00 0.00 0.00 0.00 0.00 0.00 0.00
0.00 0.00 0.00 0.00 0.00 0.00 0.00 0.00 0.00 0.00 0.00 0.00 0.00 0.00 0.00 0.00 0.00 0.00 0.00 0.00 0.00 0.00 0.00 0.00 0.00 0.00 0.00 0.01 0.02 0.05 0.11 0.17 0.22 0.26 0.22 0.22 0.22 0.32 0.18 0.06 0.02 0.03 0.00 0.00 0.00 0.00 0.00 0.00 0.00
0.00 0.00 0.00 0.00 0.00 0.00 0.00 0.00 0.00 0.00 0.00 0.00 0.00 0.00 0.00 0.00 0.00 0.00 0.00 0.00 0.00 0.00 0.00 0.00 0.00 0.00 0.00 0.00 0.03 0.09 0.14 0.19 0.20 0.16 0.10 0.12 0.26 0.47 0.35 0.16 0.07 0.14 0.06 0.06 0.03 0.04 0.03 0.01 0.00
0.03 0.00 0.00 0.00 0.00 0.00 0.00 0.00 0.00 0.00 0.00 0.00 0.00 0.00 0.00 0.00 0.00 0.00 0.00 0.00 0.00 0.00 0.00 0.00 0.00 0.00 0.00 0.00 0.00 0.01 0.01 0.04 0.10 0.15 0.17 0.24 0.28 0.46 0.47 0.30 0.21 0.24 0.22 0.18 0.17 0.12 0.10 0.07 0.03
0.06 0.00 0.00 0.00 0.00 0.00 0.00 0.00 0.00 0.00 0.00 0.00 0.00 0.00 0.00 0.00 0.00 0.00 0.00 0.00 0.00 0.00 0.00 0.00 0.00 0.00 0.00 0.00 0.00 0.00 0.02 0.06 0.10 0.15 0.18 0.23 0.30 0.34 0.37 0.33 0.31 0.21 0.22 0.21 0.16 0.13 0.08 0.07 0.04
0.03 0.00 0.00 0.00 0.00 0.01 0.00 0.00 0.00 0.00 0.00 0.00 0.00 0.00 0.00 0.00 0.00 0.00 0.00 0.00 0.00 0.00 0.00 0.00 0.00 0.00 0.00 0.00 0.00 0.00 0.00 0.02 0.05 0.10 0.17 0.21 0.21 0.21 0.22 0.29 0.26 0.32 0.24 0.21 0.20 0.18 0.14 0.08 0.06
0.03 0.01 0.00 0.00 0.02 0.00 0.00 0.00 0.00 0.00 0.00 0.00 0.00 0.00 0.00 0.00 0.00 0.00 0.00 0.00 0.00 0.00 0.00 0.00 0.00 0.00 0.00 0.00 0.00 0.00 0.00 0.01 0.06 0.10 0.13 0.14 0.13 0.11 0.15 0.22 0.23 0.25 0.27 0.27 0.24 0.21 0.16 0.11 0.07
0.00 0.01 0.00 0.00 0.00 0.00 0.00 0.00 0.00 0.00 0.00 0.00 0.00 0.00 0.00 0.00 0.00 0.00 0.00 0.00 0.00 0.00 0.00 0.00 0.00 0.00 0.00 0.00 0.00 0.00 0.00 0.02 0.05 0.06 0.06 0.08 0.10 0.14 0.13 0.16 0.20 0.22 0.22 0.23 0.21 0.20 0.17 0.13 0.08
0.00 0.00 0.00 0.01 0.00 0.00 0.00 0.00 0.00 0.00 0.00 0.00 0.00 0.00 0.00 0.00 0.00 0.00 0.00 0.00 0.00 0.00 0.00 0.00 0.00 0.00 0.00 0.00 0.01 0.00 0.01 0.04 0.05 0.05 0.07 0.09 0.10 0.09 0.10 0.13 0.15 0.15 0.16 0.18 0.18 0.16 0.13 0.11 0.09
0.00 0.00 0.01 0.02 0.00 0.00 0.00 0.00 0.00 0.00 0.00 0.00 0.00 0.00 0.00 0.00 0.00 0.00 0.00 0.00 0.00 0.00 0.00 0.00 0.00 0.00 0.01 0.03 0.01 0.01 0.01 0.04 0.04 0.06 0.07 0.07 0.07 0.06 0.09 0.10 0.09 0.08 0.08 0.08 0.09 0.10 0.10 0.10 0.12
0.00 0.01 0.00 0.01 0.00 0.00 0.00 0.00 0.00 0.00 0.00 0.00 0.00 0.00 0.00 0.00 0.00 0.00 0.00 0.00 0.00 0.00 0.00 0.00 0.00 0.00 0.01 0.01 0.01 0.02 0.03 0.05 0.04 0.06 0.05 0.06 0.05 0.05 0.06 0.05 0.05 0.04 0.04 0.04 0.04 0.03 0.03 0.03 0.05
0.00 0.00 0.00 0.02 0.00 0.03 0.06 0.03 0.00 0.00 0.00 0.00 0.00 0.00 0.00 0.00 0.00 0.00 0.00 0.00 0.00 0.00 0.00 0.00 0.00 0.00 0.01 0.00 0.00 0.00 0.02 0.04 0.05 0.06 0.05 0.04 0.04 0.04 0.03 0.02 0.02 0.02 0.01 0.01 0.01 0.01 0.02 0.02 0.02

GFSSGP_prec_precacc24_063.txt.gz
Total_Precipitation_Accumulation
0.00 0.00 0.00 0.00 0.00 0.00 0.00 0.00 0.00 0.00 0.00 0.00 0.00 0.00 0.00 0.00 0.00 0.00 0.00 0.00 0.00 0.00 0.00 0.01 0.03 0.02 0.03 0.05 0.04 0.02 0.01 0.02 0.03 0.03 0.02 0.01 0.00 0.00 0.00 0.00 0.01 0.03 0.04 0.14 0.26 0.18 0.05 0.01 0.00
0.00 0.00 0.00 0.00 0.00 0.00 0.00 0.00 0.00 0.00 0.00 0.00 0.00 0.00 0.00 0.00 0.00 0.00 0.00 0.00 0.00 0.00 0.00 0.00 0.02 0.02 0.03 0.05 0.02 0.01 0.01 0.01 0.02 0.02 0.04 0.02 0.00 0.00 0.00 0.01 0.03 0.03 0.06 0.17 0.11 0.02 0.00 0.00 0.00
0.00 0.00 0.00 0.00 0.00 0.00 0.00 0.00 0.00 0.00 0.00 0.00 0.00 0.00 0.00 0.00 0.00 0.00 0.00 0.00 0.00 0.00 0.00 0.00 0.01 0.02 0.04 0.03 0.01 0.01 0.01 0.01 0.02 0.03 0.02 0.00 0.00 0.00 0.02 0.02 0.03 0.03 0.05 0.02 0.00 0.00 0.00 0.00 0.00
0.00 0.00 0.00 0.00 0.00 0.00 0.00 0.00 0.00 0.00 0.00 0.00 0.00 0.00 0.00 0.00 0.00 0.00 0.00 0.00 0.00 0.00 0.00 0.00 0.01 0.02 0.04 0.02 0.01 0.01 0.02 0.02 0.02 0.02 0.00 0.00 0.00 0.00 0.02 0.01 0.01 0.01 0.00 0.00 0.00 0.00 0.00 0.00 0.00
0.00 0.00 0.00 0.00 0.00 0.00 0.00 0.00 0.00 0.00 0.00 0.00 0.00 0.00 0.00 0.00 0.00 0.00 0.00 0.00 0.00 0.00 0.00 0.00 0.02 0.03 0.04 0.02 0.01 0.01 0.01 0.02 0.02 0.02 0.00 0.00 0.00 0.00 0.00 0.00 0.00 0.00 0.00 0.00 0.00 0.00 0.00 0.00 0.00
0.00 0.00 0.00 0.00 0.00 0.00 0.00 0.00 0.00 0.00 0.00 0.00 0.00 0.00 0.00 0.00 0.00 0.00 0.00 0.00 0.00 0.00 0.00 0.00 0.01 0.02 0.02 0.01 0.00 0.00 0.02 0.02 0.03 0.01 0.00 0.00 0.00 0.00 0.00 0.00 0.00 0.00 0.00 0.00 0.00 0.00 0.00 0.00 0.00
0.00 0.00 0.00 0.00 0.00 0.00 0.00 0.00 0.00 0.00 0.00 0.00 0.00 0.00 0.00 0.00 0.00 0.00 0.00 0.00 0.00 0.00 0.00 0.00 0.00 0.01 0.02 0.01 0.01 0.01 0.01 0.02 0.02 0.02 0.00 0.00 0.00 0.00 0.00 0.00 0.00 0.00 0.00 0.00 0.00 0.00 0.00 0.00 0.00
0.00 0.00 0.00 0.00 0.00 0.00 0.00 0.00 0.00 0.00 0.00 0.00 0.00 0.00 0.00 0.00 0.00 0.00 0.00 0.00 0.00 0.00 0.01 0.00 0.00 0.00 0.01 0.01 0.01 0.01 0.01 0.01 0.01 0.02 0.01 0.00 0.00 0.00 0.00 0.01 0.00 0.00 0.00 0.00 0.00 0.00 0.00 0.00 0.00
0.00 0.00 0.00 0.00 0.00 0.00 0.00 0.00 0.00 0.00 0.00 0.00 0.00 0.00 0.00 0.00 0.00 0.00 0.00 0.00 0.00 0.02 0.04 0.01 0.01 0.00 0.00 0.00 0.00 0.00 0.00 0.00 0.00 0.01 0.00 0.00 0.00 0.00 0.00 0.00 0.00 0.00 0.00 0.00 0.00 0.00 0.00 0.00 0.00
0.00 0.00 0.00 0.00 0.00 0.00 0.00 0.00 0.00 0.00 0.00 0.00 0.00 0.00 0.00 0.00 0.00 0.00 0.00 0.00 0.01 0.02 0.04 0.02 0.00 0.00 0.00 0.00 0.00 0.00 0.00 0.00 0.00 0.00 0.00 0.00 0.00 0.00 0.00 0.00 0.00 0.00 0.00 0.00 0.00 0.01 0.00 0.00 0.00
0.00 0.00 0.00 0.00 0.00 0.00 0.00 0.00 0.00 0.00 0.00 0.00 0.00 0.00 0.00 0.00 0.01 0.01 0.01 0.01 0.01 0.01 0.01 0.00 0.00 0.00 0.00 0.00 0.00 0.00 0.00 0.00 0.00 0.00 0.00 0.00 0.00 0.00 0.00 0.00 0.00 0.00 0.00 0.00 0.00 0.01 0.00 0.00 0.00
0.00 0.00 0.00 0.00 0.00 0.00 0.00 0.00 0.00 0.00 0.00 0.00 0.00 0.00 0.00 0.00 0.01 0.02 0.01 0.01 0.00 0.01 0.01 0.00 0.00 0.00 0.00 0.00 0.00 0.00 0.00 0.00 0.00 0.00 0.00 0.00 0.00 0.00 0.00 0.00 0.00 0.00 0.00 0.00 0.00 0.00 0.00 0.00 0.00
0.00 0.00 0.00 0.00 0.00 0.00 0.00 0.00 0.00 0.00 0.00 0.00 0.00 0.00 0.00 0.00 0.00 0.00 0.00 0.00 0.00 0.01 0.01 0.01 0.00 0.00 0.02 0.01 0.01 0.01 0.00 0.00 0.00 0.00 0.00 0.00 0.00 0.00 0.00 0.00 0.00 0.00 0.00 0.00 0.00 0.00 0.00 0.00 0.00
0.00 0.00 0.00 0.00 0.00 0.00 0.00 0.00 0.00 0.00 0.00 0.00 0.00 0.00 0.00 0.00 0.00 0.00 0.00 0.00 0.00 0.00 0.01 0.02 0.01 0.02 0.02 0.03 0.03 0.02 0.00 0.00 0.00 0.00 0.00 0.00 0.00 0.00 0.00 0.00 0.00 0.00 0.00 0.00 0.00 0.00 0.00 0.00 0.00
0.00 0.00 0.00 0.00 0.00 0.00 0.00 0.00 0.00 0.00 0.00 0.00 0.00 0.00 0.00 0.00 0.00 0.00 0.00 0.00 0.00 0.00 0.01 0.01 0.01 0.02 0.01 0.01 0.05 0.07 0.08 0.02 0.02 0.00 0.00 0.00 0.00 0.00 0.00 0.00 0.00 0.00 0.00 0.00 0.00 0.00 0.00 0.00 0.00
0.00 0.00 0.00 0.00 0.00 0.00 0.00 0.00 0.00 0.00 0.00 0.00 0.00 0.00 0.00 0.00 0.00 0.00 0.00 0.00 0.00 0.00 0.00 0.00 0.03 0.05 0.03 0.03 0.09 0.12 0.12 0.06 0.06 0.02 0.00 0.00 0.00 0.00 0.00 0.00 0.00 0.00 0.00 0.00 0.00 0.00 0.00 0.00 0.00
0.00 0.00 0.00 0.00 0.00 0.00 0.00 0.00 0.00 0.00 0.00 0.00 0.00 0.00 0.00 0.00 0.00 0.00 0.00 0.00 0.00 0.00 0.00 0.00 0.00 0.01 0.07 0.12 0.09 0.22 0.24 0.11 0.07 0.05 0.00 0.00 0.02 0.02 0.00 0.00 0.00 0.00 0.00 0.00 0.00 0.00 0.00 0.00 0.00
0.00 0.00 0.00 0.00 0.00 0.00 0.00 0.00 0.00 0.00 0.00 0.00 0.00 0.00 0.00 0.00 0.00 0.00 0.00 0.00 0.00 0.00 0.00 0.00 0.00 0.00 0.03 0.10 0.18 0.20 0.18 0.08 0.05 0.05 0.03 0.10 0.05 0.06 0.03 0.00 0.00 0.00 0.00 0.00 0.00 0.00 0.00 0.00 0.00
0.00 0.00 0.00 0.00 0.00 0.00 0.00 0.00 0.00 0.00 0.00 0.00 0.00 0.00 0.00 0.00 0.00 0.00 0.00 0.00 0.00 0.00 0.00 0.00 0.00 0.00 0.02 0.05 0.06 0.06 0.09 0.17 0.10 0.09 0.20 0.18 0.15 0.12 0.08 0.04 0.01 0.00 0.00 0.00 0.00 0.00 0.00 0.00 0.00
0.00 0.00 0.00 0.00 0.00 0.00 0.00 0.00 0.00 0.00 0.00 0.00 0.00 0.00 0.00 0.00 0.00 0.00 0.00 0.00 0.00 0.00 0.00 0.00 0.00 0.00 0.00 0.01 0.02 0.05 0.11 0.15 0.17 0.20 0.16 0.16 0.18 0.31 0.18 0.06 0.03 0.05 0.00 0.00 0.00 0.00 0.00 0.00 0.00
0.00 0.00 0.00 0.00 0.00 0.00 0.00 0.00 0.00 0.00 0.00 0.00 0.00 0.00 0.00 0.00 0.00 0.00 0.00 0.00 0.00 0.00 0.00 0.00 0.00 0.00 0.00 0.00 0.03 0.09 0.14 0.19 0.19 0.14 0.06 0.07 0.21 0.46 0.34 0.16 0.08 0.14 0.06 0.06 0.03 0.04 0.03 0.01 0.00
0.03 0.00 0.00 0.00 0.00 0.00 0.00 0.00 0.00 0.00 0.00 0.00 0.00 0.00 0.00 0.00 0.00 0.00 0.00 0.00 0.00 0.00 0.00 0.00 0.00 0.00 0.00 0.00 0.00 0.01 0.01 0.03 0.08 0.10 0.11 0.18 0.24 0.44 0.51 0.34 0.21 0.25 0.23 0.19 0.19 0.13 0.12 0.08 0.03
0.06 0.00 0.00 0.00 0.00 0.00 0.00 0.00 0.00 0.00 0.00 0.00 0.00 0.00 0.00 0.00 0.00 0.00 0.00 0.00 0.00 0.00 0.00 0.00 0.00 0.00 0.00 0.00 0.00 0.00 0.02 0.06 0.09 0.13 0.16 0.20 0.27 0.32 0.36 0.36 0.33 0.23 0.25 0.27 0.21 0.17 0.13 0.11 0.07
0.03 0.00 0.00 0.00 0.00 0.00 0.00 0.00 0.00 0.00 0.00 0.00 0.00 0.00 0.00 0.00 0.00 0.00 0.00 0.00 0.00 0.00 0.00 0.00 0.00 0.00 0.00 0.00 0.00 0.00 0.00 0.01 0.04 0.08 0.16 0.18 0.20 0.20 0.21 0.29 0.27 0.34 0.27 0.25 0.29 0.30 0.25 0.15 0.12
0.04 0.00 0.01 0.01 0.01 0.00 0.00 0.00 0.00 0.00 0.00 0.00 0.00 0.00 0.00 0.00 0.00 0.00 0.00 0.00 0.00 0.00 0.00 0.00 0.00 0.00 0.00 0.00 0.00 0.00 0.00 0.01 0.03 0.07 0.10 0.12 0.12 0.10 0.15 0.22 0.24 0.26 0.28 0.29 0.27 0.27 0.21 0.18 0.15
0.05 0.01 0.01 0.00 0.00 0.00 0.00 0.00 0.00 0.00 0.00 0.00 0.00 0.00 0.00 0.00 0.00 0.00 0.00 0.00 0.00 0.00 0.00 0.00 0.00 0.00 0.00 0.00 0.00 0.00 0.00 0.02 0.03 0.04 0.05 0.08 0.09 0.14 0.13 0.16 0.20 0.23 0.23 0.25 0.23 0.22 0.19 0.17 0.15
0.05 0.01 0.00 0.00 0.00 0.00 0.00 0.00 0.00 0.00 0.00 0.00 0.00 0.00 0.00 0.00 0.00 0.00 0.00 0.00 0.00 0.00 0.00 0.00 0.00 0.00 0.00 0.00 0.01 0.00 0.01 0.03 0.03 0.04 0.06 0.08 0.10 0.09 0.10 0.13 0.15 0.16 0.17 0.19 0.19 0.18 0.16 0.16 0.15
0.00 0.00 0.00 0.01 0.00 0.00 0.00 0.00 0.00 0.00 0.00 0.00 0.00 0.00 0.00 0.00 0.00 0.00 0.00 0.00 0.00 0.00 0.00 0.00 0.00 0.00 0.01 0.03 0.01 0.01 0.01 0.03 0.04 0.05 0.07 0.06 0.06 0.06 0.09 0.10 0.09 0.08 0.08 0.09 0.10 0.11 0.14 0.16 0.18
0.00 0.00 0.00 0.00 0.00 0.00 0.00 0.00 0.00 0.00 0.00 0.00 0.00 0.00 0.00 0.00 0.00 0.00 0.00 0.00 0.00 0.00 0.00 0.00 0.00 0.00 0.01 0.01 0.01 0.02 0.03 0.05 0.04 0.05 0.04 0.05 0.05 0.05 0.06 0.05 0.05 0.04 0.04 0.04 0.05 0.04 0.05 0.05 0.06
0.00 0.00 0.00 0.00 0.00 0.00 0.01 0.01 0.00 0.00 0.00 0.00 0.00 0.00 0.00 0.00 0.00 0.00 0.00 0.00 0.00 0.00 0.00 0.00 0.00 0.00 0.01 0.00 0.00 0.00 0.02 0.04 0.05 0.05 0.05 0.03 0.04 0.04 0.03 0.02 0.02 0.02 0.01 0.01 0.01 0.02 0.03 0.03 0.04

GFSSGP_prec_precacc24_066.txt.gz
Total_Precipitation_Accumulation
0.00 0.00 0.00 0.00 0.00 0.00 0.00 0.00 0.00 0.00 0.00 0.00 0.00 0.00 0.00 0.00 0.00 0.00 0.00 0.00 0.00 0.00 0.00 0.01 0.03 0.02 0.04 0.06 0.04 0.02 0.02 0.04 0.05 0.03 0.02 0.01 0.00 0.00 0.00 0.00 0.01 0.04 0.06 0.16 0.26 0.18 0.05 0.00 0.00
0.00 0.00 0.00 0.00 0.00 0.00 0.00 0.00 0.00 0.00 0.00 0.00 0.00 0.00 0.00 0.00 0.00 0.00 0.00 0.00 0.00 0.00 0.00 0.00 0.02 0.02 0.04 0.06 0.02 0.01 0.02 0.02 0.04 0.03 0.02 0.01 0.00 0.00 0.00 0.01 0.03 0.03 0.09 0.19 0.11 0.02 0.00 0.00 0.00
0.00 0.00 0.00 0.00 0.00 0.00 0.00 0.00 0.00 0.00 0.00 0.00 0.00 0.00 0.00 0.00 0.00 0.00 0.00 0.00 0.00 0.00 0.00 0.00 0.01 0.02 0.05 0.03 0.01 0.01 0.02 0.02 0.02 0.03 0.02 0.00 0.00 0.00 0.02 0.02 0.03 0.04 0.06 0.02 0.00 0.00 0.00 0.00 0.00
0.00 0.00 0.00 0.00 0.00 0.00 0.00 0.00 0.00 0.00 0.00 0.00 0.00 0.00 0.00 0.00 0.00 0.00 0.00 0.00 0.00 0.00 0.00 0.00 0.01 0.02 0.04 0.02 0.01 0.01 0.02 0.02 0.02 0.02 0.00 0.00 0.00 0.01 0.02 0.01 0.01 0.01 0.00 0.00 0.00 0.00 0.00 0.00 0.00
0.00 0.00 0.00 0.00 0.00 0.00 0.00 0.00 0.00 0.00 0.00 0.00 0.00 0.00 0.00 0.00 0.00 0.00 0.00 0.00 0.00 0.00 0.00 0.00 0.02 0.03 0.04 0.02 0.01 0.01 0.02 0.02 0.02 0.02 0.00 0.00 0.00 0.01 0.01 0.00 0.00 0.00 0.00 0.00 0.00 0.00 0.00 0.00 0.00
0.01 0.00 0.00 0.00 0.00 0.00 0.00 0.00 0.00 0.00 0.00 0.00 0.00 0.00 0.00 0.00 0.00 0.00 0.00 0.00 0.00 0.00 0.00 0.00 0.01 0.02 0.03 0.02 0.01 0.00 0.02 0.03 0.03 0.01 0.00 0.00 0.00 0.00 0.00 0.00 0.00 0.00 0.00 0.00 0.00 0.00 0.00 0.00 0.00
0.10 0.01 0.00 0.00 0.00 0.00 0.00 0.00 0.00 0.00 0.00 0.00 0.00 0.00 0.00 0.00 0.00 0.00 0.00 0.00 0.00 0.00 0.00 0.00 0.00 0.02 0.02 0.02 0.01 0.01 0.01 0.02 0.03 0.02 0.00 0.00 0.00 0.00 0.00 0.00 0.00 0.00 0.00 0.00 0.00 0.00 0.00 0.00 0.00
0.00 0.03 0.02 0.00 0.00 0.00 0.00 0.00 0.00 0.00 0.00 0.00 0.00 0.00 0.03 0.00 0.00 0.00 0.00 0.00 0.00 0.00 0.01 0.00 0.00 0.00 0.02 0.02 0.02 0.01 0.01 0.01 0.01 0.02 0.01 0.00 0.00 0.00 0.00 0.00 0.00 0.00 0.00 0.00 0.00 0.00 0.00 0.00 0.00
0.00 0.01 0.04 0.01 0.00 0.00 0.00 0.00 0.00 0.00 0.00 0.00 0.00 0.00 0.00 0.01 0.00 0.00 0.00 0.00 0.00 0.02 0.04 0.01 0.01 0.00 0.00 0.00 0.01 0.01 0.01 0.01 0.00 0.01 0.00 0.00 0.00 0.00 0.00 0.00 0.00 0.00 0.00 0.00 0.00 0.00 0.00 0.00 0.00
0.00 0.00 0.00 0.00 0.00 0.00 0.00 0.00 0.00 0.00 0.00 0.00 0.00 0.00 0.00 0.00 0.00 0.00 0.01 0.00 0.01 0.02 0.04 0.02 0.00 0.00 0.00 0.00 0.00 0.00 0.00 0.00 0.00 0.00 0.00 0.00 0.00 0.00 0.00 0.00 0.00 0.00 0.00 0.00 0.00 0.01 0.00 0.00 0.00
0.00 0.00 0.00 0.00 0.00 0.00 0.00 0.00 0.00 0.00 0.00 0.00 0.00 0.00 0.00 0.00 0.01 0.01 0.01 0.01 0.01 0.01 0.01 0.00 0.00 0.00 0.00 0.00 0.00 0.00 0.00 0.00 0.00 0.00 0.00 0.00 0.00 0.00 0.00 0.00 0.00 0.00 0.00 0.00 0.00 0.01 0.00 0.00 0.00
0.00 0.00 0.00 0.00 0.00 0.00 0.00 0.00 0.00 0.00 0.00 0.00 0.00 0.00 0.00 0.00 0.01 0.02 0.01 0.01 0.00 0.01 0.01 0.00 0.00 0.00 0.00 0.00 0.00 0.00 0.00 0.00 0.00 0.00 0.00 0.00 0.00 0.00 0.00 0.00 0.00 0.00 0.00 0.00 0.00 0.00 0.00 0.00 0.00
0.00 0.00 0.00 0.00 0.00 0.00 0.00 0.00 0.00 0.00 0.00 0.00 0.00 0.00 0.00 0.00 0.00 0.00 0.00 0.00 0.00 0.01 0.01 0.01 0.00 0.00 0.02 0.01 0.01 0.01 0.00 0.00 0.00 0.00 0.00 0.00 0.00 0.00 0.00 0.00 0.00 0.00 0.00 0.00 0.00 0.00 0.00 0.00 0.00
0.00 0.00 0.00 0.00 0.00 0.00 0.00 0.00 0.00 0.00 0.00 0.00 0.00 0.00 0.00 0.00 0.00 0.00 0.00 0.00 0.00 0.01 0.01 0.02 0.01 0.02 0.02 0.03 0.02 0.02 0.00 0.00 0.00 0.00 0.00 0.00 0.00 0.00 0.00 0.00 0.00 0.00 0.00 0.00 0.00 0.00 0.00 0.00 0.00
0.00 0.00 0.00 0.00 0.00 0.00 0.00 0.00 0.00 0.00 0.00 0.00 0.00 0.00 0.00 0.00 0.00 0.00 0.00 0.00 0.01 0.00 0.01 0.01 0.01 0.02 0.01 0.01 0.05 0.07 0.08 0.02 0.00 0.00 0.00 0.00 0.00 0.00 0.00 0.00 0.00 0.00 0.00 0.00 0.00 0.00 0.00 0.00 0.00
0.02 0.00 0.00 0.00 0.00 0.00 0.00 0.00 0.00 0.00 0.00 0.00 0.00 0.00 0.00 0.00 0.00 0.00 0.00 0.00 0.00 0.00 0.00 0.01 0.03 0.05 0.03 0.03 0.09 0.12 0.12 0.06 0.05 0.02 0.00 0.00 0.00 0.00 0.00 0.00 0.00 0.00 0.00 0.00 0.00 0.00 0.00 0.00 0.00
0.03 0.01 0.00 0.00 0.00 0.00 0.00 0.00 0.00 0.00 0.00 0.00 0.00 0.00 0.00 0.00 0.00 0.00 0.00 0.00 0.00 0.00 0.00 0.00 0.00 0.01 0.07 0.12 0.09 0.22 0.24 0.11 0.07 0.05 0.00 0.00 0.02 0.02 0.00 0.00 0.00 0.00 0.00 0.00 0.00 0.00 0.00 0.00 0.00
0.00 0.00 0.00 0.00 0.00 0.00 0.00 0.00 0.00 0.00 0.00 0.00 0.00 0.00 0.00 0.00 0.00 0.00 0.00 0.00 0.00 0.00 0.00 0.00 0.00 0.00 0.03 0.10 0.19 0.21 0.19 0.08 0.05 0.05 0.03 0.09 0.05 0.07 0.03 0.01 0.00 0.00 0.00 0.00 0.00 0.00 0.00 0.00 0.00
0.00 0.00 0.00 0.00 0.00 0.00 0.00 0.00 0.00 0.00 0.00 0.00 0.00 0.00 0.00 0.00 0.00 0.00 0.00 0.00 0.00 0.00 0.00 0.00 0.00 0.00 0.02 0.05 0.07 0.07 0.09 0.17 0.10 0.10 0.20 0.14 0.16 0.14 0.09 0.04 0.04 0.01 0.00 0.00 0.00 0.00 0.00 0.00 0.00
0.00 0.00 0.00 0.00 0.00 0.00 0.00 0.00 0.00 0.00 0.00 0.00 0.00 0.00 0.00 0.00 0.00 0.00 0.00 0.00 0.00 0.00 0.00 0.00 0.00 0.00 0.00 0.01 0.02 0.05 0.11 0.15 0.17 0.19 0.14 0.15 0.15 0.30 0.19 0.07 0.04 0.09 0.04 0.01 0.00 0.01 0.02 0.00 0.01
0.00 0.00 0.00 0.00 0.00 0.00 0.00 0.00 0.00 0.00 0.00 0.00 0.00 0.00 0.00 0.00 0.00 0.00 0.00 0.00 0.00 0.00 0.00 0.00 0.00 0.00 0.00 0.00 0.03 0.09 0.14 0.19 0.19 0.13 0.05 0.04 0.19 0.44 0.38 0.17 0.08 0.16 0.10 0.11 0.08 0.07 0.10 0.06 0.03
0.03 0.00 0.00 0.00 0.00 0.00 0.00 0.00 0.00 0.00 0.00 0.00 0.00 0.00 0.00 0.00 0.00 0.00 0.00 0.00 0.00 0.00 0.00 0.00 0.00 0.00 0.00 0.00 0.00 0.01 0.01 0.03 0.06 0.07 0.09 0.16 0.19 0.40 0.50 0.36 0.22 0.26 0.24 0.21 0.23 0.18 0.20 0.17 0.06
0.06 0.00 0.00 0.00 0.00 0.00 0.00 0.00 0.00 0.00 0.00 0.00 0.00 0.00 0.00 0.00 0.00 0.00 0.00 0.00 0.00 0.00 0.00 0.00 0.00 0.00 0.00 0.00 0.00 0.00 0.01 0.05 0.07 0.12 0.15 0.18 0.23 0.31 0.35 0.36 0.35 0.25 0.26 0.29 0.24 0.22 0.17 0.19 0.15
0.05 0.00 0.00 0.00 0.00 0.00 0.00 0.00 0.00 0.00 0.00 0.00 0.00 0.00 0.00 0.00 0.00 0.00 0.00 0.00 0.00 0.00 0.00 0.00 0.00 0.00 0.00 0.00 0.00 0.00 0.00 0.01 0.04 0.08 0.15 0.16 0.17 0.18 0.22 0.29 0.26 0.34 0.28 0.26 0.30 0.31 0.31 0.22 0.23
0.05 0.01 0.02 0.02 0.01 0.00 0.00 0.00 0.00 0.00 0.00 0.00 0.00 0.00 0.00 0.00 0.00 0.00 0.00 0.00 0.00 0.00 0.00 0.00 0.00 0.00 0.00 0.00 0.00 0.00 0.00 0.01 0.03 0.07 0.10 0.11 0.10 0.09 0.14 0.23 0.24 0.27 0.29 0.30 0.28 0.29 0.24 0.23 0.23
0.06 0.02 0.02 0.01 0.00 0.00 0.00 0.00 0.00 0.00 0.00 0.00 0.00 0.00 0.00 0.00 0.00 0.00 0.00 0.00 0.00 0.00 0.00 0.00 0.00 0.00 0.00 0.00 0.00 0.00 0.00 0.02 0.03 0.04 0.04 0.05 0.07 0.12 0.12 0.16 0.20 0.23 0.24 0.26 0.25 0.24 0.22 0.19 0.19
0.08 0.02 0.00 0.00 0.00 0.00 0.00 0.00 0.00 0.00 0.00 0.00 0.00 0.00 0.00 0.00 0.00 0.00 0.00 0.00 0.00 0.00 0.00 0.00 0.00 0.00 0.00 0.00 0.01 0.00 0.01 0.03 0.03 0.03 0.04 0.06 0.08 0.08 0.09 0.12 0.15 0.16 0.17 0.21 0.22 0.20 0.18 0.20 0.20
0.05 0.01 0.00 0.00 0.00 0.00 0.00 0.00 0.00 0.00 0.00 0.00 0.00 0.00 0.00 0.00 0.00 0.00 0.00 0.00 0.00 0.00 0.00 0.00 0.00 0.00 0.01 0.03 0.01 0.01 0.01 0.03 0.04 0.04 0.05 0.05 0.06 0.06 0.09 0.10 0.09 0.08 0.09 0.09 0.11 0.13 0.16 0.19 0.23
0.02 0.01 0.00 0.00 0.00 0.00 0.00 0.00 0.00 0.00 0.00 0.00 0.00 0.00 0.00 0.00 0.00 0.00 0.00 0.00 0.00 0.00 0.00 0.00 0.00 0.00 0.01 0.01 0.01 0.02 0.03 0.04 0.04 0.04 0.04 0.05 0.04 0.05 0.06 0.05 0.05 0.04 0.04 0.04 0.05 0.04 0.06 0.08 0.09
0.00 0.00 0.00 0.00 0.00 0.00 0.00 0.00 0.00 0.00 0.00 0.00 0.00 0.00 0.00 0.00 0.00 0.00 0.00 0.00 0.00 0.00 0.00 0.00 0.00 0.00 0.01 0.00 0.00 0.00 0.02 0.04 0.05 0.05 0.04 0.03 0.03 0.03 0.03 0.02 0.02 0.02 0.01 0.01 0.02 0.03 0.04 0.05 0.06

GFSSGP_prec_precacc24_069.txt.gz
Total_Precipitation_Accumulation
0.00 0.00 0.00 0.00 0.00 0.00 0.00 0.00 0.00 0.00 0.00 0.00 0.00 0.00 0.00 0.00 0.00 0.00 0.00 0.00 0.00 0.00 0.00 0.02 0.03 0.02 0.04 0.07 0.05 0.02 0.02 0.05 0.06 0.04 0.03 0.01 0.00 0.00 0.00 0.00 0.01 0.05 0.07 0.16 0.25 0.17 0.05 0.00 0.00
0.00 0.00 0.00 0.00 0.00 0.00 0.00 0.00 0.00 0.00 0.00 0.00 0.00 0.00 0.00 0.00 0.00 0.00 0.00 0.00 0.00 0.00 0.00 0.00 0.02 0.02 0.04 0.06 0.02 0.01 0.02 0.03 0.05 0.03 0.01 0.00 0.00 0.00 0.00 0.01 0.03 0.05 0.10 0.19 0.11 0.02 0.00 0.00 0.00
0.00 0.01 0.00 0.00 0.00 0.00 0.00 0.00 0.00 0.00 0.00 0.00 0.00 0.00 0.00 0.00 0.00 0.00 0.00 0.00 0.00 0.00 0.00 0.00 0.01 0.02 0.05 0.03 0.01 0.01 0.03 0.02 0.02 0.02 0.01 0.00 0.00 0.01 0.02 0.02 0.03 0.05 0.06 0.02 0.00 0.00 0.00 0.00 0.00
0.00 0.01 0.00 0.00 0.00 0.00 0.00 0.00 0.00 0.00 0.00 0.00 0.00 0.00 0.00 0.00 0.00 0.00 0.00 0.00 0.00 0.00 0.00 0.00 0.01 0.02 0.04 0.02 0.01 0.01 0.03 0.02 0.02 0.02 0.00 0.00 0.01 0.02 0.03 0.02 0.01 0.01 0.00 0.00 0.00 0.00 0.00 0.00 0.00
0.00 0.01 0.00 0.00 0.00 0.00 0.00 0.00 0.00 0.00 0.00 0.00 0.00 0.00 0.00 0.00 0.00 0.00 0.00 0.00 0.00 0.00 0.00 0.00 0.02 0.03 0.04 0.02 0.01 0.01 0.02 0.02 0.01 0.01 0.00 0.00 0.01 0.01 0.01 0.00 0.00 0.00 0.00 0.00 0.00 0.00 0.00 0.00 0.00
0.02 0.03 0.02 0.00 0.00 0.00 0.00 0.00 0.00 0.00 0.00 0.00 0.00 0.00 0.01 0.00 0.00 0.00 0.00 0.00 0.00 0.00 0.00 0.00 0.01 0.02 0.03 0.02 0.01 0.00 0.02 0.03 0.03 0.01 0.00 0.00 0.00 0.01 0.00 0.00 0.00 0.00 0.00 0.00 0.00 0.00 0.00 0.00 0.00
0.18 0.03 0.01 0.00 0.00 0.00 0.00 0.00 0.00 0.00 0.00 0.00 0.00 0.01 0.06 0.02 0.00 0.02 0.01 0.00 0.00 0.00 0.00 0.00 0.00 0.02 0.03 0.02 0.01 0.01 0.01 0.02 0.03 0.03 0.00 0.00 0.00 0.00 0.00 0.00 0.00 0.00 0.00 0.00 0.00 0.00 0.00 0.00 0.00
0.07 0.18 0.04 0.00 0.00 0.00 0.00 0.00 0.00 0.00 0.00 0.00 0.00 0.00 0.07 0.03 0.00 0.01 0.00 0.01 0.00 0.00 0.01 0.00 0.00 0.01 0.02 0.02 0.02 0.01 0.01 0.01 0.01 0.02 0.01 0.00 0.00 0.00 0.00 0.00 0.00 0.00 0.00 0.00 0.00 0.00 0.00 0.00 0.00
0.01 0.14 0.19 0.02 0.00 0.00 0.00 0.00 0.00 0.00 0.00 0.00 0.00 0.00 0.01 0.02 0.01 0.01 0.02 0.01 0.02 0.02 0.04 0.01 0.01 0.00 0.00 0.00 0.01 0.01 0.02 0.01 0.00 0.01 0.00 0.00 0.00 0.00 0.00 0.00 0.00 0.00 0.00 0.00 0.00 0.00 0.00 0.00 0.00
0.00 0.00 0.01 0.00 0.00 0.00 0.00 0.00 0.00 0.00 0.00 0.00 0.00 0.00 0.00 0.00 0.01 0.01 0.01 0.01 0.02 0.02 0.04 0.02 0.00 0.00 0.00 0.00 0.00 0.00 0.00 0.00 0.00 0.00 0.00 0.00 0.00 0.00 0.00 0.00 0.00 0.00 0.00 0.00 0.00 0.01 0.00 0.00 0.00
0.00 0.00 0.00 0.00 0.00 0.01 0.00 0.00 0.00 0.00 0.00 0.00 0.00 0.00 0.00 0.00 0.01 0.04 0.02 0.01 0.02 0.01 0.01 0.00 0.00 0.00 0.00 0.00 0.00 0.00 0.00 0.00 0.00 0.00 0.00 0.00 0.00 0.00 0.00 0.00 0.00 0.00 0.00 0.00 0.00 0.01 0.00 0.00 0.00
0.00 0.00 0.00 0.00 0.00 0.01 0.00 0.00 0.00 0.00 0.00 0.00 0.00 0.00 0.00 0.00 0.01 0.02 0.02 0.03 0.02 0.01 0.01 0.00 0.00 0.00 0.00 0.00 0.00 0.00 0.00 0.00 0.00 0.00 0.00 0.00 0.00 0.00 0.00 0.00 0.00 0.00 0.00 0.00 0.00 0.00 0.00 0.00 0.00
0.00 0.00 0.00 0.00 0.00 0.00 0.00 0.00 0.00 0.00 0.00 0.00 0.00 0.00 0.00 0.00 0.00 0.00 0.00 0.01 0.01 0.01 0.01 0.01 0.00 0.00 0.02 0.01 0.01 0.01 0.00 0.00 0.00 0.00 0.00 0.00 0.00 0.00 0.00 0.00 0.00 0.00 0.00 0.00 0.00 0.00 0.00 0.00 0.00
0.00 0.00 0.00 0.00 0.00 0.00 0.00 0.00 0.00 0.00 0.00 0.00 0.00 0.00 0.00 0.00 0.00 0.00 0.00 0.00 0.01 0.01 0.01 0.02 0.01 0.02 0.02 0.03 0.02 0.02 0.00 0.00 0.00 0.00 0.00 0.00 0.00 0.00 0.00 0.00 0.00 0.00 0.00 0.00 0.00 0.00 0.00 0.00 0.00
0.01 0.00 0.00 0.00 0.00 0.00 0.00 0.00 0.00 0.00 0.00 0.00 0.00 0.00 0.00 0.00 0.00 0.00 0.00 0.00 0.01 0.01 0.01 0.01 0.01 0.02 0.01 0.00 0.05 0.07 0.08 0.02 0.00 0.00 0.00 0.00 0.00 0.00 0.00 0.00 0.00 0.00 0.00 0.00 0.00 0.00 0.00 0.00 0.00
0.05 0.01 0.01 0.00 0.00 0.00 0.00 0.00 0.00 0.00 0.00 0.00 0.00 0.00 0.00 0.00 0.00 0.00 0.00 0.00 0.00 0.00 0.00 0.01 0.03 0.06 0.03 0.03 0.09 0.11 0.12 0.06 0.02 0.01 0.00 0.00 0.00 0.00 0.00 0.00 0.00 0.00 0.00 0.00 0.00 0.00 0.00 0.00 0.00
0.08 0.02 0.00 0.00 0.00 0.00 0.00 0.00 0.00 0.00 0.00 0.00 0.00 0.00 0.00 0.00 0.00 0.00 0.00 0.00 0.00 0.00 0.00 0.00 0.00 0.02 0.09 0.15 0.10 0.22 0.22 0.11 0.06 0.03 0.00 0.00 0.02 0.02 0.00 0.00 0.00 0.00 0.00 0.00 0.00 0.00 0.00 0.00 0.00
0.01 0.00 0.00 0.00 0.00 0.00 0.00 0.00 0.00 0.00 0.00 0.00 0.00 0.00 0.00 0.00 0.00 0.00 0.00 0.00 0.00 0.00 0.00 0.00 0.00 0.00 0.03 0.10 0.19 0.23 0.20 0.09 0.05 0.05 0.03 0.11 0.06 0.07 0.03 0.01 0.00 0.00 0.00 0.00 0.00 0.00 0.00 0.00 0.00
0.00 0.00 0.00 0.00 0.00 0.00 0.00 0.00 0.00 0.00 0.00 0.00 0.00 0.00 0.00 0.00 0.00 0.00 0.00 0.00 0.00 0.00 0.00 0.00 0.00 0.00 0.02 0.05 0.07 0.07 0.10 0.21 0.12 0.10 0.23 0.19 0.19 0.15 0.10 0.05 0.04 0.02 0.00 0.00 0.00 0.00 0.00 0.00 0.00
0.01 0.00 0.00 0.00 0.00 0.00 0.00 0.00 0.00 0.00 0.00 0.00 0.00 0.00 0.00 0.00 0.00 0.00 0.00 0.00 0.00 0.00 0.00 0.00 0.00 0.00 0.00 0.01 0.01 0.04 0.06 0.08 0.14 0.19 0.14 0.17 0.19 0.31 0.21 0.10 0.07 0.13 0.09 0.03 0.01 0.02 0.05 0.03 0.02
0.00 0.00 0.00 0.00 0.00 0.00 0.00 0.00 0.00 0.00 0.00 0.00 0.00 0.00 0.00 0.00 0.00 0.00 0.00 0.00 0.00 0.00 0.00 0.00 0.00 0.00 0.00 0.00 0.03 0.08 0.11 0.11 0.13 0.12 0.05 0.04 0.15 0.39 0.35 0.21 0.13 0.20 0.16 0.19 0.11 0.08 0.13 0.15 0.12
0.03 0.00 0.00 0.00 0.00 0.00 0.00 0.00 0.00 0.00 0.00 0.00 0.00 0.00 0.00 0.00 0.00 0.00 0.00 0.00 0.00 0.00 0.00 0.00 0.00 0.00 0.00 0.00 0.00 0.01 0.01 0.01 0.01 0.02 0.06 0.12 0.14 0.31 0.44 0.36 0.24 0.29 0.28 0.25 0.28 0.23 0.24 0.24 0.16
0.07 0.00 0.00 0.00 0.00 0.00 0.00 0.00 0.00 0.00 0.00 0.00 0.00 0.00 0.00 0.00 0.00 0.00 0.00 0.00 0.00 0.00 0.00 0.00 0.00 0.00 0.00 0.00 0.00 0.00 0.01 0.03 0.02 0.06 0.10 0.13 0.18 0.26 0.31 0.33 0.34 0.28 0.30 0.34 0.32 0.32 0.25 0.29 0.26
0.07 0.02 0.00 0.00 0.00 0.00 0.00 0.00 0.00 0.00 0.00 0.00 0.00 0.00 0.00 0.00 0.00 0.00 0.00 0.00 0.00 0.00 0.00 0.00 0.00 0.00 0.00 0.00 0.00 0.00 0.00 0.00 0.01 0.06 0.12 0.12 0.13 0.15 0.19 0.28 0.25 0.33 0.27 0.26 0.32 0.36 0.37 0.31 0.35
0.10 0.03 0.03 0.03 0.01 0.00 0.00 0.00 0.00 0.00 0.00 0.00 0.00 0.00 0.00 0.00 0.00 0.00 0.00 0.00 0.00 0.00 0.00 0.00 0.00 0.00 0.00 0.00 0.00 0.00 0.00 0.00 0.00 0.05 0.08 0.09 0.09 0.07 0.13 0.23 0.23 0.26 0.28 0.30 0.29 0.30 0.25 0.27 0.29
0.19 0.02 0.03 0.01 0.00 0.00 0.00 0.00 0.00 0.00 0.00 0.00 0.00 0.00 0.00 0.00 0.00 0.00 0.00 0.00 0.00 0.00 0.00 0.00 0.00 0.00 0.00 0.00 0.00 0.00 0.00 0.00 0.01 0.02 0.02 0.03 0.05 0.11 0.11 0.15 0.19 0.22 0.23 0.26 0.25 0.25 0.23 0.21 0.22
0.23 0.02 0.00 0.00 0.00 0.00 0.00 0.00 0.00 0.00 0.00 0.00 0.00 0.00 0.00 0.00 0.00 0.00 0.00 0.00 0.00 0.00 0.00 0.00 0.00 0.00 0.00 0.00 0.00 0.00 0.00 0.01 0.01 0.02 0.03 0.05 0.07 0.08 0.09 0.12 0.13 0.14 0.17 0.21 0.22 0.21 0.19 0.21 0.22
0.09 0.02 0.01 0.00 0.00 0.00 0.00 0.00 0.00 0.00 0.00 0.00 0.00 0.00 0.00 0.00 0.00 0.00 0.00 0.00 0.00 0.00 0.00 0.00 0.00 0.00 0.00 0.00 0.00 0.00 0.00 0.01 0.02 0.03 0.05 0.05 0.06 0.06 0.08 0.09 0.08 0.07 0.08 0.09 0.11 0.13 0.16 0.19 0.23
0.05 0.05 0.00 0.00 0.00 0.00 0.00 0.00 0.00 0.00 0.00 0.00 0.00 0.00 0.00 0.00 0.00 0.00 0.00 0.00 0.00 0.00 0.00 0.00 0.00 0.00 0.00 0.00 0.00 0.01 0.02 0.04 0.04 0.04 0.04 0.05 0.04 0.04 0.05 0.04 0.04 0.04 0.04 0.04 0.05 0.04 0.06 0.08 0.10
0.00 0.01 0.01 0.00 0.00 0.00 0.00 0.00 0.00 0.00 0.00 0.00 0.00 0.00 0.00 0.00 0.00 0.00 0.00 0.00 0.00 0.00 0.00 0.00 0.00 0.00 0.00 0.00 0.00 0.00 0.02 0.04 0.05 0.05 0.04 0.03 0.03 0.02 0.02 0.02 0.02 0.01 0.01 0.01 0.01 0.03 0.04 0.06 0.07

GFSSGP_prec_precacc24_072.txt.gz
Total_Precipitation_Accumulation
0.00 0.00 0.00 0.00 0.00 0.00 0.00 0.00 0.00 0.00 0.00 0.00 0.00 0.00 0.00 0.00 0.00 0.00 0.00 0.00 0.00 0.00 0.00 0.02 0.03 0.02 0.04 0.07 0.04 0.02 0.02 0.05 0.06 0.05 0.04 0.01 0.00 0.00 0.00 0.00 0.03 0.05 0.05 0.14 0.25 0.17 0.04 0.00 0.00
0.00 0.00 0.00 0.00 0.00 0.00 0.00 0.00 0.00 0.00 0.00 0.00 0.00 0.00 0.00 0.00 0.00 0.00 0.00 0.00 0.00 0.00 0.00 0.00 0.02 0.02 0.04 0.06 0.02 0.01 0.02 0.04 0.05 0.03 0.01 0.00 0.00 0.00 0.00 0.01 0.04 0.06 0.10 0.18 0.11 0.02 0.00 0.00 0.00
0.00 0.01 0.00 0.00 0.00 0.00 0.00 0.00 0.00 0.00 0.00 0.00 0.00 0.00 0.00 0.00 0.00 0.00 0.00 0.00 0.00 0.00 0.00 0.01 0.02 0.02 0.05 0.03 0.01 0.01 0.04 0.03 0.02 0.02 0.01 0.00 0.00 0.01 0.02 0.03 0.05 0.06 0.06 0.02 0.00 0.00 0.00 0.00 0.00
0.00 0.01 0.00 0.00 0.00 0.00 0.00 0.00 0.00 0.00 0.00 0.00 0.00 0.00 0.00 0.00 0.00 0.00 0.00 0.00 0.00 0.00 0.00 0.01 0.01 0.03 0.04 0.02 0.01 0.01 0.04 0.02 0.02 0.01 0.00 0.00 0.01 0.02 0.03 0.02 0.01 0.01 0.00 0.00 0.00 0.00 0.00 0.00 0.00
0.00 0.01 0.00 0.00 0.00 0.00 0.00 0.00 0.00 0.00 0.00 0.00 0.00 0.00 0.00 0.00 0.00 0.00 0.00 0.00 0.00 0.00 0.00 0.00 0.02 0.03 0.04 0.02 0.01 0.01 0.02 0.02 0.01 0.01 0.00 0.01 0.02 0.02 0.01 0.00 0.00 0.00 0.00 0.00 0.00 0.00 0.00 0.00 0.00
0.02 0.03 0.02 0.00 0.00 0.00 0.00 0.00 0.00 0.00 0.00 0.00 0.00 0.00 0.01 0.01 0.00 0.01 0.00 0.00 0.00 0.00 0.00 0.00 0.01 0.02 0.03 0.02 0.01 0.00 0.02 0.03 0.03 0.01 0.00 0.01 0.01 0.01 0.00 0.00 0.00 0.00 0.00 0.00 0.00 0.00 0.00 0.00 0.00
0.20 0.03 0.02 0.00 0.00 0.00 0.00 0.00 0.00 0.00 0.00 0.00 0.00 0.01 0.07 0.02 0.01 0.03 0.01 0.00 0.00 0.00 0.00 0.00 0.00 0.03 0.04 0.02 0.01 0.01 0.01 0.02 0.03 0.03 0.01 0.00 0.00 0.00 0.00 0.00 0.00 0.00 0.00 0.00 0.00 0.00 0.00 0.00 0.00
0.12 0.19 0.05 0.01 0.01 0.00 0.00 0.00 0.00 0.00 0.00 0.00 0.00 0.01 0.07 0.03 0.00 0.02 0.00 0.01 0.00 0.00 0.01 0.00 0.00 0.02 0.03 0.02 0.02 0.01 0.01 0.01 0.01 0.02 0.01 0.00 0.00 0.00 0.00 0.00 0.00 0.00 0.00 0.00 0.00 0.00 0.00 0.00 0.00
0.09 0.22 0.24 0.02 0.03 0.00 0.00 0.00 0.00 0.00 0.00 0.00 0.00 0.00 0.01 0.02 0.01 0.03 0.03 0.01 0.02 0.02 0.03 0.01 0.01 0.00 0.01 0.00 0.01 0.01 0.02 0.01 0.00 0.01 0.00 0.00 0.00 0.00 0.00 0.00 0.00 0.00 0.00 0.00 0.00 0.00 0.00 0.00 0.00
0.06 0.13 0.06 0.00 0.00 0.03 0.03 0.00 0.00 0.00 0.00 0.00 0.00 0.00 0.00 0.02 0.04 0.07 0.04 0.02 0.03 0.02 0.04 0.02 0.00 0.00 0.00 0.00 0.00 0.00 0.00 0.00 0.00 0.00 0.00 0.00 0.00 0.00 0.00 0.00 0.00 0.00 0.00 0.00 0.00 0.01 0.00 0.00 0.00
0.00 0.02 0.00 0.00 0.01 0.10 0.04 0.01 0.00 0.00 0.00 0.00 0.00 0.00 0.01 0.05 0.11 0.11 0.08 0.05 0.03 0.01 0.01 0.00 0.00 0.00 0.00 0.00 0.00 0.00 0.00 0.00 0.00 0.00 0.00 0.00 0.00 0.00 0.00 0.00 0.00 0.00 0.00 0.00 0.00 0.01 0.00 0.00 0.00
0.00 0.00 0.00 0.00 0.03 0.08 0.08 0.03 0.00 0.00 0.00 0.00 0.00 0.00 0.00 0.00 0.04 0.06 0.07 0.07 0.03 0.01 0.01 0.00 0.00 0.00 0.00 0.00 0.00 0.00 0.00 0.00 0.00 0.00 0.00 0.00 0.00 0.00 0.00 0.00 0.00 0.00 0.00 0.00 0.00 0.00 0.00 0.00 0.00
0.00 0.00 0.00 0.00 0.00 0.01 0.05 0.07 0.00 0.00 0.00 0.00 0.00 0.00 0.00 0.00 0.01 0.02 0.03 0.04 0.02 0.01 0.01 0.01 0.00 0.00 0.02 0.01 0.01 0.01 0.00 0.00 0.00 0.00 0.00 0.00 0.00 0.00 0.00 0.00 0.00 0.00 0.00 0.00 0.00 0.00 0.00 0.00 0.00
0.01 0.00 0.00 0.00 0.00 0.00 0.01 0.02 0.00 0.00 0.00 0.00 0.00 0.00 0.00 0.00 0.00 0.00 0.00 0.01 0.02 0.01 0.01 0.02 0.01 0.02 0.02 0.03 0.02 0.02 0.00 0.00 0.00 0.00 0.00 0.00 0.00 0.00 0.00 0.00 0.00 0.00 0.00 0.00 0.00 0.00 0.00 0.00 0.00
0.04 0.02 0.02 0.00 0.00 0.00 0.00 0.00 0.00 0.00 0.00 0.00 0.00 0.00 0.00 0.00 0.00 0.00 0.00 0.00 0.01 0.02 0.01 0.00 0.01 0.02 0.01 0.00 0.05 0.07 0.08 0.02 0.00 0.00 0.00 0.00 0.00 0.00 0.00 0.00 0.00 0.00 0.00 0.00 0.00 0.00 0.00 0.00 0.00
0.10 0.03 0.02 0.00 0.00 0.00 0.00 0.00 0.00 0.00 0.00 0.00 0.00 0.00 0.00 0.00 0.00 0.00 0.00 0.00 0.01 0.00 0.00 0.01 0.03 0.07 0.03 0.02 0.09 0.10 0.11 0.06 0.02 0.01 0.00 0.00 0.00 0.00 0.00 0.00 0.00 0.00 0.00 0.00 0.00 0.00 0.00 0.00 0.00
0.11 0.02 0.00 0.00 0.00 0.00 0.00 0.00 0.00 0.00 0.00 0.00 0.00 0.00 0.00 0.00 0.00 0.00 0.00 0.00 0.00 0.00 0.00 0.00 0.00 0.04 0.08 0.13 0.09 0.19 0.19 0.11 0.06 0.02 0.00 0.00 0.02 0.02 0.00 0.00 0.00 0.00 0.00 0.00 0.00 0.00 0.00 0.00 0.00
0.01 0.00 0.00 0.00 0.00 0.00 0.00 0.00 0.00 0.00 0.00 0.00 0.00 0.00 0.00 0.00 0.00 0.00 0.00 0.00 0.00 0.00 0.00 0.00 0.00 0.00 0.01 0.07 0.15 0.19 0.16 0.08 0.05 0.05 0.03 0.10 0.05 0.07 0.03 0.01 0.00 0.00 0.00 0.00 0.00 0.00 0.00 0.00 0.00
0.00 0.00 0.00 0.00 0.00 0.00 0.00 0.00 0.00 0.00 0.00 0.00 0.00 0.00 0.00 0.00 0.00 0.00 0.00 0.00 0.00 0.00 0.00 0.00 0.00 0.00 0.00 0.01 0.04 0.05 0.06 0.18 0.11 0.11 0.26 0.23 0.20 0.17 0.10 0.05 0.04 0.02 0.00 0.00 0.00 0.00 0.00 0.00 0.01
0.01 0.00 0.00 0.00 0.00 0.00 0.00 0.00 0.00 0.00 0.00 0.00 0.00 0.00 0.00 0.00 0.00 0.00 0.00 0.00 0.00 0.00 0.00 0.00 0.00 0.00 0.00 0.00 0.00 0.01 0.00 0.02 0.06 0.14 0.14 0.20 0.21 0.28 0.22 0.13 0.08 0.16 0.13 0.06 0.03 0.03 0.06 0.04 0.11
0.01 0.00 0.00 0.00 0.00 0.00 0.00 0.00 0.00 0.00 0.00 0.00 0.00 0.00 0.00 0.00 0.00 0.00 0.00 0.00 0.00 0.00 0.00 0.00 0.00 0.00 0.00 0.00 0.00 0.02 0.05 0.06 0.05 0.04 0.02 0.03 0.13 0.26 0.29 0.21 0.13 0.21 0.18 0.21 0.14 0.12 0.16 0.16 0.18
0.03 0.00 0.00 0.00 0.00 0.00 0.00 0.00 0.00 0.00 0.00 0.00 0.00 0.00 0.00 0.00 0.00 0.00 0.00 0.00 0.00 0.00 0.00 0.00 0.00 0.00 0.00 0.00 0.00 0.00 0.00 0.00 0.00 0.00 0.01 0.03 0.06 0.19 0.35 0.30 0.19 0.26 0.27 0.25 0.30 0.30 0.30 0.31 0.20
0.07 0.00 0.00 0.00 0.00 0.00 0.00 0.00 0.00 0.00 0.00 0.00 0.00 0.00 0.00 0.00 0.00 0.00 0.00 0.00 0.00 0.00 0.00 0.00 0.00 0.00 0.00 0.00 0.00 0.00 0.00 0.01 0.01 0.01 0.03 0.04 0.05 0.14 0.22 0.28 0.31 0.25 0.31 0.36 0.34 0.34 0.30 0.38 0.35
0.07 0.02 0.00 0.00 0.00 0.01 0.00 0.00 0.00 0.00 0.00 0.00 0.00 0.00 0.00 0.00 0.00 0.00 0.00 0.00 0.00 0.00 0.00 0.00 0.00 0.00 0.00 0.00 0.00 0.00 0.00 0.00 0.00 0.04 0.09 0.07 0.06 0.06 0.12 0.22 0.22 0.31 0.24 0.23 0.31 0.36 0.39 0.34 0.39
0.11 0.04 0.05 0.07 0.05 0.01 0.00 0.00 0.00 0.00 0.00 0.00 0.00 0.00 0.00 0.00 0.00 0.00 0.00 0.00 0.00 0.00 0.00 0.00 0.00 0.00 0.00 0.00 0.00 0.00 0.00 0.00 0.00 0.04 0.06 0.07 0.05 0.03 0.07 0.18 0.21 0.23 0.26 0.28 0.28 0.29 0.25 0.27 0.31
0.21 0.04 0.03 0.02 0.00 0.00 0.00 0.00 0.00 0.00 0.00 0.00 0.00 0.00 0.00 0.00 0.00 0.00 0.00 0.00 0.00 0.00 0.00 0.00 0.00 0.00 0.00 0.00 0.00 0.00 0.00 0.00 0.00 0.00 0.01 0.01 0.02 0.06 0.07 0.13 0.17 0.21 0.22 0.25 0.24 0.24 0.23 0.21 0.22
0.35 0.10 0.00 0.00 0.00 0.00 0.00 0.00 0.00 0.00 0.00 0.00 0.00 0.00 0.00 0.00 0.00 0.00 0.00 0.00 0.00 0.00 0.00 0.00 0.00 0.00 0.00 0.00 0.00 0.00 0.00 0.00 0.00 0.00 0.00 0.01 0.03 0.04 0.06 0.10 0.12 0.14 0.16 0.20 0.21 0.20 0.19 0.21 0.22
0.22 0.08 0.03 0.00 0.00 0.00 0.00 0.00 0.00 0.00 0.00 0.00 0.00 0.00 0.00 0.00 0.00 0.00 0.00 0.00 0.00 0.00 0.00 0.00 0.00 0.00 0.00 0.00 0.00 0.00 0.00 0.00 0.00 0.00 0.01 0.02 0.03 0.04 0.07 0.08 0.08 0.07 0.08 0.08 0.10 0.12 0.15 0.19 0.23
0.09 0.13 0.01 0.00 0.00 0.00 0.00 0.00 0.00 0.00 0.00 0.00 0.00 0.00 0.00 0.00 0.00 0.00 0.00 0.00 0.00 0.00 0.00 0.00 0.00 0.00 0.00 0.00 0.00 0.00 0.00 0.00 0.00 0.00 0.01 0.02 0.03 0.04 0.05 0.04 0.04 0.04 0.03 0.03 0.04 0.04 0.06 0.08 0.10
0.00 0.01 0.01 0.00 0.00 0.00 0.00 0.00 0.00 0.00 0.00 0.00 0.00 0.00 0.00 0.00 0.00 0.00 0.00 0.00 0.00 0.00 0.00 0.00 0.00 0.00 0.00 0.00 0.00 0.00 0.00 0.00 0.01 0.02 0.03 0.02 0.02 0.02 0.02 0.02 0.02 0.01 0.01 0.01 0.01 0.02 0.03 0.06 0.07

GFSSGP_prec_precacc24_075.txt.gz
Total_Precipitation_Accumulation
0.00 0.00 0.00 0.00 0.00 0.00 0.00 0.00 0.00 0.00 0.00 0.00 0.00 0.00 0.00 0.00 0.00 0.00 0.00 0.00 0.00 0.00 0.00 0.01 0.02 0.01 0.03 0.06 0.04 0.02 0.02 0.05 0.06 0.05 0.04 0.01 0.00 0.00 0.00 0.01 0.03 0.03 0.05 0.14 0.24 0.13 0.02 0.00 0.00
0.00 0.00 0.00 0.00 0.00 0.00 0.00 0.00 0.00 0.00 0.00 0.00 0.00 0.00 0.00 0.00 0.00 0.00 0.00 0.00 0.00 0.00 0.00 0.00 0.01 0.01 0.03 0.05 0.02 0.01 0.02 0.04 0.06 0.03 0.01 0.00 0.00 0.00 0.00 0.02 0.05 0.05 0.08 0.17 0.10 0.02 0.00 0.00 0.00
0.00 0.01 0.00 0.00 0.00 0.00 0.00 0.00 0.00 0.00 0.00 0.00 0.00 0.00 0.00 0.00 0.00 0.00 0.00 0.00 0.00 0.00 0.00 0.01 0.01 0.02 0.04 0.03 0.01 0.01 0.05 0.03 0.02 0.02 0.00 0.00 0.00 0.01 0.02 0.04 0.06 0.05 0.06 0.02 0.00 0.00 0.00 0.00 0.00
0.00 0.01 0.00 0.00 0.00 0.00 0.00 0.00 0.00 0.00 0.00 0.00 0.00 0.00 0.00 0.00 0.00 0.00 0.00 0.00 0.00 0.00 0.00 0.01 0.01 0.02 0.04 0.02 0.01 0.02 0.04 0.02 0.01 0.00 0.00 0.00 0.01 0.02 0.03 0.03 0.01 0.01 0.00 0.00 0.00 0.00 0.00 0.00 0.00
0.00 0.01 0.00 0.00 0.00 0.00 0.00 0.00 0.00 0.00 0.00 0.00 0.00 0.00 0.00 0.00 0.00 0.00 0.00 0.00 0.00 0.00 0.00 0.01 0.02 0.03 0.04 0.02 0.01 0.01 0.02 0.02 0.01 0.01 0.00 0.01 0.02 0.02 0.02 0.01 0.00 0.00 0.00 0.00 0.00 0.00 0.00 0.00 0.00
0.02 0.03 0.02 0.00 0.00 0.00 0.00 0.00 0.00 0.00 0.00 0.00 0.00 0.00 0.01 0.01 0.00 0.01 0.00 0.00 0.00 0.00 0.00 0.00 0.01 0.02 0.03 0.02 0.01 0.00 0.02 0.03 0.02 0.02 0.02 0.02 0.01 0.02 0.00 0.00 0.00 0.00 0.00 0.00 0.00 0.00 0.00 0.00 0.00
0.20 0.03 0.02 0.00 0.00 0.00 0.00 0.00 0.00 0.00 0.00 0.00 0.00 0.01 0.07 0.02 0.01 0.03 0.01 0.00 0.00 0.00 0.00 0.00 0.00 0.03 0.04 0.02 0.01 0.01 0.01 0.02 0.03 0.03 0.01 0.01 0.01 0.01 0.01 0.00 0.00 0.00 0.00 0.00 0.00 0.00 0.00 0.00 0.00
0.12 0.19 0.05 0.01 0.01 0.00 0.00 0.00 0.00 0.00 0.00 0.00 0.00 0.01 0.07 0.03 0.00 0.02 0.00 0.01 0.00 0.00 0.00 0.00 0.00 0.02 0.03 0.02 0.02 0.01 0.01 0.01 0.01 0.02 0.01 0.00 0.00 0.00 0.00 0.00 0.00 0.00 0.00 0.00 0.00 0.00 0.00 0.00 0.00
0.13 0.27 0.25 0.02 0.05 0.01 0.00 0.00 0.00 0.00 0.00 0.00 0.00 0.00 0.01 0.02 0.01 0.03 0.03 0.02 0.02 0.00 0.00 0.00 0.00 0.00 0.01 0.00 0.01 0.01 0.02 0.01 0.00 0.01 0.00 0.00 0.00 0.00 0.00 0.00 0.00 0.00 0.00 0.00 0.00 0.00 0.00 0.00 0.00
0.14 0.26 0.07 0.00 0.00 0.03 0.03 0.00 0.00 0.00 0.00 0.01 0.01 0.00 0.00 0.03 0.05 0.07 0.04 0.03 0.03 0.01 0.00 0.00 0.00 0.00 0.00 0.00 0.00 0.00 0.00 0.00 0.00 0.00 0.00 0.00 0.00 0.00 0.00 0.00 0.00 0.00 0.00 0.00 0.00 0.01 0.00 0.00 0.00
0.02 0.05 0.00 0.00 0.03 0.15 0.04 0.01 0.00 0.00 0.00 0.01 0.02 0.00 0.03 0.07 0.12 0.12 0.10 0.05 0.04 0.01 0.00 0.00 0.00 0.00 0.00 0.00 0.00 0.00 0.00 0.00 0.00 0.00 0.00 0.00 0.00 0.00 0.00 0.00 0.00 0.00 0.00 0.00 0.00 0.01 0.00 0.00 0.00
0.00 0.00 0.01 0.02 0.11 0.13 0.10 0.05 0.00 0.00 0.00 0.00 0.04 0.04 0.02 0.02 0.06 0.14 0.13 0.09 0.03 0.01 0.01 0.00 0.00 0.00 0.00 0.00 0.00 0.00 0.00 0.00 0.00 0.00 0.00 0.00 0.00 0.00 0.00 0.00 0.00 0.00 0.00 0.00 0.00 0.00 0.00 0.00 0.00
0.00 0.00 0.01 0.09 0.05 0.04 0.08 0.16 0.02 0.00 0.00 0.00 0.01 0.03 0.02 0.02 0.03 0.05 0.09 0.06 0.02 0.01 0.01 0.01 0.00 0.00 0.02 0.01 0.01 0.01 0.00 0.00 0.00 0.00 0.00 0.00 0.00 0.00 0.00 0.00 0.00 0.00 0.00 0.00 0.00 0.00 0.00 0.00 0.00
0.01 0.00 0.01 0.02 0.01 0.01 0.03 0.09 0.12 0.00 0.00 0.02 0.03 0.00 0.00 0.00 0.01 0.02 0.03 0.05 0.02 0.01 0.01 0.02 0.01 0.02 0.02 0.03 0.02 0.02 0.00 0.00 0.00 0.00 0.00 0.00 0.00 0.00 0.00 0.00 0.00 0.00 0.00 0.00 0.00 0.00 0.00 0.00 0.00
0.05 0.03 0.02 0.00 0.00 0.01 0.03 0.13 0.15 0.01 0.00 0.01 0.03 0.02 0.00 0.00 0.00 0.00 0.00 0.01 0.03 0.03 0.02 0.00 0.01 0.02 0.01 0.00 0.05 0.06 0.06 0.02 0.00 0.00 0.00 0.00 0.00 0.00 0.00 0.00 0.00 0.00 0.00 0.00 0.00 0.00 0.00 0.00 0.00
0.14 0.04 0.02 0.00 0.00 0.00 0.01 0.02 0.02 0.02 0.00 0.00 0.00 0.00 0.00 0.00 0.00 0.00 0.00 0.00 0.01 0.00 0.01 0.01 0.03 0.03 0.02 0.02 0.07 0.07 0.08 0.05 0.01 0.01 0.00 0.00 0.00 0.00 0.00 0.00 0.00 0.00 0.00 0.00 0.00 0.00 0.00 0.00 0.00
0.12 0.02 0.00 0.00 0.00 0.00 0.00 0.00 0.01 0.00 0.00 0.00 0.00 0.00 0.00 0.00 0.00 0.00 0.00 0.00 0.00 0.00 0.00 0.00 0.00 0.03 0.05 0.08 0.05 0.16 0.14 0.09 0.04 0.02 0.00 0.00 0.02 0.02 0.00 0.00 0.00 0.00 0.00 0.00 0.00 0.00 0.00 0.00 0.00
0.01 0.00 0.00 0.00 0.00 0.00 0.00 0.00 0.00 0.00 0.00 0.00 0.00 0.00 0.00 0.00 0.00 0.00 0.00 0.00 0.00 0.00 0.00 0.00 0.00 0.01 0.01 0.02 0.08 0.13 0.09 0.05 0.05 0.04 0.02 0.10 0.05 0.07 0.03 0.01 0.00 0.00 0.00 0.00 0.00 0.00 0.00 0.00 0.00
0.00 0.00 0.00 0.00 0.00 0.00 0.00 0.00 0.00 0.00 0.00 0.00 0.00 0.00 0.00 0.00 0.00 0.00 0.00 0.00 0.00 0.00 0.00 0.00 0.00 0.00 0.01 0.00 0.02 0.04 0.04 0.16 0.11 0.10 0.24 0.21 0.19 0.15 0.08 0.04 0.04 0.03 0.00 0.01 0.01 0.01 0.00 0.00 0.02
0.01 0.00 0.00 0.00 0.00 0.00 0.00 0.00 0.00 0.00 0.00 0.00 0.00 0.00 0.00 0.00 0.00 0.00 0.00 0.00 0.00 0.00 0.00 0.00 0.00 0.00 0.00 0.00 0.00 0.00 0.00 0.01 0.04 0.10 0.13 0.18 0.21 0.25 0.21 0.15 0.09 0.16 0.13 0.07 0.04 0.04 0.07 0.05 0.14
0.01 0.00 0.00 0.00 0.00 0.00 0.00 0.00 0.00 0.00 0.00 0.00 0.00 0.00 0.00 0.00 0.00 0.00 0.00 0.00 0.00 0.00 0.00 0.00 0.00 0.00 0.00 0.00 0.00 0.00 0.00 0.00 0.01 0.01 0.01 0.02 0.10 0.13 0.19 0.19 0.13 0.21 0.17 0.18 0.13 0.12 0.18 0.18 0.21
0.03 0.00 0.00 0.00 0.00 0.00 0.00 0.00 0.00 0.00 0.00 0.00 0.00 0.00 0.00 0.00 0.00 0.00 0.00 0.00 0.00 0.00 0.00 0.00 0.00 0.00 0.00 0.00 0.00 0.00 0.00 0.00 0.00 0.00 0.00 0.00 0.03 0.07 0.23 0.23 0.16 0.19 0.18 0.16 0.23 0.26 0.29 0.33 0.22
0.07 0.00 0.00 0.00 0.00 0.00 0.00 0.00 0.00 0.00 0.00 0.00 0.00 0.00 0.00 0.00 0.00 0.00 0.00 0.00 0.00 0.00 0.00 0.00 0.00 0.00 0.00 0.00 0.00 0.00 0.00 0.00 0.00 0.00 0.00 0.00 0.02 0.07 0.13 0.18 0.21 0.17 0.24 0.30 0.30 0.30 0.28 0.38 0.36
0.07 0.02 0.00 0.00 0.00 0.01 0.00 0.00 0.00 0.00 0.00 0.00 0.00 0.00 0.00 0.00 0.00 0.00 0.00 0.00 0.00 0.00 0.00 0.00 0.00 0.00 0.00 0.00 0.00 0.00 0.00 0.00 0.00 0.00 0.02 0.03 0.03 0.03 0.07 0.15 0.14 0.22 0.18 0.18 0.27 0.33 0.38 0.34 0.39
0.11 0.05 0.08 0.08 0.07 0.01 0.00 0.00 0.00 0.00 0.00 0.00 0.00 0.00 0.00 0.00 0.00 0.00 0.00 0.00 0.00 0.00 0.00 0.00 0.00 0.00 0.00 0.00 0.00 0.00 0.00 0.00 0.00 0.01 0.02 0.05 0.04 0.02 0.05 0.12 0.15 0.16 0.20 0.24 0.26 0.28 0.25 0.27 0.31
0.21 0.04 0.04 0.02 0.00 0.00 0.00 0.00 0.00 0.00 0.00 0.00 0.00 0.00 0.00 0.00 0.00 0.00 0.00 0.00 0.00 0.00 0.00 0.00 0.00 0.00 0.00 0.00 0.00 0.00 0.00 0.00 0.00 0.00 0.01 0.01 0.01 0.04 0.04 0.08 0.12 0.16 0.19 0.23 0.23 0.24 0.23 0.21 0.22
0.35 0.11 0.00 0.00 0.00 0.00 0.00 0.00 0.00 0.00 0.00 0.00 0.00 0.00 0.00 0.00 0.00 0.00 0.00 0.00 0.00 0.00 0.00 0.00 0.00 0.00 0.00 0.00 0.00 0.00 0.00 0.00 0.00 0.00 0.00 0.00 0.00 0.01 0.03 0.06 0.08 0.12 0.16 0.20 0.21 0.20 0.19 0.21 0.22
0.22 0.08 0.06 0.02 0.00 0.00 0.00 0.00 0.00 0.00 0.00 0.00 0.00 0.00 0.00 0.00 0.00 0.00 0.00 0.00 0.00 0.00 0.00 0.00 0.00 0.00 0.00 0.00 0.00 0.00 0.00 0.00 0.00 0.00 0.00 0.00 0.00 0.00 0.02 0.04 0.06 0.07 0.08 0.08 0.10 0.12 0.15 0.19 0.23
0.09 0.14 0.04 0.01 0.00 0.00 0.00 0.00 0.00 0.00 0.00 0.00 0.00 0.00 0.00 0.00 0.00 0.00 0.00 0.00 0.00 0.00 0.00 0.00 0.00 0.00 0.00 0.00 0.00 0.00 0.00 0.00 0.00 0.00 0.00 0.00 0.00 0.00 0.01 0.02 0.03 0.03 0.03 0.03 0.04 0.04 0.05 0.08 0.09
0.00 0.02 0.02 0.01 0.00 0.00 0.00 0.00 0.00 0.00 0.00 0.00 0.00 0.00 0.00 0.00 0.00 0.00 0.00 0.00 0.00 0.00 0.00 0.00 0.00 0.00 0.00 0.00 0.00 0.00 0.00 0.00 0.00 0.00 0.00 0.00 0.00 0.00 0.01 0.01 0.02 0.01 0.01 0.01 0.01 0.02 0.03 0.05 0.06

GFSSGP_prec_precacc24_078.txt.gz
Total_Precipitation_Accumulation
0.00 0.00 0.00 0.00 0.00 0.00 0.00 0.00 0.00 0.00 0.00 0.00 0.00 0.00 0.00 0.00 0.00 0.00 0.00 0.00 0.00 0.00 0.00 0.01 0.02 0.01 0.03 0.06 0.04 0.02 0.02 0.05 0.06 0.05 0.04 0.01 0.00 0.00 0.00 0.02 0.02 0.03 0.05 0.14 0.17 0.06 0.00 0.00 0.00
0.00 0.00 0.00 0.00 0.00 0.00 0.00 0.00 0.00 0.00 0.00 0.00 0.00 0.00 0.00 0.00 0.00 0.00 0.00 0.00 0.00 0.00 0.01 0.00 0.01 0.01 0.03 0.05 0.01 0.01 0.02 0.04 0.06 0.03 0.00 0.00 0.00 0.00 0.01 0.03 0.03 0.03 0.08 0.16 0.08 0.01 0.00 0.00 0.00
0.00 0.01 0.00 0.00 0.00 0.00 0.00 0.00 0.00 0.00 0.00 0.00 0.00 0.00 0.00 0.00 0.00 0.00 0.00 0.01 0.00 0.00 0.00 0.01 0.01 0.01 0.03 0.02 0.00 0.01 0.05 0.04 0.02 0.01 0.00 0.00 0.00 0.01 0.03 0.05 0.05 0.05 0.06 0.02 0.00 0.00 0.00 0.00 0.00
0.00 0.01 0.00 0.00 0.00 0.00 0.00 0.00 0.00 0.00 0.00 0.00 0.00 0.00 0.00 0.00 0.00 0.00 0.00 0.00 0.00 0.00 0.00 0.02 0.02 0.02 0.03 0.01 0.00 0.02 0.04 0.01 0.01 0.00 0.00 0.00 0.01 0.02 0.04 0.03 0.01 0.01 0.00 0.00 0.00 0.00 0.00 0.00 0.00
0.01 0.01 0.00 0.00 0.00 0.00 0.00 0.00 0.00 0.00 0.00 0.00 0.00 0.00 0.00 0.00 0.00 0.00 0.00 0.00 0.00 0.00 0.00 0.02 0.02 0.03 0.04 0.01 0.01 0.02 0.02 0.01 0.01 0.00 0.00 0.02 0.02 0.02 0.03 0.01 0.00 0.00 0.00 0.00 0.00 0.00 0.00 0.00 0.00
0.04 0.03 0.02 0.00 0.00 0.00 0.00 0.00 0.00 0.00 0.00 0.00 0.00 0.00 0.01 0.01 0.00 0.01 0.00 0.00 0.00 0.00 0.00 0.01 0.02 0.02 0.03 0.03 0.01 0.00 0.02 0.03 0.02 0.01 0.02 0.03 0.02 0.02 0.02 0.00 0.00 0.00 0.00 0.00 0.00 0.00 0.00 0.00 0.00
0.20 0.03 0.02 0.00 0.00 0.00 0.00 0.00 0.00 0.00 0.00 0.00 0.00 0.01 0.07 0.02 0.01 0.03 0.01 0.00 0.00 0.00 0.00 0.00 0.01 0.03 0.04 0.03 0.01 0.01 0.01 0.02 0.02 0.02 0.02 0.01 0.02 0.01 0.01 0.00 0.00 0.00 0.00 0.00 0.00 0.00 0.00 0.00 0.00
0.13 0.19 0.05 0.01 0.01 0.00 0.00 0.00 0.00 0.00 0.00 0.00 0.00 0.01 0.07 0.03 0.00 0.02 0.00 0.01 0.00 0.00 0.00 0.00 0.00 0.02 0.03 0.02 0.02 0.01 0.01 0.01 0.01 0.02 0.01 0.00 0.00 0.00 0.00 0.00 0.00 0.00 0.00 0.00 0.00 0.00 0.00 0.00 0.00
0.15 0.28 0.25 0.02 0.05 0.01 0.00 0.00 0.00 0.00 0.00 0.00 0.00 0.00 0.01 0.02 0.01 0.03 0.03 0.02 0.02 0.00 0.00 0.00 0.00 0.00 0.01 0.00 0.01 0.01 0.02 0.01 0.00 0.01 0.00 0.00 0.00 0.00 0.00 0.00 0.00 0.00 0.00 0.00 0.00 0.00 0.00 0.00 0.00
0.16 0.27 0.07 0.00 0.00 0.03 0.03 0.00 0.00 0.00 0.00 0.01 0.05 0.03 0.02 0.03 0.05 0.07 0.05 0.03 0.03 0.01 0.00 0.00 0.00 0.00 0.00 0.00 0.00 0.00 0.00 0.00 0.00 0.00 0.00 0.00 0.00 0.00 0.00 0.00 0.00 0.00 0.00 0.00 0.00 0.01 0.00 0.00 0.00
0.02 0.07 0.00 0.00 0.03 0.16 0.05 0.01 0.00 0.00 0.00 0.01 0.04 0.06 0.09 0.09 0.14 0.14 0.11 0.05 0.03 0.01 0.00 0.00 0.00 0.00 0.00 0.00 0.00 0.00 0.00 0.00 0.00 0.00 0.00 0.00 0.00 0.00 0.00 0.00 0.00 0.00 0.00 0.00 0.00 0.01 0.00 0.00 0.00
0.00 0.00 0.02 0.04 0.13 0.13 0.10 0.05 0.00 0.00 0.00 0.00 0.04 0.11 0.12 0.14 0.17 0.25 0.19 0.12 0.04 0.01 0.00 0.00 0.00 0.00 0.00 0.00 0.00 0.00 0.00 0.00 0.00 0.00 0.00 0.00 0.00 0.00 0.00 0.00 0.00 0.00 0.00 0.00 0.00 0.00 0.00 0.00 0.00
0.00 0.00 0.03 0.15 0.06 0.04 0.09 0.17 0.02 0.00 0.00 0.00 0.01 0.05 0.08 0.10 0.11 0.12 0.15 0.11 0.03 0.01 0.00 0.01 0.00 0.00 0.02 0.01 0.01 0.01 0.00 0.00 0.00 0.00 0.00 0.00 0.00 0.00 0.00 0.00 0.00 0.00 0.00 0.00 0.00 0.00 0.00 0.00 0.00
0.01 0.00 0.01 0.05 0.05 0.03 0.06 0.13 0.15 0.00 0.00 0.02 0.04 0.03 0.07 0.07 0.08 0.07 0.04 0.06 0.03 0.01 0.01 0.00 0.01 0.02 0.02 0.03 0.02 0.01 0.00 0.00 0.00 0.00 0.00 0.00 0.00 0.00 0.00 0.00 0.00 0.00 0.00 0.00 0.00 0.00 0.00 0.00 0.00
0.05 0.04 0.03 0.00 0.03 0.08 0.10 0.27 0.25 0.02 0.00 0.01 0.03 0.04 0.01 0.05 0.03 0.00 0.01 0.04 0.06 0.04 0.01 0.00 0.01 0.01 0.01 0.00 0.02 0.03 0.03 0.01 0.00 0.00 0.00 0.00 0.00 0.00 0.00 0.00 0.00 0.00 0.00 0.00 0.00 0.00 0.00 0.00 0.00
0.15 0.05 0.03 0.00 0.00 0.02 0.08 0.10 0.05 0.08 0.00 0.00 0.00 0.01 0.02 0.01 0.02 0.01 0.00 0.00 0.01 0.02 0.03 0.00 0.01 0.02 0.02 0.02 0.04 0.05 0.06 0.04 0.01 0.00 0.00 0.00 0.00 0.00 0.00 0.00 0.00 0.00 0.00 0.00 0.00 0.00 0.00 0.00 0.00
0.12 0.03 0.00 0.00 0.00 0.00 0.01 0.01 0.03 0.13 0.03 0.00 0.00 0.00 0.00 0.01 0.01 0.00 0.00 0.00 0.00 0.02 0.02 0.00 0.00 0.04 0.05 0.06 0.03 0.12 0.09 0.06 0.02 0.01 0.00 0.00 0.02 0.02 0.00 0.00 0.00 0.00 0.00 0.00 0.00 0.00 0.00 0.00 0.00
0.01 0.00 0.00 0.00 0.00 0.00 0.00 0.00 0.00 0.04 0.09 0.01 0.00 0.00 0.00 0.00 0.00 0.00 0.00 0.00 0.00 0.00 0.00 0.00 0.00 0.01 0.01 0.03 0.07 0.10 0.08 0.03 0.04 0.00 0.01 0.09 0.05 0.07 0.03 0.01 0.00 0.00 0.00 0.00 0.00 0.00 0.00 0.00 0.00
0.00 0.00 0.00 0.00 0.00 0.00 0.00 0.00 0.00 0.00 0.05 0.03 0.00 0.00 0.00 0.00 0.00 0.00 0.00 0.00 0.00 0.00 0.00 0.00 0.00 0.01 0.01 0.00 0.01 0.03 0.04 0.15 0.09 0.07 0.17 0.20 0.17 0.14 0.06 0.03 0.04 0.03 0.01 0.01 0.01 0.01 0.01 0.01 0.03
0.01 0.00 0.00 0.00 0.00 0.00 0.00 0.00 0.00 0.00 0.00 0.01 0.00 0.00 0.00 0.00 0.00 0.00 0.00 0.00 0.00 0.00 0.00 0.00 0.00 0.00 0.00 0.00 0.00 0.00 0.00 0.01 0.03 0.09 0.13 0.17 0.19 0.23 0.21 0.12 0.08 0.16 0.13 0.07 0.04 0.04 0.07 0.05 0.14
0.00 0.00 0.00 0.00 0.00 0.00 0.00 0.00 0.00 0.00 0.00 0.00 0.00 0.00 0.00 0.00 0.00 0.00 0.00 0.00 0.00 0.00 0.00 0.00 0.00 0.00 0.00 0.00 0.00 0.00 0.00 0.00 0.00 0.01 0.01 0.01 0.05 0.09 0.14 0.15 0.10 0.20 0.17 0.16 0.10 0.08 0.15 0.18 0.21
0.01 0.00 0.00 0.00 0.00 0.00 0.00 0.00 0.00 0.00 0.00 0.00 0.00 0.00 0.00 0.00 0.00 0.00 0.00 0.00 0.00 0.00 0.00 0.00 0.00 0.00 0.00 0.00 0.00 0.00 0.00 0.00 0.00 0.00 0.00 0.00 0.01 0.02 0.15 0.18 0.13 0.16 0.15 0.11 0.17 0.19 0.22 0.30 0.20
0.07 0.00 0.00 0.00 0.00 0.00 0.00 0.00 0.00 0.00 0.00 0.00 0.00 0.00 0.00 0.00 0.00 0.00 0.00 0.00 0.00 0.00 0.00 0.00 0.00 0.00 0.00 0.00 0.00 0.00 0.00 0.00 0.00 0.00 0.00 0.00 0.01 0.02 0.05 0.13 0.17 0.15 0.20 0.25 0.26 0.27 0.25 0.36 0.35
0.07 0.02 0.00 0.00 0.00 0.01 0.00 0.00 0.00 0.00 0.00 0.00 0.00 0.00 0.00 0.00 0.00 0.00 0.00 0.00 0.00 0.00 0.00 0.00 0.00 0.00 0.00 0.00 0.00 0.00 0.00 0.00 0.00 0.00 0.00 0.00 0.00 0.01 0.04 0.12 0.09 0.18 0.15 0.15 0.22 0.30 0.34 0.32 0.38
0.11 0.05 0.10 0.09 0.08 0.02 0.00 0.00 0.00 0.00 0.00 0.00 0.00 0.00 0.00 0.00 0.00 0.00 0.00 0.00 0.00 0.00 0.00 0.00 0.00 0.00 0.00 0.00 0.00 0.00 0.00 0.00 0.00 0.00 0.00 0.00 0.01 0.00 0.01 0.07 0.10 0.12 0.14 0.18 0.21 0.24 0.22 0.26 0.31
0.21 0.04 0.05 0.02 0.01 0.00 0.00 0.00 0.00 0.00 0.00 0.00 0.00 0.00 0.00 0.00 0.00 0.00 0.00 0.00 0.00 0.00 0.00 0.00 0.00 0.00 0.00 0.00 0.00 0.00 0.00 0.00 0.00 0.00 0.00 0.00 0.00 0.00 0.01 0.03 0.07 0.11 0.13 0.16 0.19 0.22 0.21 0.21 0.22
0.36 0.11 0.00 0.00 0.00 0.00 0.00 0.00 0.00 0.00 0.00 0.00 0.00 0.00 0.00 0.00 0.00 0.00 0.00 0.00 0.00 0.00 0.00 0.00 0.00 0.00 0.00 0.00 0.00 0.00 0.00 0.00 0.00 0.00 0.00 0.00 0.00 0.00 0.01 0.01 0.02 0.05 0.11 0.15 0.18 0.20 0.19 0.21 0.22
0.22 0.08 0.06 0.02 0.01 0.00 0.00 0.00 0.00 0.00 0.00 0.00 0.00 0.00 0.00 0.00 0.00 0.00 0.00 0.00 0.00 0.00 0.00 0.00 0.00 0.00 0.00 0.00 0.00 0.00 0.00 0.00 0.00 0.00 0.00 0.00 0.00 0.00 0.00 0.00 0.00 0.02 0.04 0.06 0.09 0.12 0.15 0.19 0.23
0.10 0.14 0.04 0.02 0.00 0.00 0.00 0.00 0.00 0.00 0.00 0.00 0.00 0.00 0.00 0.00 0.00 0.00 0.00 0.00 0.00 0.00 0.00 0.00 0.00 0.00 0.00 0.00 0.00 0.00 0.00 0.00 0.00 0.00 0.00 0.00 0.00 0.00 0.00 0.00 0.00 0.00 0.01 0.02 0.04 0.04 0.05 0.08 0.09
0.01 0.02 0.02 0.01 0.00 0.00 0.00 0.00 0.00 0.00 0.00 0.00 0.00 0.00 0.00 0.00 0.00 0.00 0.00 0.00 0.00 0.00 0.00 0.00 0.00 0.00 0.00 0.00 0.00 0.00 0.00 0.00 0.00 0.00 0.00 0.00 0.00 0.00 0.00 0.00 0.00 0.00 0.00 0.00 0.01 0.02 0.03 0.05 0.06

GFSSGP_prec_precacc24_081.txt.gz
Total_Precipitation_Accumulation
0.00 0.00 0.00 0.00 0.00 0.00 0.00 0.00 0.00 0.00 0.00 0.00 0.00 0.00 0.00 0.00 0.00 0.00 0.00 0.00 0.00 0.00 0.01 0.01 0.01 0.01 0.02 0.05 0.02 0.02 0.02 0.05 0.06 0.05 0.04 0.01 0.00 0.00 0.01 0.02 0.02 0.03 0.05 0.12 0.08 0.02 0.00 0.00 0.00
0.00 0.00 0.00 0.00 0.00 0.00 0.00 0.00 0.00 0.00 0.00 0.00 0.00 0.00 0.00 0.00 0.00 0.00 0.00 0.00 0.00 0.00 0.01 0.01 0.01 0.01 0.03 0.04 0.01 0.01 0.02 0.04 0.05 0.03 0.00 0.00 0.00 0.00 0.02 0.02 0.03 0.03 0.08 0.13 0.05 0.00 0.00 0.00 0.00
0.00 0.01 0.00 0.00 0.00 0.00 0.00 0.00 0.00 0.00 0.00 0.00 0.00 0.00 0.00 0.00 0.00 0.00 0.00 0.01 0.00 0.00 0.00 0.01 0.02 0.01 0.03 0.01 0.00 0.01 0.05 0.04 0.02 0.01 0.00 0.00 0.00 0.01 0.04 0.03 0.04 0.04 0.05 0.02 0.00 0.00 0.00 0.00 0.00
0.00 0.01 0.00 0.00 0.00 0.00 0.00 0.00 0.00 0.00 0.00 0.00 0.00 0.00 0.00 0.00 0.00 0.00 0.00 0.00 0.00 0.00 0.00 0.03 0.02 0.02 0.03 0.01 0.00 0.02 0.05 0.02 0.00 0.00 0.00 0.00 0.01 0.03 0.05 0.03 0.01 0.01 0.00 0.00 0.00 0.00 0.00 0.00 0.00
0.01 0.01 0.00 0.00 0.00 0.00 0.00 0.00 0.00 0.00 0.00 0.00 0.00 0.00 0.00 0.00 0.00 0.00 0.00 0.00 0.00 0.00 0.00 0.02 0.02 0.02 0.03 0.01 0.01 0.02 0.01 0.00 0.00 0.00 0.00 0.02 0.02 0.03 0.04 0.01 0.00 0.00 0.00 0.00 0.00 0.00 0.00 0.00 0.00
0.05 0.03 0.02 0.00 0.00 0.00 0.00 0.00 0.00 0.00 0.00 0.00 0.00 0.00 0.01 0.01 0.00 0.01 0.01 0.00 0.00 0.00 0.01 0.01 0.02 0.02 0.02 0.02 0.01 0.00 0.01 0.02 0.01 0.01 0.02 0.03 0.02 0.04 0.02 0.00 0.00 0.00 0.00 0.00 0.00 0.00 0.00 0.00 0.00
0.23 0.06 0.02 0.00 0.00 0.00 0.00 0.00 0.00 0.00 0.00 0.00 0.00 0.01 0.07 0.02 0.02 0.04 0.01 0.00 0.00 0.00 0.00 0.01 0.01 0.03 0.04 0.03 0.01 0.01 0.01 0.02 0.02 0.02 0.02 0.02 0.02 0.02 0.02 0.00 0.00 0.00 0.00 0.00 0.00 0.00 0.00 0.00 0.00
0.14 0.21 0.05 0.01 0.01 0.00 0.00 0.00 0.00 0.00 0.00 0.00 0.00 0.01 0.07 0.03 0.02 0.03 0.00 0.01 0.00 0.00 0.00 0.00 0.00 0.02 0.03 0.02 0.02 0.01 0.01 0.01 0.00 0.01 0.00 0.00 0.00 0.00 0.00 0.00 0.00 0.00 0.00 0.00 0.00 0.00 0.00 0.00 0.00
0.16 0.29 0.25 0.02 0.05 0.01 0.00 0.00 0.00 0.00 0.00 0.00 0.00 0.00 0.01 0.02 0.02 0.03 0.03 0.03 0.03 0.01 0.00 0.00 0.00 0.00 0.01 0.00 0.01 0.01 0.02 0.01 0.00 0.01 0.00 0.00 0.00 0.00 0.00 0.00 0.00 0.00 0.00 0.00 0.00 0.00 0.00 0.00 0.00
0.19 0.27 0.07 0.00 0.00 0.03 0.03 0.00 0.00 0.00 0.00 0.01 0.05 0.03 0.05 0.08 0.07 0.09 0.05 0.03 0.03 0.02 0.00 0.00 0.00 0.00 0.00 0.00 0.00 0.00 0.00 0.00 0.00 0.00 0.00 0.00 0.00 0.00 0.00 0.00 0.00 0.00 0.00 0.00 0.00 0.01 0.00 0.00 0.00
0.03 0.07 0.00 0.00 0.03 0.16 0.05 0.01 0.00 0.00 0.00 0.01 0.04 0.06 0.09 0.19 0.26 0.26 0.13 0.05 0.04 0.01 0.00 0.00 0.00 0.00 0.00 0.00 0.00 0.00 0.00 0.00 0.00 0.00 0.00 0.00 0.00 0.00 0.00 0.00 0.00 0.00 0.00 0.00 0.00 0.00 0.00 0.00 0.00
0.00 0.01 0.02 0.04 0.13 0.13 0.10 0.05 0.00 0.00 0.00 0.00 0.04 0.11 0.13 0.19 0.27 0.39 0.25 0.15 0.03 0.00 0.00 0.00 0.00 0.00 0.00 0.00 0.00 0.00 0.00 0.00 0.00 0.00 0.00 0.00 0.00 0.00 0.00 0.00 0.00 0.00 0.00 0.00 0.00 0.00 0.00 0.00 0.00
0.00 0.02 0.04 0.15 0.06 0.04 0.09 0.17 0.02 0.00 0.00 0.00 0.01 0.05 0.09 0.16 0.26 0.25 0.27 0.13 0.05 0.01 0.00 0.00 0.00 0.00 0.00 0.00 0.00 0.01 0.00 0.00 0.00 0.00 0.00 0.00 0.00 0.00 0.00 0.00 0.00 0.00 0.00 0.00 0.00 0.00 0.00 0.00 0.00
0.02 0.02 0.02 0.05 0.05 0.03 0.06 0.13 0.15 0.00 0.00 0.02 0.04 0.03 0.08 0.08 0.13 0.14 0.07 0.10 0.07 0.04 0.01 0.00 0.01 0.01 0.01 0.01 0.00 0.01 0.00 0.00 0.00 0.00 0.00 0.00 0.00 0.00 0.00 0.00 0.00 0.00 0.00 0.00 0.00 0.00 0.00 0.00 0.00
0.06 0.05 0.03 0.00 0.03 0.08 0.10 0.27 0.26 0.02 0.00 0.01 0.03 0.04 0.02 0.05 0.04 0.02 0.10 0.15 0.20 0.13 0.01 0.00 0.00 0.00 0.00 0.00 0.01 0.02 0.01 0.00 0.00 0.00 0.00 0.00 0.00 0.00 0.00 0.00 0.00 0.00 0.00 0.00 0.00 0.00 0.00 0.00 0.00
0.18 0.07 0.03 0.00 0.00 0.02 0.08 0.10 0.05 0.08 0.00 0.00 0.00 0.01 0.02 0.01 0.03 0.07 0.09 0.06 0.06 0.03 0.03 0.00 0.00 0.02 0.00 0.00 0.01 0.02 0.02 0.01 0.00 0.00 0.00 0.00 0.00 0.00 0.00 0.00 0.00 0.00 0.00 0.00 0.00 0.00 0.00 0.00 0.00
0.15 0.04 0.01 0.00 0.00 0.00 0.01 0.01 0.03 0.15 0.05 0.00 0.00 0.00 0.00 0.01 0.02 0.00 0.02 0.03 0.05 0.07 0.04 0.00 0.00 0.04 0.03 0.03 0.01 0.05 0.02 0.01 0.00 0.00 0.00 0.00 0.01 0.01 0.00 0.00 0.00 0.00 0.00 0.00 0.00 0.00 0.00 0.00 0.00
0.02 0.01 0.00 0.00 0.00 0.00 0.00 0.00 0.00 0.05 0.15 0.01 0.00 0.00 0.00 0.00 0.00 0.00 0.01 0.01 0.02 0.05 0.04 0.01 0.01 0.03 0.01 0.03 0.03 0.06 0.06 0.03 0.03 0.00 0.00 0.05 0.02 0.03 0.03 0.01 0.00 0.00 0.00 0.00 0.00 0.00 0.00 0.00 0.00
0.00 0.00 0.00 0.00 0.00 0.00 0.00 0.00 0.00 0.00 0.09 0.07 0.00 0.00 0.00 0.00 0.00 0.00 0.00 0.01 0.01 0.02 0.03 0.01 0.00 0.01 0.01 0.01 0.01 0.02 0.04 0.13 0.06 0.07 0.12 0.14 0.13 0.12 0.05 0.03 0.05 0.04 0.01 0.02 0.01 0.01 0.01 0.01 0.03
0.01 0.00 0.00 0.00 0.00 0.00 0.00 0.00 0.00 0.00 0.01 0.02 0.00 0.00 0.00 0.00 0.00 0.00 0.00 0.00 0.00 0.00 0.00 0.00 0.00 0.00 0.00 0.00 0.00 0.00 0.00 0.00 0.01 0.05 0.10 0.17 0.19 0.22 0.20 0.16 0.11 0.18 0.14 0.07 0.04 0.04 0.07 0.05 0.14
0.00 0.00 0.00 0.00 0.00 0.00 0.00 0.00 0.00 0.00 0.00 0.00 0.01 0.00 0.00 0.00 0.00 0.00 0.00 0.00 0.00 0.00 0.00 0.00 0.00 0.00 0.00 0.00 0.00 0.00 0.00 0.00 0.00 0.00 0.01 0.01 0.05 0.08 0.12 0.15 0.10 0.17 0.16 0.16 0.10 0.08 0.15 0.17 0.21
0.01 0.00 0.00 0.00 0.00 0.00 0.00 0.00 0.00 0.00 0.00 0.00 0.00 0.00 0.00 0.00 0.00 0.00 0.00 0.00 0.00 0.00 0.00 0.00 0.00 0.00 0.00 0.00 0.00 0.00 0.00 0.00 0.00 0.00 0.00 0.00 0.00 0.01 0.09 0.14 0.10 0.10 0.11 0.10 0.15 0.18 0.21 0.28 0.18
0.02 0.00 0.00 0.00 0.00 0.00 0.00 0.00 0.00 0.00 0.00 0.00 0.00 0.00 0.00 0.00 0.00 0.00 0.00 0.00 0.00 0.00 0.00 0.00 0.00 0.00 0.00 0.00 0.00 0.00 0.00 0.00 0.00 0.00 0.00 0.00 0.00 0.02 0.02 0.11 0.13 0.12 0.17 0.22 0.23 0.25 0.24 0.33 0.33
0.05 0.02 0.00 0.00 0.00 0.01 0.00 0.00 0.00 0.00 0.00 0.00 0.00 0.00 0.00 0.00 0.00 0.00 0.00 0.00 0.00 0.00 0.00 0.00 0.00 0.00 0.00 0.00 0.00 0.00 0.00 0.00 0.00 0.00 0.00 0.00 0.00 0.00 0.02 0.04 0.06 0.12 0.12 0.13 0.19 0.26 0.32 0.30 0.36
0.11 0.05 0.10 0.09 0.08 0.02 0.00 0.00 0.00 0.00 0.00 0.00 0.00 0.00 0.00 0.00 0.00 0.00 0.00 0.00 0.00 0.00 0.00 0.00 0.00 0.00 0.00 0.00 0.00 0.00 0.00 0.00 0.00 0.00 0.00 0.00 0.00 0.00 0.00 0.03 0.03 0.05 0.08 0.13 0.16 0.20 0.18 0.23 0.28
0.21 0.04 0.05 0.02 0.01 0.00 0.00 0.00 0.00 0.00 0.00 0.00 0.00 0.00 0.00 0.00 0.00 0.00 0.00 0.00 0.00 0.00 0.00 0.00 0.00 0.00 0.00 0.00 0.00 0.00 0.00 0.00 0.00 0.00 0.00 0.00 0.00 0.00 0.00 0.01 0.01 0.02 0.04 0.08 0.11 0.14 0.16 0.17 0.20
0.36 0.11 0.00 0.00 0.00 0.00 0.00 0.00 0.00 0.00 0.00 0.00 0.00 0.00 0.00 0.00 0.00 0.00 0.00 0.00 0.00 0.00 0.00 0.00 0.00 0.00 0.00 0.00 0.00 0.00 0.00 0.00 0.00 0.00 0.00 0.00 0.00 0.00 0.00 0.00 0.00 0.01 0.02 0.05 0.09 0.12 0.13 0.18 0.21
0.22 0.08 0.06 0.03 0.01 0.00 0.00 0.00 0.00 0.00 0.00 0.00 0.00 0.00 0.00 0.00 0.00 0.00 0.00 0.00 0.00 0.00 0.00 0.00 0.00 0.00 0.00 0.00 0.00 0.00 0.00 0.00 0.00 0.00 0.00 0.00 0.00 0.00 0.00 0.00 0.00 0.00 0.01 0.01 0.03 0.06 0.11 0.17 0.23
0.10 0.14 0.04 0.02 0.00 0.00 0.00 0.00 0.00 0.00 0.00 0.00 0.00 0.00 0.00 0.00 0.00 0.00 0.00 0.00 0.00 0.00 0.00 0.00 0.00 0.00 0.00 0.00 0.00 0.00 0.00 0.00 0.00 0.00 0.00 0.00 0.00 0.00 0.00 0.00 0.00 0.00 0.00 0.01 0.01 0.02 0.04 0.06 0.09
0.01 0.02 0.03 0.01 0.00 0.00 0.00 0.00 0.00 0.00 0.00 0.00 0.00 0.00 0.00 0.00 0.00 0.00 0.00 0.00 0.00 0.00 0.00 0.00 0.00 0.00 0.00 0.00 0.00 0.00 0.00 0.00 0.00 0.00 0.00 0.00 0.00 0.00 0.00 0.00 0.00 0.00 0.00 0.00 0.00 0.02 0.03 0.04 0.06

GFSSGP_prec_precacc24_084.txt.gz
Total_Precipitation_Accumulation
0.00 0.00 0.00 0.00 0.00 0.00 0.00 0.00 0.00 0.00 0.00 0.00 0.00 0.00 0.00 0.00 0.00 0.00 0.00 0.00 0.00 0.00 0.01 0.01 0.02 0.01 0.02 0.05 0.02 0.02 0.02 0.04 0.05 0.04 0.04 0.01 0.00 0.00 0.01 0.02 0.02 0.03 0.04 0.07 0.03 0.00 0.00 0.00 0.00
0.00 0.00 0.00 0.00 0.00 0.00 0.00 0.00 0.00 0.00 0.00 0.00 0.00 0.00 0.00 0.00 0.00 0.00 0.00 0.00 0.00 0.00 0.01 0.01 0.01 0.02 0.03 0.02 0.01 0.01 0.02 0.04 0.05 0.03 0.00 0.00 0.01 0.01 0.02 0.02 0.03 0.03 0.06 0.08 0.02 0.00 0.00 0.00 0.00
0.00 0.01 0.00 0.00 0.00 0.00 0.00 0.00 0.00 0.00 0.00 0.00 0.00 0.00 0.00 0.00 0.00 0.00 0.00 0.01 0.00 0.00 0.00 0.02 0.02 0.02 0.03 0.01 0.00 0.01 0.05 0.05 0.02 0.01 0.00 0.00 0.01 0.02 0.03 0.03 0.03 0.04 0.04 0.01 0.00 0.00 0.00 0.00 0.00
0.00 0.01 0.00 0.00 0.00 0.00 0.00 0.00 0.00 0.00 0.00 0.00 0.00 0.00 0.00 0.00 0.00 0.00 0.00 0.01 0.00 0.00 0.00 0.03 0.02 0.02 0.02 0.01 0.00 0.03 0.06 0.02 0.00 0.00 0.00 0.00 0.02 0.05 0.05 0.02 0.01 0.00 0.00 0.00 0.00 0.00 0.00 0.00 0.00
0.01 0.01 0.00 0.00 0.00 0.00 0.00 0.00 0.00 0.00 0.00 0.00 0.00 0.00 0.00 0.00 0.00 0.00 0.00 0.00 0.00 0.00 0.00 0.02 0.03 0.02 0.02 0.01 0.01 0.02 0.02 0.00 0.00 0.00 0.00 0.02 0.03 0.04 0.04 0.01 0.00 0.00 0.00 0.00 0.00 0.00 0.00 0.00 0.00
0.05 0.03 0.02 0.00 0.00 0.00 0.00 0.00 0.00 0.00 0.00 0.00 0.00 0.00 0.01 0.01 0.00 0.01 0.01 0.00 0.00 0.00 0.01 0.02 0.03 0.02 0.02 0.02 0.01 0.00 0.01 0.01 0.01 0.00 0.02 0.03 0.03 0.05 0.02 0.00 0.00 0.00 0.00 0.00 0.00 0.00 0.00 0.00 0.00
0.26 0.06 0.02 0.00 0.00 0.00 0.00 0.00 0.00 0.00 0.00 0.00 0.00 0.01 0.07 0.03 0.02 0.05 0.02 0.00 0.00 0.00 0.01 0.02 0.02 0.03 0.03 0.02 0.00 0.00 0.00 0.01 0.01 0.01 0.02 0.02 0.03 0.03 0.02 0.00 0.00 0.00 0.00 0.00 0.00 0.00 0.00 0.00 0.00
0.16 0.22 0.05 0.01 0.01 0.00 0.00 0.00 0.00 0.00 0.00 0.00 0.00 0.01 0.07 0.04 0.04 0.07 0.02 0.01 0.00 0.00 0.01 0.01 0.01 0.03 0.03 0.02 0.02 0.01 0.01 0.01 0.00 0.01 0.00 0.00 0.00 0.00 0.00 0.00 0.00 0.00 0.00 0.00 0.00 0.00 0.00 0.00 0.00
0.19 0.32 0.27 0.02 0.05 0.01 0.00 0.00 0.00 0.00 0.00 0.00 0.00 0.00 0.01 0.02 0.04 0.05 0.06 0.04 0.03 0.02 0.01 0.01 0.01 0.01 0.02 0.01 0.01 0.01 0.02 0.01 0.00 0.00 0.00 0.00 0.00 0.00 0.00 0.00 0.00 0.00 0.00 0.00 0.00 0.00 0.00 0.00 0.00
0.23 0.29 0.08 0.00 0.00 0.03 0.03 0.00 0.00 0.00 0.00 0.01 0.05 0.03 0.05 0.09 0.09 0.11 0.06 0.04 0.04 0.02 0.01 0.01 0.01 0.01 0.01 0.00 0.00 0.00 0.00 0.00 0.00 0.00 0.00 0.00 0.00 0.00 0.00 0.00 0.00 0.00 0.00 0.00 0.00 0.00 0.00 0.00 0.00
0.06 0.09 0.01 0.00 0.03 0.16 0.05 0.01 0.00 0.00 0.00 0.01 0.04 0.06 0.10 0.20 0.30 0.29 0.13 0.05 0.04 0.01 0.00 0.01 0.01 0.01 0.01 0.00 0.00 0.00 0.00 0.00 0.00 0.00 0.00 0.00 0.00 0.00 0.00 0.00 0.00 0.00 0.00 0.00 0.00 0.00 0.00 0.00 0.00
0.02 0.03 0.04 0.05 0.13 0.13 0.10 0.05 0.00 0.00 0.00 0.00 0.04 0.11 0.13 0.21 0.30 0.40 0.26 0.16 0.04 0.00 0.00 0.00 0.00 0.01 0.00 0.00 0.00 0.00 0.00 0.00 0.00 0.00 0.00 0.00 0.00 0.00 0.00 0.00 0.00 0.00 0.00 0.00 0.00 0.00 0.00 0.00 0.00
0.02 0.04 0.07 0.16 0.06 0.04 0.09 0.17 0.02 0.00 0.00 0.00 0.01 0.05 0.09 0.18 0.33 0.28 0.36 0.14 0.05 0.01 0.00 0.00 0.00 0.00 0.00 0.00 0.00 0.00 0.00 0.00 0.00 0.00 0.00 0.00 0.00 0.00 0.00 0.00 0.00 0.00 0.00 0.00 0.00 0.00 0.00 0.00 0.00
0.02 0.03 0.07 0.06 0.05 0.03 0.06 0.13 0.15 0.00 0.00 0.02 0.04 0.03 0.08 0.08 0.13 0.14 0.07 0.10 0.12 0.12 0.03 0.00 0.00 0.01 0.01 0.00 0.00 0.00 0.00 0.00 0.00 0.00 0.00 0.00 0.00 0.00 0.00 0.00 0.00 0.00 0.00 0.00 0.00 0.00 0.00 0.00 0.00
0.06 0.06 0.06 0.01 0.03 0.08 0.10 0.27 0.26 0.02 0.00 0.01 0.03 0.04 0.02 0.05 0.04 0.02 0.11 0.15 0.26 0.22 0.05 0.00 0.00 0.00 0.00 0.00 0.00 0.00 0.00 0.00 0.00 0.00 0.00 0.00 0.00 0.00 0.00 0.00 0.00 0.00 0.00 0.00 0.00 0.00 0.00 0.00 0.00
0.20 0.08 0.04 0.00 0.00 0.02 0.09 0.10 0.05 0.08 0.00 0.00 0.00 0.01 0.02 0.01 0.03 0.07 0.09 0.07 0.07 0.04 0.09 0.01 0.00 0.02 0.00 0.00 0.00 0.00 0.00 0.00 0.00 0.00 0.00 0.00 0.00 0.00 0.00 0.00 0.00 0.00 0.00 0.00 0.00 0.00 0.00 0.00 0.00
0.18 0.04 0.01 0.00 0.00 0.00 0.01 0.01 0.03 0.15 0.05 0.00 0.00 0.00 0.00 0.01 0.02 0.00 0.02 0.06 0.07 0.10 0.09 0.01 0.01 0.04 0.03 0.04 0.02 0.03 0.01 0.00 0.00 0.00 0.00 0.00 0.00 0.00 0.00 0.00 0.00 0.00 0.00 0.00 0.00 0.00 0.00 0.00 0.00
0.03 0.01 0.01 0.00 0.00 0.00 0.00 0.00 0.00 0.05 0.15 0.01 0.00 0.00 0.00 0.00 0.00 0.00 0.01 0.01 0.07 0.14 0.11 0.08 0.07 0.03 0.02 0.03 0.03 0.05 0.06 0.03 0.03 0.00 0.00 0.03 0.01 0.00 0.01 0.00 0.00 0.00 0.00 0.00 0.00 0.00 0.00 0.00 0.00
0.00 0.01 0.00 0.00 0.00 0.00 0.00 0.00 0.00 0.00 0.09 0.07 0.00 0.00 0.00 0.00 0.00 0.00 0.00 0.01 0.07 0.09 0.10 0.14 0.11 0.08 0.04 0.01 0.01 0.02 0.04 0.13 0.05 0.07 0.11 0.12 0.12 0.11 0.03 0.02 0.04 0.04 0.01 0.02 0.01 0.01 0.01 0.01 0.03
0.01 0.00 0.00 0.00 0.00 0.00 0.00 0.00 0.00 0.00 0.01 0.02 0.01 0.00 0.00 0.00 0.00 0.00 0.00 0.00 0.01 0.03 0.08 0.09 0.09 0.07 0.05 0.02 0.00 0.00 0.00 0.00 0.01 0.04 0.10 0.17 0.18 0.22 0.19 0.15 0.10 0.15 0.14 0.07 0.04 0.04 0.07 0.05 0.14
0.00 0.00 0.00 0.00 0.00 0.01 0.00 0.00 0.00 0.00 0.00 0.00 0.01 0.00 0.00 0.00 0.00 0.00 0.00 0.00 0.00 0.00 0.01 0.01 0.02 0.03 0.04 0.04 0.03 0.01 0.00 0.00 0.00 0.00 0.01 0.01 0.05 0.08 0.10 0.11 0.08 0.08 0.13 0.15 0.10 0.08 0.15 0.17 0.21
0.01 0.00 0.00 0.00 0.00 0.01 0.00 0.00 0.00 0.00 0.00 0.00 0.00 0.00 0.00 0.00 0.00 0.00 0.00 0.00 0.00 0.00 0.00 0.00 0.00 0.00 0.01 0.01 0.00 0.00 0.00 0.00 0.00 0.00 0.00 0.00 0.00 0.01 0.06 0.11 0.08 0.07 0.07 0.08 0.13 0.18 0.21 0.28 0.18
0.01 0.00 0.00 0.00 0.00 0.00 0.00 0.00 0.00 0.00 0.00 0.00 0.00 0.00 0.00 0.00 0.00 0.00 0.00 0.00 0.00 0.00 0.00 0.00 0.00 0.00 0.00 0.00 0.00 0.00 0.00 0.00 0.00 0.00 0.00 0.00 0.00 0.01 0.02 0.05 0.08 0.09 0.12 0.16 0.21 0.23 0.22 0.32 0.33
0.04 0.02 0.00 0.00 0.00 0.01 0.00 0.00 0.00 0.00 0.00 0.00 0.00 0.00 0.00 0.00 0.00 0.00 0.00 0.00 0.00 0.00 0.00 0.00 0.00 0.00 0.00 0.00 0.00 0.00 0.00 0.00 0.00 0.00 0.00 0.00 0.00 0.00 0.01 0.01 0.02 0.04 0.05 0.06 0.14 0.19 0.25 0.26 0.34
0.09 0.05 0.11 0.10 0.08 0.02 0.00 0.00 0.00 0.00 0.00 0.00 0.00 0.00 0.00 0.00 0.00 0.00 0.00 0.00 0.00 0.00 0.00 0.00 0.00 0.00 0.00 0.00 0.00 0.00 0.00 0.00 0.00 0.00 0.00 0.00 0.00 0.00 0.00 0.02 0.02 0.03 0.02 0.04 0.06 0.09 0.10 0.17 0.25
0.21 0.05 0.05 0.02 0.01 0.00 0.00 0.00 0.00 0.00 0.00 0.00 0.00 0.00 0.00 0.00 0.00 0.00 0.00 0.00 0.00 0.00 0.00 0.00 0.00 0.00 0.00 0.00 0.00 0.00 0.00 0.00 0.00 0.00 0.00 0.00 0.00 0.00 0.00 0.01 0.00 0.00 0.02 0.04 0.04 0.06 0.07 0.09 0.15
0.36 0.12 0.01 0.00 0.00 0.00 0.00 0.00 0.00 0.00 0.00 0.00 0.00 0.00 0.00 0.00 0.00 0.00 0.00 0.00 0.00 0.00 0.00 0.00 0.00 0.00 0.00 0.00 0.00 0.00 0.00 0.00 0.00 0.00 0.00 0.00 0.00 0.00 0.00 0.00 0.00 0.00 0.01 0.03 0.04 0.05 0.07 0.10 0.13
0.22 0.08 0.06 0.03 0.02 0.00 0.00 0.00 0.00 0.00 0.00 0.00 0.00 0.00 0.00 0.00 0.00 0.00 0.00 0.00 0.00 0.00 0.00 0.00 0.00 0.00 0.00 0.00 0.00 0.00 0.00 0.00 0.00 0.00 0.00 0.00 0.00 0.00 0.00 0.00 0.00 0.00 0.01 0.01 0.02 0.03 0.05 0.09 0.11
0.10 0.15 0.04 0.02 0.00 0.00 0.00 0.00 0.00 0.00 0.00 0.00 0.00 0.00 0.00 0.00 0.00 0.00 0.00 0.00 0.00 0.00 0.00 0.00 0.00 0.00 0.00 0.00 0.00 0.00 0.00 0.00 0.00 0.00 0.00 0.00 0.00 0.00 0.00 0.00 0.00 0.00 0.00 0.00 0.01 0.01 0.03 0.04 0.05
0.01 0.02 0.03 0.01 0.00 0.00 0.00 0.00 0.00 0.00 0.00 0.00 0.00 0.00 0.00 0.00 0.00 0.00 0.00 0.00 0.00 0.00 0.00 0.00 0.00 0.00 0.00 0.00 0.00 0.00 0.00 0.00 0.00 0.00 0.00 0.00 0.00 0.00 0.00 0.00 0.00 0.00 0.00 0.00 0.00 0.01 0.02 0.04 0.05

GFSSGP_prec_precacc24_087.txt.gz
Total_Precipitation_Accumulation
0.00 0.00 0.00 0.00 0.00 0.00 0.00 0.00 0.00 0.00 0.00 0.00 0.00 0.00 0.01 0.01 0.00 0.00 0.00 0.00 0.00 0.00 0.01 0.01 0.02 0.02 0.03 0.05 0.02 0.02 0.02 0.03 0.04 0.03 0.03 0.01 0.00 0.00 0.01 0.02 0.02 0.03 0.03 0.02 0.00 0.00 0.00 0.00 0.00
0.00 0.00 0.00 0.00 0.00 0.00 0.00 0.00 0.00 0.00 0.00 0.00 0.00 0.01 0.01 0.00 0.00 0.00 0.00 0.00 0.00 0.00 0.01 0.01 0.02 0.02 0.03 0.02 0.01 0.01 0.01 0.03 0.04 0.02 0.01 0.01 0.01 0.01 0.02 0.02 0.03 0.03 0.04 0.01 0.00 0.00 0.00 0.00 0.00
0.00 0.01 0.00 0.00 0.00 0.00 0.00 0.00 0.00 0.00 0.00 0.00 0.00 0.00 0.00 0.00 0.00 0.00 0.00 0.01 0.00 0.00 0.00 0.02 0.03 0.02 0.02 0.01 0.00 0.01 0.05 0.05 0.01 0.00 0.00 0.01 0.02 0.02 0.03 0.02 0.03 0.02 0.02 0.00 0.00 0.00 0.00 0.00 0.00
0.00 0.01 0.00 0.00 0.00 0.00 0.00 0.00 0.00 0.00 0.00 0.00 0.00 0.00 0.00 0.00 0.00 0.00 0.00 0.01 0.00 0.00 0.00 0.03 0.03 0.02 0.01 0.00 0.00 0.02 0.05 0.02 0.00 0.00 0.00 0.01 0.04 0.04 0.03 0.02 0.00 0.00 0.00 0.00 0.00 0.00 0.00 0.00 0.00
0.01 0.01 0.00 0.00 0.00 0.00 0.00 0.00 0.00 0.00 0.00 0.00 0.00 0.00 0.00 0.00 0.00 0.00 0.00 0.00 0.00 0.00 0.00 0.02 0.03 0.02 0.01 0.00 0.01 0.02 0.02 0.00 0.00 0.00 0.00 0.02 0.05 0.04 0.04 0.00 0.00 0.00 0.00 0.00 0.00 0.00 0.00 0.00 0.00
0.07 0.03 0.02 0.00 0.00 0.00 0.00 0.00 0.00 0.00 0.00 0.00 0.00 0.00 0.01 0.01 0.00 0.01 0.01 0.00 0.00 0.00 0.01 0.03 0.04 0.03 0.01 0.01 0.01 0.01 0.00 0.00 0.00 0.00 0.02 0.03 0.05 0.05 0.02 0.00 0.00 0.00 0.00 0.00 0.00 0.00 0.00 0.00 0.00
0.29 0.06 0.02 0.00 0.00 0.00 0.00 0.00 0.00 0.00 0.00 0.00 0.00 0.02 0.07 0.03 0.03 0.06 0.03 0.00 0.00 0.00 0.01 0.02 0.04 0.04 0.02 0.01 0.00 0.00 0.00 0.00 0.01 0.01 0.01 0.03 0.04 0.03 0.02 0.00 0.00 0.00 0.00 0.00 0.00 0.00 0.00 0.00 0.00
0.18 0.25 0.06 0.01 0.01 0.00 0.00 0.00 0.00 0.00 0.00 0.00 0.00 0.01 0.08 0.04 0.05 0.09 0.03 0.02 0.00 0.00 0.01 0.01 0.03 0.04 0.03 0.02 0.01 0.00 0.00 0.00 0.00 0.01 0.00 0.00 0.00 0.00 0.00 0.00 0.00 0.00 0.00 0.00 0.00 0.00 0.00 0.00 0.00
0.22 0.40 0.28 0.02 0.05 0.01 0.00 0.00 0.00 0.00 0.00 0.00 0.00 0.00 0.02 0.02 0.06 0.08 0.07 0.04 0.04 0.02 0.01 0.01 0.01 0.01 0.02 0.01 0.00 0.01 0.02 0.01 0.00 0.00 0.00 0.00 0.00 0.00 0.00 0.00 0.00 0.00 0.00 0.00 0.00 0.00 0.00 0.00 0.00
0.28 0.32 0.08 0.00 0.00 0.03 0.03 0.00 0.00 0.00 0.00 0.01 0.05 0.03 0.05 0.10 0.13 0.16 0.09 0.05 0.04 0.03 0.02 0.01 0.02 0.01 0.01 0.00 0.00 0.00 0.00 0.00 0.00 0.00 0.00 0.00 0.00 0.00 0.00 0.00 0.00 0.00 0.00 0.00 0.00 0.00 0.00 0.00 0.00
0.11 0.10 0.02 0.02 0.04 0.16 0.05 0.01 0.00 0.00 0.00 0.01 0.04 0.06 0.10 0.22 0.33 0.33 0.16 0.06 0.04 0.02 0.01 0.02 0.03 0.02 0.01 0.00 0.00 0.00 0.00 0.00 0.00 0.00 0.00 0.00 0.00 0.00 0.00 0.00 0.00 0.00 0.00 0.00 0.00 0.00 0.00 0.00 0.00
0.11 0.06 0.08 0.05 0.14 0.13 0.10 0.05 0.00 0.00 0.00 0.00 0.04 0.11 0.13 0.23 0.31 0.42 0.29 0.17 0.04 0.01 0.00 0.01 0.01 0.02 0.01 0.00 0.00 0.00 0.00 0.00 0.00 0.00 0.00 0.00 0.00 0.00 0.00 0.00 0.00 0.00 0.00 0.00 0.00 0.00 0.00 0.00 0.00
0.08 0.12 0.09 0.18 0.06 0.04 0.09 0.17 0.02 0.00 0.00 0.00 0.01 0.05 0.09 0.20 0.37 0.31 0.38 0.18 0.06 0.01 0.00 0.00 0.00 0.01 0.01 0.00 0.00 0.00 0.00 0.00 0.00 0.00 0.00 0.00 0.00 0.00 0.00 0.00 0.00 0.00 0.00 0.00 0.00 0.00 0.00 0.00 0.00
0.03 0.13 0.11 0.09 0.06 0.03 0.06 0.13 0.15 0.00 0.00 0.02 0.04 0.03 0.08 0.08 0.14 0.16 0.08 0.11 0.13 0.13 0.04 0.00 0.00 0.00 0.01 0.01 0.00 0.00 0.00 0.00 0.00 0.00 0.00 0.00 0.00 0.00 0.00 0.00 0.00 0.00 0.00 0.00 0.00 0.00 0.00 0.00 0.00
0.06 0.12 0.14 0.06 0.06 0.09 0.10 0.27 0.26 0.02 0.00 0.01 0.03 0.04 0.02 0.05 0.05 0.02 0.11 0.15 0.27 0.23 0.05 0.00 0.00 0.00 0.01 0.00 0.00 0.00 0.00 0.00 0.00 0.00 0.00 0.00 0.00 0.00 0.00 0.00 0.00 0.00 0.00 0.00 0.00 0.00 0.00 0.00 0.00
0.22 0.11 0.09 0.03 0.02 0.03 0.09 0.10 0.05 0.08 0.00 0.00 0.00 0.01 0.02 0.01 0.03 0.07 0.10 0.07 0.07 0.05 0.12 0.06 0.01 0.02 0.01 0.02 0.02 0.00 0.00 0.00 0.00 0.00 0.00 0.00 0.00 0.00 0.00 0.00 0.00 0.00 0.00 0.00 0.00 0.00 0.00 0.00 0.00
0.21 0.05 0.01 0.03 0.00 0.00 0.01 0.01 0.03 0.15 0.05 0.00 0.00 0.00 0.00 0.01 0.02 0.00 0.02 0.06 0.07 0.10 0.14 0.10 0.06 0.04 0.04 0.10 0.10 0.05 0.00 0.00 0.00 0.00 0.00 0.00 0.00 0.00 0.00 0.00 0.00 0.00 0.00 0.00 0.00 0.00 0.00 0.00 0.00
0.03 0.01 0.01 0.01 0.00 0.00 0.00 0.00 0.00 0.05 0.15 0.01 0.00 0.00 0.00 0.00 0.01 0.00 0.01 0.01 0.07 0.14 0.16 0.18 0.09 0.04 0.04 0.09 0.10 0.11 0.07 0.02 0.01 0.00 0.00 0.03 0.01 0.00 0.01 0.00 0.00 0.00 0.00 0.00 0.00 0.00 0.00 0.00 0.00
0.01 0.01 0.01 0.00 0.00 0.00 0.00 0.00 0.00 0.00 0.09 0.07 0.00 0.00 0.00 0.00 0.00 0.00 0.00 0.01 0.07 0.09 0.11 0.19 0.14 0.13 0.06 0.03 0.01 0.03 0.04 0.09 0.05 0.07 0.11 0.12 0.12 0.11 0.03 0.02 0.03 0.04 0.01 0.02 0.01 0.01 0.01 0.01 0.03
0.01 0.01 0.01 0.00 0.00 0.00 0.00 0.00 0.00 0.00 0.01 0.02 0.01 0.00 0.00 0.00 0.00 0.00 0.00 0.00 0.02 0.04 0.09 0.11 0.13 0.15 0.08 0.03 0.01 0.01 0.04 0.03 0.04 0.07 0.10 0.17 0.18 0.22 0.19 0.14 0.09 0.13 0.14 0.07 0.04 0.04 0.07 0.05 0.14
0.00 0.00 0.00 0.00 0.00 0.01 0.00 0.00 0.00 0.00 0.00 0.00 0.01 0.00 0.00 0.00 0.00 0.00 0.00 0.00 0.00 0.00 0.01 0.02 0.04 0.04 0.04 0.08 0.15 0.17 0.12 0.03 0.00 0.00 0.01 0.01 0.04 0.08 0.10 0.11 0.08 0.07 0.13 0.15 0.10 0.08 0.15 0.17 0.22
0.01 0.00 0.00 0.00 0.00 0.01 0.00 0.00 0.00 0.00 0.00 0.00 0.00 0.00 0.00 0.00 0.00 0.00 0.00 0.00 0.00 0.00 0.00 0.00 0.00 0.02 0.06 0.08 0.07 0.07 0.02 0.00 0.02 0.01 0.00 0.00 0.00 0.00 0.02 0.06 0.07 0.06 0.07 0.07 0.12 0.17 0.20 0.27 0.19
0.02 0.00 0.00 0.00 0.01 0.01 0.00 0.00 0.00 0.00 0.00 0.00 0.00 0.00 0.00 0.00 0.00 0.00 0.00 0.00 0.00 0.00 0.00 0.00 0.00 0.00 0.00 0.01 0.01 0.01 0.01 0.01 0.00 0.00 0.00 0.00 0.00 0.01 0.01 0.02 0.05 0.07 0.09 0.11 0.16 0.19 0.19 0.28 0.31
0.04 0.02 0.00 0.00 0.01 0.02 0.00 0.00 0.00 0.00 0.00 0.00 0.00 0.00 0.00 0.00 0.00 0.00 0.00 0.00 0.00 0.00 0.00 0.00 0.00 0.00 0.00 0.00 0.00 0.00 0.00 0.00 0.00 0.00 0.00 0.00 0.00 0.00 0.01 0.01 0.01 0.02 0.02 0.03 0.04 0.09 0.15 0.20 0.29
0.08 0.06 0.12 0.11 0.10 0.02 0.00 0.00 0.00 0.00 0.00 0.00 0.00 0.00 0.00 0.00 0.00 0.00 0.00 0.00 0.00 0.00 0.00 0.00 0.00 0.00 0.00 0.00 0.00 0.00 0.00 0.00 0.00 0.00 0.00 0.00 0.00 0.00 0.00 0.02 0.02 0.01 0.01 0.01 0.02 0.03 0.05 0.11 0.18
0.16 0.04 0.04 0.02 0.01 0.00 0.00 0.00 0.00 0.00 0.00 0.00 0.00 0.00 0.00 0.00 0.00 0.00 0.00 0.00 0.00 0.00 0.00 0.00 0.00 0.00 0.00 0.00 0.00 0.00 0.00 0.00 0.00 0.00 0.00 0.00 0.00 0.00 0.00 0.01 0.00 0.00 0.01 0.02 0.02 0.03 0.04 0.05 0.08
0.34 0.12 0.01 0.01 0.00 0.00 0.00 0.00 0.00 0.00 0.00 0.00 0.00 0.00 0.00 0.00 0.00 0.00 0.00 0.00 0.00 0.00 0.00 0.00 0.00 0.00 0.00 0.00 0.00 0.00 0.00 0.00 0.00 0.00 0.00 0.00 0.00 0.00 0.00 0.00 0.00 0.00 0.00 0.01 0.02 0.03 0.03 0.05 0.07
0.23 0.09 0.07 0.04 0.02 0.00 0.00 0.00 0.00 0.00 0.00 0.00 0.00 0.00 0.00 0.00 0.00 0.00 0.00 0.00 0.00 0.00 0.00 0.00 0.00 0.00 0.00 0.00 0.00 0.00 0.00 0.00 0.00 0.00 0.00 0.00 0.00 0.00 0.00 0.00 0.00 0.00 0.00 0.00 0.01 0.01 0.01 0.04 0.05
0.10 0.15 0.05 0.02 0.00 0.00 0.00 0.00 0.00 0.00 0.00 0.00 0.00 0.00 0.00 0.00 0.00 0.00 0.00 0.00 0.00 0.00 0.00 0.00 0.00 0.00 0.00 0.00 0.00 0.00 0.00 0.00 0.00 0.00 0.00 0.00 0.00 0.00 0.00 0.00 0.00 0.00 0.00 0.00 0.00 0.00 0.01 0.03 0.03
0.02 0.03 0.03 0.02 0.01 0.00 0.00 0.00 0.00 0.00 0.00 0.00 0.00 0.00 0.00 0.00 0.00 0.00 0.00 0.00 0.00 0.00 0.00 0.00 0.00 0.00 0.00 0.00 0.00 0.00 0.00 0.00 0.00 0.00 0.00 0.00 0.00 0.00 0.00 0.00 0.00 0.00 0.00 0.00 0.00 0.01 0.01 0.03 0.03

GFSSGP_prec_precacc24_090.txt.gz
Total_Precipitation_Accumulation
0.00 0.00 0.00 0.00 0.00 0.00 0.00 0.00 0.00 0.00 0.00 0.00 0.00 0.00 0.02 0.03 0.00 0.01 0.00 0.00 0.00 0.00 0.01 0.01 0.02 0.02 0.03 0.05 0.03 0.02 0.02 0.02 0.02 0.03 0.02 0.01 0.00 0.00 0.01 0.02 0.02 0.03 0.02 0.01 0.00 0.00 0.00 0.00 0.00
0.00 0.00 0.00 0.00 0.00 0.00 0.00 0.00 0.00 0.00 0.00 0.00 0.00 0.02 0.04 0.02 0.00 0.00 0.00 0.00 0.00 0.00 0.01 0.01 0.02 0.02 0.03 0.03 0.01 0.00 0.01 0.02 0.03 0.02 0.01 0.01 0.01 0.01 0.02 0.02 0.03 0.03 0.02 0.00 0.00 0.00 0.00 0.00 0.00
0.00 0.01 0.00 0.00 0.00 0.00 0.00 0.00 0.00 0.00 0.00 0.00 0.00 0.01 0.01 0.01 0.01 0.00 0.00 0.01 0.00 0.00 0.00 0.02 0.03 0.03 0.02 0.01 0.00 0.01 0.04 0.04 0.01 0.00 0.02 0.02 0.02 0.02 0.02 0.02 0.03 0.02 0.00 0.00 0.00 0.00 0.00 0.00 0.00
0.02 0.01 0.00 0.00 0.00 0.00 0.00 0.00 0.00 0.00 0.00 0.00 0.00 0.00 0.00 0.02 0.00 0.00 0.00 0.01 0.00 0.00 0.00 0.03 0.03 0.02 0.01 0.00 0.00 0.02 0.04 0.02 0.00 0.00 0.01 0.03 0.03 0.03 0.03 0.02 0.00 0.00 0.00 0.00 0.00 0.00 0.00 0.00 0.00
0.01 0.02 0.00 0.00 0.00 0.00 0.00 0.00 0.00 0.00 0.00 0.00 0.00 0.01 0.00 0.00 0.03 0.01 0.00 0.00 0.00 0.00 0.00 0.02 0.03 0.02 0.01 0.00 0.01 0.02 0.01 0.00 0.00 0.00 0.01 0.04 0.05 0.03 0.03 0.00 0.00 0.00 0.00 0.00 0.00 0.00 0.00 0.00 0.00
0.15 0.06 0.02 0.00 0.00 0.00 0.00 0.00 0.00 0.00 0.00 0.00 0.00 0.03 0.02 0.01 0.01 0.01 0.01 0.00 0.00 0.00 0.01 0.03 0.05 0.03 0.01 0.01 0.01 0.01 0.00 0.00 0.00 0.00 0.03 0.05 0.05 0.05 0.02 0.00 0.00 0.00 0.00 0.00 0.00 0.00 0.00 0.00 0.00
0.28 0.10 0.02 0.00 0.00 0.00 0.00 0.00 0.00 0.00 0.00 0.00 0.00 0.08 0.08 0.03 0.03 0.06 0.03 0.01 0.00 0.00 0.01 0.03 0.05 0.05 0.02 0.01 0.00 0.00 0.00 0.00 0.00 0.00 0.02 0.03 0.05 0.03 0.02 0.00 0.00 0.00 0.00 0.00 0.00 0.00 0.00 0.00 0.00
0.23 0.27 0.05 0.01 0.01 0.00 0.00 0.00 0.00 0.00 0.00 0.00 0.00 0.05 0.07 0.04 0.07 0.09 0.03 0.02 0.01 0.00 0.01 0.02 0.03 0.04 0.03 0.01 0.00 0.00 0.00 0.00 0.00 0.01 0.01 0.00 0.00 0.00 0.00 0.00 0.00 0.00 0.00 0.00 0.00 0.00 0.00 0.00 0.00
0.27 0.47 0.25 0.01 0.05 0.01 0.00 0.00 0.00 0.00 0.00 0.00 0.00 0.02 0.05 0.02 0.10 0.10 0.08 0.04 0.04 0.02 0.02 0.02 0.02 0.02 0.02 0.01 0.00 0.00 0.00 0.00 0.00 0.00 0.00 0.00 0.00 0.00 0.00 0.00 0.00 0.00 0.00 0.00 0.00 0.00 0.00 0.00 0.00
0.36 0.36 0.08 0.01 0.01 0.04 0.03 0.00 0.00 0.00 0.00 0.01 0.05 0.03 0.05 0.10 0.18 0.22 0.11 0.05 0.05 0.03 0.02 0.03 0.03 0.02 0.01 0.01 0.00 0.00 0.00 0.00 0.00 0.00 0.00 0.00 0.00 0.00 0.00 0.00 0.00 0.00 0.00 0.00 0.00 0.00 0.00 0.00 0.00
0.16 0.11 0.02 0.03 0.05 0.17 0.05 0.01 0.00 0.00 0.00 0.01 0.04 0.06 0.10 0.23 0.36 0.37 0.18 0.08 0.05 0.02 0.02 0.04 0.04 0.02 0.01 0.00 0.00 0.00 0.00 0.00 0.00 0.00 0.00 0.00 0.00 0.00 0.00 0.00 0.00 0.00 0.00 0.00 0.00 0.00 0.00 0.00 0.00
0.18 0.08 0.14 0.08 0.15 0.16 0.11 0.06 0.00 0.00 0.00 0.00 0.04 0.11 0.13 0.24 0.32 0.44 0.32 0.19 0.05 0.01 0.01 0.02 0.03 0.04 0.02 0.00 0.00 0.00 0.00 0.00 0.00 0.00 0.00 0.00 0.00 0.00 0.00 0.00 0.00 0.00 0.00 0.00 0.00 0.00 0.00 0.00 0.00
0.22 0.15 0.16 0.21 0.07 0.06 0.10 0.18 0.02 0.00 0.00 0.00 0.01 0.05 0.09 0.20 0.37 0.31 0.40 0.22 0.08 0.01 0.00 0.01 0.01 0.02 0.02 0.01 0.00 0.00 0.00 0.00 0.00 0.00 0.00 0.00 0.00 0.00 0.00 0.00 0.00 0.00 0.00 0.00 0.00 0.00 0.00 0.00 0.00
0.10 0.21 0.22 0.17 0.07 0.03 0.06 0.13 0.15 0.00 0.00 0.02 0.04 0.03 0.08 0.08 0.14 0.16 0.09 0.13 0.18 0.15 0.06 0.02 0.00 0.00 0.02 0.01 0.01 0.00 0.00 0.00 0.00 0.00 0.00 0.00 0.00 0.00 0.00 0.00 0.00 0.00 0.00 0.00 0.00 0.00 0.00 0.00 0.00
0.10 0.28 0.31 0.17 0.08 0.10 0.10 0.27 0.26 0.02 0.00 0.01 0.03 0.04 0.02 0.05 0.05 0.03 0.12 0.16 0.27 0.26 0.10 0.06 0.02 0.00 0.01 0.01 0.02 0.01 0.00 0.00 0.00 0.00 0.00 0.00 0.00 0.00 0.00 0.00 0.00 0.00 0.00 0.00 0.00 0.00 0.00 0.00 0.00
0.22 0.20 0.28 0.13 0.04 0.06 0.10 0.10 0.05 0.08 0.00 0.00 0.00 0.01 0.02 0.01 0.03 0.07 0.12 0.07 0.08 0.07 0.15 0.09 0.09 0.04 0.01 0.02 0.02 0.01 0.00 0.00 0.00 0.00 0.00 0.00 0.00 0.00 0.00 0.00 0.00 0.00 0.00 0.00 0.00 0.00 0.00 0.00 0.00
0.18 0.06 0.06 0.12 0.06 0.03 0.02 0.01 0.03 0.15 0.05 0.00 0.00 0.00 0.00 0.01 0.02 0.00 0.02 0.06 0.07 0.11 0.16 0.14 0.10 0.05 0.04 0.11 0.12 0.07 0.01 0.00 0.00 0.00 0.00 0.00 0.00 0.00 0.00 0.00 0.00 0.00 0.00 0.00 0.00 0.00 0.00 0.00 0.00
0.03 0.01 0.01 0.03 0.04 0.01 0.02 0.00 0.00 0.05 0.15 0.01 0.00 0.00 0.00 0.00 0.01 0.00 0.01 0.01 0.07 0.15 0.17 0.22 0.13 0.06 0.07 0.15 0.16 0.16 0.08 0.02 0.00 0.00 0.00 0.02 0.01 0.00 0.00 0.00 0.00 0.00 0.00 0.00 0.00 0.00 0.00 0.00 0.00
0.01 0.01 0.01 0.00 0.01 0.02 0.00 0.00 0.00 0.00 0.09 0.07 0.00 0.00 0.00 0.00 0.00 0.00 0.00 0.01 0.07 0.09 0.11 0.19 0.15 0.23 0.12 0.07 0.03 0.06 0.07 0.16 0.08 0.06 0.10 0.12 0.09 0.09 0.02 0.01 0.01 0.02 0.01 0.02 0.01 0.01 0.01 0.01 0.03
0.01 0.01 0.01 0.00 0.00 0.02 0.00 0.00 0.00 0.00 0.01 0.02 0.01 0.00 0.00 0.00 0.00 0.00 0.00 0.00 0.02 0.04 0.10 0.12 0.14 0.20 0.19 0.05 0.10 0.21 0.23 0.19 0.16 0.15 0.15 0.20 0.24 0.22 0.18 0.14 0.08 0.09 0.10 0.05 0.04 0.03 0.05 0.05 0.14
0.01 0.00 0.01 0.00 0.00 0.01 0.00 0.00 0.00 0.00 0.00 0.00 0.01 0.00 0.00 0.00 0.00 0.00 0.00 0.00 0.00 0.00 0.01 0.04 0.10 0.07 0.05 0.13 0.32 0.49 0.41 0.19 0.13 0.16 0.11 0.10 0.04 0.04 0.06 0.09 0.08 0.06 0.10 0.10 0.06 0.05 0.08 0.14 0.20
0.01 0.00 0.01 0.00 0.00 0.01 0.00 0.00 0.00 0.00 0.00 0.00 0.00 0.00 0.00 0.00 0.00 0.00 0.00 0.00 0.00 0.00 0.00 0.00 0.01 0.07 0.18 0.25 0.29 0.17 0.03 0.09 0.15 0.12 0.09 0.06 0.03 0.00 0.00 0.02 0.05 0.05 0.06 0.05 0.08 0.13 0.12 0.19 0.16
0.02 0.00 0.00 0.00 0.01 0.01 0.00 0.00 0.00 0.00 0.00 0.00 0.00 0.00 0.00 0.00 0.00 0.00 0.00 0.00 0.00 0.00 0.01 0.01 0.01 0.01 0.05 0.05 0.03 0.02 0.04 0.09 0.04 0.06 0.03 0.02 0.01 0.01 0.01 0.01 0.03 0.05 0.08 0.09 0.13 0.14 0.15 0.21 0.25
0.03 0.02 0.01 0.01 0.02 0.02 0.00 0.00 0.00 0.00 0.00 0.00 0.00 0.00 0.00 0.00 0.00 0.00 0.00 0.00 0.00 0.00 0.00 0.00 0.00 0.00 0.00 0.01 0.00 0.00 0.00 0.00 0.00 0.01 0.00 0.00 0.00 0.00 0.00 0.01 0.01 0.02 0.02 0.02 0.03 0.07 0.09 0.13 0.18
0.07 0.06 0.12 0.11 0.10 0.02 0.00 0.00 0.00 0.00 0.00 0.00 0.00 0.00 0.00 0.00 0.00 0.00 0.00 0.00 0.00 0.00 0.00 0.00 0.00 0.00 0.00 0.00 0.00 0.00 0.00 0.00 0.00 0.00 0.00 0.00 0.00 0.00 0.00 0.00 0.01 0.01 0.00 0.01 0.01 0.02 0.02 0.06 0.11
0.16 0.04 0.04 0.03 0.01 0.00 0.00 0.00 0.00 0.00 0.00 0.00 0.00 0.00 0.00 0.00 0.00 0.00 0.00 0.00 0.00 0.00 0.00 0.00 0.00 0.00 0.00 0.00 0.00 0.00 0.00 0.00 0.00 0.00 0.00 0.00 0.00 0.00 0.00 0.00 0.00 0.00 0.00 0.00 0.01 0.02 0.02 0.02 0.04
0.32 0.12 0.01 0.03 0.01 0.00 0.00 0.00 0.00 0.00 0.00 0.00 0.00 0.00 0.00 0.00 0.00 0.00 0.00 0.00 0.00 0.00 0.00 0.00 0.00 0.00 0.00 0.00 0.00 0.00 0.00 0.00 0.00 0.00 0.00 0.00 0.00 0.00 0.00 0.00 0.00 0.00 0.00 0.00 0.00 0.01 0.01 0.01 0.02
0.20 0.09 0.08 0.05 0.02 0.00 0.00 0.00 0.00 0.00 0.00 0.00 0.00 0.00 0.00 0.00 0.00 0.00 0.00 0.00 0.00 0.00 0.00 0.00 0.00 0.00 0.00 0.00 0.00 0.00 0.00 0.00 0.00 0.00 0.00 0.00 0.00 0.00 0.00 0.00 0.00 0.00 0.00 0.00 0.00 0.00 0.00 0.00 0.00
0.09 0.16 0.05 0.03 0.00 0.00 0.00 0.00 0.00 0.00 0.00 0.00 0.00 0.00 0.00 0.00 0.00 0.00 0.00 0.00 0.00 0.00 0.00 0.00 0.00 0.00 0.00 0.00 0.00 0.00 0.00 0.00 0.00 0.00 0.00 0.00 0.00 0.00 0.00 0.00 0.00 0.00 0.00 0.00 0.00 0.00 0.00 0.00 0.00
0.02 0.03 0.05 0.04 0.01 0.00 0.00 0.00 0.00 0.00 0.00 0.00 0.00 0.00 0.00 0.00 0.00 0.00 0.00 0.00 0.00 0.00 0.00 0.00 0.01 0.00 0.00 0.00 0.00 0.00 0.00 0.00 0.00 0.00 0.00 0.00 0.00 0.00 0.00 0.00 0.00 0.00 0.00 0.00 0.00 0.00 0.00 0.00 0.01

GFSSGP_prec_precacc24_093.txt.gz
Total_Precipitation_Accumulation
0.00 0.00 0.00 0.00 0.00 0.00 0.00 0.00 0.00 0.00 0.00 0.00 0.00 0.01 0.13 0.10 0.01 0.01 0.00 0.00 0.00 0.00 0.01 0.01 0.02 0.02 0.03 0.05 0.03 0.03 0.02 0.01 0.01 0.01 0.01 0.00 0.00 0.00 0.01 0.02 0.02 0.01 0.01 0.00 0.00 0.00 0.00 0.00 0.00
0.00 0.00 0.00 0.00 0.00 0.00 0.00 0.00 0.00 0.00 0.00 0.00 0.01 0.03 0.12 0.10 0.01 0.00 0.00 0.00 0.00 0.00 0.01 0.01 0.02 0.02 0.04 0.04 0.02 0.01 0.01 0.01 0.02 0.02 0.01 0.01 0.01 0.01 0.02 0.02 0.03 0.02 0.00 0.00 0.00 0.00 0.00 0.00 0.00
0.01 0.01 0.00 0.00 0.00 0.00 0.00 0.00 0.00 0.00 0.00 0.00 0.00 0.02 0.13 0.09 0.03 0.01 0.00 0.01 0.00 0.00 0.00 0.02 0.04 0.03 0.03 0.02 0.00 0.00 0.03 0.03 0.01 0.01 0.02 0.02 0.02 0.02 0.02 0.02 0.02 0.00 0.00 0.00 0.00 0.00 0.00 0.00 0.00
0.09 0.12 0.02 0.00 0.00 0.00 0.00 0.00 0.00 0.00 0.00 0.00 0.00 0.03 0.07 0.12 0.06 0.03 0.00 0.01 0.00 0.00 0.00 0.03 0.03 0.03 0.02 0.00 0.00 0.02 0.04 0.01 0.00 0.00 0.01 0.03 0.03 0.03 0.02 0.01 0.00 0.00 0.00 0.00 0.00 0.00 0.00 0.00 0.00
0.17 0.12 0.02 0.00 0.00 0.00 0.00 0.00 0.00 0.00 0.00 0.00 0.00 0.03 0.11 0.08 0.16 0.03 0.00 0.00 0.00 0.00 0.00 0.02 0.04 0.03 0.01 0.00 0.01 0.02 0.01 0.00 0.00 0.00 0.01 0.04 0.03 0.03 0.03 0.00 0.00 0.00 0.00 0.00 0.00 0.00 0.00 0.00 0.00
0.31 0.13 0.01 0.00 0.00 0.00 0.00 0.00 0.00 0.00 0.00 0.00 0.01 0.10 0.12 0.03 0.12 0.04 0.01 0.00 0.00 0.00 0.01 0.03 0.05 0.04 0.01 0.01 0.01 0.01 0.00 0.00 0.00 0.01 0.04 0.05 0.04 0.04 0.02 0.00 0.00 0.00 0.00 0.00 0.00 0.00 0.00 0.00 0.00
0.33 0.14 0.01 0.00 0.00 0.00 0.00 0.00 0.00 0.00 0.00 0.00 0.00 0.11 0.08 0.08 0.06 0.05 0.03 0.01 0.00 0.00 0.01 0.03 0.06 0.05 0.01 0.01 0.00 0.00 0.00 0.00 0.00 0.00 0.02 0.04 0.05 0.03 0.02 0.00 0.00 0.00 0.00 0.00 0.00 0.00 0.00 0.00 0.00
0.25 0.18 0.02 0.00 0.01 0.01 0.00 0.00 0.00 0.00 0.00 0.00 0.01 0.06 0.05 0.06 0.07 0.08 0.04 0.01 0.00 0.00 0.01 0.02 0.04 0.04 0.02 0.01 0.00 0.00 0.00 0.00 0.00 0.01 0.01 0.00 0.00 0.00 0.00 0.00 0.00 0.00 0.00 0.00 0.00 0.00 0.00 0.00 0.00
0.39 0.39 0.10 0.00 0.06 0.02 0.00 0.00 0.00 0.00 0.00 0.00 0.00 0.03 0.04 0.02 0.10 0.10 0.07 0.04 0.03 0.02 0.02 0.02 0.02 0.02 0.02 0.01 0.00 0.00 0.00 0.00 0.00 0.00 0.00 0.00 0.00 0.00 0.00 0.00 0.00 0.00 0.00 0.00 0.00 0.00 0.00 0.00 0.00
0.46 0.39 0.07 0.02 0.04 0.04 0.03 0.00 0.00 0.00 0.00 0.01 0.05 0.03 0.05 0.11 0.19 0.23 0.12 0.04 0.04 0.03 0.03 0.03 0.03 0.02 0.02 0.01 0.00 0.00 0.00 0.00 0.00 0.00 0.00 0.00 0.00 0.00 0.00 0.00 0.00 0.00 0.00 0.00 0.00 0.00 0.00 0.00 0.00
0.24 0.13 0.07 0.10 0.06 0.17 0.05 0.01 0.00 0.00 0.00 0.01 0.04 0.06 0.10 0.23 0.37 0.40 0.19 0.07 0.04 0.02 0.02 0.04 0.04 0.02 0.01 0.00 0.00 0.00 0.00 0.00 0.00 0.00 0.00 0.00 0.00 0.00 0.00 0.00 0.00 0.00 0.00 0.00 0.00 0.00 0.00 0.00 0.00
0.29 0.10 0.27 0.18 0.18 0.16 0.11 0.06 0.00 0.00 0.00 0.00 0.04 0.11 0.13 0.24 0.33 0.47 0.35 0.26 0.04 0.01 0.02 0.02 0.03 0.04 0.02 0.00 0.00 0.00 0.00 0.00 0.00 0.00 0.00 0.00 0.00 0.00 0.00 0.00 0.00 0.00 0.00 0.00 0.00 0.00 0.00 0.00 0.00
0.29 0.17 0.22 0.28 0.14 0.07 0.12 0.19 0.03 0.00 0.00 0.00 0.01 0.05 0.09 0.20 0.38 0.32 0.42 0.22 0.09 0.01 0.01 0.01 0.01 0.02 0.03 0.01 0.00 0.00 0.00 0.00 0.00 0.00 0.00 0.00 0.00 0.00 0.00 0.00 0.00 0.00 0.00 0.00 0.00 0.00 0.00 0.00 0.00
0.14 0.24 0.25 0.20 0.18 0.05 0.10 0.19 0.15 0.00 0.00 0.02 0.04 0.03 0.08 0.08 0.15 0.17 0.10 0.14 0.21 0.15 0.05 0.02 0.01 0.01 0.02 0.02 0.01 0.00 0.00 0.00 0.00 0.00 0.00 0.00 0.00 0.00 0.00 0.00 0.00 0.00 0.00 0.00 0.00 0.00 0.00 0.00 0.00
0.09 0.34 0.39 0.25 0.17 0.17 0.14 0.33 0.29 0.02 0.00 0.01 0.03 0.04 0.02 0.05 0.05 0.04 0.13 0.16 0.30 0.26 0.11 0.07 0.02 0.01 0.01 0.01 0.03 0.01 0.01 0.00 0.00 0.00 0.00 0.00 0.00 0.00 0.00 0.00 0.00 0.00 0.00 0.00 0.00 0.00 0.00 0.00 0.00
0.20 0.27 0.36 0.29 0.14 0.11 0.22 0.15 0.08 0.09 0.00 0.00 0.00 0.01 0.02 0.01 0.03 0.08 0.12 0.08 0.09 0.08 0.17 0.16 0.13 0.03 0.01 0.03 0.03 0.01 0.00 0.00 0.00 0.00 0.00 0.00 0.00 0.00 0.00 0.00 0.00 0.00 0.00 0.00 0.00 0.00 0.00 0.00 0.00
0.15 0.13 0.16 0.20 0.17 0.10 0.07 0.04 0.03 0.15 0.05 0.00 0.00 0.00 0.00 0.01 0.02 0.00 0.03 0.07 0.07 0.11 0.16 0.15 0.13 0.05 0.03 0.08 0.12 0.08 0.01 0.00 0.00 0.00 0.00 0.00 0.00 0.00 0.00 0.00 0.00 0.00 0.00 0.00 0.00 0.00 0.00 0.00 0.00
0.03 0.02 0.02 0.06 0.10 0.08 0.07 0.00 0.00 0.05 0.15 0.01 0.00 0.00 0.00 0.00 0.01 0.00 0.01 0.01 0.07 0.15 0.17 0.22 0.14 0.07 0.07 0.15 0.17 0.15 0.05 0.01 0.00 0.00 0.00 0.00 0.00 0.00 0.00 0.00 0.00 0.00 0.00 0.00 0.00 0.00 0.00 0.00 0.00
0.01 0.01 0.01 0.00 0.02 0.04 0.02 0.00 0.00 0.00 0.09 0.07 0.00 0.00 0.00 0.00 0.00 0.00 0.00 0.01 0.07 0.10 0.12 0.19 0.15 0.24 0.12 0.07 0.03 0.06 0.06 0.12 0.07 0.06 0.09 0.07 0.05 0.06 0.02 0.01 0.01 0.02 0.01 0.02 0.01 0.01 0.01 0.01 0.03
0.01 0.00 0.01 0.02 0.04 0.05 0.04 0.01 0.00 0.00 0.01 0.02 0.01 0.00 0.00 0.00 0.00 0.00 0.00 0.00 0.02 0.04 0.11 0.13 0.14 0.20 0.19 0.05 0.11 0.25 0.31 0.34 0.36 0.34 0.37 0.40 0.37 0.29 0.18 0.13 0.08 0.06 0.05 0.04 0.04 0.03 0.03 0.02 0.12
0.01 0.00 0.01 0.01 0.00 0.02 0.01 0.00 0.00 0.00 0.00 0.00 0.01 0.00 0.00 0.00 0.00 0.00 0.00 0.00 0.00 0.00 0.02 0.05 0.12 0.09 0.05 0.15 0.43 0.62 0.57 0.32 0.31 0.36 0.35 0.37 0.25 0.26 0.25 0.18 0.09 0.04 0.03 0.02 0.02 0.05 0.06 0.05 0.11
0.02 0.01 0.01 0.02 0.00 0.01 0.00 0.00 0.00 0.00 0.00 0.00 0.00 0.00 0.00 0.00 0.00 0.00 0.00 0.00 0.00 0.00 0.00 0.00 0.02 0.09 0.20 0.31 0.44 0.31 0.05 0.14 0.28 0.21 0.16 0.12 0.10 0.08 0.08 0.07 0.05 0.04 0.02 0.01 0.03 0.07 0.09 0.12 0.08
0.01 0.00 0.00 0.01 0.01 0.01 0.00 0.00 0.00 0.00 0.00 0.00 0.00 0.00 0.00 0.00 0.00 0.00 0.00 0.00 0.00 0.00 0.01 0.01 0.03 0.03 0.07 0.09 0.07 0.07 0.06 0.12 0.04 0.08 0.06 0.02 0.01 0.01 0.02 0.02 0.02 0.02 0.03 0.03 0.04 0.04 0.06 0.11 0.14
0.01 0.01 0.01 0.01 0.01 0.02 0.00 0.00 0.00 0.00 0.00 0.00 0.00 0.00 0.00 0.00 0.00 0.00 0.00 0.00 0.00 0.00 0.00 0.00 0.01 0.01 0.02 0.09 0.08 0.07 0.07 0.04 0.02 0.07 0.06 0.01 0.00 0.00 0.00 0.00 0.00 0.00 0.01 0.01 0.01 0.02 0.03 0.05 0.07
0.02 0.05 0.12 0.09 0.09 0.02 0.00 0.00 0.00 0.00 0.00 0.00 0.00 0.00 0.00 0.00 0.00 0.00 0.00 0.00 0.00 0.00 0.00 0.00 0.00 0.00 0.01 0.04 0.06 0.04 0.02 0.03 0.02 0.02 0.02 0.00 0.00 0.00 0.00 0.00 0.00 0.00 0.00 0.00 0.01 0.01 0.01 0.02 0.05
0.03 0.04 0.04 0.02 0.01 0.00 0.00 0.00 0.00 0.00 0.00 0.00 0.00 0.00 0.00 0.00 0.00 0.00 0.00 0.00 0.00 0.00 0.00 0.00 0.00 0.00 0.00 0.00 0.02 0.04 0.02 0.01 0.01 0.00 0.00 0.00 0.00 0.00 0.00 0.00 0.00 0.00 0.00 0.00 0.00 0.00 0.01 0.01 0.01
0.17 0.12 0.01 0.04 0.01 0.00 0.00 0.00 0.00 0.00 0.00 0.00 0.00 0.00 0.00 0.00 0.00 0.00 0.00 0.00 0.00 0.00 0.00 0.00 0.00 0.00 0.00 0.00 0.00 0.00 0.00 0.00 0.00 0.00 0.00 0.00 0.00 0.00 0.00 0.00 0.00 0.00 0.00 0.00 0.00 0.00 0.00 0.00 0.00
0.16 0.08 0.08 0.06 0.03 0.00 0.00 0.00 0.00 0.00 0.00 0.00 0.00 0.00 0.00 0.00 0.00 0.00 0.00 0.00 0.00 0.00 0.00 0.00 0.00 0.00 0.00 0.00 0.00 0.00 0.00 0.00 0.00 0.00 0.00 0.00 0.00 0.00 0.00 0.00 0.00 0.00 0.00 0.00 0.00 0.00 0.00 0.00 0.00
0.05 0.11 0.05 0.03 0.00 0.00 0.00 0.00 0.00 0.00 0.00 0.00 0.00 0.00 0.00 0.00 0.00 0.00 0.00 0.00 0.00 0.00 0.00 0.00 0.00 0.00 0.00 0.00 0.00 0.00 0.00 0.00 0.00 0.00 0.00 0.00 0.00 0.00 0.00 0.00 0.00 0.00 0.00 0.00 0.00 0.00 0.00 0.00 0.00
0.02 0.02 0.06 0.04 0.01 0.00 0.00 0.00 0.00 0.00 0.00 0.00 0.00 0.00 0.00 0.00 0.00 0.00 0.00 0.00 0.00 0.00 0.00 0.00 0.01 0.00 0.00 0.00 0.01 0.01 0.00 0.00 0.00 0.00 0.00 0.00 0.00 0.00 0.00 0.00 0.00 0.00 0.00 0.00 0.00 0.00 0.00 0.00 0.00

GFSSGP_prec_precacc24_096.txt.gz
Total_Precipitation_Accumulation
0.01 0.00 0.00 0.00 0.00 0.00 0.00 0.00 0.00 0.00 0.00 0.00 0.00 0.01 0.14 0.11 0.01 0.01 0.00 0.00 0.00 0.00 0.01 0.01 0.02 0.02 0.03 0.05 0.03 0.03 0.03 0.01 0.00 0.00 0.00 0.00 0.00 0.01 0.01 0.02 0.01 0.00 0.01 0.00 0.00 0.00 0.00 0.00 0.00
0.03 0.00 0.00 0.00 0.00 0.00 0.00 0.00 0.00 0.01 0.00 0.00 0.01 0.03 0.13 0.11 0.01 0.00 0.00 0.00 0.00 0.00 0.01 0.01 0.02 0.02 0.04 0.04 0.02 0.01 0.01 0.01 0.01 0.02 0.01 0.01 0.01 0.01 0.02 0.02 0.01 0.00 0.00 0.00 0.00 0.00 0.00 0.00 0.00
0.06 0.06 0.02 0.00 0.00 0.00 0.00 0.00 0.00 0.00 0.00 0.00 0.00 0.03 0.15 0.10 0.04 0.01 0.00 0.01 0.00 0.00 0.00 0.01 0.04 0.03 0.03 0.02 0.01 0.01 0.03 0.04 0.01 0.01 0.02 0.02 0.02 0.02 0.02 0.02 0.01 0.00 0.00 0.00 0.00 0.00 0.00 0.00 0.00
0.18 0.22 0.08 0.00 0.00 0.00 0.00 0.00 0.00 0.00 0.00 0.00 0.00 0.06 0.12 0.14 0.07 0.03 0.00 0.01 0.00 0.00 0.00 0.03 0.04 0.04 0.02 0.01 0.00 0.02 0.04 0.02 0.00 0.00 0.01 0.02 0.02 0.02 0.02 0.01 0.00 0.00 0.00 0.00 0.00 0.00 0.00 0.00 0.00
0.27 0.18 0.02 0.00 0.00 0.00 0.00 0.00 0.00 0.00 0.00 0.00 0.00 0.04 0.18 0.13 0.20 0.03 0.00 0.00 0.00 0.00 0.00 0.03 0.05 0.04 0.01 0.00 0.01 0.01 0.01 0.01 0.00 0.00 0.01 0.03 0.03 0.03 0.03 0.00 0.00 0.00 0.00 0.00 0.00 0.00 0.00 0.00 0.00
0.46 0.19 0.01 0.00 0.00 0.00 0.00 0.00 0.00 0.00 0.00 0.00 0.01 0.11 0.24 0.28 0.33 0.16 0.03 0.00 0.00 0.00 0.02 0.04 0.07 0.05 0.01 0.01 0.01 0.01 0.00 0.01 0.00 0.01 0.03 0.04 0.04 0.04 0.02 0.00 0.00 0.00 0.00 0.00 0.00 0.00 0.00 0.00 0.00
0.46 0.18 0.01 0.00 0.00 0.00 0.00 0.00 0.00 0.00 0.00 0.00 0.01 0.12 0.11 0.34 0.35 0.20 0.05 0.01 0.00 0.00 0.01 0.04 0.07 0.05 0.01 0.01 0.00 0.00 0.00 0.00 0.01 0.01 0.02 0.03 0.04 0.03 0.01 0.00 0.00 0.00 0.00 0.00 0.00 0.00 0.00 0.00 0.00
0.31 0.19 0.02 0.00 0.00 0.01 0.00 0.00 0.00 0.00 0.00 0.00 0.01 0.06 0.11 0.22 0.27 0.20 0.09 0.03 0.00 0.00 0.01 0.02 0.04 0.03 0.01 0.01 0.00 0.00 0.00 0.00 0.00 0.01 0.01 0.00 0.00 0.00 0.00 0.00 0.00 0.00 0.00 0.00 0.00 0.00 0.00 0.00 0.00
0.41 0.32 0.05 0.00 0.03 0.01 0.00 0.00 0.00 0.00 0.00 0.00 0.01 0.03 0.07 0.08 0.19 0.36 0.13 0.06 0.03 0.02 0.02 0.02 0.02 0.01 0.01 0.01 0.00 0.00 0.00 0.00 0.00 0.00 0.00 0.00 0.00 0.00 0.00 0.00 0.00 0.00 0.00 0.00 0.00 0.00 0.00 0.00 0.00
0.63 0.28 0.02 0.03 0.04 0.02 0.00 0.00 0.00 0.00 0.00 0.02 0.07 0.04 0.06 0.16 0.26 0.35 0.31 0.10 0.05 0.03 0.03 0.03 0.03 0.02 0.02 0.01 0.00 0.00 0.00 0.00 0.00 0.00 0.00 0.00 0.00 0.00 0.00 0.00 0.00 0.00 0.00 0.00 0.00 0.00 0.00 0.00 0.00
0.49 0.16 0.10 0.15 0.06 0.09 0.01 0.00 0.00 0.00 0.00 0.01 0.05 0.08 0.13 0.25 0.39 0.42 0.22 0.19 0.06 0.02 0.02 0.04 0.04 0.02 0.01 0.00 0.00 0.00 0.00 0.00 0.00 0.00 0.00 0.00 0.00 0.00 0.00 0.00 0.00 0.00 0.00 0.00 0.00 0.00 0.00 0.00 0.00
0.43 0.18 0.30 0.23 0.18 0.09 0.04 0.03 0.00 0.00 0.00 0.00 0.04 0.11 0.16 0.26 0.37 0.55 0.36 0.26 0.04 0.01 0.02 0.02 0.03 0.04 0.02 0.00 0.00 0.00 0.00 0.00 0.00 0.00 0.00 0.00 0.00 0.00 0.00 0.00 0.00 0.00 0.00 0.00 0.00 0.00 0.00 0.00 0.00
0.39 0.35 0.25 0.33 0.17 0.06 0.07 0.13 0.02 0.00 0.00 0.00 0.01 0.05 0.09 0.25 0.44 0.36 0.50 0.22 0.08 0.02 0.01 0.02 0.01 0.02 0.03 0.01 0.00 0.00 0.00 0.00 0.00 0.00 0.00 0.00 0.00 0.00 0.00 0.00 0.00 0.00 0.00 0.00 0.00 0.00 0.00 0.00 0.00
0.24 0.47 0.33 0.28 0.22 0.08 0.10 0.17 0.15 0.00 0.00 0.01 0.04 0.05 0.08 0.11 0.16 0.19 0.15 0.14 0.22 0.15 0.06 0.03 0.01 0.01 0.02 0.02 0.01 0.00 0.00 0.00 0.00 0.00 0.00 0.00 0.00 0.00 0.00 0.00 0.00 0.00 0.00 0.00 0.00 0.00 0.00 0.00 0.00
0.13 0.45 0.54 0.31 0.31 0.22 0.16 0.34 0.29 0.02 0.00 0.01 0.03 0.05 0.03 0.06 0.06 0.04 0.15 0.16 0.32 0.26 0.11 0.07 0.02 0.01 0.01 0.01 0.03 0.01 0.01 0.00 0.00 0.00 0.00 0.00 0.00 0.00 0.00 0.00 0.00 0.00 0.00 0.00 0.00 0.00 0.00 0.00 0.00
0.19 0.39 0.54 0.37 0.32 0.28 0.26 0.17 0.09 0.10 0.00 0.00 0.00 0.01 0.02 0.02 0.04 0.08 0.13 0.08 0.09 0.07 0.17 0.16 0.13 0.02 0.01 0.03 0.03 0.01 0.00 0.00 0.00 0.00 0.00 0.00 0.00 0.00 0.00 0.00 0.00 0.00 0.00 0.00 0.00 0.00 0.00 0.00 0.00
0.12 0.18 0.22 0.26 0.24 0.27 0.16 0.13 0.04 0.17 0.05 0.00 0.00 0.00 0.00 0.01 0.02 0.01 0.04 0.08 0.08 0.12 0.16 0.15 0.13 0.03 0.03 0.09 0.12 0.08 0.01 0.00 0.00 0.00 0.00 0.00 0.00 0.00 0.00 0.00 0.00 0.00 0.00 0.00 0.00 0.00 0.00 0.00 0.00
0.03 0.02 0.03 0.08 0.15 0.12 0.14 0.06 0.06 0.07 0.15 0.01 0.00 0.00 0.00 0.00 0.01 0.01 0.04 0.04 0.09 0.19 0.19 0.22 0.14 0.07 0.07 0.15 0.17 0.14 0.05 0.01 0.00 0.00 0.00 0.01 0.00 0.00 0.00 0.00 0.00 0.00 0.00 0.00 0.00 0.00 0.00 0.00 0.00
0.01 0.01 0.01 0.01 0.03 0.05 0.04 0.04 0.04 0.03 0.09 0.07 0.00 0.00 0.00 0.00 0.00 0.00 0.00 0.03 0.13 0.14 0.17 0.20 0.15 0.26 0.12 0.08 0.04 0.06 0.05 0.11 0.05 0.03 0.05 0.03 0.04 0.04 0.01 0.00 0.01 0.01 0.01 0.01 0.01 0.01 0.01 0.00 0.02
0.01 0.00 0.02 0.02 0.04 0.06 0.04 0.01 0.00 0.01 0.01 0.02 0.01 0.00 0.00 0.00 0.00 0.00 0.00 0.00 0.03 0.07 0.15 0.14 0.14 0.20 0.19 0.07 0.12 0.27 0.35 0.36 0.42 0.41 0.43 0.47 0.46 0.37 0.23 0.18 0.14 0.08 0.05 0.06 0.06 0.03 0.02 0.01 0.04
0.01 0.00 0.01 0.01 0.02 0.05 0.02 0.00 0.00 0.00 0.00 0.00 0.01 0.00 0.00 0.00 0.00 0.00 0.00 0.00 0.00 0.02 0.02 0.05 0.13 0.10 0.05 0.15 0.47 0.64 0.61 0.36 0.35 0.42 0.46 0.49 0.42 0.45 0.44 0.35 0.26 0.15 0.09 0.04 0.02 0.02 0.04 0.03 0.04
0.02 0.01 0.01 0.02 0.01 0.02 0.00 0.00 0.00 0.00 0.00 0.00 0.00 0.00 0.00 0.00 0.00 0.00 0.00 0.00 0.00 0.00 0.00 0.00 0.02 0.09 0.21 0.35 0.53 0.32 0.07 0.18 0.29 0.26 0.24 0.21 0.14 0.13 0.17 0.13 0.09 0.05 0.04 0.02 0.01 0.01 0.03 0.05 0.04
0.01 0.00 0.01 0.02 0.01 0.01 0.00 0.00 0.00 0.00 0.00 0.00 0.00 0.00 0.00 0.00 0.00 0.00 0.00 0.00 0.00 0.00 0.01 0.01 0.06 0.06 0.11 0.13 0.14 0.25 0.17 0.16 0.07 0.11 0.12 0.05 0.03 0.06 0.05 0.02 0.01 0.01 0.01 0.00 0.00 0.01 0.02 0.03 0.05
0.01 0.02 0.01 0.02 0.03 0.03 0.00 0.00 0.00 0.00 0.00 0.00 0.00 0.00 0.00 0.00 0.00 0.00 0.00 0.00 0.00 0.00 0.00 0.00 0.04 0.05 0.07 0.17 0.19 0.20 0.13 0.08 0.04 0.10 0.09 0.05 0.02 0.01 0.01 0.00 0.00 0.00 0.00 0.00 0.00 0.01 0.01 0.01 0.02
0.02 0.07 0.13 0.09 0.16 0.05 0.00 0.00 0.00 0.00 0.00 0.00 0.00 0.00 0.00 0.00 0.00 0.00 0.00 0.00 0.00 0.00 0.00 0.00 0.00 0.01 0.06 0.15 0.17 0.17 0.13 0.14 0.16 0.15 0.11 0.08 0.04 0.02 0.00 0.00 0.00 0.00 0.00 0.00 0.01 0.01 0.01 0.02 0.03
0.02 0.05 0.05 0.02 0.01 0.00 0.00 0.00 0.00 0.00 0.00 0.00 0.00 0.00 0.00 0.00 0.00 0.00 0.00 0.00 0.00 0.00 0.00 0.00 0.00 0.00 0.00 0.02 0.06 0.10 0.13 0.15 0.17 0.17 0.11 0.06 0.03 0.02 0.01 0.00 0.00 0.00 0.00 0.00 0.00 0.00 0.00 0.00 0.01
0.05 0.04 0.02 0.04 0.01 0.00 0.00 0.00 0.00 0.00 0.00 0.00 0.00 0.00 0.00 0.00 0.00 0.00 0.00 0.00 0.00 0.00 0.00 0.00 0.00 0.00 0.00 0.00 0.00 0.02 0.04 0.07 0.06 0.04 0.03 0.02 0.01 0.01 0.00 0.00 0.00 0.00 0.00 0.00 0.00 0.00 0.00 0.00 0.00
0.03 0.02 0.06 0.07 0.05 0.00 0.00 0.00 0.00 0.00 0.00 0.00 0.00 0.00 0.00 0.00 0.00 0.00 0.00 0.00 0.00 0.00 0.00 0.00 0.00 0.00 0.00 0.00 0.00 0.00 0.00 0.00 0.01 0.01 0.00 0.00 0.00 0.00 0.00 0.00 0.00 0.00 0.00 0.00 0.00 0.00 0.00 0.00 0.00
0.01 0.04 0.04 0.03 0.00 0.00 0.00 0.00 0.00 0.00 0.00 0.00 0.00 0.00 0.00 0.00 0.00 0.00 0.00 0.00 0.00 0.00 0.00 0.00 0.00 0.00 0.00 0.00 0.00 0.00 0.00 0.00 0.00 0.00 0.00 0.00 0.00 0.00 0.00 0.00 0.00 0.00 0.00 0.00 0.00 0.00 0.00 0.00 0.00
0.03 0.03 0.06 0.04 0.01 0.00 0.00 0.00 0.00 0.00 0.00 0.00 0.00 0.00 0.00 0.00 0.00 0.00 0.00 0.00 0.00 0.00 0.00 0.00 0.01 0.00 0.00 0.00 0.01 0.01 0.01 0.00 0.00 0.00 0.00 0.00 0.00 0.00 0.00 0.00 0.00 0.00 0.00 0.00 0.00 0.00 0.00 0.00 0.00

GFSSGP_prec_precacc24_099.txt.gz
Total_Precipitation_Accumulation
0.15 0.03 0.02 0.00 0.00 0.00 0.00 0.00 0.00 0.01 0.01 0.00 0.00 0.01 0.14 0.11 0.01 0.01 0.00 0.00 0.00 0.00 0.00 0.01 0.02 0.02 0.03 0.05 0.03 0.03 0.03 0.01 0.01 0.04 0.04 0.06 0.07 0.04 0.01 0.01 0.00 0.00 0.01 0.00 0.00 0.00 0.00 0.00 0.00
0.36 0.12 0.02 0.02 0.00 0.00 0.00 0.00 0.00 0.02 0.00 0.00 0.01 0.03 0.14 0.11 0.01 0.00 0.01 0.00 0.00 0.00 0.01 0.01 0.02 0.02 0.04 0.04 0.02 0.01 0.01 0.00 0.01 0.01 0.02 0.03 0.02 0.01 0.02 0.01 0.00 0.00 0.00 0.00 0.00 0.00 0.00 0.00 0.00
0.41 0.19 0.06 0.02 0.00 0.00 0.00 0.00 0.00 0.00 0.00 0.01 0.02 0.04 0.15 0.10 0.04 0.01 0.00 0.02 0.00 0.00 0.00 0.01 0.04 0.03 0.04 0.02 0.01 0.01 0.02 0.03 0.01 0.01 0.02 0.02 0.02 0.02 0.02 0.01 0.00 0.00 0.00 0.00 0.00 0.00 0.00 0.00 0.00
0.52 0.45 0.17 0.01 0.00 0.00 0.00 0.00 0.00 0.00 0.02 0.00 0.02 0.08 0.12 0.14 0.07 0.03 0.00 0.01 0.00 0.00 0.00 0.03 0.05 0.04 0.03 0.01 0.00 0.02 0.04 0.02 0.00 0.00 0.01 0.02 0.02 0.02 0.02 0.00 0.00 0.00 0.00 0.00 0.00 0.00 0.00 0.00 0.00
0.50 0.61 0.09 0.00 0.00 0.00 0.00 0.00 0.00 0.00 0.01 0.03 0.05 0.06 0.19 0.13 0.20 0.03 0.00 0.00 0.00 0.00 0.00 0.03 0.06 0.04 0.02 0.00 0.01 0.03 0.02 0.01 0.00 0.00 0.01 0.03 0.02 0.02 0.02 0.00 0.00 0.00 0.00 0.00 0.00 0.00 0.00 0.00 0.00
0.67 0.59 0.10 0.00 0.00 0.00 0.00 0.00 0.00 0.00 0.00 0.01 0.04 0.13 0.30 0.30 0.36 0.17 0.03 0.00 0.00 0.00 0.02 0.05 0.08 0.05 0.01 0.01 0.01 0.02 0.01 0.01 0.00 0.01 0.02 0.03 0.04 0.03 0.02 0.00 0.00 0.00 0.00 0.00 0.00 0.00 0.00 0.00 0.00
0.86 0.42 0.13 0.00 0.00 0.00 0.00 0.00 0.00 0.00 0.00 0.00 0.01 0.12 0.18 0.43 0.51 0.28 0.05 0.01 0.00 0.01 0.02 0.05 0.08 0.05 0.01 0.01 0.00 0.01 0.01 0.01 0.01 0.01 0.02 0.03 0.04 0.02 0.01 0.00 0.00 0.00 0.00 0.00 0.00 0.00 0.00 0.00 0.00
0.69 0.49 0.04 0.00 0.00 0.01 0.00 0.00 0.00 0.00 0.00 0.00 0.01 0.06 0.12 0.28 0.49 0.36 0.13 0.04 0.00 0.01 0.03 0.03 0.05 0.03 0.01 0.01 0.00 0.00 0.00 0.00 0.01 0.01 0.01 0.00 0.00 0.00 0.00 0.00 0.00 0.00 0.00 0.00 0.00 0.00 0.00 0.00 0.00
0.68 0.73 0.05 0.00 0.01 0.00 0.00 0.00 0.00 0.00 0.01 0.01 0.01 0.03 0.07 0.09 0.29 0.53 0.27 0.11 0.04 0.04 0.03 0.03 0.02 0.01 0.01 0.01 0.00 0.00 0.00 0.00 0.00 0.00 0.00 0.00 0.00 0.00 0.00 0.00 0.00 0.00 0.00 0.00 0.00 0.00 0.00 0.00 0.00
0.89 0.55 0.03 0.03 0.04 0.01 0.00 0.00 0.00 0.00 0.00 0.05 0.12 0.04 0.06 0.15 0.27 0.48 0.52 0.18 0.06 0.05 0.05 0.03 0.03 0.02 0.02 0.01 0.00 0.00 0.00 0.00 0.00 0.00 0.00 0.00 0.00 0.00 0.00 0.00 0.00 0.00 0.00 0.00 0.00 0.00 0.00 0.00 0.00
0.90 0.42 0.13 0.16 0.05 0.03 0.01 0.00 0.00 0.00 0.00 0.00 0.04 0.10 0.15 0.24 0.40 0.49 0.53 0.49 0.19 0.05 0.04 0.05 0.04 0.02 0.01 0.00 0.00 0.00 0.00 0.00 0.00 0.00 0.00 0.00 0.00 0.00 0.00 0.00 0.00 0.00 0.00 0.00 0.00 0.00 0.00 0.00 0.00
0.92 0.42 0.35 0.23 0.12 0.03 0.02 0.01 0.00 0.00 0.00 0.00 0.04 0.19 0.26 0.29 0.41 0.53 0.48 0.76 0.29 0.07 0.02 0.02 0.03 0.04 0.02 0.00 0.00 0.00 0.00 0.00 0.00 0.00 0.00 0.00 0.00 0.00 0.00 0.00 0.00 0.00 0.00 0.00 0.00 0.00 0.00 0.00 0.00
0.91 0.74 0.29 0.26 0.13 0.04 0.04 0.03 0.00 0.00 0.00 0.01 0.02 0.05 0.12 0.39 0.57 0.48 0.58 0.37 0.31 0.11 0.02 0.02 0.01 0.02 0.03 0.01 0.00 0.00 0.00 0.00 0.00 0.00 0.00 0.00 0.00 0.00 0.00 0.00 0.00 0.00 0.00 0.00 0.00 0.00 0.00 0.00 0.00
0.69 0.99 0.38 0.27 0.22 0.07 0.08 0.11 0.03 0.00 0.00 0.00 0.04 0.09 0.19 0.25 0.27 0.31 0.25 0.23 0.50 0.36 0.14 0.03 0.01 0.01 0.02 0.02 0.01 0.00 0.00 0.00 0.00 0.00 0.00 0.00 0.00 0.00 0.00 0.00 0.00 0.00 0.00 0.00 0.00 0.00 0.00 0.00 0.00
0.37 1.02 0.70 0.32 0.32 0.22 0.14 0.21 0.14 0.01 0.00 0.01 0.04 0.10 0.15 0.17 0.13 0.15 0.29 0.28 0.47 0.39 0.17 0.08 0.02 0.01 0.01 0.01 0.03 0.01 0.01 0.00 0.00 0.00 0.00 0.00 0.00 0.00 0.00 0.00 0.00 0.00 0.00 0.00 0.00 0.00 0.00 0.00 0.00
0.20 0.65 0.93 0.43 0.36 0.33 0.29 0.15 0.07 0.08 0.00 0.00 0.00 0.06 0.10 0.09 0.09 0.16 0.26 0.23 0.22 0.26 0.39 0.30 0.15 0.02 0.01 0.03 0.03 0.01 0.00 0.00 0.00 0.00 0.00 0.00 0.00 0.00 0.00 0.00 0.00 0.00 0.00 0.00 0.00 0.00 0.00 0.00 0.00
0.12 0.22 0.46 0.48 0.32 0.44 0.29 0.15 0.04 0.17 0.04 0.00 0.00 0.00 0.04 0.12 0.10 0.05 0.14 0.22 0.23 0.25 0.35 0.42 0.30 0.04 0.04 0.16 0.15 0.08 0.01 0.00 0.00 0.00 0.00 0.00 0.00 0.00 0.00 0.00 0.00 0.00 0.00 0.00 0.00 0.00 0.00 0.00 0.00
0.03 0.02 0.05 0.19 0.23 0.31 0.33 0.21 0.09 0.07 0.15 0.01 0.00 0.00 0.00 0.01 0.03 0.09 0.12 0.12 0.17 0.26 0.28 0.46 0.43 0.21 0.08 0.21 0.23 0.16 0.05 0.01 0.00 0.00 0.01 0.01 0.00 0.00 0.00 0.00 0.00 0.00 0.00 0.00 0.00 0.00 0.00 0.00 0.00
0.01 0.01 0.01 0.01 0.06 0.13 0.19 0.22 0.15 0.03 0.09 0.07 0.00 0.00 0.00 0.00 0.00 0.01 0.06 0.11 0.24 0.18 0.19 0.24 0.21 0.35 0.24 0.12 0.04 0.06 0.05 0.10 0.04 0.03 0.03 0.02 0.02 0.03 0.01 0.00 0.01 0.01 0.01 0.01 0.00 0.00 0.01 0.00 0.01
0.01 0.00 0.02 0.02 0.05 0.07 0.09 0.05 0.07 0.07 0.01 0.02 0.01 0.00 0.00 0.00 0.00 0.00 0.00 0.02 0.05 0.15 0.27 0.22 0.16 0.24 0.21 0.11 0.16 0.28 0.36 0.38 0.43 0.39 0.40 0.45 0.42 0.33 0.19 0.15 0.13 0.09 0.05 0.07 0.07 0.05 0.01 0.01 0.01
0.01 0.00 0.01 0.01 0.02 0.05 0.02 0.00 0.00 0.01 0.00 0.00 0.01 0.00 0.00 0.00 0.00 0.00 0.00 0.00 0.01 0.03 0.03 0.05 0.14 0.19 0.11 0.16 0.51 0.72 0.66 0.40 0.43 0.42 0.46 0.49 0.46 0.56 0.60 0.55 0.41 0.24 0.11 0.07 0.03 0.03 0.04 0.03 0.01
0.02 0.01 0.01 0.02 0.01 0.02 0.00 0.00 0.00 0.00 0.00 0.00 0.00 0.00 0.00 0.00 0.00 0.00 0.00 0.00 0.00 0.00 0.01 0.02 0.08 0.14 0.27 0.41 0.58 0.35 0.10 0.32 0.32 0.32 0.32 0.27 0.18 0.19 0.26 0.26 0.26 0.24 0.14 0.08 0.03 0.04 0.04 0.04 0.03
0.01 0.00 0.01 0.02 0.01 0.01 0.00 0.00 0.00 0.00 0.00 0.00 0.00 0.00 0.00 0.00 0.00 0.00 0.00 0.00 0.00 0.00 0.01 0.02 0.07 0.11 0.25 0.22 0.25 0.31 0.19 0.20 0.15 0.21 0.27 0.12 0.06 0.09 0.16 0.15 0.15 0.12 0.05 0.02 0.02 0.01 0.02 0.03 0.04
0.01 0.02 0.01 0.02 0.04 0.04 0.00 0.00 0.00 0.00 0.00 0.00 0.00 0.00 0.00 0.00 0.00 0.00 0.00 0.00 0.00 0.00 0.00 0.01 0.06 0.09 0.09 0.24 0.24 0.32 0.25 0.16 0.10 0.16 0.20 0.27 0.30 0.25 0.24 0.14 0.06 0.03 0.01 0.01 0.01 0.01 0.01 0.01 0.02
0.02 0.07 0.12 0.11 0.22 0.06 0.00 0.00 0.00 0.00 0.00 0.00 0.00 0.00 0.00 0.00 0.00 0.00 0.00 0.00 0.00 0.00 0.00 0.00 0.00 0.02 0.09 0.19 0.24 0.27 0.21 0.19 0.20 0.25 0.25 0.28 0.30 0.24 0.14 0.06 0.02 0.00 0.00 0.00 0.01 0.01 0.01 0.02 0.02
0.02 0.07 0.11 0.02 0.02 0.02 0.00 0.00 0.00 0.00 0.00 0.00 0.00 0.00 0.00 0.00 0.00 0.00 0.00 0.00 0.00 0.00 0.00 0.00 0.00 0.00 0.02 0.05 0.08 0.11 0.15 0.17 0.24 0.27 0.24 0.19 0.16 0.11 0.07 0.05 0.03 0.00 0.00 0.00 0.00 0.00 0.00 0.00 0.01
0.06 0.05 0.04 0.09 0.02 0.00 0.00 0.00 0.00 0.00 0.00 0.00 0.00 0.00 0.00 0.00 0.00 0.00 0.00 0.00 0.00 0.00 0.00 0.00 0.00 0.00 0.00 0.00 0.00 0.02 0.06 0.09 0.08 0.08 0.08 0.08 0.07 0.05 0.06 0.05 0.03 0.00 0.00 0.00 0.00 0.00 0.00 0.00 0.00
0.03 0.03 0.05 0.08 0.09 0.00 0.00 0.00 0.00 0.00 0.00 0.00 0.00 0.00 0.00 0.00 0.00 0.00 0.00 0.00 0.00 0.00 0.00 0.00 0.00 0.00 0.00 0.00 0.00 0.00 0.00 0.00 0.01 0.03 0.03 0.03 0.03 0.01 0.00 0.00 0.00 0.00 0.00 0.00 0.00 0.00 0.00 0.00 0.00
0.03 0.03 0.02 0.02 0.01 0.00 0.00 0.00 0.00 0.00 0.00 0.00 0.00 0.00 0.00 0.00 0.00 0.00 0.00 0.00 0.00 0.00 0.00 0.00 0.00 0.00 0.00 0.00 0.00 0.00 0.00 0.00 0.00 0.00 0.00 0.00 0.00 0.00 0.00 0.00 0.00 0.00 0.00 0.00 0.00 0.00 0.00 0.00 0.00
0.07 0.05 0.06 0.04 0.01 0.00 0.00 0.00 0.00 0.00 0.00 0.00 0.00 0.00 0.00 0.00 0.00 0.00 0.00 0.00 0.00 0.00 0.00 0.00 0.01 0.00 0.00 0.00 0.01 0.01 0.01 0.00 0.00 0.00 0.00 0.00 0.00 0.00 0.00 0.00 0.00 0.00 0.00 0.00 0.00 0.00 0.00 0.00 0.00

GFSSGP_prec_precacc24_102.txt.gz
Total_Precipitation_Accumulation
0.26 0.35 0.21 0.06 0.03 0.02 0.00 0.00 0.00 0.01 0.03 0.01 0.00 0.01 0.14 0.11 0.01 0.01 0.00 0.00 0.00 0.00 0.00 0.01 0.02 0.03 0.03 0.04 0.03 0.03 0.03 0.04 0.05 0.07 0.07 0.11 0.11 0.04 0.01 0.00 0.00 0.00 0.01 0.00 0.00 0.00 0.00 0.00 0.00
0.51 0.50 0.25 0.09 0.03 0.00 0.00 0.00 0.00 0.02 0.01 0.01 0.01 0.03 0.14 0.11 0.01 0.01 0.02 0.01 0.00 0.00 0.00 0.01 0.03 0.02 0.03 0.04 0.02 0.01 0.02 0.03 0.04 0.06 0.09 0.12 0.03 0.01 0.01 0.00 0.00 0.00 0.00 0.00 0.00 0.00 0.00 0.00 0.00
0.58 0.57 0.25 0.10 0.03 0.00 0.00 0.00 0.00 0.00 0.01 0.02 0.02 0.04 0.15 0.10 0.04 0.01 0.01 0.02 0.00 0.00 0.00 0.01 0.04 0.03 0.03 0.02 0.01 0.00 0.01 0.03 0.02 0.04 0.05 0.03 0.02 0.02 0.01 0.00 0.00 0.00 0.00 0.00 0.00 0.00 0.00 0.00 0.00
0.70 0.89 0.58 0.09 0.01 0.00 0.00 0.00 0.00 0.00 0.03 0.02 0.03 0.09 0.12 0.14 0.07 0.03 0.01 0.02 0.00 0.00 0.00 0.02 0.04 0.04 0.02 0.01 0.00 0.01 0.03 0.02 0.00 0.01 0.02 0.02 0.02 0.02 0.01 0.00 0.00 0.00 0.00 0.00 0.00 0.00 0.00 0.00 0.00
0.64 1.26 0.55 0.16 0.00 0.00 0.00 0.00 0.00 0.00 0.02 0.04 0.06 0.11 0.21 0.16 0.20 0.04 0.01 0.01 0.00 0.00 0.00 0.03 0.06 0.04 0.02 0.00 0.01 0.03 0.02 0.01 0.00 0.00 0.01 0.03 0.02 0.02 0.01 0.00 0.00 0.00 0.00 0.00 0.00 0.00 0.00 0.00 0.00
0.99 1.05 0.82 0.16 0.00 0.00 0.00 0.00 0.00 0.00 0.00 0.02 0.08 0.23 0.39 0.31 0.37 0.18 0.03 0.01 0.00 0.00 0.02 0.05 0.08 0.05 0.01 0.01 0.02 0.03 0.01 0.01 0.00 0.01 0.01 0.02 0.03 0.03 0.00 0.00 0.00 0.00 0.00 0.00 0.00 0.00 0.00 0.00 0.00
1.16 0.68 0.85 0.19 0.00 0.00 0.00 0.00 0.00 0.00 0.00 0.01 0.09 0.26 0.22 0.45 0.54 0.31 0.06 0.01 0.01 0.01 0.02 0.06 0.08 0.05 0.01 0.01 0.02 0.01 0.01 0.01 0.01 0.01 0.01 0.02 0.03 0.02 0.00 0.00 0.00 0.00 0.00 0.00 0.00 0.00 0.00 0.00 0.00
0.87 1.00 0.26 0.21 0.00 0.01 0.00 0.00 0.00 0.00 0.00 0.01 0.08 0.19 0.24 0.40 0.65 0.44 0.15 0.04 0.01 0.03 0.04 0.04 0.05 0.04 0.01 0.01 0.01 0.01 0.00 0.00 0.01 0.01 0.01 0.00 0.00 0.00 0.00 0.00 0.00 0.00 0.00 0.00 0.00 0.00 0.00 0.00 0.00
0.89 1.20 0.25 0.12 0.04 0.00 0.00 0.00 0.00 0.00 0.01 0.01 0.03 0.09 0.17 0.34 0.62 0.71 0.28 0.13 0.05 0.06 0.04 0.04 0.02 0.01 0.01 0.01 0.00 0.01 0.00 0.01 0.00 0.00 0.00 0.00 0.00 0.00 0.00 0.00 0.00 0.00 0.00 0.00 0.00 0.00 0.00 0.00 0.00
1.10 0.83 0.20 0.06 0.07 0.01 0.00 0.00 0.00 0.00 0.01 0.10 0.15 0.07 0.12 0.24 0.51 0.63 0.54 0.19 0.07 0.06 0.07 0.04 0.03 0.02 0.02 0.01 0.00 0.00 0.00 0.00 0.00 0.00 0.00 0.00 0.00 0.00 0.00 0.00 0.00 0.00 0.00 0.00 0.00 0.00 0.00 0.00 0.00
1.14 0.58 0.29 0.20 0.08 0.03 0.01 0.00 0.00 0.00 0.02 0.01 0.03 0.06 0.11 0.24 0.43 0.57 0.58 0.50 0.23 0.07 0.06 0.05 0.04 0.02 0.01 0.00 0.00 0.00 0.00 0.00 0.00 0.00 0.00 0.00 0.00 0.00 0.00 0.00 0.00 0.00 0.00 0.00 0.00 0.00 0.00 0.00 0.00
1.28 0.76 0.58 0.35 0.14 0.04 0.02 0.01 0.00 0.00 0.00 0.00 0.12 0.19 0.21 0.18 0.31 0.49 0.47 0.76 0.38 0.11 0.03 0.03 0.03 0.04 0.02 0.00 0.00 0.00 0.00 0.00 0.00 0.00 0.00 0.00 0.00 0.00 0.00 0.00 0.00 0.00 0.00 0.00 0.00 0.00 0.00 0.00 0.00
1.31 1.11 0.59 0.42 0.16 0.04 0.04 0.02 0.00 0.00 0.00 0.04 0.11 0.07 0.13 0.35 0.51 0.52 0.60 0.47 0.56 0.17 0.03 0.02 0.01 0.02 0.03 0.01 0.00 0.00 0.00 0.00 0.00 0.00 0.00 0.00 0.00 0.00 0.00 0.00 0.00 0.00 0.00 0.00 0.00 0.00 0.00 0.00 0.00
1.05 1.39 0.83 0.45 0.22 0.07 0.05 0.07 0.00 0.00 0.04 0.11 0.14 0.13 0.20 0.24 0.25 0.30 0.26 0.24 0.55 0.51 0.31 0.12 0.04 0.01 0.02 0.02 0.01 0.00 0.00 0.00 0.00 0.00 0.00 0.00 0.00 0.00 0.00 0.00 0.00 0.00 0.00 0.00 0.00 0.00 0.00 0.00 0.00
0.62 1.40 1.12 0.50 0.31 0.17 0.07 0.08 0.04 0.00 0.04 0.10 0.17 0.24 0.31 0.28 0.20 0.18 0.29 0.27 0.47 0.48 0.39 0.32 0.13 0.01 0.01 0.01 0.03 0.01 0.01 0.00 0.00 0.00 0.00 0.00 0.00 0.00 0.00 0.00 0.00 0.00 0.00 0.00 0.00 0.00 0.00 0.00 0.00
0.28 1.12 1.41 0.64 0.38 0.32 0.23 0.07 0.04 0.02 0.01 0.02 0.07 0.17 0.22 0.19 0.21 0.21 0.30 0.29 0.27 0.28 0.46 0.45 0.27 0.07 0.01 0.03 0.03 0.01 0.00 0.00 0.00 0.00 0.00 0.00 0.00 0.00 0.00 0.00 0.00 0.00 0.00 0.00 0.00 0.00 0.00 0.00 0.00
0.15 0.42 0.82 0.79 0.43 0.45 0.28 0.15 0.02 0.05 0.01 0.00 0.01 0.04 0.14 0.26 0.23 0.18 0.20 0.31 0.30 0.28 0.40 0.58 0.45 0.19 0.05 0.18 0.18 0.08 0.01 0.00 0.00 0.00 0.00 0.00 0.00 0.00 0.00 0.00 0.00 0.00 0.00 0.00 0.00 0.00 0.00 0.00 0.00
0.03 0.07 0.17 0.41 0.41 0.40 0.36 0.21 0.08 0.03 0.06 0.00 0.00 0.00 0.02 0.06 0.14 0.29 0.30 0.24 0.33 0.43 0.46 0.65 0.69 0.62 0.35 0.35 0.39 0.18 0.05 0.01 0.00 0.00 0.01 0.01 0.00 0.00 0.00 0.00 0.00 0.00 0.00 0.00 0.00 0.00 0.00 0.00 0.00
0.01 0.02 0.04 0.08 0.11 0.29 0.34 0.25 0.17 0.03 0.04 0.04 0.00 0.00 0.00 0.00 0.03 0.09 0.19 0.31 0.41 0.39 0.42 0.51 0.37 0.54 0.72 0.64 0.38 0.23 0.07 0.11 0.04 0.02 0.03 0.02 0.02 0.02 0.01 0.00 0.00 0.01 0.01 0.01 0.00 0.00 0.00 0.00 0.00
0.01 0.00 0.02 0.04 0.05 0.13 0.15 0.11 0.19 0.12 0.00 0.02 0.01 0.00 0.00 0.00 0.00 0.00 0.02 0.09 0.16 0.33 0.56 0.55 0.35 0.36 0.44 0.49 0.40 0.45 0.47 0.44 0.44 0.38 0.37 0.43 0.40 0.30 0.16 0.15 0.14 0.09 0.05 0.07 0.07 0.06 0.04 0.05 0.02
0.01 0.00 0.01 0.02 0.03 0.05 0.02 0.02 0.02 0.07 0.02 0.00 0.01 0.00 0.00 0.00 0.00 0.00 0.00 0.01 0.03 0.09 0.14 0.19 0.26 0.33 0.36 0.50 0.83 1.06 1.07 0.67 0.52 0.44 0.47 0.49 0.46 0.55 0.60 0.56 0.43 0.29 0.16 0.11 0.10 0.09 0.13 0.10 0.06
0.02 0.01 0.01 0.02 0.01 0.02 0.00 0.01 0.01 0.01 0.02 0.01 0.00 0.00 0.00 0.00 0.00 0.00 0.00 0.00 0.00 0.00 0.01 0.02 0.11 0.22 0.35 0.58 0.73 0.57 0.24 0.42 0.40 0.51 0.51 0.41 0.27 0.30 0.38 0.41 0.42 0.43 0.37 0.26 0.14 0.13 0.11 0.08 0.05
0.01 0.00 0.01 0.02 0.01 0.01 0.00 0.01 0.00 0.00 0.00 0.00 0.00 0.00 0.00 0.00 0.00 0.00 0.00 0.00 0.00 0.00 0.01 0.02 0.07 0.12 0.29 0.35 0.33 0.42 0.23 0.24 0.32 0.28 0.33 0.15 0.09 0.16 0.27 0.36 0.41 0.40 0.26 0.12 0.07 0.06 0.05 0.07 0.08
0.01 0.02 0.02 0.03 0.05 0.05 0.00 0.00 0.00 0.00 0.00 0.00 0.00 0.00 0.00 0.00 0.00 0.00 0.00 0.00 0.00 0.00 0.00 0.01 0.06 0.10 0.17 0.26 0.24 0.32 0.30 0.25 0.18 0.18 0.26 0.36 0.37 0.38 0.42 0.41 0.37 0.28 0.25 0.27 0.19 0.07 0.03 0.02 0.03
0.02 0.07 0.11 0.12 0.25 0.06 0.00 0.00 0.00 0.00 0.00 0.00 0.00 0.00 0.00 0.00 0.00 0.00 0.00 0.00 0.00 0.00 0.00 0.00 0.00 0.02 0.10 0.22 0.28 0.30 0.28 0.21 0.22 0.27 0.30 0.34 0.34 0.31 0.24 0.20 0.22 0.27 0.26 0.17 0.07 0.01 0.01 0.02 0.02
0.03 0.09 0.11 0.02 0.02 0.02 0.00 0.00 0.00 0.00 0.00 0.00 0.00 0.00 0.00 0.00 0.00 0.00 0.00 0.00 0.00 0.00 0.00 0.00 0.00 0.00 0.02 0.08 0.12 0.14 0.16 0.19 0.26 0.28 0.25 0.21 0.19 0.16 0.11 0.07 0.05 0.03 0.02 0.00 0.00 0.00 0.00 0.00 0.01
0.07 0.06 0.05 0.12 0.04 0.00 0.00 0.00 0.00 0.00 0.00 0.00 0.00 0.00 0.00 0.00 0.00 0.00 0.00 0.00 0.00 0.00 0.00 0.00 0.00 0.00 0.00 0.00 0.01 0.03 0.07 0.09 0.09 0.09 0.09 0.09 0.08 0.07 0.07 0.06 0.04 0.01 0.00 0.00 0.00 0.00 0.00 0.00 0.00
0.04 0.04 0.06 0.11 0.18 0.03 0.00 0.00 0.00 0.00 0.00 0.00 0.00 0.00 0.00 0.00 0.00 0.00 0.00 0.00 0.00 0.00 0.00 0.00 0.00 0.00 0.00 0.00 0.00 0.00 0.00 0.00 0.02 0.03 0.04 0.05 0.04 0.03 0.02 0.01 0.00 0.00 0.00 0.00 0.00 0.00 0.00 0.00 0.00
0.06 0.06 0.03 0.03 0.01 0.00 0.00 0.00 0.00 0.00 0.00 0.00 0.00 0.00 0.00 0.00 0.00 0.00 0.00 0.00 0.00 0.00 0.00 0.00 0.00 0.00 0.00 0.00 0.00 0.00 0.00 0.00 0.00 0.00 0.00 0.01 0.02 0.02 0.01 0.00 0.00 0.00 0.00 0.00 0.00 0.00 0.00 0.00 0.00
0.10 0.09 0.13 0.07 0.02 0.00 0.00 0.00 0.00 0.00 0.00 0.00 0.00 0.00 0.00 0.00 0.00 0.00 0.00 0.00 0.00 0.00 0.00 0.00 0.01 0.00 0.00 0.00 0.01 0.01 0.01 0.00 0.00 0.00 0.00 0.00 0.00 0.00 0.00 0.00 0.00 0.00 0.00 0.00 0.00 0.00 0.00 0.00 0.00

GFSSGP_prec_precacc24_105.txt.gz
Total_Precipitation_Accumulation
0.26 0.48 0.49 0.21 0.07 0.05 0.00 0.00 0.00 0.01 0.04 0.03 0.01 0.01 0.15 0.11 0.01 0.01 0.01 0.00 0.00 0.00 0.00 0.01 0.02 0.02 0.03 0.03 0.03 0.02 0.03 0.06 0.06 0.10 0.09 0.13 0.11 0.04 0.01 0.00 0.00 0.00 0.01 0.00 0.00 0.00 0.00 0.00 0.00
0.53 0.62 0.52 0.20 0.07 0.05 0.00 0.00 0.00 0.02 0.01 0.04 0.02 0.04 0.14 0.11 0.01 0.02 0.03 0.01 0.00 0.00 0.00 0.01 0.03 0.02 0.03 0.03 0.02 0.01 0.03 0.07 0.07 0.11 0.15 0.18 0.03 0.01 0.00 0.00 0.00 0.00 0.00 0.00 0.00 0.00 0.00 0.00 0.00
0.64 0.72 0.51 0.35 0.08 0.02 0.00 0.00 0.00 0.00 0.01 0.02 0.03 0.04 0.16 0.10 0.04 0.02 0.01 0.02 0.00 0.00 0.00 0.01 0.03 0.02 0.03 0.02 0.01 0.01 0.03 0.10 0.11 0.13 0.14 0.06 0.02 0.01 0.00 0.00 0.00 0.00 0.00 0.00 0.00 0.00 0.00 0.00 0.00
0.78 1.04 1.08 0.39 0.20 0.01 0.00 0.00 0.00 0.00 0.03 0.04 0.10 0.15 0.13 0.14 0.07 0.04 0.02 0.03 0.00 0.00 0.00 0.02 0.04 0.03 0.02 0.01 0.00 0.02 0.03 0.04 0.06 0.08 0.04 0.02 0.03 0.02 0.00 0.00 0.00 0.00 0.00 0.00 0.00 0.00 0.00 0.00 0.00
0.75 1.50 0.97 0.57 0.15 0.01 0.00 0.00 0.00 0.00 0.02 0.07 0.14 0.23 0.25 0.17 0.21 0.05 0.02 0.01 0.00 0.01 0.01 0.03 0.06 0.03 0.01 0.00 0.01 0.03 0.03 0.01 0.01 0.01 0.01 0.03 0.02 0.01 0.00 0.00 0.00 0.00 0.00 0.00 0.00 0.00 0.00 0.00 0.00
1.11 1.25 1.17 0.51 0.14 0.00 0.00 0.00 0.00 0.00 0.00 0.02 0.14 0.35 0.46 0.33 0.39 0.20 0.03 0.01 0.00 0.00 0.02 0.06 0.08 0.05 0.01 0.00 0.02 0.03 0.01 0.01 0.00 0.01 0.01 0.02 0.03 0.01 0.00 0.00 0.00 0.00 0.00 0.00 0.00 0.00 0.00 0.00 0.00
1.20 0.84 1.17 0.46 0.03 0.00 0.00 0.00 0.00 0.00 0.00 0.01 0.11 0.42 0.41 0.58 0.57 0.32 0.07 0.02 0.01 0.01 0.02 0.07 0.08 0.05 0.01 0.01 0.02 0.01 0.01 0.01 0.01 0.01 0.01 0.02 0.02 0.01 0.00 0.00 0.00 0.00 0.00 0.00 0.00 0.00 0.00 0.00 0.00
0.91 1.20 0.39 0.48 0.06 0.01 0.00 0.00 0.00 0.00 0.00 0.01 0.09 0.35 0.64 0.74 0.76 0.46 0.17 0.05 0.01 0.04 0.04 0.04 0.05 0.04 0.01 0.02 0.02 0.01 0.00 0.00 0.01 0.01 0.01 0.00 0.00 0.00 0.00 0.00 0.00 0.00 0.00 0.00 0.00 0.00 0.00 0.00 0.00
0.91 1.33 0.45 0.18 0.16 0.01 0.00 0.00 0.00 0.00 0.01 0.01 0.04 0.16 0.46 0.86 0.99 0.79 0.30 0.14 0.05 0.07 0.04 0.04 0.02 0.01 0.01 0.02 0.02 0.01 0.00 0.01 0.00 0.00 0.00 0.00 0.00 0.00 0.00 0.00 0.00 0.00 0.00 0.00 0.00 0.00 0.00 0.00 0.00
1.09 0.95 0.37 0.09 0.10 0.02 0.00 0.00 0.00 0.00 0.01 0.12 0.16 0.11 0.30 0.78 1.02 0.84 0.58 0.19 0.07 0.07 0.09 0.04 0.03 0.02 0.02 0.01 0.01 0.01 0.00 0.00 0.00 0.00 0.00 0.00 0.00 0.00 0.00 0.00 0.00 0.00 0.00 0.00 0.00 0.00 0.00 0.00 0.00
1.14 0.62 0.47 0.28 0.14 0.09 0.02 0.00 0.00 0.00 0.04 0.02 0.05 0.09 0.20 0.67 1.40 0.93 0.72 0.51 0.23 0.07 0.08 0.05 0.04 0.02 0.01 0.00 0.01 0.01 0.01 0.00 0.00 0.00 0.00 0.00 0.00 0.00 0.00 0.00 0.00 0.00 0.00 0.00 0.00 0.00 0.00 0.00 0.00
1.27 0.76 0.70 0.53 0.37 0.20 0.05 0.01 0.01 0.01 0.00 0.00 0.14 0.25 0.24 0.31 1.18 0.97 0.76 0.78 0.40 0.11 0.04 0.03 0.03 0.03 0.02 0.00 0.00 0.00 0.00 0.00 0.00 0.00 0.00 0.00 0.00 0.00 0.00 0.00 0.00 0.00 0.00 0.00 0.00 0.00 0.00 0.00 0.00
1.34 1.15 0.64 0.54 0.30 0.17 0.05 0.02 0.03 0.01 0.01 0.15 0.18 0.13 0.19 0.37 0.58 0.69 0.63 0.61 0.56 0.17 0.03 0.02 0.01 0.02 0.03 0.01 0.00 0.00 0.00 0.00 0.00 0.00 0.00 0.00 0.00 0.00 0.00 0.00 0.00 0.00 0.00 0.00 0.00 0.00 0.00 0.00 0.00
1.11 1.50 0.87 0.68 0.51 0.14 0.06 0.07 0.02 0.04 0.09 0.30 0.26 0.19 0.22 0.30 0.33 0.32 0.34 0.29 0.54 0.51 0.32 0.13 0.05 0.01 0.02 0.02 0.01 0.00 0.00 0.00 0.00 0.00 0.00 0.00 0.00 0.00 0.00 0.00 0.00 0.00 0.00 0.00 0.00 0.00 0.00 0.00 0.00
0.67 1.58 1.28 0.77 0.74 0.24 0.08 0.09 0.04 0.03 0.14 0.33 0.40 0.41 0.44 0.36 0.37 0.32 0.26 0.19 0.36 0.45 0.39 0.38 0.23 0.04 0.01 0.01 0.03 0.01 0.01 0.00 0.00 0.00 0.00 0.00 0.00 0.00 0.00 0.00 0.00 0.00 0.00 0.00 0.00 0.00 0.00 0.00 0.00
0.27 1.19 1.61 0.93 0.69 0.47 0.24 0.07 0.04 0.03 0.07 0.14 0.28 0.37 0.40 0.30 0.25 0.26 0.28 0.29 0.24 0.28 0.47 0.46 0.29 0.12 0.04 0.03 0.03 0.01 0.00 0.00 0.00 0.00 0.00 0.00 0.00 0.00 0.00 0.00 0.00 0.00 0.00 0.00 0.00 0.00 0.00 0.00 0.00
0.14 0.45 0.95 1.08 0.73 0.63 0.32 0.15 0.02 0.03 0.01 0.05 0.11 0.16 0.31 0.48 0.37 0.22 0.22 0.29 0.26 0.24 0.39 0.59 0.46 0.21 0.10 0.22 0.19 0.08 0.01 0.00 0.00 0.00 0.00 0.00 0.00 0.00 0.00 0.00 0.00 0.00 0.00 0.00 0.00 0.00 0.00 0.00 0.00
0.03 0.08 0.22 0.54 0.69 0.55 0.43 0.22 0.08 0.02 0.01 0.01 0.02 0.05 0.12 0.20 0.34 0.37 0.36 0.28 0.32 0.37 0.42 0.64 0.69 0.64 0.48 0.55 0.54 0.21 0.05 0.01 0.00 0.00 0.01 0.01 0.00 0.00 0.00 0.00 0.00 0.00 0.00 0.00 0.00 0.00 0.00 0.00 0.00
0.01 0.02 0.06 0.14 0.24 0.42 0.46 0.26 0.17 0.03 0.00 0.00 0.00 0.01 0.03 0.09 0.16 0.27 0.37 0.41 0.41 0.37 0.41 0.51 0.40 0.55 0.82 0.86 0.72 0.44 0.12 0.13 0.05 0.03 0.02 0.03 0.02 0.00 0.00 0.00 0.00 0.00 0.00 0.00 0.00 0.00 0.00 0.00 0.02
0.01 0.00 0.02 0.07 0.13 0.17 0.25 0.11 0.19 0.12 0.00 0.00 0.00 0.00 0.00 0.01 0.03 0.05 0.16 0.30 0.26 0.36 0.58 0.62 0.40 0.40 0.46 0.58 0.82 0.85 0.64 0.55 0.57 0.48 0.42 0.46 0.42 0.27 0.14 0.11 0.11 0.07 0.05 0.07 0.07 0.06 0.04 0.12 0.09
0.01 0.00 0.01 0.02 0.07 0.07 0.09 0.03 0.02 0.07 0.02 0.00 0.00 0.00 0.00 0.00 0.00 0.01 0.03 0.09 0.25 0.27 0.26 0.37 0.46 0.62 0.50 0.59 1.04 1.34 1.37 0.91 0.76 0.71 0.81 0.72 0.58 0.64 0.63 0.56 0.43 0.29 0.17 0.14 0.15 0.16 0.22 0.19 0.12
0.02 0.01 0.01 0.02 0.02 0.03 0.02 0.03 0.01 0.01 0.02 0.01 0.00 0.00 0.00 0.00 0.00 0.00 0.01 0.01 0.02 0.11 0.20 0.23 0.38 0.49 0.56 0.79 0.92 0.90 0.59 0.74 0.87 0.88 1.05 0.74 0.47 0.45 0.43 0.43 0.47 0.50 0.48 0.42 0.33 0.29 0.27 0.17 0.12
0.01 0.00 0.01 0.02 0.01 0.01 0.00 0.02 0.02 0.00 0.00 0.00 0.00 0.00 0.00 0.00 0.00 0.00 0.00 0.00 0.00 0.02 0.02 0.06 0.26 0.38 0.53 0.64 0.74 0.74 0.46 0.43 0.59 0.53 0.51 0.29 0.17 0.20 0.32 0.41 0.57 0.64 0.55 0.38 0.28 0.26 0.32 0.23 0.12
0.01 0.02 0.02 0.03 0.05 0.05 0.00 0.00 0.00 0.01 0.00 0.00 0.00 0.00 0.00 0.00 0.00 0.00 0.00 0.00 0.00 0.00 0.00 0.01 0.07 0.18 0.29 0.49 0.38 0.49 0.46 0.50 0.39 0.36 0.37 0.48 0.45 0.42 0.50 0.55 0.55 0.49 0.47 0.54 0.62 0.63 0.44 0.14 0.04
0.01 0.07 0.11 0.13 0.26 0.07 0.00 0.00 0.00 0.00 0.00 0.00 0.00 0.00 0.00 0.00 0.00 0.00 0.00 0.00 0.00 0.00 0.00 0.00 0.00 0.02 0.14 0.31 0.29 0.32 0.39 0.36 0.30 0.34 0.39 0.43 0.38 0.31 0.24 0.24 0.26 0.31 0.31 0.27 0.17 0.08 0.04 0.02 0.02
0.04 0.11 0.11 0.02 0.02 0.02 0.00 0.00 0.00 0.00 0.00 0.00 0.00 0.00 0.00 0.00 0.00 0.00 0.00 0.00 0.00 0.00 0.00 0.00 0.00 0.00 0.02 0.08 0.15 0.16 0.21 0.21 0.27 0.29 0.28 0.24 0.19 0.16 0.11 0.08 0.06 0.05 0.03 0.01 0.00 0.00 0.00 0.00 0.00
0.10 0.10 0.06 0.13 0.04 0.00 0.00 0.00 0.00 0.00 0.00 0.00 0.00 0.00 0.00 0.00 0.00 0.00 0.00 0.00 0.00 0.00 0.00 0.00 0.00 0.00 0.00 0.00 0.01 0.03 0.08 0.10 0.09 0.09 0.09 0.09 0.08 0.07 0.07 0.07 0.04 0.02 0.00 0.00 0.00 0.00 0.00 0.00 0.00
0.08 0.09 0.12 0.15 0.20 0.04 0.00 0.00 0.00 0.00 0.00 0.00 0.00 0.00 0.00 0.00 0.00 0.00 0.00 0.00 0.00 0.00 0.00 0.00 0.00 0.00 0.00 0.00 0.00 0.00 0.00 0.00 0.02 0.03 0.04 0.05 0.04 0.03 0.02 0.01 0.01 0.00 0.00 0.00 0.00 0.00 0.00 0.00 0.00
0.09 0.10 0.07 0.07 0.04 0.01 0.00 0.00 0.00 0.00 0.00 0.00 0.00 0.00 0.00 0.00 0.00 0.00 0.00 0.00 0.00 0.00 0.00 0.00 0.00 0.00 0.00 0.00 0.00 0.00 0.00 0.00 0.00 0.00 0.00 0.01 0.02 0.02 0.02 0.01 0.00 0.00 0.00 0.00 0.00 0.00 0.00 0.00 0.00
0.13 0.17 0.31 0.16 0.04 0.00 0.00 0.00 0.00 0.00 0.00 0.00 0.00 0.00 0.00 0.00 0.00 0.00 0.00 0.00 0.00 0.00 0.00 0.00 0.01 0.00 0.00 0.00 0.01 0.01 0.01 0.00 0.00 0.00 0.00 0.00 0.00 0.00 0.00 0.00 0.00 0.00 0.00 0.00 0.00 0.00 0.00 0.00 0.00

GFSSGP_prec_precacc24_108.txt.gz
Total_Precipitation_Accumulation
0.26 0.49 0.61 0.42 0.16 0.10 0.00 0.00 0.00 0.01 0.04 0.05 0.03 0.02 0.15 0.11 0.01 0.01 0.01 0.00 0.00 0.00 0.01 0.01 0.02 0.02 0.02 0.03 0.02 0.02 0.03 0.06 0.06 0.11 0.13 0.17 0.13 0.04 0.01 0.00 0.00 0.01 0.01 0.01 0.01 0.01 0.01 0.00 0.00
0.53 0.65 0.69 0.46 0.17 0.08 0.00 0.00 0.00 0.02 0.01 0.04 0.06 0.06 0.15 0.11 0.01 0.02 0.03 0.01 0.00 0.00 0.01 0.01 0.03 0.01 0.02 0.03 0.01 0.01 0.03 0.07 0.08 0.14 0.20 0.23 0.03 0.00 0.00 0.00 0.00 0.00 0.00 0.00 0.00 0.00 0.00 0.00 0.00
0.67 0.78 0.74 0.61 0.22 0.04 0.00 0.00 0.00 0.00 0.01 0.02 0.05 0.06 0.16 0.10 0.04 0.02 0.02 0.03 0.00 0.00 0.00 0.01 0.03 0.02 0.02 0.02 0.01 0.02 0.04 0.11 0.13 0.20 0.25 0.09 0.01 0.00 0.00 0.00 0.00 0.00 0.00 0.00 0.00 0.00 0.00 0.00 0.00
0.85 1.14 1.39 0.64 0.36 0.03 0.00 0.00 0.00 0.00 0.03 0.04 0.10 0.18 0.14 0.14 0.07 0.04 0.02 0.03 0.01 0.01 0.01 0.02 0.03 0.02 0.02 0.01 0.01 0.03 0.04 0.05 0.12 0.16 0.13 0.04 0.02 0.00 0.00 0.00 0.00 0.00 0.01 0.01 0.00 0.00 0.00 0.00 0.00
0.86 1.62 1.17 0.84 0.31 0.07 0.00 0.00 0.00 0.00 0.02 0.07 0.15 0.27 0.25 0.17 0.22 0.05 0.02 0.02 0.01 0.01 0.01 0.03 0.04 0.03 0.01 0.00 0.02 0.04 0.04 0.04 0.08 0.08 0.03 0.03 0.02 0.00 0.00 0.00 0.00 0.00 0.01 0.01 0.00 0.00 0.00 0.00 0.00
1.25 1.39 1.36 0.72 0.25 0.03 0.01 0.00 0.00 0.00 0.00 0.02 0.14 0.39 0.50 0.35 0.40 0.20 0.04 0.01 0.01 0.01 0.03 0.05 0.06 0.04 0.01 0.01 0.02 0.03 0.03 0.04 0.04 0.02 0.02 0.02 0.02 0.00 0.00 0.00 0.00 0.00 0.01 0.01 0.00 0.00 0.00 0.00 0.00
1.23 0.92 1.33 0.56 0.19 0.01 0.02 0.00 0.00 0.01 0.00 0.01 0.11 0.44 0.50 0.64 0.63 0.33 0.07 0.02 0.02 0.02 0.03 0.06 0.07 0.04 0.01 0.01 0.02 0.02 0.01 0.02 0.01 0.01 0.01 0.02 0.02 0.00 0.00 0.00 0.00 0.00 0.00 0.00 0.00 0.00 0.00 0.00 0.00
0.94 1.29 0.49 0.64 0.13 0.07 0.02 0.00 0.00 0.02 0.01 0.01 0.09 0.35 0.69 0.88 0.95 0.48 0.16 0.06 0.03 0.05 0.05 0.04 0.04 0.02 0.01 0.02 0.02 0.01 0.00 0.00 0.01 0.01 0.00 0.00 0.00 0.00 0.00 0.00 0.00 0.00 0.00 0.00 0.00 0.00 0.00 0.00 0.00
0.97 1.41 0.54 0.26 0.23 0.04 0.01 0.02 0.00 0.01 0.03 0.01 0.04 0.16 0.47 1.26 1.26 0.86 0.31 0.16 0.07 0.09 0.05 0.04 0.01 0.00 0.01 0.02 0.02 0.01 0.00 0.01 0.00 0.00 0.00 0.00 0.00 0.00 0.00 0.00 0.00 0.00 0.00 0.00 0.00 0.00 0.00 0.00 0.00
1.15 0.97 0.51 0.20 0.15 0.09 0.06 0.01 0.01 0.00 0.02 0.12 0.16 0.11 0.31 1.31 2.10 1.04 0.62 0.22 0.09 0.08 0.10 0.04 0.02 0.01 0.01 0.02 0.01 0.01 0.00 0.00 0.00 0.00 0.00 0.00 0.00 0.00 0.00 0.00 0.00 0.00 0.00 0.00 0.00 0.00 0.00 0.00 0.00
1.17 0.62 0.51 0.38 0.26 0.17 0.10 0.02 0.02 0.02 0.06 0.02 0.05 0.09 0.21 0.87 3.48 2.03 0.83 0.55 0.25 0.09 0.09 0.06 0.03 0.01 0.01 0.01 0.01 0.01 0.01 0.00 0.00 0.00 0.00 0.00 0.00 0.00 0.00 0.00 0.00 0.00 0.00 0.00 0.00 0.00 0.00 0.00 0.00
1.29 0.75 0.71 0.57 0.53 0.30 0.09 0.03 0.02 0.03 0.00 0.00 0.14 0.25 0.25 0.36 3.07 3.58 1.79 0.95 0.48 0.17 0.06 0.03 0.03 0.03 0.01 0.01 0.01 0.01 0.00 0.00 0.00 0.00 0.00 0.00 0.00 0.00 0.00 0.00 0.00 0.00 0.00 0.00 0.00 0.00 0.00 0.00 0.00
1.33 1.13 0.64 0.62 0.49 0.33 0.07 0.06 0.04 0.03 0.02 0.16 0.18 0.13 0.20 0.39 1.02 2.48 1.85 1.33 0.75 0.25 0.08 0.03 0.01 0.02 0.02 0.01 0.01 0.01 0.01 0.00 0.00 0.00 0.00 0.00 0.00 0.00 0.00 0.00 0.00 0.00 0.00 0.00 0.00 0.00 0.00 0.00 0.00
1.11 1.49 0.83 0.68 0.59 0.22 0.09 0.08 0.03 0.05 0.12 0.35 0.27 0.19 0.25 0.31 0.39 0.97 0.91 0.96 0.83 0.55 0.34 0.14 0.05 0.01 0.02 0.02 0.01 0.00 0.00 0.00 0.00 0.00 0.00 0.00 0.00 0.00 0.00 0.00 0.00 0.00 0.00 0.00 0.00 0.00 0.00 0.00 0.00
0.67 1.57 1.25 0.76 0.80 0.31 0.14 0.12 0.06 0.03 0.15 0.42 0.49 0.44 0.51 0.40 0.37 0.50 0.45 0.52 0.65 0.47 0.44 0.40 0.23 0.04 0.01 0.01 0.02 0.00 0.01 0.00 0.00 0.00 0.00 0.00 0.00 0.00 0.00 0.00 0.00 0.00 0.00 0.00 0.00 0.00 0.00 0.00 0.00
0.25 1.19 1.62 0.94 0.91 0.67 0.32 0.10 0.04 0.03 0.09 0.23 0.41 0.49 0.55 0.39 0.30 0.42 0.44 0.45 0.44 0.42 0.48 0.49 0.30 0.12 0.04 0.03 0.03 0.01 0.00 0.00 0.00 0.00 0.00 0.00 0.00 0.00 0.00 0.00 0.00 0.00 0.00 0.00 0.00 0.00 0.00 0.00 0.00
0.11 0.45 0.95 1.08 0.81 0.87 0.38 0.16 0.02 0.03 0.02 0.10 0.19 0.30 0.47 0.60 0.45 0.28 0.34 0.47 0.43 0.42 0.47 0.60 0.46 0.21 0.10 0.21 0.18 0.08 0.01 0.00 0.00 0.01 0.00 0.00 0.00 0.00 0.00 0.00 0.00 0.00 0.00 0.00 0.00 0.00 0.00 0.00 0.00
0.02 0.08 0.22 0.54 0.71 0.67 0.50 0.23 0.09 0.02 0.02 0.02 0.06 0.15 0.23 0.30 0.45 0.46 0.47 0.50 0.53 0.54 0.56 0.66 0.65 0.64 0.47 0.55 0.54 0.21 0.05 0.01 0.00 0.00 0.01 0.01 0.00 0.00 0.00 0.00 0.00 0.00 0.00 0.00 0.00 0.00 0.00 0.00 0.00
0.00 0.01 0.06 0.15 0.26 0.50 0.51 0.28 0.17 0.03 0.01 0.00 0.02 0.04 0.08 0.16 0.31 0.46 0.51 0.56 0.51 0.43 0.45 0.46 0.31 0.48 0.80 0.87 0.76 0.48 0.13 0.13 0.05 0.03 0.02 0.03 0.02 0.00 0.00 0.00 0.00 0.00 0.00 0.00 0.00 0.00 0.00 0.00 0.02
0.00 0.00 0.02 0.08 0.15 0.21 0.30 0.13 0.19 0.12 0.01 0.00 0.00 0.02 0.03 0.05 0.10 0.15 0.29 0.53 0.40 0.37 0.54 0.54 0.31 0.34 0.41 0.57 0.85 0.93 0.67 0.57 0.62 0.49 0.43 0.50 0.46 0.31 0.16 0.11 0.11 0.07 0.05 0.07 0.07 0.06 0.04 0.16 0.19
0.00 0.00 0.01 0.03 0.08 0.09 0.09 0.06 0.02 0.07 0.02 0.00 0.00 0.00 0.01 0.04 0.04 0.02 0.04 0.20 0.73 0.41 0.30 0.39 0.47 0.62 0.49 0.58 1.02 1.38 1.48 0.93 0.81 0.76 0.88 0.85 0.71 0.82 0.83 0.69 0.45 0.30 0.17 0.14 0.15 0.17 0.27 0.38 0.21
0.02 0.01 0.01 0.02 0.03 0.04 0.02 0.03 0.01 0.01 0.02 0.01 0.00 0.00 0.00 0.01 0.03 0.03 0.02 0.04 0.12 0.31 0.26 0.28 0.48 0.58 0.59 0.84 0.95 0.93 0.70 0.86 0.91 0.96 1.14 0.90 0.61 0.62 0.64 0.66 0.66 0.62 0.52 0.46 0.42 0.36 0.35 0.28 0.22
0.01 0.00 0.01 0.03 0.01 0.01 0.01 0.02 0.02 0.00 0.00 0.00 0.00 0.00 0.00 0.00 0.01 0.02 0.03 0.05 0.12 0.20 0.11 0.12 0.40 0.62 0.76 0.70 0.80 0.87 0.64 0.55 0.77 0.63 0.58 0.40 0.31 0.35 0.47 0.61 0.77 0.82 0.74 0.62 0.53 0.46 0.50 0.44 0.23
0.01 0.02 0.02 0.04 0.06 0.06 0.00 0.00 0.00 0.01 0.00 0.00 0.01 0.00 0.00 0.00 0.00 0.00 0.01 0.02 0.03 0.09 0.03 0.06 0.14 0.27 0.48 0.75 0.55 0.71 0.74 0.93 0.69 0.54 0.49 0.58 0.54 0.53 0.65 0.77 0.79 0.70 0.62 0.63 0.70 0.75 0.57 0.30 0.13
0.01 0.09 0.12 0.14 0.27 0.07 0.00 0.00 0.00 0.00 0.00 0.00 0.00 0.00 0.00 0.00 0.00 0.00 0.00 0.00 0.00 0.01 0.01 0.01 0.00 0.05 0.22 0.47 0.39 0.48 0.55 0.66 0.58 0.50 0.50 0.55 0.55 0.48 0.37 0.41 0.45 0.44 0.38 0.28 0.19 0.14 0.09 0.05 0.02
0.07 0.13 0.12 0.02 0.02 0.02 0.00 0.00 0.00 0.00 0.00 0.00 0.00 0.00 0.00 0.00 0.00 0.00 0.00 0.00 0.00 0.00 0.00 0.00 0.00 0.01 0.03 0.09 0.19 0.30 0.43 0.32 0.34 0.38 0.38 0.33 0.26 0.27 0.23 0.15 0.09 0.06 0.03 0.01 0.01 0.01 0.01 0.00 0.00
0.13 0.13 0.09 0.14 0.04 0.00 0.00 0.00 0.00 0.00 0.00 0.00 0.00 0.00 0.00 0.00 0.00 0.00 0.00 0.00 0.00 0.00 0.00 0.00 0.00 0.00 0.00 0.00 0.02 0.08 0.16 0.13 0.14 0.14 0.14 0.13 0.12 0.11 0.09 0.07 0.04 0.02 0.00 0.00 0.00 0.00 0.00 0.00 0.00
0.12 0.13 0.20 0.20 0.24 0.05 0.00 0.00 0.00 0.00 0.00 0.00 0.00 0.00 0.00 0.00 0.00 0.00 0.00 0.00 0.00 0.00 0.00 0.00 0.00 0.00 0.00 0.00 0.00 0.01 0.02 0.02 0.03 0.04 0.05 0.05 0.05 0.03 0.02 0.01 0.01 0.00 0.00 0.00 0.00 0.00 0.00 0.00 0.00
0.11 0.13 0.13 0.21 0.14 0.02 0.00 0.00 0.00 0.00 0.00 0.00 0.00 0.00 0.00 0.00 0.00 0.00 0.00 0.00 0.00 0.00 0.00 0.00 0.00 0.00 0.00 0.00 0.00 0.00 0.00 0.00 0.00 0.00 0.00 0.01 0.02 0.02 0.02 0.01 0.00 0.00 0.00 0.00 0.00 0.00 0.00 0.00 0.00
0.16 0.23 0.40 0.23 0.09 0.03 0.00 0.00 0.00 0.00 0.00 0.00 0.00 0.00 0.00 0.00 0.00 0.00 0.00 0.00 0.00 0.00 0.00 0.00 0.01 0.00 0.00 0.00 0.01 0.01 0.01 0.00 0.00 0.00 0.00 0.00 0.00 0.00 0.00 0.00 0.00 0.01 0.00 0.00 0.00 0.00 0.00 0.00 0.00

GFSSGP_prec_precacc24_111.txt.gz
Total_Precipitation_Accumulation
0.26 0.49 0.63 0.54 0.28 0.17 0.01 0.00 0.00 0.01 0.04 0.05 0.03 0.02 0.13 0.09 0.01 0.01 0.01 0.00 0.00 0.00 0.01 0.01 0.01 0.01 0.02 0.02 0.02 0.02 0.03 0.06 0.07 0.12 0.13 0.20 0.13 0.04 0.01 0.02 0.01 0.01 0.01 0.02 0.02 0.01 0.02 0.01 0.00
0.53 0.65 0.73 0.54 0.32 0.11 0.01 0.00 0.00 0.02 0.01 0.04 0.06 0.06 0.14 0.11 0.01 0.02 0.03 0.01 0.00 0.00 0.01 0.01 0.02 0.01 0.01 0.03 0.01 0.01 0.04 0.08 0.08 0.14 0.22 0.29 0.03 0.00 0.00 0.01 0.00 0.00 0.01 0.01 0.00 0.00 0.01 0.00 0.00
0.67 0.80 0.84 0.71 0.33 0.07 0.00 0.00 0.00 0.00 0.01 0.02 0.05 0.06 0.17 0.10 0.04 0.02 0.02 0.03 0.00 0.00 0.00 0.01 0.02 0.01 0.02 0.02 0.01 0.02 0.04 0.12 0.14 0.22 0.29 0.12 0.01 0.00 0.00 0.00 0.00 0.01 0.01 0.01 0.00 0.01 0.00 0.00 0.00
0.86 1.19 1.51 0.83 0.42 0.05 0.00 0.00 0.00 0.00 0.03 0.04 0.10 0.18 0.14 0.14 0.07 0.04 0.02 0.03 0.01 0.01 0.01 0.02 0.02 0.02 0.02 0.01 0.01 0.03 0.04 0.07 0.15 0.19 0.16 0.04 0.00 0.00 0.00 0.00 0.00 0.00 0.01 0.01 0.01 0.00 0.00 0.00 0.00
0.89 1.68 1.22 0.93 0.42 0.11 0.00 0.00 0.00 0.00 0.02 0.07 0.15 0.27 0.27 0.18 0.22 0.05 0.02 0.02 0.01 0.02 0.02 0.03 0.04 0.02 0.01 0.00 0.02 0.05 0.04 0.07 0.13 0.14 0.05 0.03 0.00 0.00 0.00 0.00 0.00 0.01 0.01 0.01 0.00 0.00 0.00 0.00 0.00
1.27 1.43 1.41 0.74 0.34 0.10 0.03 0.00 0.00 0.00 0.00 0.02 0.15 0.39 0.56 0.36 0.40 0.21 0.04 0.01 0.01 0.01 0.03 0.04 0.05 0.03 0.01 0.01 0.03 0.05 0.04 0.10 0.14 0.10 0.03 0.01 0.00 0.00 0.00 0.00 0.01 0.01 0.01 0.01 0.00 0.00 0.00 0.00 0.00
1.22 0.96 1.36 0.58 0.21 0.12 0.07 0.01 0.01 0.03 0.00 0.01 0.11 0.43 0.53 0.65 0.62 0.33 0.07 0.02 0.02 0.02 0.03 0.06 0.05 0.04 0.01 0.02 0.03 0.05 0.04 0.08 0.10 0.04 0.01 0.01 0.00 0.00 0.00 0.00 0.01 0.01 0.00 0.00 0.00 0.00 0.00 0.00 0.00
0.94 1.34 0.51 0.67 0.17 0.11 0.07 0.04 0.01 0.04 0.03 0.01 0.09 0.35 0.71 0.90 0.94 0.47 0.16 0.06 0.04 0.06 0.05 0.04 0.03 0.02 0.02 0.03 0.02 0.01 0.01 0.03 0.03 0.01 0.00 0.00 0.00 0.00 0.01 0.01 0.01 0.01 0.00 0.00 0.00 0.00 0.00 0.00 0.00
1.03 1.43 0.55 0.29 0.29 0.09 0.08 0.23 0.02 0.02 0.08 0.02 0.04 0.16 0.47 1.26 1.24 0.86 0.33 0.23 0.12 0.14 0.06 0.04 0.01 0.00 0.02 0.03 0.02 0.01 0.01 0.01 0.00 0.00 0.00 0.00 0.00 0.00 0.00 0.00 0.01 0.02 0.00 0.00 0.00 0.00 0.00 0.00 0.00
1.21 0.98 0.53 0.24 0.33 0.18 0.16 0.31 0.13 0.04 0.05 0.25 0.16 0.13 0.31 1.32 2.08 1.12 0.70 0.30 0.17 0.15 0.12 0.04 0.01 0.00 0.01 0.03 0.02 0.02 0.01 0.01 0.00 0.00 0.00 0.00 0.00 0.00 0.00 0.00 0.01 0.02 0.00 0.00 0.00 0.00 0.00 0.00 0.00
1.18 0.64 0.54 0.43 0.37 0.29 0.16 0.12 0.15 0.12 0.10 0.29 0.14 0.20 0.22 0.87 3.47 2.49 1.41 0.77 0.33 0.15 0.13 0.06 0.02 0.00 0.02 0.02 0.02 0.02 0.01 0.00 0.00 0.00 0.00 0.00 0.00 0.00 0.00 0.00 0.00 0.00 0.00 0.00 0.00 0.00 0.00 0.00 0.00
1.25 0.77 0.76 0.64 0.62 0.39 0.22 0.12 0.09 0.09 0.01 0.11 0.56 0.41 0.25 0.35 3.07 4.15 3.64 2.67 1.10 0.34 0.14 0.06 0.02 0.02 0.01 0.01 0.01 0.01 0.00 0.00 0.00 0.00 0.00 0.00 0.00 0.00 0.00 0.00 0.00 0.00 0.00 0.00 0.00 0.00 0.00 0.00 0.00
1.29 1.11 0.66 0.63 0.54 0.44 0.17 0.14 0.09 0.03 0.03 0.19 0.35 0.33 0.21 0.38 1.01 2.72 2.79 3.03 1.90 0.86 0.23 0.10 0.02 0.02 0.03 0.01 0.01 0.01 0.01 0.00 0.00 0.00 0.00 0.00 0.00 0.00 0.00 0.00 0.00 0.00 0.00 0.00 0.00 0.00 0.00 0.00 0.00
1.12 1.40 0.80 0.66 0.59 0.30 0.18 0.10 0.07 0.07 0.12 0.37 0.30 0.30 0.27 0.31 0.40 1.07 1.48 1.85 1.57 1.22 0.64 0.24 0.07 0.02 0.03 0.02 0.01 0.00 0.00 0.00 0.00 0.00 0.00 0.00 0.00 0.00 0.00 0.00 0.00 0.00 0.00 0.00 0.00 0.00 0.00 0.00 0.00
0.68 1.52 1.18 0.72 0.78 0.31 0.15 0.12 0.07 0.03 0.16 0.43 0.57 0.57 0.56 0.40 0.37 0.57 0.77 0.97 1.07 0.93 0.72 0.53 0.26 0.04 0.02 0.02 0.02 0.01 0.01 0.00 0.00 0.00 0.00 0.00 0.00 0.00 0.00 0.00 0.00 0.00 0.00 0.00 0.00 0.00 0.00 0.00 0.00
0.24 1.16 1.57 0.91 0.90 0.68 0.34 0.10 0.06 0.03 0.10 0.23 0.42 0.61 0.77 0.40 0.29 0.44 0.57 0.63 0.67 0.99 0.69 0.60 0.36 0.12 0.04 0.02 0.02 0.01 0.01 0.01 0.00 0.00 0.00 0.00 0.00 0.00 0.00 0.00 0.00 0.00 0.00 0.00 0.00 0.00 0.00 0.00 0.00
0.08 0.44 0.94 1.06 0.81 0.88 0.39 0.18 0.04 0.04 0.03 0.10 0.19 0.34 0.70 0.66 0.45 0.28 0.37 0.56 0.53 1.03 0.74 0.69 0.50 0.22 0.09 0.16 0.09 0.04 0.01 0.01 0.01 0.01 0.00 0.00 0.00 0.00 0.00 0.00 0.00 0.00 0.00 0.00 0.00 0.00 0.00 0.00 0.00
0.02 0.08 0.22 0.54 0.70 0.68 0.51 0.25 0.12 0.02 0.02 0.02 0.07 0.18 0.33 0.44 0.46 0.46 0.50 0.58 0.59 0.90 1.23 0.71 0.74 0.71 0.47 0.49 0.47 0.14 0.02 0.01 0.00 0.01 0.01 0.01 0.00 0.00 0.00 0.00 0.00 0.00 0.00 0.00 0.00 0.00 0.00 0.00 0.00
0.00 0.01 0.06 0.15 0.26 0.50 0.51 0.28 0.18 0.03 0.02 0.01 0.02 0.11 0.21 0.28 0.40 0.49 0.58 0.66 0.63 0.66 1.14 0.66 0.46 0.58 0.83 0.86 0.75 0.46 0.12 0.12 0.05 0.02 0.02 0.03 0.02 0.00 0.00 0.00 0.00 0.00 0.00 0.00 0.00 0.00 0.00 0.00 0.03
0.00 0.00 0.01 0.08 0.15 0.21 0.30 0.13 0.20 0.12 0.01 0.01 0.00 0.06 0.09 0.15 0.22 0.26 0.41 0.65 0.70 0.57 1.13 0.90 0.78 0.40 0.48 0.59 0.85 0.92 0.65 0.56 0.61 0.47 0.42 0.49 0.46 0.31 0.16 0.11 0.14 0.09 0.06 0.07 0.08 0.06 0.04 0.19 0.31
0.01 0.00 0.01 0.03 0.08 0.09 0.10 0.06 0.02 0.07 0.02 0.00 0.00 0.02 0.03 0.07 0.12 0.16 0.15 0.32 1.14 0.93 0.58 0.63 1.01 0.87 0.55 0.60 0.92 1.25 1.39 0.92 0.83 0.78 0.90 0.87 0.72 0.82 0.83 0.69 0.49 0.36 0.25 0.24 0.18 0.17 0.30 0.47 0.26
0.02 0.01 0.01 0.02 0.03 0.04 0.02 0.03 0.01 0.01 0.03 0.01 0.00 0.00 0.02 0.04 0.07 0.12 0.07 0.06 0.20 0.66 0.56 0.51 0.71 0.86 0.71 0.85 0.94 0.90 0.71 0.86 0.90 0.99 1.29 1.02 0.66 0.64 0.67 0.69 0.73 0.69 0.58 0.58 0.48 0.39 0.40 0.34 0.24
0.01 0.00 0.01 0.03 0.01 0.00 0.01 0.02 0.02 0.00 0.00 0.00 0.00 0.00 0.01 0.04 0.08 0.10 0.08 0.09 0.20 0.23 0.17 0.30 0.57 0.79 0.99 0.93 0.87 0.87 0.64 0.55 0.79 0.64 0.59 0.43 0.33 0.36 0.47 0.62 0.83 0.94 0.88 0.77 0.72 0.69 0.77 0.65 0.30
0.01 0.03 0.03 0.04 0.06 0.05 0.00 0.00 0.00 0.01 0.00 0.00 0.01 0.00 0.00 0.01 0.04 0.04 0.06 0.14 0.13 0.17 0.04 0.09 0.28 0.36 0.58 0.92 0.62 0.73 0.76 0.97 0.80 0.62 0.54 0.60 0.55 0.54 0.66 0.79 0.82 0.77 0.77 0.82 0.99 1.03 0.71 0.48 0.24
0.02 0.12 0.14 0.14 0.26 0.06 0.00 0.00 0.00 0.00 0.00 0.00 0.00 0.00 0.00 0.00 0.00 0.01 0.00 0.01 0.06 0.06 0.03 0.03 0.10 0.19 0.30 0.55 0.48 0.51 0.58 0.72 0.82 0.75 0.61 0.64 0.59 0.49 0.39 0.44 0.56 0.59 0.57 0.48 0.39 0.27 0.19 0.15 0.05
0.09 0.16 0.17 0.05 0.03 0.03 0.00 0.00 0.00 0.00 0.00 0.00 0.00 0.00 0.00 0.00 0.00 0.00 0.00 0.00 0.01 0.01 0.01 0.01 0.04 0.17 0.20 0.19 0.30 0.48 0.61 0.44 0.49 0.50 0.45 0.37 0.28 0.29 0.27 0.17 0.13 0.15 0.16 0.14 0.09 0.08 0.04 0.01 0.01
0.13 0.17 0.14 0.17 0.05 0.01 0.00 0.00 0.00 0.00 0.00 0.00 0.00 0.00 0.00 0.00 0.00 0.00 0.00 0.00 0.00 0.00 0.00 0.01 0.04 0.09 0.07 0.08 0.11 0.23 0.39 0.28 0.27 0.26 0.19 0.19 0.17 0.18 0.16 0.13 0.08 0.05 0.10 0.06 0.03 0.01 0.01 0.01 0.00
0.13 0.17 0.26 0.26 0.28 0.07 0.00 0.00 0.00 0.00 0.00 0.00 0.00 0.00 0.00 0.00 0.00 0.00 0.00 0.00 0.00 0.00 0.00 0.00 0.01 0.00 0.02 0.01 0.05 0.07 0.12 0.05 0.11 0.11 0.11 0.10 0.12 0.10 0.06 0.04 0.03 0.05 0.04 0.01 0.00 0.01 0.01 0.01 0.00
0.12 0.15 0.17 0.40 0.22 0.06 0.03 0.01 0.00 0.00 0.00 0.00 0.00 0.00 0.00 0.00 0.00 0.00 0.00 0.00 0.00 0.00 0.00 0.00 0.00 0.00 0.00 0.00 0.00 0.00 0.02 0.03 0.05 0.05 0.04 0.04 0.07 0.05 0.04 0.02 0.02 0.02 0.02 0.00 0.01 0.00 0.00 0.00 0.00
0.16 0.23 0.40 0.27 0.20 0.05 0.03 0.04 0.00 0.00 0.00 0.00 0.00 0.00 0.00 0.00 0.00 0.00 0.00 0.00 0.00 0.00 0.00 0.00 0.01 0.00 0.00 0.00 0.01 0.01 0.01 0.01 0.01 0.01 0.02 0.01 0.02 0.03 0.02 0.02 0.01 0.02 0.01 0.00 0.00 0.00 0.00 0.00 0.00

GFSSGP_prec_precacc24_114.txt.gz
Total_Precipitation_Accumulation
0.26 0.49 0.63 0.55 0.31 0.20 0.01 0.00 0.00 0.01 0.04 0.05 0.03 0.01 0.12 0.08 0.01 0.00 0.01 0.00 0.00 0.00 0.01 0.01 0.01 0.01 0.01 0.01 0.01 0.01 0.03 0.05 0.07 0.13 0.14 0.21 0.13 0.04 0.02 0.02 0.01 0.01 0.01 0.02 0.02 0.02 0.02 0.01 0.00
0.53 0.65 0.73 0.56 0.34 0.12 0.01 0.00 0.00 0.02 0.01 0.04 0.06 0.05 0.11 0.09 0.01 0.02 0.03 0.01 0.00 0.00 0.01 0.01 0.02 0.01 0.01 0.01 0.01 0.02 0.04 0.08 0.09 0.15 0.23 0.31 0.03 0.00 0.02 0.01 0.00 0.02 0.02 0.01 0.01 0.00 0.01 0.00 0.00
0.67 0.80 0.86 0.74 0.35 0.08 0.00 0.00 0.00 0.00 0.01 0.02 0.05 0.05 0.16 0.09 0.03 0.02 0.02 0.03 0.00 0.00 0.01 0.01 0.02 0.01 0.01 0.01 0.00 0.02 0.05 0.12 0.15 0.24 0.31 0.16 0.01 0.01 0.02 0.00 0.00 0.02 0.01 0.01 0.01 0.01 0.00 0.00 0.00
0.84 1.19 1.54 0.85 0.42 0.05 0.00 0.00 0.00 0.00 0.03 0.04 0.11 0.18 0.14 0.13 0.07 0.03 0.02 0.03 0.01 0.01 0.01 0.02 0.02 0.02 0.01 0.01 0.01 0.03 0.05 0.08 0.16 0.23 0.20 0.05 0.01 0.00 0.00 0.00 0.00 0.01 0.01 0.01 0.01 0.00 0.00 0.00 0.00
0.88 1.68 1.23 0.93 0.43 0.11 0.00 0.00 0.00 0.00 0.02 0.07 0.16 0.27 0.27 0.17 0.20 0.04 0.02 0.02 0.01 0.02 0.02 0.03 0.03 0.02 0.01 0.01 0.02 0.05 0.05 0.08 0.15 0.19 0.10 0.01 0.00 0.00 0.00 0.00 0.00 0.01 0.01 0.01 0.01 0.00 0.00 0.00 0.00
1.18 1.41 1.41 0.74 0.34 0.10 0.03 0.00 0.00 0.00 0.00 0.02 0.15 0.37 0.56 0.36 0.40 0.21 0.05 0.01 0.01 0.01 0.03 0.04 0.04 0.02 0.01 0.01 0.03 0.05 0.05 0.12 0.18 0.17 0.05 0.00 0.00 0.00 0.00 0.00 0.01 0.01 0.01 0.01 0.00 0.00 0.00 0.00 0.00
1.14 0.93 1.36 0.58 0.21 0.12 0.07 0.02 0.03 0.04 0.01 0.01 0.11 0.40 0.59 0.73 0.62 0.33 0.09 0.04 0.02 0.03 0.03 0.05 0.04 0.02 0.01 0.03 0.04 0.05 0.05 0.11 0.16 0.10 0.01 0.01 0.00 0.00 0.00 0.00 0.02 0.01 0.01 0.01 0.00 0.00 0.00 0.00 0.00
0.91 1.34 0.52 0.68 0.17 0.11 0.07 0.04 0.02 0.06 0.06 0.01 0.10 0.40 0.82 1.08 0.98 0.47 0.18 0.08 0.05 0.07 0.05 0.03 0.02 0.01 0.02 0.03 0.04 0.04 0.02 0.06 0.08 0.03 0.00 0.00 0.00 0.00 0.01 0.01 0.01 0.02 0.01 0.00 0.00 0.00 0.00 0.00 0.00
1.02 1.42 0.56 0.30 0.29 0.09 0.08 0.25 0.03 0.03 0.14 0.05 0.06 0.19 0.47 1.35 1.45 0.86 0.32 0.25 0.14 0.16 0.06 0.03 0.00 0.00 0.02 0.04 0.04 0.03 0.02 0.04 0.02 0.00 0.00 0.00 0.00 0.00 0.00 0.00 0.02 0.02 0.01 0.00 0.00 0.00 0.00 0.00 0.00
1.16 0.97 0.53 0.24 0.34 0.23 0.21 0.36 0.16 0.08 0.15 0.35 0.19 0.16 0.48 1.56 2.25 1.22 0.69 0.35 0.24 0.17 0.11 0.03 0.01 0.00 0.02 0.04 0.03 0.04 0.03 0.04 0.01 0.00 0.00 0.00 0.00 0.00 0.00 0.00 0.02 0.02 0.00 0.00 0.00 0.00 0.00 0.00 0.00
1.13 0.65 0.54 0.44 0.40 0.35 0.20 0.14 0.18 0.21 0.16 0.34 0.17 0.30 0.71 1.42 3.61 2.64 1.42 0.86 0.61 0.27 0.14 0.04 0.01 0.00 0.01 0.02 0.03 0.03 0.03 0.02 0.01 0.00 0.00 0.00 0.00 0.00 0.00 0.00 0.01 0.01 0.00 0.00 0.00 0.00 0.00 0.00 0.00
1.19 0.75 0.71 0.67 0.68 0.41 0.21 0.15 0.13 0.15 0.04 0.11 0.57 0.52 0.84 1.02 3.67 4.18 3.67 2.85 1.98 1.22 0.36 0.06 0.01 0.00 0.01 0.02 0.03 0.03 0.02 0.01 0.00 0.00 0.00 0.00 0.00 0.00 0.00 0.00 0.00 0.00 0.00 0.00 0.00 0.00 0.00 0.00 0.00
1.19 1.10 0.62 0.64 0.57 0.43 0.18 0.20 0.13 0.04 0.03 0.19 0.39 0.57 0.62 1.16 1.61 2.93 2.84 3.16 2.53 2.08 1.21 0.22 0.01 0.01 0.02 0.02 0.02 0.01 0.02 0.01 0.00 0.00 0.00 0.00 0.00 0.00 0.00 0.00 0.00 0.00 0.00 0.00 0.00 0.00 0.00 0.00 0.00
1.10 1.34 0.71 0.59 0.58 0.30 0.18 0.10 0.07 0.07 0.12 0.40 0.35 0.55 0.75 0.90 1.15 1.37 1.56 1.89 1.91 2.06 1.87 0.86 0.13 0.02 0.03 0.02 0.00 0.00 0.00 0.00 0.00 0.00 0.00 0.00 0.00 0.00 0.00 0.00 0.00 0.00 0.00 0.00 0.00 0.00 0.00 0.00 0.00
0.66 1.38 1.02 0.61 0.75 0.31 0.15 0.12 0.07 0.03 0.18 0.50 0.63 0.69 1.28 0.90 0.85 0.71 0.82 0.99 1.14 1.45 1.49 1.25 0.41 0.08 0.05 0.02 0.01 0.00 0.00 0.00 0.00 0.00 0.00 0.00 0.00 0.00 0.00 0.00 0.00 0.00 0.00 0.00 0.00 0.00 0.00 0.00 0.00
0.22 1.08 1.38 0.82 0.87 0.65 0.32 0.10 0.06 0.04 0.10 0.31 0.47 0.67 1.21 0.88 0.64 0.54 0.58 0.64 0.73 1.20 1.18 1.33 0.54 0.21 0.11 0.04 0.01 0.01 0.01 0.00 0.00 0.00 0.00 0.00 0.00 0.00 0.00 0.00 0.00 0.00 0.00 0.00 0.00 0.00 0.00 0.00 0.00
0.07 0.43 0.90 0.96 0.75 0.85 0.38 0.18 0.04 0.06 0.06 0.11 0.20 0.37 0.97 0.96 0.61 0.34 0.38 0.56 0.55 1.13 0.98 1.27 0.82 0.30 0.17 0.22 0.09 0.02 0.01 0.00 0.01 0.01 0.00 0.00 0.00 0.00 0.00 0.00 0.00 0.00 0.00 0.00 0.00 0.00 0.00 0.00 0.00
0.04 0.09 0.22 0.52 0.67 0.67 0.49 0.25 0.12 0.03 0.04 0.02 0.07 0.19 0.47 0.66 0.51 0.47 0.50 0.58 0.60 0.92 1.34 1.18 1.21 0.78 0.47 0.52 0.45 0.11 0.02 0.01 0.00 0.01 0.01 0.01 0.00 0.00 0.00 0.00 0.00 0.00 0.00 0.00 0.00 0.00 0.00 0.00 0.00
0.00 0.01 0.06 0.15 0.25 0.48 0.51 0.28 0.18 0.03 0.02 0.01 0.03 0.16 0.33 0.57 0.53 0.50 0.59 0.67 0.64 0.68 1.61 1.15 1.28 0.73 0.79 0.84 0.76 0.44 0.10 0.05 0.02 0.01 0.02 0.03 0.02 0.00 0.00 0.00 0.00 0.00 0.00 0.00 0.00 0.00 0.00 0.00 0.03
0.00 0.00 0.01 0.07 0.15 0.20 0.30 0.13 0.20 0.12 0.01 0.01 0.01 0.12 0.25 0.39 0.32 0.27 0.41 0.66 0.72 0.60 1.45 1.83 1.49 0.78 0.40 0.57 0.76 0.73 0.46 0.40 0.49 0.39 0.37 0.42 0.38 0.27 0.14 0.11 0.14 0.10 0.06 0.07 0.08 0.07 0.04 0.19 0.31
0.00 0.00 0.01 0.02 0.08 0.10 0.10 0.06 0.02 0.07 0.02 0.01 0.00 0.03 0.11 0.16 0.15 0.21 0.20 0.39 1.20 0.98 0.73 1.37 1.99 1.70 0.82 0.67 0.79 0.95 1.12 0.77 0.71 0.62 0.80 0.79 0.69 0.83 0.83 0.69 0.49 0.37 0.26 0.26 0.22 0.22 0.32 0.52 0.28
0.01 0.01 0.00 0.02 0.03 0.05 0.02 0.05 0.01 0.01 0.03 0.02 0.00 0.03 0.08 0.17 0.18 0.17 0.16 0.16 0.37 0.80 0.71 0.76 1.29 1.88 1.38 1.06 0.99 1.00 0.79 0.81 0.77 0.89 1.21 0.97 0.65 0.67 0.73 0.77 0.82 0.80 0.70 0.72 0.66 0.53 0.51 0.48 0.36
0.00 0.00 0.01 0.03 0.01 0.00 0.01 0.02 0.05 0.01 0.01 0.00 0.00 0.01 0.09 0.13 0.12 0.12 0.11 0.13 0.29 0.27 0.25 0.37 0.80 1.17 1.53 1.36 1.20 1.01 0.73 0.54 0.80 0.58 0.56 0.42 0.34 0.36 0.49 0.67 0.89 0.99 0.92 0.81 0.83 0.78 0.87 0.94 0.66
0.00 0.03 0.03 0.04 0.06 0.04 0.00 0.00 0.06 0.01 0.01 0.02 0.01 0.01 0.02 0.08 0.16 0.10 0.08 0.21 0.27 0.21 0.04 0.12 0.37 0.54 0.79 1.23 0.89 0.84 0.79 1.01 0.84 0.63 0.54 0.61 0.57 0.55 0.66 0.79 0.84 0.81 0.80 0.83 1.00 1.07 0.90 0.69 0.47
0.02 0.14 0.16 0.15 0.26 0.07 0.00 0.00 0.00 0.00 0.00 0.02 0.04 0.03 0.00 0.02 0.04 0.06 0.04 0.07 0.16 0.11 0.03 0.03 0.11 0.24 0.40 0.71 0.66 0.59 0.63 0.75 0.83 0.75 0.61 0.65 0.61 0.51 0.39 0.44 0.57 0.60 0.58 0.51 0.42 0.30 0.26 0.27 0.20
0.10 0.20 0.23 0.18 0.08 0.05 0.00 0.01 0.00 0.00 0.00 0.00 0.05 0.02 0.00 0.00 0.00 0.02 0.04 0.09 0.15 0.17 0.07 0.01 0.05 0.17 0.21 0.25 0.38 0.52 0.64 0.47 0.49 0.50 0.45 0.38 0.31 0.32 0.31 0.19 0.16 0.16 0.17 0.16 0.10 0.13 0.09 0.05 0.04
0.13 0.19 0.17 0.21 0.06 0.01 0.01 0.00 0.00 0.00 0.00 0.00 0.01 0.00 0.00 0.00 0.00 0.00 0.00 0.00 0.01 0.04 0.06 0.07 0.05 0.12 0.09 0.12 0.26 0.35 0.43 0.34 0.34 0.38 0.26 0.20 0.18 0.19 0.19 0.17 0.13 0.08 0.16 0.17 0.12 0.08 0.08 0.05 0.03
0.14 0.17 0.28 0.29 0.30 0.08 0.01 0.00 0.00 0.00 0.00 0.00 0.00 0.00 0.00 0.00 0.00 0.00 0.00 0.00 0.00 0.00 0.02 0.10 0.14 0.14 0.14 0.15 0.13 0.16 0.23 0.11 0.29 0.31 0.24 0.23 0.16 0.17 0.16 0.12 0.14 0.14 0.15 0.20 0.18 0.11 0.07 0.05 0.03
0.13 0.15 0.17 0.45 0.24 0.16 0.17 0.04 0.00 0.00 0.00 0.00 0.00 0.00 0.00 0.00 0.00 0.00 0.00 0.00 0.00 0.00 0.00 0.00 0.02 0.05 0.07 0.16 0.10 0.12 0.13 0.05 0.13 0.17 0.10 0.15 0.23 0.11 0.11 0.16 0.15 0.10 0.10 0.09 0.09 0.05 0.04 0.01 0.01
0.16 0.23 0.38 0.25 0.23 0.07 0.16 0.19 0.00 0.00 0.00 0.00 0.00 0.00 0.00 0.00 0.00 0.00 0.00 0.00 0.00 0.00 0.00 0.00 0.00 0.00 0.00 0.11 0.05 0.05 0.04 0.02 0.07 0.06 0.04 0.03 0.06 0.07 0.04 0.04 0.06 0.07 0.07 0.04 0.03 0.01 0.01 0.01 0.01

GFSSGP_prec_precacc24_117.txt.gz
Total_Precipitation_Accumulation
0.26 0.49 0.63 0.56 0.32 0.20 0.01 0.00 0.00 0.01 0.04 0.05 0.03 0.01 0.01 0.01 0.01 0.01 0.01 0.00 0.00 0.00 0.01 0.01 0.01 0.01 0.01 0.00 0.01 0.00 0.02 0.05 0.07 0.14 0.16 0.21 0.14 0.04 0.03 0.02 0.02 0.02 0.01 0.03 0.03 0.02 0.02 0.01 0.01
0.53 0.65 0.74 0.56 0.35 0.12 0.01 0.00 0.00 0.02 0.01 0.04 0.05 0.03 0.03 0.01 0.00 0.02 0.03 0.01 0.00 0.00 0.01 0.01 0.02 0.01 0.00 0.01 0.01 0.01 0.04 0.08 0.09 0.15 0.25 0.32 0.05 0.01 0.03 0.01 0.02 0.03 0.02 0.02 0.01 0.00 0.01 0.00 0.00
0.66 0.80 0.86 0.75 0.35 0.08 0.00 0.00 0.00 0.00 0.01 0.02 0.05 0.04 0.04 0.01 0.00 0.01 0.02 0.03 0.00 0.00 0.01 0.01 0.02 0.01 0.01 0.01 0.01 0.02 0.05 0.12 0.15 0.24 0.32 0.17 0.04 0.03 0.02 0.00 0.02 0.03 0.01 0.01 0.01 0.01 0.00 0.00 0.00
0.76 1.07 1.53 0.85 0.42 0.05 0.00 0.00 0.00 0.00 0.03 0.04 0.11 0.16 0.07 0.02 0.01 0.01 0.02 0.03 0.01 0.01 0.01 0.02 0.02 0.01 0.01 0.01 0.01 0.04 0.05 0.08 0.16 0.23 0.22 0.06 0.05 0.03 0.00 0.00 0.01 0.01 0.01 0.01 0.01 0.00 0.00 0.00 0.00
0.72 1.57 1.22 0.93 0.43 0.11 0.00 0.00 0.00 0.00 0.02 0.07 0.16 0.24 0.16 0.11 0.07 0.03 0.03 0.02 0.01 0.02 0.02 0.03 0.03 0.01 0.01 0.01 0.02 0.05 0.05 0.08 0.15 0.20 0.13 0.04 0.05 0.01 0.00 0.00 0.00 0.01 0.01 0.01 0.01 0.00 0.00 0.00 0.00
1.00 1.31 1.41 0.74 0.34 0.10 0.03 0.00 0.00 0.00 0.00 0.02 0.14 0.30 0.46 0.41 0.31 0.18 0.04 0.01 0.01 0.01 0.03 0.04 0.04 0.01 0.01 0.01 0.03 0.05 0.06 0.12 0.19 0.19 0.09 0.04 0.03 0.00 0.00 0.00 0.01 0.01 0.01 0.02 0.00 0.00 0.00 0.00 0.00
1.00 0.87 1.36 0.58 0.21 0.12 0.07 0.02 0.03 0.04 0.01 0.01 0.11 0.36 0.58 0.80 0.74 0.43 0.12 0.05 0.03 0.03 0.03 0.05 0.03 0.01 0.01 0.02 0.04 0.05 0.06 0.11 0.18 0.14 0.04 0.02 0.00 0.00 0.00 0.00 0.02 0.01 0.02 0.01 0.00 0.00 0.00 0.00 0.00
0.82 1.29 0.52 0.68 0.17 0.11 0.07 0.04 0.02 0.06 0.06 0.01 0.09 0.38 0.81 1.25 1.17 0.72 0.45 0.16 0.08 0.07 0.05 0.03 0.02 0.01 0.03 0.03 0.04 0.04 0.03 0.07 0.11 0.07 0.01 0.00 0.00 0.00 0.01 0.01 0.02 0.03 0.01 0.00 0.00 0.00 0.00 0.00 0.00
0.93 1.43 0.57 0.30 0.28 0.09 0.08 0.25 0.03 0.03 0.14 0.05 0.06 0.18 0.47 1.45 1.85 1.19 0.74 0.47 0.22 0.16 0.06 0.03 0.00 0.00 0.03 0.04 0.04 0.04 0.03 0.04 0.03 0.00 0.00 0.00 0.00 0.00 0.00 0.01 0.02 0.03 0.01 0.00 0.00 0.00 0.00 0.00 0.00
1.08 0.97 0.54 0.22 0.31 0.22 0.21 0.38 0.17 0.09 0.15 0.35 0.19 0.16 0.49 1.56 2.44 1.72 1.03 0.56 0.31 0.19 0.11 0.03 0.00 0.01 0.02 0.04 0.04 0.04 0.03 0.04 0.02 0.00 0.00 0.00 0.00 0.00 0.00 0.01 0.03 0.03 0.00 0.00 0.00 0.00 0.00 0.00 0.00
1.06 0.62 0.49 0.37 0.39 0.35 0.22 0.16 0.21 0.25 0.17 0.34 0.18 0.31 0.73 1.44 3.66 3.08 2.07 1.07 0.78 0.37 0.16 0.06 0.01 0.01 0.02 0.02 0.03 0.04 0.03 0.03 0.01 0.00 0.00 0.00 0.00 0.00 0.00 0.01 0.02 0.01 0.00 0.00 0.00 0.00 0.00 0.00 0.00
1.08 0.73 0.59 0.58 0.65 0.43 0.23 0.16 0.14 0.15 0.04 0.11 0.58 0.55 0.85 1.04 3.74 4.43 4.70 3.61 2.12 1.33 0.40 0.07 0.03 0.03 0.02 0.02 0.03 0.03 0.02 0.02 0.00 0.00 0.00 0.00 0.00 0.00 0.00 0.00 0.00 0.00 0.00 0.00 0.00 0.00 0.00 0.00 0.00
1.13 1.08 0.56 0.57 0.50 0.43 0.16 0.19 0.12 0.04 0.03 0.19 0.39 0.60 0.63 1.19 1.80 3.53 3.62 4.45 3.07 2.20 1.41 0.31 0.05 0.09 0.06 0.03 0.02 0.02 0.02 0.02 0.00 0.00 0.00 0.00 0.00 0.00 0.00 0.00 0.00 0.00 0.00 0.00 0.00 0.00 0.00 0.00 0.00
1.07 1.32 0.68 0.56 0.47 0.28 0.15 0.04 0.07 0.07 0.12 0.40 0.35 0.55 0.77 0.91 1.23 2.01 2.25 2.68 2.76 2.28 2.07 1.44 0.19 0.07 0.11 0.06 0.02 0.01 0.01 0.01 0.00 0.00 0.00 0.00 0.00 0.00 0.00 0.00 0.00 0.00 0.00 0.00 0.00 0.00 0.00 0.00 0.00
0.65 1.33 0.94 0.54 0.67 0.24 0.13 0.05 0.04 0.03 0.18 0.50 0.63 0.69 1.29 0.92 0.94 1.51 1.46 1.76 1.67 1.65 1.58 1.69 0.79 0.10 0.11 0.09 0.06 0.04 0.01 0.01 0.00 0.00 0.00 0.00 0.00 0.00 0.00 0.00 0.00 0.00 0.00 0.00 0.00 0.00 0.00 0.00 0.00
0.21 1.00 1.30 0.65 0.78 0.60 0.20 0.06 0.03 0.03 0.10 0.31 0.47 0.67 1.21 0.89 0.69 0.73 1.17 1.55 1.46 1.41 1.24 1.49 0.91 0.35 0.12 0.10 0.04 0.04 0.02 0.01 0.00 0.00 0.00 0.00 0.00 0.00 0.00 0.00 0.00 0.00 0.00 0.00 0.00 0.00 0.00 0.00 0.00
0.07 0.35 0.81 0.88 0.65 0.78 0.33 0.15 0.03 0.06 0.06 0.11 0.20 0.37 0.97 1.01 0.81 0.45 0.52 0.95 1.08 1.37 1.05 1.43 1.21 0.63 0.22 0.24 0.10 0.03 0.02 0.00 0.01 0.00 0.00 0.00 0.00 0.00 0.00 0.00 0.00 0.00 0.00 0.00 0.00 0.00 0.00 0.00 0.00
0.09 0.14 0.23 0.48 0.60 0.61 0.44 0.25 0.12 0.03 0.04 0.02 0.07 0.20 0.51 0.76 0.77 0.62 0.60 0.67 0.71 0.97 1.36 1.27 1.53 1.30 0.74 0.55 0.45 0.11 0.02 0.01 0.00 0.01 0.01 0.01 0.00 0.00 0.00 0.00 0.00 0.00 0.00 0.00 0.00 0.00 0.00 0.00 0.00
0.01 0.01 0.05 0.15 0.24 0.46 0.49 0.28 0.18 0.03 0.02 0.01 0.03 0.16 0.40 0.70 0.66 0.62 0.69 0.76 0.69 0.69 1.61 1.16 1.43 1.24 1.32 1.01 0.79 0.45 0.10 0.05 0.01 0.01 0.00 0.02 0.01 0.00 0.00 0.00 0.00 0.00 0.00 0.00 0.00 0.00 0.00 0.00 0.03
0.00 0.00 0.02 0.09 0.11 0.17 0.27 0.13 0.20 0.12 0.01 0.01 0.01 0.12 0.33 0.49 0.45 0.38 0.49 0.74 0.75 0.61 1.45 1.84 1.63 1.28 0.84 0.95 0.87 0.72 0.38 0.26 0.29 0.19 0.15 0.21 0.20 0.16 0.10 0.09 0.12 0.08 0.06 0.07 0.08 0.06 0.04 0.19 0.31
0.00 0.01 0.01 0.04 0.08 0.08 0.09 0.06 0.02 0.07 0.02 0.01 0.01 0.07 0.16 0.24 0.21 0.29 0.28 0.44 1.26 1.01 0.75 1.38 2.10 2.09 1.08 1.01 0.92 0.99 1.03 0.68 0.56 0.44 0.57 0.52 0.48 0.60 0.60 0.54 0.43 0.36 0.26 0.26 0.25 0.25 0.35 0.53 0.28
0.00 0.01 0.00 0.01 0.03 0.05 0.02 0.05 0.01 0.02 0.03 0.03 0.01 0.10 0.15 0.23 0.32 0.27 0.24 0.18 0.43 0.85 0.76 0.79 1.39 2.29 1.77 1.25 1.11 1.09 0.86 0.80 0.65 0.80 1.14 0.92 0.59 0.61 0.65 0.71 0.78 0.78 0.72 0.75 0.75 0.65 0.68 0.58 0.46
0.00 0.00 0.00 0.02 0.01 0.00 0.01 0.04 0.10 0.02 0.02 0.02 0.02 0.09 0.26 0.22 0.23 0.21 0.18 0.19 0.31 0.31 0.36 0.46 0.91 1.44 2.09 1.69 1.47 1.22 0.85 0.64 0.87 0.57 0.54 0.41 0.34 0.35 0.48 0.66 0.88 0.98 0.93 0.88 0.93 0.91 1.04 1.12 0.86
0.00 0.02 0.03 0.04 0.06 0.04 0.00 0.02 0.10 0.02 0.06 0.09 0.04 0.03 0.15 0.31 0.42 0.26 0.12 0.22 0.28 0.24 0.10 0.18 0.50 0.78 1.31 1.74 1.12 0.97 0.87 1.11 1.02 0.63 0.50 0.60 0.57 0.57 0.66 0.79 0.84 0.81 0.80 0.83 1.02 1.11 0.94 0.78 0.56
0.02 0.13 0.15 0.16 0.27 0.07 0.00 0.00 0.00 0.00 0.01 0.07 0.07 0.05 0.04 0.16 0.28 0.23 0.10 0.08 0.17 0.12 0.05 0.07 0.15 0.32 0.68 1.40 0.94 0.76 0.73 0.79 0.93 0.89 0.73 0.70 0.62 0.54 0.42 0.44 0.57 0.60 0.58 0.51 0.43 0.31 0.26 0.29 0.23
0.11 0.21 0.32 0.41 0.18 0.10 0.00 0.01 0.00 0.00 0.00 0.01 0.18 0.06 0.02 0.00 0.07 0.17 0.16 0.22 0.25 0.21 0.09 0.03 0.06 0.20 0.33 0.66 0.71 0.69 0.78 0.62 0.56 0.55 0.48 0.43 0.33 0.33 0.31 0.19 0.16 0.16 0.17 0.16 0.11 0.14 0.11 0.07 0.08
0.14 0.20 0.17 0.25 0.09 0.07 0.03 0.00 0.00 0.00 0.00 0.00 0.08 0.20 0.02 0.00 0.00 0.02 0.04 0.12 0.17 0.10 0.09 0.09 0.09 0.15 0.10 0.22 0.43 0.45 0.51 0.43 0.45 0.44 0.27 0.20 0.18 0.21 0.19 0.17 0.13 0.08 0.16 0.18 0.14 0.11 0.17 0.16 0.13
0.14 0.17 0.28 0.28 0.29 0.16 0.05 0.01 0.00 0.00 0.00 0.00 0.00 0.04 0.02 0.00 0.00 0.00 0.00 0.00 0.01 0.01 0.05 0.19 0.25 0.23 0.16 0.17 0.18 0.23 0.30 0.16 0.35 0.36 0.27 0.24 0.17 0.18 0.16 0.12 0.15 0.15 0.16 0.21 0.20 0.23 0.23 0.19 0.11
0.13 0.14 0.17 0.45 0.24 0.26 0.27 0.15 0.00 0.00 0.00 0.00 0.00 0.00 0.00 0.00 0.00 0.00 0.00 0.00 0.00 0.00 0.00 0.05 0.19 0.16 0.15 0.26 0.20 0.30 0.27 0.14 0.28 0.32 0.16 0.18 0.28 0.14 0.12 0.20 0.21 0.17 0.16 0.17 0.20 0.17 0.24 0.13 0.05
0.16 0.23 0.36 0.25 0.23 0.10 0.24 0.29 0.00 0.00 0.00 0.00 0.00 0.00 0.00 0.00 0.00 0.00 0.00 0.00 0.00 0.00 0.00 0.00 0.01 0.04 0.04 0.22 0.25 0.29 0.29 0.23 0.24 0.20 0.13 0.08 0.11 0.15 0.10 0.09 0.10 0.16 0.18 0.20 0.16 0.09 0.12 0.12 0.07

GFSSGP_prec_precacc24_120.txt.gz
Total_Precipitation_Accumulation
0.25 0.49 0.63 0.56 0.32 0.21 0.01 0.00 0.00 0.01 0.03 0.05 0.03 0.01 0.00 0.00 0.01 0.01 0.01 0.00 0.00 0.00 0.01 0.00 0.01 0.01 0.00 0.00 0.00 0.00 0.02 0.05 0.07 0.14 0.16 0.22 0.14 0.04 0.02 0.03 0.03 0.01 0.03 0.05 0.04 0.03 0.03 0.01 0.01
0.50 0.65 0.73 0.56 0.35 0.12 0.01 0.00 0.00 0.01 0.01 0.04 0.05 0.03 0.02 0.00 0.00 0.02 0.03 0.01 0.00 0.00 0.01 0.01 0.02 0.00 0.00 0.00 0.00 0.01 0.04 0.08 0.09 0.15 0.25 0.32 0.06 0.02 0.03 0.02 0.02 0.04 0.03 0.03 0.01 0.01 0.01 0.00 0.00
0.61 0.74 0.84 0.75 0.35 0.08 0.00 0.00 0.00 0.00 0.01 0.02 0.05 0.03 0.02 0.00 0.00 0.01 0.02 0.03 0.00 0.00 0.01 0.01 0.01 0.00 0.00 0.00 0.00 0.02 0.04 0.12 0.15 0.24 0.32 0.19 0.09 0.04 0.02 0.01 0.02 0.03 0.01 0.01 0.01 0.01 0.00 0.00 0.00
0.68 0.97 1.47 0.85 0.42 0.05 0.00 0.00 0.00 0.00 0.03 0.04 0.11 0.13 0.02 0.01 0.01 0.01 0.02 0.03 0.01 0.01 0.01 0.02 0.01 0.00 0.00 0.01 0.01 0.04 0.04 0.07 0.16 0.23 0.22 0.09 0.10 0.03 0.01 0.01 0.01 0.01 0.01 0.01 0.01 0.00 0.00 0.00 0.00
0.62 1.51 1.21 0.93 0.43 0.11 0.00 0.00 0.00 0.00 0.02 0.07 0.16 0.23 0.09 0.07 0.03 0.03 0.04 0.02 0.01 0.02 0.02 0.02 0.02 0.00 0.01 0.01 0.02 0.05 0.05 0.07 0.15 0.20 0.14 0.07 0.09 0.01 0.00 0.01 0.00 0.01 0.01 0.01 0.01 0.00 0.00 0.00 0.00
0.85 1.24 1.41 0.74 0.34 0.10 0.03 0.00 0.00 0.00 0.00 0.02 0.14 0.30 0.34 0.16 0.14 0.16 0.11 0.07 0.01 0.01 0.03 0.03 0.03 0.01 0.01 0.01 0.03 0.05 0.05 0.12 0.18 0.19 0.11 0.08 0.07 0.00 0.00 0.00 0.01 0.01 0.01 0.02 0.00 0.00 0.00 0.00 0.00
0.86 0.83 1.36 0.58 0.21 0.12 0.07 0.02 0.03 0.04 0.01 0.01 0.10 0.35 0.53 0.55 0.50 0.43 0.31 0.24 0.13 0.04 0.03 0.04 0.02 0.01 0.01 0.02 0.04 0.06 0.06 0.11 0.17 0.14 0.07 0.06 0.03 0.00 0.00 0.00 0.02 0.01 0.02 0.01 0.00 0.00 0.00 0.00 0.00
0.72 1.27 0.52 0.68 0.17 0.11 0.07 0.04 0.02 0.06 0.06 0.01 0.09 0.38 0.76 1.09 1.01 0.73 0.64 0.42 0.30 0.13 0.05 0.03 0.01 0.01 0.03 0.03 0.05 0.05 0.03 0.07 0.10 0.06 0.01 0.01 0.00 0.00 0.01 0.01 0.02 0.03 0.01 0.00 0.00 0.00 0.00 0.00 0.00
0.83 1.42 0.58 0.30 0.28 0.09 0.08 0.25 0.03 0.03 0.14 0.04 0.05 0.18 0.44 1.39 1.75 0.98 0.82 0.84 0.62 0.31 0.07 0.03 0.00 0.00 0.03 0.04 0.05 0.05 0.04 0.04 0.03 0.00 0.00 0.00 0.00 0.00 0.00 0.01 0.02 0.03 0.01 0.00 0.00 0.00 0.00 0.00 0.00
0.85 0.96 0.54 0.21 0.31 0.22 0.21 0.38 0.17 0.09 0.15 0.34 0.17 0.16 0.48 1.49 2.34 1.54 0.85 0.90 0.98 0.58 0.22 0.06 0.01 0.01 0.02 0.04 0.05 0.06 0.05 0.05 0.02 0.00 0.00 0.00 0.00 0.00 0.00 0.01 0.03 0.03 0.00 0.00 0.00 0.00 0.00 0.00 0.00
0.81 0.57 0.47 0.32 0.37 0.35 0.22 0.16 0.21 0.25 0.17 0.34 0.18 0.29 0.69 1.37 3.56 3.00 1.99 1.12 1.36 1.36 0.55 0.17 0.01 0.01 0.02 0.03 0.04 0.05 0.05 0.04 0.02 0.00 0.00 0.00 0.00 0.00 0.00 0.01 0.02 0.01 0.00 0.00 0.00 0.00 0.00 0.00 0.00
0.93 0.64 0.56 0.52 0.62 0.42 0.23 0.16 0.14 0.15 0.04 0.11 0.58 0.55 0.83 1.02 3.66 4.30 4.67 3.88 2.78 2.24 1.12 0.29 0.04 0.03 0.03 0.03 0.04 0.04 0.04 0.03 0.01 0.00 0.00 0.00 0.00 0.00 0.00 0.00 0.00 0.00 0.00 0.00 0.00 0.00 0.00 0.00 0.00
1.03 0.90 0.53 0.51 0.47 0.43 0.16 0.19 0.12 0.04 0.03 0.19 0.39 0.60 0.63 1.14 1.73 3.48 3.51 4.56 4.05 2.88 2.04 0.55 0.06 0.10 0.06 0.03 0.03 0.03 0.02 0.03 0.00 0.00 0.00 0.00 0.00 0.00 0.00 0.00 0.00 0.00 0.00 0.00 0.00 0.00 0.00 0.00 0.00
0.96 1.09 0.60 0.48 0.43 0.25 0.14 0.04 0.08 0.07 0.12 0.40 0.35 0.54 0.76 0.89 1.21 1.98 2.20 2.69 3.66 3.27 2.62 1.70 0.22 0.08 0.12 0.06 0.02 0.02 0.02 0.02 0.01 0.00 0.00 0.00 0.00 0.00 0.00 0.00 0.00 0.00 0.00 0.00 0.00 0.00 0.00 0.00 0.00
0.59 1.19 0.77 0.47 0.53 0.19 0.12 0.05 0.03 0.03 0.18 0.50 0.63 0.69 1.29 0.91 0.94 1.50 1.43 1.76 2.05 2.82 2.42 1.96 0.83 0.10 0.12 0.09 0.06 0.05 0.03 0.02 0.02 0.00 0.00 0.00 0.00 0.00 0.00 0.00 0.00 0.00 0.00 0.00 0.00 0.00 0.00 0.00 0.00
0.17 0.86 1.11 0.57 0.59 0.43 0.17 0.04 0.01 0.02 0.10 0.31 0.47 0.68 1.22 0.88 0.68 0.73 1.16 1.55 1.86 2.34 2.22 2.06 1.09 0.38 0.13 0.12 0.07 0.05 0.04 0.03 0.02 0.01 0.00 0.00 0.00 0.00 0.00 0.00 0.00 0.00 0.00 0.00 0.00 0.00 0.00 0.00 0.00
0.07 0.30 0.75 0.82 0.57 0.61 0.24 0.06 0.02 0.03 0.06 0.11 0.20 0.39 1.03 1.03 0.82 0.44 0.51 0.96 1.41 2.32 2.02 2.08 1.49 0.71 0.23 0.25 0.17 0.06 0.03 0.02 0.01 0.01 0.00 0.00 0.00 0.00 0.00 0.00 0.00 0.00 0.00 0.00 0.00 0.00 0.00 0.00 0.00
0.09 0.14 0.22 0.47 0.56 0.57 0.37 0.19 0.06 0.01 0.04 0.02 0.08 0.21 0.58 0.85 0.83 0.64 0.57 0.69 0.89 1.51 2.35 2.11 1.93 1.51 0.82 0.60 0.53 0.20 0.08 0.04 0.01 0.00 0.00 0.00 0.00 0.00 0.00 0.00 0.00 0.00 0.00 0.00 0.00 0.00 0.00 0.00 0.00
0.01 0.01 0.05 0.14 0.23 0.46 0.48 0.25 0.14 0.01 0.02 0.01 0.04 0.21 0.51 0.80 0.75 0.67 0.70 0.78 0.78 0.90 2.07 1.80 1.98 1.42 1.41 1.04 0.84 0.53 0.19 0.08 0.02 0.00 0.00 0.02 0.01 0.00 0.00 0.00 0.00 0.00 0.00 0.00 0.00 0.00 0.00 0.00 0.03
0.02 0.01 0.02 0.09 0.11 0.16 0.26 0.13 0.21 0.12 0.01 0.01 0.05 0.16 0.39 0.64 0.51 0.41 0.52 0.80 0.82 0.69 1.52 2.11 1.83 1.35 0.88 0.97 0.88 0.73 0.47 0.30 0.24 0.12 0.07 0.10 0.08 0.04 0.03 0.01 0.04 0.04 0.03 0.02 0.04 0.04 0.04 0.19 0.31
0.00 0.02 0.01 0.04 0.06 0.06 0.08 0.06 0.04 0.07 0.03 0.02 0.02 0.09 0.24 0.36 0.25 0.34 0.33 0.47 1.29 1.01 0.76 1.43 2.13 2.11 1.13 1.13 0.99 1.03 1.04 0.72 0.57 0.39 0.46 0.40 0.31 0.41 0.41 0.36 0.25 0.23 0.18 0.22 0.23 0.24 0.35 0.52 0.28
0.00 0.01 0.00 0.01 0.02 0.05 0.02 0.05 0.02 0.03 0.05 0.05 0.08 0.26 0.29 0.35 0.39 0.29 0.27 0.21 0.46 0.89 0.76 0.81 1.40 2.32 1.82 1.34 1.27 1.23 0.89 0.79 0.70 0.77 1.07 0.82 0.55 0.56 0.56 0.64 0.74 0.78 0.70 0.74 0.74 0.65 0.72 0.60 0.50
0.00 0.00 0.00 0.01 0.00 0.00 0.01 0.06 0.13 0.08 0.20 0.19 0.07 0.20 0.40 0.34 0.31 0.25 0.25 0.34 0.39 0.44 0.47 0.49 0.92 1.43 2.11 1.74 1.60 1.32 0.98 0.74 0.90 0.57 0.49 0.40 0.33 0.30 0.44 0.64 0.88 1.00 0.94 0.87 0.93 0.91 1.04 1.15 0.93
0.00 0.01 0.02 0.03 0.04 0.04 0.00 0.05 0.11 0.03 0.08 0.10 0.07 0.06 0.25 0.47 0.52 0.35 0.20 0.36 0.35 0.28 0.18 0.31 0.69 0.88 1.32 1.72 1.15 1.13 1.06 1.28 1.26 0.75 0.50 0.58 0.56 0.56 0.65 0.78 0.84 0.82 0.81 0.86 1.04 1.11 0.94 0.78 0.59
0.02 0.10 0.12 0.13 0.17 0.08 0.00 0.01 0.05 0.00 0.04 0.11 0.16 0.11 0.14 0.52 0.45 0.31 0.18 0.12 0.18 0.13 0.07 0.18 0.44 0.96 0.75 1.34 0.90 0.75 0.78 0.78 0.94 1.03 0.84 0.69 0.61 0.54 0.43 0.44 0.58 0.61 0.59 0.54 0.45 0.31 0.28 0.29 0.24
0.10 0.18 0.36 0.49 0.22 0.13 0.00 0.03 0.05 0.00 0.01 0.03 0.26 0.11 0.04 0.34 0.58 0.57 0.44 0.34 0.28 0.22 0.11 0.08 0.28 0.85 0.74 0.77 0.73 0.69 0.78 0.57 0.45 0.50 0.54 0.64 0.56 0.51 0.48 0.26 0.20 0.27 0.28 0.18 0.11 0.15 0.11 0.07 0.08
0.13 0.19 0.18 0.33 0.18 0.09 0.05 0.01 0.00 0.00 0.00 0.00 0.12 0.29 0.04 0.03 0.23 0.53 0.46 0.42 0.34 0.15 0.13 0.15 0.18 0.29 0.37 0.49 0.57 0.51 0.54 0.44 0.47 0.49 0.35 0.27 0.30 0.33 0.30 0.25 0.18 0.18 0.22 0.18 0.14 0.11 0.17 0.16 0.13
0.14 0.17 0.27 0.27 0.29 0.19 0.07 0.03 0.05 0.00 0.00 0.00 0.00 0.08 0.04 0.00 0.00 0.02 0.10 0.07 0.07 0.06 0.12 0.29 0.42 0.34 0.27 0.39 0.35 0.32 0.39 0.23 0.42 0.47 0.41 0.36 0.25 0.26 0.23 0.17 0.16 0.17 0.19 0.22 0.20 0.23 0.23 0.20 0.19
0.12 0.14 0.17 0.45 0.24 0.28 0.28 0.22 0.04 0.00 0.00 0.00 0.00 0.00 0.00 0.00 0.00 0.00 0.00 0.00 0.00 0.00 0.01 0.10 0.41 0.40 0.28 0.38 0.40 0.47 0.39 0.21 0.37 0.42 0.27 0.28 0.36 0.19 0.16 0.23 0.22 0.17 0.17 0.18 0.21 0.18 0.28 0.22 0.12
0.15 0.22 0.36 0.25 0.23 0.10 0.25 0.34 0.00 0.00 0.00 0.00 0.00 0.00 0.00 0.00 0.00 0.00 0.00 0.00 0.00 0.00 0.00 0.00 0.11 0.33 0.24 0.31 0.36 0.49 0.46 0.50 0.43 0.39 0.35 0.18 0.20 0.24 0.16 0.14 0.16 0.20 0.20 0.25 0.26 0.18 0.25 0.39 0.34

GFSSGP_prec_precacc24_123.txt.gz
Total_Precipitation_Accumulation
0.12 0.46 0.62 0.55 0.32 0.21 0.01 0.00 0.00 0.00 0.02 0.05 0.03 0.01 0.00 0.00 0.01 0.01 0.00 0.00 0.00 0.00 0.01 0.00 0.01 0.01 0.00 0.00 0.00 0.00 0.02 0.05 0.06 0.10 0.12 0.16 0.06 0.02 0.03 0.03 0.03 0.03 0.04 0.06 0.06 0.04 0.06 0.02 0.01
0.17 0.53 0.71 0.54 0.35 0.12 0.01 0.00 0.00 0.00 0.01 0.04 0.05 0.03 0.01 0.00 0.00 0.02 0.03 0.01 0.00 0.00 0.01 0.01 0.02 0.01 0.00 0.00 0.00 0.01 0.04 0.08 0.09 0.15 0.25 0.31 0.05 0.02 0.04 0.02 0.03 0.05 0.04 0.03 0.02 0.02 0.01 0.00 0.00
0.26 0.61 0.80 0.73 0.35 0.08 0.00 0.00 0.00 0.00 0.00 0.02 0.04 0.03 0.01 0.00 0.00 0.01 0.01 0.02 0.00 0.00 0.01 0.01 0.02 0.01 0.01 0.00 0.00 0.02 0.04 0.12 0.15 0.24 0.32 0.19 0.09 0.04 0.03 0.01 0.03 0.04 0.01 0.01 0.01 0.01 0.00 0.00 0.00
0.34 0.74 1.38 0.85 0.42 0.05 0.00 0.00 0.00 0.00 0.01 0.04 0.08 0.10 0.02 0.00 0.01 0.01 0.02 0.02 0.01 0.01 0.01 0.01 0.01 0.01 0.01 0.01 0.01 0.03 0.04 0.07 0.16 0.23 0.22 0.10 0.11 0.04 0.01 0.01 0.01 0.01 0.01 0.01 0.01 0.00 0.00 0.00 0.00
0.39 1.09 1.15 0.93 0.43 0.11 0.00 0.00 0.00 0.00 0.00 0.03 0.11 0.21 0.08 0.06 0.03 0.03 0.04 0.03 0.01 0.02 0.02 0.01 0.01 0.01 0.02 0.02 0.02 0.03 0.04 0.07 0.15 0.20 0.14 0.08 0.11 0.01 0.01 0.01 0.00 0.01 0.01 0.01 0.01 0.00 0.00 0.00 0.00
0.65 0.84 1.32 0.74 0.34 0.10 0.03 0.00 0.00 0.00 0.00 0.01 0.11 0.27 0.28 0.14 0.11 0.17 0.14 0.10 0.05 0.02 0.03 0.02 0.01 0.01 0.02 0.02 0.03 0.04 0.05 0.11 0.18 0.19 0.11 0.08 0.08 0.00 0.00 0.00 0.01 0.01 0.01 0.02 0.00 0.00 0.00 0.00 0.00
0.45 0.59 1.23 0.58 0.21 0.12 0.07 0.02 0.03 0.04 0.01 0.01 0.10 0.35 0.47 0.46 0.34 0.36 0.34 0.28 0.20 0.07 0.03 0.03 0.02 0.01 0.03 0.03 0.05 0.05 0.05 0.11 0.17 0.14 0.07 0.07 0.04 0.00 0.00 0.00 0.02 0.01 0.02 0.01 0.00 0.00 0.00 0.00 0.00
0.33 0.97 0.51 0.68 0.17 0.11 0.07 0.04 0.02 0.06 0.05 0.01 0.09 0.38 0.75 1.03 0.79 0.56 0.61 0.45 0.37 0.23 0.11 0.04 0.02 0.02 0.03 0.04 0.05 0.06 0.03 0.07 0.10 0.07 0.01 0.01 0.00 0.00 0.01 0.01 0.02 0.03 0.01 0.00 0.00 0.00 0.00 0.00 0.00
0.53 0.97 0.57 0.30 0.28 0.09 0.08 0.25 0.03 0.03 0.13 0.03 0.05 0.18 0.44 1.38 1.65 0.81 0.69 0.80 0.67 0.54 0.27 0.12 0.03 0.01 0.04 0.05 0.06 0.06 0.05 0.05 0.04 0.01 0.01 0.00 0.00 0.00 0.00 0.01 0.02 0.03 0.01 0.00 0.00 0.00 0.00 0.00 0.00
0.53 0.56 0.52 0.21 0.31 0.22 0.21 0.38 0.17 0.09 0.15 0.30 0.11 0.16 0.48 1.49 2.32 1.41 0.64 0.82 0.99 0.70 0.51 0.29 0.10 0.01 0.03 0.06 0.07 0.07 0.07 0.07 0.04 0.01 0.02 0.00 0.00 0.00 0.00 0.01 0.03 0.03 0.00 0.00 0.00 0.00 0.00 0.00 0.00
0.38 0.29 0.43 0.31 0.37 0.35 0.22 0.16 0.21 0.25 0.17 0.34 0.16 0.27 0.65 1.36 3.54 2.92 1.66 0.82 1.24 1.37 0.94 0.40 0.12 0.04 0.02 0.04 0.05 0.06 0.06 0.05 0.03 0.01 0.01 0.00 0.00 0.00 0.00 0.01 0.02 0.01 0.00 0.00 0.00 0.00 0.00 0.00 0.00
0.45 0.41 0.49 0.50 0.61 0.42 0.23 0.16 0.14 0.15 0.04 0.11 0.53 0.43 0.71 0.97 3.61 4.24 4.49 3.35 2.54 2.19 1.66 1.51 0.56 0.13 0.05 0.03 0.05 0.05 0.05 0.03 0.02 0.01 0.00 0.00 0.00 0.00 0.00 0.00 0.00 0.00 0.00 0.00 0.00 0.00 0.00 0.00 0.00
0.52 0.51 0.48 0.50 0.46 0.42 0.16 0.19 0.12 0.04 0.03 0.18 0.37 0.57 0.57 0.98 1.58 3.32 3.38 4.39 3.81 2.79 2.05 1.07 1.17 0.67 0.13 0.03 0.04 0.04 0.03 0.03 0.01 0.01 0.00 0.00 0.00 0.00 0.00 0.00 0.00 0.00 0.00 0.00 0.00 0.00 0.00 0.00 0.00
0.51 0.57 0.54 0.47 0.42 0.25 0.14 0.04 0.08 0.07 0.12 0.40 0.32 0.50 0.65 0.75 1.09 1.85 2.07 2.56 3.38 3.05 2.54 1.86 0.71 0.64 0.27 0.07 0.03 0.02 0.02 0.02 0.01 0.01 0.00 0.00 0.00 0.00 0.00 0.00 0.00 0.00 0.00 0.00 0.00 0.00 0.00 0.00 0.00
0.33 0.61 0.61 0.46 0.51 0.18 0.12 0.05 0.03 0.03 0.18 0.49 0.60 0.62 1.16 0.79 0.86 1.39 1.29 1.63 1.88 2.67 2.36 2.12 1.17 0.60 0.30 0.13 0.07 0.05 0.03 0.02 0.02 0.01 0.00 0.00 0.00 0.00 0.00 0.00 0.00 0.00 0.00 0.00 0.00 0.00 0.00 0.00 0.00
0.12 0.59 0.73 0.51 0.55 0.38 0.13 0.04 0.01 0.02 0.10 0.31 0.47 0.63 1.13 0.81 0.63 0.65 1.03 1.41 1.72 2.15 2.05 2.28 1.33 0.77 0.44 0.19 0.08 0.06 0.04 0.03 0.02 0.01 0.00 0.00 0.00 0.00 0.00 0.00 0.00 0.00 0.00 0.00 0.00 0.00 0.00 0.00 0.00
0.07 0.27 0.51 0.61 0.50 0.44 0.12 0.03 0.02 0.03 0.06 0.11 0.20 0.39 0.99 0.93 0.74 0.41 0.43 0.84 1.26 2.22 1.98 2.27 1.98 1.06 0.56 0.39 0.20 0.09 0.04 0.02 0.01 0.01 0.00 0.00 0.00 0.00 0.00 0.00 0.00 0.00 0.00 0.00 0.00 0.00 0.00 0.00 0.00
0.09 0.15 0.20 0.36 0.48 0.38 0.17 0.04 0.03 0.01 0.04 0.02 0.08 0.21 0.61 0.92 0.85 0.58 0.53 0.63 0.82 1.46 2.32 2.12 2.51 2.03 1.07 0.87 0.64 0.27 0.12 0.05 0.02 0.01 0.01 0.01 0.01 0.00 0.00 0.00 0.00 0.00 0.00 0.00 0.00 0.00 0.00 0.00 0.00
0.03 0.03 0.05 0.14 0.20 0.38 0.32 0.06 0.04 0.08 0.03 0.01 0.04 0.23 0.62 1.06 0.97 0.79 0.72 0.77 0.68 0.87 2.10 1.90 2.56 2.37 1.72 1.35 1.16 0.71 0.30 0.12 0.04 0.01 0.01 0.04 0.02 0.00 0.00 0.00 0.00 0.00 0.00 0.00 0.00 0.00 0.00 0.00 0.03
0.04 0.02 0.02 0.09 0.11 0.14 0.22 0.09 0.25 0.18 0.08 0.05 0.12 0.35 0.67 0.82 0.66 0.50 0.56 0.86 0.83 0.62 1.43 2.13 2.30 2.51 1.57 1.24 1.12 0.99 0.61 0.36 0.27 0.14 0.08 0.12 0.09 0.04 0.02 0.01 0.04 0.03 0.02 0.00 0.01 0.02 0.03 0.18 0.31
0.01 0.02 0.01 0.04 0.06 0.06 0.08 0.05 0.10 0.10 0.10 0.05 0.11 0.22 0.41 0.67 0.37 0.41 0.36 0.49 1.32 1.00 0.76 1.50 2.27 2.52 1.76 1.35 1.39 1.31 1.28 1.20 0.69 0.42 0.47 0.41 0.28 0.30 0.23 0.15 0.09 0.15 0.16 0.19 0.22 0.23 0.33 0.51 0.27
0.00 0.02 0.01 0.01 0.02 0.05 0.02 0.06 0.06 0.06 0.13 0.08 0.19 0.35 0.58 0.46 0.51 0.45 0.33 0.25 0.47 0.91 0.76 0.80 1.41 2.41 2.03 1.42 1.36 1.31 0.96 0.92 1.13 0.92 1.02 0.79 0.51 0.50 0.47 0.52 0.56 0.60 0.60 0.68 0.72 0.63 0.69 0.59 0.49
0.00 0.00 0.00 0.01 0.00 0.00 0.01 0.09 0.15 0.14 0.37 0.38 0.51 0.53 1.09 0.71 0.44 0.51 0.33 0.38 0.41 0.48 0.51 0.50 0.94 1.45 2.10 1.74 1.52 1.27 0.99 0.72 1.00 0.81 0.65 0.44 0.38 0.29 0.33 0.52 0.75 0.90 0.90 0.86 0.92 0.91 1.04 1.14 0.93
0.00 0.01 0.02 0.02 0.04 0.05 0.00 0.06 0.12 0.10 0.18 0.16 0.26 0.21 0.71 1.34 0.73 0.47 0.32 0.47 0.41 0.36 0.24 0.34 0.69 0.87 1.35 1.71 1.12 1.02 0.94 1.21 1.22 0.73 0.53 0.55 0.41 0.38 0.43 0.65 0.78 0.79 0.81 0.87 1.07 1.16 1.02 0.86 0.68
0.02 0.09 0.11 0.10 0.12 0.12 0.00 0.01 0.14 0.01 0.05 0.14 0.41 0.18 0.44 1.05 0.69 0.58 0.35 0.26 0.24 0.20 0.10 0.20 0.44 0.99 0.80 1.40 0.88 0.67 0.72 0.74 0.91 0.94 0.73 0.52 0.41 0.37 0.30 0.39 0.56 0.61 0.60 0.60 0.57 0.45 0.43 0.40 0.39
0.10 0.16 0.32 0.51 0.30 0.14 0.00 0.05 0.11 0.00 0.01 0.04 0.40 0.18 0.25 0.70 1.06 0.76 0.60 0.43 0.33 0.24 0.12 0.09 0.30 1.03 0.93 0.84 0.86 0.77 0.80 0.58 0.42 0.43 0.47 0.59 0.47 0.45 0.46 0.23 0.18 0.29 0.33 0.28 0.24 0.23 0.21 0.10 0.10
0.12 0.19 0.18 0.31 0.17 0.10 0.06 0.01 0.00 0.00 0.00 0.00 0.13 0.36 0.23 0.46 0.64 0.78 0.80 0.77 0.37 0.16 0.14 0.19 0.24 0.37 1.00 0.92 0.95 0.74 0.63 0.47 0.47 0.47 0.32 0.24 0.35 0.41 0.37 0.33 0.34 0.34 0.37 0.33 0.26 0.17 0.22 0.20 0.14
0.14 0.16 0.26 0.25 0.25 0.19 0.07 0.05 0.09 0.00 0.00 0.00 0.00 0.08 0.07 0.16 0.16 0.24 0.30 0.36 0.11 0.08 0.15 0.33 0.47 0.40 0.47 1.06 0.72 0.80 0.60 0.35 0.47 0.49 0.42 0.35 0.25 0.31 0.35 0.29 0.28 0.39 0.41 0.41 0.30 0.26 0.24 0.21 0.19
0.11 0.14 0.17 0.45 0.24 0.28 0.28 0.27 0.09 0.00 0.00 0.00 0.00 0.00 0.00 0.01 0.03 0.03 0.03 0.01 0.00 0.00 0.01 0.12 0.43 0.43 0.36 0.57 0.60 0.73 0.57 0.44 0.51 0.50 0.38 0.42 0.43 0.25 0.21 0.28 0.29 0.25 0.25 0.29 0.28 0.21 0.29 0.22 0.12
0.11 0.19 0.35 0.24 0.22 0.10 0.25 0.38 0.02 0.00 0.00 0.00 0.00 0.00 0.00 0.00 0.00 0.00 0.02 0.00 0.00 0.00 0.00 0.00 0.11 0.42 0.38 0.38 0.44 0.63 0.58 0.74 0.70 0.59 0.55 0.40 0.33 0.33 0.24 0.22 0.21 0.23 0.24 0.31 0.31 0.21 0.27 0.41 0.37

GFSSGP_prec_precacc24_126.txt.gz
Total_Precipitation_Accumulation
0.01 0.15 0.43 0.50 0.29 0.19 0.01 0.00 0.00 0.00 0.01 0.04 0.03 0.01 0.00 0.00 0.01 0.01 0.00 0.00 0.00 0.00 0.01 0.00 0.01 0.01 0.00 0.01 0.01 0.01 0.02 0.02 0.03 0.07 0.09 0.11 0.03 0.02 0.03 0.04 0.03 0.03 0.04 0.07 0.07 0.05 0.07 0.04 0.01
0.02 0.15 0.48 0.48 0.31 0.12 0.01 0.00 0.00 0.00 0.00 0.03 0.05 0.03 0.01 0.00 0.00 0.01 0.01 0.01 0.00 0.00 0.01 0.01 0.02 0.01 0.01 0.01 0.01 0.01 0.03 0.06 0.06 0.11 0.18 0.21 0.04 0.02 0.05 0.02 0.04 0.05 0.05 0.04 0.03 0.03 0.02 0.01 0.00
0.09 0.24 0.62 0.65 0.32 0.08 0.00 0.00 0.00 0.00 0.00 0.01 0.03 0.03 0.01 0.00 0.00 0.00 0.01 0.01 0.00 0.00 0.01 0.01 0.02 0.02 0.01 0.01 0.01 0.02 0.04 0.11 0.14 0.21 0.29 0.19 0.10 0.05 0.03 0.02 0.03 0.04 0.02 0.01 0.01 0.01 0.00 0.00 0.00
0.16 0.30 0.97 0.77 0.41 0.05 0.00 0.00 0.00 0.00 0.00 0.02 0.08 0.10 0.02 0.00 0.00 0.00 0.01 0.01 0.01 0.01 0.02 0.02 0.02 0.01 0.02 0.01 0.02 0.03 0.04 0.07 0.16 0.23 0.22 0.10 0.12 0.05 0.01 0.02 0.01 0.01 0.01 0.01 0.01 0.00 0.00 0.00 0.00
0.25 0.43 0.68 0.77 0.42 0.11 0.00 0.00 0.00 0.00 0.00 0.02 0.10 0.17 0.05 0.03 0.03 0.03 0.04 0.03 0.03 0.03 0.04 0.03 0.10 0.04 0.02 0.02 0.03 0.04 0.04 0.08 0.16 0.20 0.14 0.08 0.12 0.02 0.01 0.01 0.00 0.01 0.01 0.01 0.01 0.00 0.00 0.00 0.00
0.31 0.38 0.60 0.58 0.34 0.10 0.03 0.00 0.00 0.00 0.00 0.00 0.07 0.17 0.19 0.13 0.11 0.16 0.14 0.11 0.07 0.05 0.05 0.04 0.13 0.17 0.09 0.03 0.03 0.04 0.05 0.12 0.20 0.20 0.11 0.09 0.09 0.01 0.00 0.00 0.01 0.01 0.01 0.02 0.00 0.00 0.00 0.00 0.00
0.15 0.32 0.51 0.39 0.21 0.12 0.07 0.02 0.03 0.04 0.01 0.00 0.02 0.21 0.42 0.44 0.31 0.33 0.33 0.28 0.21 0.09 0.06 0.06 0.08 0.21 0.19 0.08 0.04 0.05 0.06 0.12 0.19 0.16 0.08 0.07 0.05 0.00 0.00 0.00 0.02 0.01 0.02 0.01 0.00 0.00 0.00 0.00 0.00
0.15 0.47 0.29 0.47 0.16 0.11 0.07 0.04 0.02 0.06 0.05 0.00 0.02 0.25 0.63 0.91 0.63 0.48 0.59 0.44 0.37 0.22 0.12 0.08 0.07 0.20 0.28 0.14 0.05 0.06 0.05 0.08 0.12 0.08 0.03 0.02 0.01 0.00 0.01 0.01 0.02 0.03 0.01 0.00 0.00 0.00 0.00 0.00 0.00
0.31 0.49 0.37 0.17 0.25 0.09 0.08 0.25 0.03 0.03 0.13 0.03 0.03 0.11 0.34 1.13 1.32 0.63 0.68 0.78 0.66 0.52 0.27 0.16 0.11 0.14 0.27 0.26 0.14 0.11 0.10 0.09 0.07 0.04 0.03 0.03 0.00 0.00 0.00 0.01 0.02 0.03 0.01 0.00 0.00 0.00 0.00 0.00 0.00
0.28 0.27 0.35 0.18 0.28 0.22 0.21 0.38 0.17 0.09 0.14 0.25 0.05 0.09 0.40 1.39 2.09 1.26 0.62 0.81 0.97 0.68 0.49 0.31 0.19 0.13 0.17 0.22 0.24 0.15 0.14 0.14 0.08 0.03 0.03 0.01 0.00 0.00 0.00 0.01 0.03 0.03 0.00 0.00 0.00 0.00 0.00 0.00 0.00
0.14 0.11 0.27 0.26 0.34 0.35 0.22 0.16 0.21 0.25 0.16 0.33 0.15 0.25 0.64 1.34 3.48 2.82 1.60 0.80 1.20 1.35 0.92 0.41 0.15 0.14 0.13 0.17 0.20 0.12 0.10 0.10 0.08 0.04 0.02 0.00 0.00 0.00 0.00 0.01 0.02 0.01 0.00 0.00 0.00 0.00 0.00 0.00 0.00
0.09 0.06 0.26 0.37 0.57 0.42 0.23 0.16 0.14 0.15 0.04 0.11 0.46 0.36 0.65 0.96 3.60 4.17 4.44 3.31 2.44 2.16 1.66 1.51 0.57 0.29 0.21 0.16 0.16 0.11 0.07 0.06 0.03 0.02 0.01 0.00 0.00 0.00 0.00 0.00 0.00 0.00 0.00 0.00 0.00 0.00 0.00 0.00 0.00
0.11 0.14 0.17 0.28 0.43 0.42 0.16 0.19 0.12 0.04 0.03 0.15 0.28 0.53 0.51 0.94 1.56 3.21 3.29 4.24 3.56 2.73 2.04 1.07 1.17 0.80 0.38 0.25 0.16 0.09 0.05 0.04 0.02 0.02 0.01 0.00 0.00 0.00 0.00 0.00 0.00 0.00 0.00 0.00 0.00 0.00 0.00 0.00 0.00
0.15 0.16 0.09 0.26 0.38 0.24 0.14 0.04 0.08 0.06 0.08 0.29 0.21 0.43 0.57 0.68 1.04 1.80 2.05 2.54 3.32 2.90 2.36 1.77 0.70 0.74 0.54 0.26 0.19 0.07 0.03 0.03 0.02 0.01 0.00 0.00 0.00 0.00 0.00 0.00 0.00 0.00 0.00 0.00 0.00 0.00 0.00 0.00 0.00
0.08 0.22 0.19 0.28 0.50 0.16 0.11 0.05 0.03 0.03 0.14 0.39 0.47 0.45 0.99 0.64 0.76 1.36 1.28 1.62 1.86 2.57 2.14 1.88 1.07 0.63 0.49 0.24 0.18 0.12 0.04 0.02 0.02 0.01 0.00 0.00 0.00 0.00 0.00 0.00 0.00 0.00 0.00 0.00 0.00 0.00 0.00 0.00 0.00
0.04 0.11 0.24 0.30 0.53 0.37 0.12 0.04 0.01 0.02 0.09 0.29 0.40 0.51 1.00 0.71 0.50 0.58 0.99 1.35 1.67 2.12 1.97 2.13 1.22 0.72 0.51 0.29 0.16 0.14 0.08 0.04 0.02 0.02 0.01 0.00 0.00 0.00 0.00 0.00 0.00 0.00 0.00 0.00 0.00 0.00 0.00 0.00 0.00
0.04 0.07 0.15 0.30 0.38 0.44 0.11 0.03 0.02 0.03 0.06 0.11 0.19 0.35 0.89 0.78 0.60 0.28 0.36 0.75 1.19 2.17 1.91 2.10 1.84 0.96 0.57 0.43 0.26 0.19 0.09 0.05 0.01 0.01 0.00 0.00 0.00 0.00 0.00 0.00 0.00 0.00 0.00 0.00 0.00 0.00 0.00 0.00 0.00
0.10 0.11 0.09 0.14 0.29 0.29 0.15 0.04 0.03 0.01 0.04 0.02 0.08 0.21 0.59 0.87 0.75 0.39 0.36 0.51 0.66 1.29 2.15 1.94 2.24 1.70 0.94 0.76 0.54 0.41 0.24 0.09 0.04 0.02 0.01 0.02 0.01 0.00 0.00 0.00 0.00 0.00 0.00 0.00 0.00 0.00 0.00 0.00 0.00
0.05 0.07 0.08 0.07 0.15 0.21 0.17 0.03 0.01 0.10 0.04 0.03 0.05 0.23 0.62 1.06 0.94 0.71 0.58 0.58 0.53 0.66 1.87 1.64 2.42 2.22 1.58 1.00 0.89 0.63 0.43 0.18 0.06 0.02 0.02 0.04 0.03 0.01 0.00 0.00 0.00 0.00 0.00 0.00 0.00 0.00 0.00 0.00 0.03
0.07 0.04 0.03 0.08 0.11 0.09 0.15 0.03 0.14 0.18 0.12 0.17 0.20 0.42 0.74 0.83 0.67 0.51 0.54 0.80 0.77 0.47 1.15 1.80 2.12 2.43 1.80 1.42 1.12 0.87 0.55 0.39 0.35 0.18 0.11 0.14 0.13 0.07 0.05 0.01 0.04 0.03 0.02 0.00 0.01 0.01 0.00 0.14 0.30
0.01 0.02 0.01 0.04 0.06 0.05 0.07 0.04 0.08 0.04 0.08 0.06 0.11 0.29 0.56 0.76 0.38 0.42 0.38 0.51 1.35 1.01 0.68 1.37 2.16 2.43 1.83 1.88 1.67 1.19 0.99 1.03 0.76 0.53 0.55 0.47 0.36 0.37 0.28 0.16 0.07 0.09 0.10 0.15 0.15 0.17 0.24 0.44 0.23
0.00 0.02 0.01 0.01 0.02 0.05 0.02 0.07 0.05 0.05 0.11 0.08 0.19 0.43 0.72 0.50 0.57 0.52 0.37 0.29 0.52 0.97 0.84 0.83 1.39 2.36 2.14 1.96 2.52 2.00 1.13 0.93 1.13 0.81 0.90 0.73 0.52 0.48 0.39 0.37 0.41 0.40 0.36 0.50 0.61 0.54 0.62 0.54 0.47
0.00 0.00 0.00 0.01 0.00 0.00 0.01 0.11 0.15 0.14 0.40 0.44 0.87 0.72 1.49 1.17 1.09 0.98 0.39 0.41 0.51 0.61 0.60 0.54 0.94 1.44 2.15 1.92 2.03 2.34 1.79 0.98 0.95 0.89 0.73 0.54 0.45 0.29 0.26 0.32 0.48 0.61 0.68 0.76 0.87 0.86 1.01 1.10 0.88
0.00 0.01 0.02 0.02 0.04 0.04 0.00 0.07 0.12 0.13 0.25 0.20 0.46 0.43 1.31 1.88 1.32 1.41 1.45 0.78 0.60 0.54 0.37 0.39 0.73 0.89 1.30 1.82 1.40 1.40 1.60 1.60 1.42 1.05 0.90 0.81 0.51 0.37 0.31 0.40 0.47 0.54 0.58 0.62 0.90 1.11 1.01 0.86 0.68
0.02 0.09 0.10 0.08 0.16 0.12 0.00 0.01 0.15 0.04 0.06 0.17 0.50 0.43 1.14 1.72 1.38 1.39 1.62 1.16 0.80 0.44 0.22 0.24 0.46 1.00 0.82 1.44 0.99 0.85 0.87 0.92 1.09 1.11 0.88 0.77 0.74 0.56 0.31 0.28 0.37 0.34 0.34 0.43 0.51 0.45 0.44 0.43 0.44
0.09 0.14 0.31 0.53 0.32 0.14 0.00 0.04 0.12 0.01 0.01 0.05 0.45 0.33 0.66 1.17 1.54 1.06 1.10 0.77 0.51 0.29 0.14 0.09 0.30 1.03 0.94 0.84 0.88 0.83 0.90 0.65 0.49 0.52 0.53 0.61 0.51 0.49 0.53 0.26 0.19 0.27 0.33 0.29 0.27 0.28 0.26 0.19 0.17
0.11 0.18 0.18 0.28 0.15 0.09 0.06 0.01 0.00 0.00 0.00 0.00 0.13 0.39 0.64 0.85 0.87 0.89 1.04 0.94 0.50 0.21 0.15 0.19 0.24 0.37 1.01 0.94 0.96 0.77 0.66 0.51 0.50 0.50 0.34 0.27 0.38 0.47 0.47 0.46 0.35 0.35 0.42 0.37 0.31 0.25 0.30 0.30 0.23
0.13 0.16 0.25 0.21 0.14 0.16 0.07 0.05 0.10 0.00 0.00 0.00 0.00 0.09 0.15 0.36 0.51 0.52 0.52 0.47 0.14 0.08 0.15 0.33 0.48 0.41 0.47 1.21 0.89 1.05 0.72 0.45 0.61 0.54 0.43 0.37 0.29 0.35 0.41 0.46 0.47 0.46 0.55 0.60 0.51 0.46 0.40 0.33 0.29
0.07 0.11 0.15 0.43 0.23 0.28 0.28 0.28 0.10 0.00 0.00 0.00 0.00 0.00 0.01 0.05 0.13 0.12 0.07 0.02 0.01 0.00 0.01 0.12 0.43 0.46 0.41 0.69 0.94 1.11 1.27 0.80 0.80 0.67 0.41 0.45 0.45 0.27 0.25 0.36 0.41 0.36 0.36 0.43 0.46 0.38 0.42 0.30 0.17
0.08 0.15 0.28 0.21 0.22 0.10 0.25 0.39 0.02 0.00 0.00 0.00 0.00 0.00 0.00 0.00 0.00 0.06 0.05 0.00 0.00 0.00 0.00 0.00 0.12 0.44 0.42 0.43 0.55 0.78 0.87 1.22 1.06 0.89 0.70 0.52 0.46 0.43 0.31 0.29 0.28 0.28 0.29 0.37 0.40 0.31 0.37 0.48 0.40

GFSSGP_prec_precacc24_129.txt.gz
Total_Precipitation_Accumulation
0.00 0.01 0.14 0.34 0.25 0.16 0.01 0.00 0.00 0.00 0.00 0.02 0.02 0.01 0.00 0.00 0.01 0.01 0.00 0.00 0.00 0.00 0.01 0.01 0.01 0.01 0.01 0.02 0.02 0.02 0.02 0.01 0.02 0.04 0.07 0.09 0.03 0.02 0.03 0.04 0.03 0.04 0.04 0.08 0.08 0.06 0.08 0.06 0.01
0.00 0.03 0.22 0.36 0.28 0.07 0.01 0.00 0.00 0.00 0.00 0.00 0.04 0.03 0.01 0.00 0.00 0.00 0.00 0.00 0.00 0.00 0.01 0.01 0.02 0.02 0.02 0.02 0.02 0.02 0.03 0.03 0.02 0.06 0.12 0.16 0.04 0.02 0.05 0.02 0.04 0.06 0.06 0.05 0.03 0.03 0.02 0.01 0.00
0.03 0.09 0.35 0.40 0.27 0.06 0.00 0.00 0.00 0.00 0.00 0.00 0.02 0.02 0.01 0.00 0.00 0.00 0.00 0.00 0.00 0.00 0.01 0.03 0.05 0.04 0.02 0.02 0.02 0.03 0.04 0.04 0.05 0.12 0.20 0.16 0.09 0.06 0.03 0.02 0.04 0.05 0.03 0.02 0.02 0.01 0.00 0.00 0.00
0.08 0.15 0.47 0.46 0.22 0.04 0.00 0.00 0.00 0.00 0.00 0.00 0.01 0.03 0.01 0.00 0.00 0.00 0.00 0.00 0.01 0.02 0.03 0.08 0.13 0.10 0.04 0.03 0.03 0.03 0.05 0.06 0.11 0.15 0.19 0.10 0.13 0.05 0.02 0.03 0.02 0.02 0.01 0.01 0.00 0.00 0.00 0.00 0.00
0.14 0.19 0.26 0.36 0.28 0.09 0.00 0.00 0.00 0.00 0.00 0.00 0.02 0.04 0.02 0.02 0.01 0.02 0.03 0.03 0.03 0.04 0.06 0.06 0.25 0.23 0.14 0.07 0.04 0.05 0.05 0.08 0.15 0.19 0.14 0.08 0.13 0.02 0.02 0.01 0.01 0.01 0.01 0.01 0.00 0.00 0.00 0.00 0.00
0.18 0.18 0.25 0.23 0.21 0.10 0.03 0.00 0.00 0.00 0.00 0.00 0.01 0.05 0.11 0.10 0.08 0.14 0.13 0.10 0.06 0.05 0.06 0.06 0.17 0.32 0.33 0.17 0.07 0.05 0.06 0.14 0.20 0.20 0.11 0.10 0.12 0.02 0.01 0.00 0.01 0.01 0.01 0.01 0.00 0.00 0.00 0.00 0.00
0.08 0.14 0.19 0.12 0.18 0.12 0.07 0.02 0.03 0.04 0.01 0.00 0.00 0.05 0.24 0.31 0.27 0.31 0.32 0.27 0.21 0.08 0.06 0.07 0.10 0.26 0.42 0.38 0.16 0.09 0.07 0.14 0.20 0.16 0.09 0.09 0.07 0.01 0.00 0.00 0.02 0.01 0.02 0.01 0.00 0.00 0.00 0.00 0.00
0.10 0.24 0.15 0.19 0.11 0.10 0.07 0.04 0.02 0.06 0.05 0.00 0.02 0.09 0.23 0.56 0.50 0.46 0.57 0.43 0.36 0.21 0.11 0.09 0.09 0.26 0.40 0.39 0.35 0.17 0.07 0.10 0.14 0.13 0.06 0.03 0.03 0.01 0.01 0.01 0.02 0.03 0.01 0.00 0.00 0.00 0.00 0.00 0.00
0.27 0.35 0.17 0.12 0.13 0.08 0.08 0.25 0.03 0.03 0.13 0.03 0.02 0.05 0.04 0.61 0.95 0.55 0.64 0.76 0.65 0.50 0.27 0.16 0.13 0.17 0.37 0.45 0.42 0.35 0.16 0.10 0.10 0.10 0.10 0.05 0.03 0.01 0.00 0.01 0.02 0.03 0.01 0.00 0.00 0.00 0.00 0.00 0.00
0.27 0.15 0.18 0.15 0.25 0.21 0.21 0.38 0.17 0.09 0.14 0.23 0.04 0.05 0.20 0.80 1.55 1.04 0.57 0.80 0.97 0.67 0.48 0.31 0.20 0.16 0.20 0.32 0.47 0.40 0.28 0.20 0.11 0.08 0.08 0.04 0.01 0.00 0.00 0.01 0.03 0.03 0.00 0.00 0.00 0.00 0.00 0.00 0.00
0.13 0.07 0.09 0.18 0.28 0.29 0.21 0.16 0.20 0.24 0.13 0.32 0.13 0.22 0.54 0.81 2.39 2.33 1.44 0.78 1.19 1.34 0.90 0.41 0.16 0.16 0.15 0.22 0.36 0.32 0.21 0.15 0.13 0.06 0.03 0.01 0.01 0.00 0.00 0.01 0.02 0.01 0.00 0.00 0.00 0.00 0.00 0.00 0.00
0.09 0.06 0.13 0.19 0.34 0.26 0.20 0.16 0.12 0.14 0.04 0.11 0.43 0.30 0.62 0.78 2.63 3.54 4.07 3.26 2.42 2.15 1.65 1.51 0.57 0.29 0.21 0.17 0.25 0.25 0.19 0.09 0.03 0.03 0.02 0.00 0.01 0.01 0.00 0.00 0.00 0.00 0.00 0.00 0.00 0.00 0.00 0.00 0.00
0.08 0.08 0.10 0.16 0.29 0.29 0.14 0.19 0.10 0.03 0.02 0.04 0.21 0.47 0.45 0.86 1.34 2.91 3.13 4.09 3.54 2.72 2.04 1.06 1.17 0.80 0.38 0.29 0.24 0.20 0.18 0.10 0.02 0.02 0.01 0.00 0.00 0.01 0.00 0.00 0.00 0.00 0.00 0.00 0.00 0.00 0.00 0.00 0.00
0.09 0.04 0.03 0.03 0.09 0.16 0.13 0.04 0.05 0.02 0.03 0.11 0.09 0.37 0.55 0.62 0.91 1.71 1.94 2.45 3.29 2.87 2.35 1.76 0.68 0.74 0.54 0.29 0.29 0.20 0.16 0.09 0.02 0.02 0.00 0.00 0.00 0.00 0.00 0.00 0.00 0.00 0.00 0.00 0.00 0.00 0.00 0.00 0.00
0.03 0.03 0.02 0.02 0.07 0.09 0.11 0.03 0.03 0.00 0.04 0.16 0.24 0.29 0.86 0.56 0.59 1.20 1.22 1.59 1.83 2.52 2.13 1.82 0.97 0.61 0.49 0.24 0.20 0.22 0.17 0.08 0.02 0.01 0.00 0.00 0.00 0.00 0.00 0.00 0.00 0.00 0.00 0.00 0.00 0.00 0.00 0.00 0.00
0.02 0.02 0.03 0.01 0.22 0.23 0.10 0.04 0.01 0.01 0.03 0.16 0.20 0.31 0.82 0.60 0.44 0.48 0.92 1.29 1.65 2.10 1.95 2.13 1.20 0.68 0.48 0.30 0.17 0.18 0.15 0.09 0.03 0.02 0.01 0.00 0.00 0.00 0.00 0.00 0.00 0.00 0.00 0.00 0.00 0.00 0.00 0.00 0.00
0.03 0.03 0.02 0.00 0.09 0.25 0.07 0.02 0.02 0.03 0.05 0.06 0.09 0.24 0.72 0.55 0.45 0.23 0.33 0.73 1.18 2.16 1.91 2.10 1.83 0.94 0.52 0.39 0.29 0.21 0.11 0.07 0.02 0.01 0.01 0.00 0.00 0.00 0.00 0.00 0.00 0.00 0.00 0.00 0.00 0.00 0.00 0.00 0.00
0.15 0.12 0.04 0.01 0.01 0.14 0.08 0.03 0.03 0.01 0.04 0.01 0.06 0.16 0.49 0.73 0.55 0.30 0.29 0.47 0.65 1.29 2.15 1.93 2.24 1.66 0.81 0.56 0.41 0.43 0.26 0.11 0.05 0.02 0.02 0.02 0.01 0.01 0.00 0.00 0.00 0.00 0.00 0.00 0.00 0.00 0.00 0.00 0.00
0.08 0.10 0.10 0.02 0.02 0.08 0.06 0.03 0.01 0.10 0.04 0.02 0.04 0.22 0.59 0.97 0.82 0.53 0.40 0.47 0.51 0.66 1.85 1.62 2.39 2.20 1.49 0.79 0.55 0.43 0.44 0.21 0.08 0.03 0.02 0.03 0.03 0.02 0.01 0.01 0.01 0.00 0.00 0.00 0.00 0.00 0.00 0.00 0.01
0.07 0.05 0.02 0.04 0.03 0.04 0.05 0.02 0.14 0.18 0.12 0.17 0.20 0.42 0.74 0.82 0.64 0.46 0.40 0.59 0.67 0.45 1.13 1.73 2.07 2.40 1.80 1.35 0.73 0.48 0.39 0.31 0.24 0.10 0.05 0.08 0.09 0.07 0.06 0.02 0.04 0.03 0.02 0.00 0.01 0.01 0.00 0.07 0.22
0.01 0.02 0.01 0.03 0.02 0.02 0.01 0.02 0.08 0.04 0.08 0.06 0.11 0.29 0.56 0.76 0.38 0.41 0.35 0.43 1.13 0.83 0.56 1.21 1.97 2.15 1.72 1.85 1.56 1.08 0.77 0.88 0.58 0.33 0.25 0.25 0.25 0.29 0.27 0.17 0.09 0.10 0.10 0.12 0.11 0.10 0.15 0.34 0.16
0.00 0.02 0.01 0.00 0.01 0.03 0.00 0.05 0.05 0.05 0.11 0.08 0.19 0.43 0.72 0.50 0.58 0.51 0.36 0.29 0.51 0.87 0.70 0.71 1.20 2.16 2.01 1.82 2.44 1.83 0.97 0.70 0.71 0.46 0.39 0.42 0.33 0.35 0.38 0.41 0.39 0.34 0.26 0.34 0.42 0.37 0.46 0.46 0.41
0.01 0.00 0.00 0.01 0.00 0.00 0.00 0.10 0.13 0.14 0.40 0.44 0.94 0.81 1.55 1.25 1.35 1.06 0.41 0.44 0.57 0.64 0.71 0.62 0.88 1.36 2.02 1.70 1.69 2.26 2.04 1.10 0.77 0.67 0.57 0.43 0.43 0.31 0.27 0.33 0.38 0.39 0.40 0.50 0.66 0.66 0.74 0.93 0.84
0.01 0.01 0.02 0.02 0.04 0.04 0.00 0.07 0.11 0.12 0.25 0.20 0.51 0.68 1.56 2.05 1.74 1.56 1.56 0.93 0.78 0.81 0.87 0.62 0.86 1.02 1.28 1.63 1.29 1.34 1.98 2.16 1.74 1.07 0.89 0.81 0.56 0.45 0.35 0.35 0.38 0.40 0.37 0.34 0.46 0.55 0.60 0.73 0.66
0.02 0.08 0.09 0.07 0.16 0.12 0.00 0.01 0.16 0.04 0.07 0.18 0.59 0.78 1.55 2.22 1.96 2.09 2.21 1.97 1.87 1.36 1.13 0.74 0.61 1.11 0.79 1.36 0.98 0.85 0.87 1.25 1.61 1.59 1.22 1.02 0.95 0.87 0.49 0.40 0.47 0.40 0.30 0.33 0.40 0.37 0.41 0.42 0.44
0.08 0.13 0.31 0.54 0.33 0.14 0.00 0.04 0.12 0.01 0.01 0.05 0.51 0.55 1.08 1.48 1.97 1.47 1.76 1.76 1.46 0.95 0.41 0.22 0.40 1.05 0.94 0.83 0.86 0.82 0.90 0.74 0.81 0.94 0.96 1.09 0.84 0.80 0.92 0.61 0.45 0.38 0.36 0.30 0.27 0.28 0.26 0.19 0.17
0.08 0.15 0.16 0.27 0.15 0.09 0.06 0.01 0.00 0.00 0.00 0.00 0.14 0.50 1.18 1.16 1.04 1.06 1.35 1.14 0.85 0.44 0.34 0.30 0.28 0.41 1.01 0.94 0.97 0.78 0.68 0.56 0.58 0.67 0.66 0.61 0.66 0.72 0.77 0.69 0.56 0.48 0.50 0.42 0.33 0.27 0.30 0.31 0.24
0.09 0.11 0.18 0.17 0.12 0.15 0.07 0.05 0.10 0.00 0.00 0.00 0.00 0.13 0.27 0.53 0.67 0.68 0.69 0.85 0.59 0.38 0.36 0.43 0.49 0.41 0.47 1.22 0.90 1.05 0.75 0.48 0.66 0.62 0.57 0.62 0.56 0.51 0.55 0.61 0.56 0.52 0.61 0.66 0.55 0.49 0.45 0.39 0.37
0.04 0.07 0.11 0.40 0.21 0.28 0.28 0.28 0.10 0.00 0.00 0.00 0.00 0.00 0.01 0.06 0.18 0.17 0.11 0.08 0.14 0.10 0.08 0.17 0.46 0.47 0.41 0.71 1.02 1.20 1.38 0.87 0.85 0.83 0.57 0.56 0.53 0.34 0.30 0.41 0.55 0.50 0.41 0.49 0.53 0.46 0.51 0.41 0.28
0.04 0.07 0.09 0.13 0.19 0.10 0.25 0.39 0.02 0.00 0.00 0.00 0.00 0.00 0.00 0.00 0.02 0.09 0.06 0.00 0.00 0.00 0.01 0.04 0.14 0.47 0.46 0.47 0.61 0.89 1.03 1.75 1.38 1.31 1.05 0.71 0.52 0.47 0.36 0.31 0.30 0.35 0.35 0.41 0.48 0.38 0.41 0.54 0.48

GFSSGP_prec_precacc24_132.txt.gz
Total_Precipitation_Accumulation
0.00 0.00 0.02 0.14 0.16 0.11 0.01 0.00 0.00 0.00 0.00 0.00 0.00 0.00 0.00 0.00 0.01 0.01 0.00 0.00 0.00 0.00 0.00 0.02 0.05 0.03 0.03 0.05 0.04 0.04 0.03 0.01 0.03 0.03 0.03 0.05 0.01 0.01 0.03 0.04 0.04 0.05 0.04 0.09 0.09 0.06 0.08 0.06 0.01
0.00 0.00 0.05 0.10 0.17 0.04 0.00 0.00 0.00 0.00 0.00 0.00 0.00 0.00 0.00 0.00 0.00 0.00 0.00 0.00 0.00 0.00 0.00 0.03 0.06 0.06 0.05 0.06 0.06 0.03 0.04 0.03 0.03 0.03 0.07 0.10 0.04 0.02 0.05 0.02 0.05 0.06 0.06 0.07 0.04 0.04 0.02 0.01 0.00
0.00 0.03 0.13 0.14 0.14 0.04 0.00 0.00 0.00 0.00 0.00 0.00 0.00 0.00 0.00 0.00 0.00 0.00 0.00 0.00 0.00 0.00 0.01 0.06 0.09 0.07 0.06 0.09 0.07 0.06 0.04 0.05 0.05 0.06 0.09 0.13 0.09 0.06 0.03 0.02 0.05 0.05 0.03 0.02 0.01 0.00 0.00 0.00 0.00
0.00 0.05 0.16 0.21 0.06 0.02 0.00 0.00 0.00 0.00 0.00 0.00 0.00 0.00 0.00 0.00 0.00 0.00 0.00 0.00 0.01 0.02 0.03 0.09 0.19 0.16 0.09 0.11 0.10 0.05 0.06 0.06 0.07 0.07 0.11 0.09 0.13 0.05 0.02 0.03 0.03 0.02 0.01 0.01 0.00 0.00 0.00 0.00 0.00
0.02 0.07 0.06 0.09 0.12 0.03 0.00 0.00 0.00 0.00 0.00 0.00 0.01 0.00 0.01 0.02 0.01 0.02 0.02 0.02 0.02 0.03 0.05 0.06 0.30 0.38 0.27 0.22 0.10 0.07 0.07 0.07 0.09 0.13 0.12 0.08 0.14 0.02 0.03 0.02 0.01 0.01 0.00 0.01 0.00 0.00 0.00 0.00 0.00
0.04 0.05 0.06 0.02 0.09 0.07 0.02 0.00 0.00 0.00 0.00 0.00 0.01 0.01 0.07 0.09 0.07 0.13 0.12 0.10 0.06 0.05 0.05 0.05 0.18 0.39 0.50 0.36 0.22 0.14 0.13 0.15 0.17 0.19 0.11 0.11 0.14 0.03 0.02 0.01 0.01 0.01 0.00 0.01 0.00 0.00 0.00 0.00 0.00
0.03 0.06 0.03 0.01 0.02 0.10 0.06 0.01 0.03 0.03 0.01 0.00 0.00 0.03 0.14 0.25 0.21 0.28 0.31 0.27 0.20 0.07 0.05 0.07 0.10 0.29 0.47 0.52 0.38 0.27 0.18 0.16 0.19 0.16 0.09 0.11 0.11 0.07 0.03 0.00 0.01 0.01 0.02 0.01 0.00 0.00 0.00 0.00 0.00
0.05 0.13 0.05 0.04 0.03 0.05 0.05 0.03 0.02 0.04 0.05 0.00 0.02 0.09 0.18 0.43 0.29 0.40 0.55 0.42 0.34 0.20 0.10 0.08 0.08 0.26 0.42 0.52 0.45 0.41 0.26 0.12 0.14 0.13 0.07 0.04 0.05 0.05 0.03 0.01 0.02 0.02 0.01 0.00 0.00 0.00 0.00 0.00 0.00
0.18 0.24 0.06 0.04 0.06 0.05 0.08 0.23 0.03 0.02 0.11 0.03 0.02 0.05 0.04 0.20 0.66 0.45 0.61 0.73 0.63 0.47 0.25 0.15 0.13 0.17 0.37 0.54 0.54 0.50 0.36 0.28 0.11 0.11 0.11 0.07 0.06 0.04 0.01 0.01 0.02 0.03 0.00 0.00 0.00 0.00 0.00 0.00 0.00
0.17 0.11 0.03 0.04 0.19 0.15 0.16 0.37 0.16 0.09 0.13 0.23 0.04 0.05 0.19 0.27 0.45 0.81 0.53 0.77 0.95 0.65 0.46 0.30 0.20 0.16 0.20 0.33 0.60 0.56 0.47 0.34 0.16 0.09 0.08 0.06 0.04 0.03 0.00 0.01 0.03 0.02 0.00 0.00 0.00 0.00 0.00 0.00 0.00
0.08 0.04 0.04 0.08 0.16 0.21 0.13 0.14 0.19 0.23 0.11 0.32 0.13 0.22 0.53 0.59 0.26 1.20 1.32 0.75 1.17 1.32 0.88 0.39 0.15 0.16 0.14 0.22 0.45 0.43 0.37 0.31 0.21 0.09 0.03 0.02 0.03 0.02 0.01 0.02 0.02 0.01 0.00 0.00 0.00 0.00 0.00 0.00 0.00
0.06 0.05 0.10 0.14 0.18 0.16 0.16 0.14 0.12 0.12 0.04 0.11 0.43 0.30 0.61 0.70 0.70 0.92 3.03 3.08 2.34 2.09 1.62 1.50 0.57 0.29 0.21 0.17 0.26 0.31 0.29 0.22 0.11 0.06 0.04 0.02 0.02 0.01 0.01 0.01 0.00 0.00 0.00 0.00 0.00 0.00 0.00 0.00 0.00
0.08 0.07 0.07 0.08 0.10 0.13 0.12 0.15 0.08 0.01 0.01 0.03 0.21 0.47 0.43 0.81 0.84 1.09 1.84 3.36 3.35 2.64 2.00 1.05 1.17 0.80 0.38 0.28 0.24 0.23 0.25 0.19 0.09 0.08 0.05 0.02 0.01 0.01 0.00 0.00 0.00 0.00 0.00 0.00 0.00 0.00 0.00 0.00 0.00
0.09 0.04 0.03 0.01 0.01 0.08 0.10 0.02 0.05 0.01 0.00 0.05 0.08 0.36 0.51 0.60 0.85 1.06 1.37 1.78 2.95 2.76 2.31 1.75 0.68 0.74 0.54 0.29 0.30 0.21 0.21 0.17 0.10 0.05 0.03 0.02 0.00 0.00 0.00 0.00 0.00 0.00 0.00 0.00 0.00 0.00 0.00 0.00 0.00
0.03 0.03 0.02 0.00 0.00 0.01 0.05 0.00 0.01 0.00 0.02 0.07 0.15 0.26 0.78 0.52 0.58 1.03 1.03 1.26 1.46 2.40 2.04 1.80 0.97 0.61 0.49 0.24 0.20 0.24 0.21 0.15 0.09 0.04 0.01 0.01 0.00 0.00 0.00 0.00 0.00 0.00 0.00 0.00 0.00 0.00 0.00 0.00 0.00
0.02 0.02 0.02 0.00 0.00 0.02 0.02 0.01 0.01 0.01 0.01 0.08 0.06 0.19 0.66 0.50 0.39 0.32 0.75 1.12 1.45 1.96 1.88 2.08 1.19 0.68 0.48 0.30 0.17 0.18 0.19 0.16 0.10 0.07 0.03 0.01 0.00 0.00 0.00 0.00 0.00 0.00 0.00 0.00 0.00 0.00 0.00 0.00 0.00
0.03 0.03 0.01 0.00 0.00 0.01 0.01 0.01 0.02 0.03 0.04 0.01 0.02 0.10 0.56 0.44 0.38 0.18 0.20 0.53 0.99 1.96 1.78 2.07 1.81 0.94 0.52 0.39 0.29 0.21 0.12 0.12 0.08 0.06 0.02 0.01 0.00 0.00 0.00 0.00 0.00 0.00 0.00 0.00 0.00 0.00 0.00 0.00 0.00
0.16 0.15 0.05 0.01 0.00 0.01 0.01 0.02 0.03 0.01 0.02 0.00 0.01 0.06 0.38 0.62 0.44 0.21 0.18 0.24 0.39 1.04 1.94 1.84 2.22 1.66 0.81 0.55 0.40 0.43 0.27 0.13 0.11 0.09 0.04 0.02 0.01 0.01 0.00 0.00 0.00 0.00 0.00 0.00 0.00 0.00 0.00 0.00 0.00
0.10 0.13 0.12 0.02 0.00 0.00 0.00 0.00 0.01 0.09 0.02 0.02 0.03 0.19 0.54 0.90 0.67 0.34 0.26 0.32 0.35 0.54 1.73 1.55 2.36 2.20 1.48 0.78 0.52 0.40 0.44 0.23 0.11 0.09 0.05 0.03 0.03 0.02 0.03 0.02 0.03 0.01 0.00 0.00 0.00 0.00 0.00 0.00 0.01
0.08 0.05 0.02 0.04 0.01 0.00 0.00 0.00 0.14 0.18 0.12 0.17 0.20 0.40 0.72 0.78 0.57 0.36 0.28 0.36 0.51 0.40 1.09 1.72 2.07 2.39 1.79 1.34 0.70 0.42 0.37 0.31 0.20 0.09 0.05 0.06 0.06 0.04 0.05 0.02 0.05 0.06 0.02 0.00 0.01 0.01 0.00 0.03 0.12
0.01 0.02 0.01 0.03 0.00 0.00 0.00 0.00 0.08 0.04 0.08 0.06 0.11 0.29 0.55 0.73 0.35 0.40 0.35 0.32 0.65 0.68 0.52 1.18 1.93 2.12 1.69 1.82 1.56 1.05 0.72 0.92 0.57 0.33 0.20 0.14 0.13 0.11 0.07 0.03 0.07 0.12 0.11 0.13 0.11 0.09 0.10 0.16 0.07
0.01 0.02 0.01 0.00 0.00 0.02 0.00 0.05 0.05 0.05 0.10 0.07 0.19 0.43 0.72 0.51 0.59 0.52 0.35 0.26 0.41 0.67 0.63 0.67 1.10 2.08 1.97 1.78 2.44 1.84 0.88 0.63 0.72 0.39 0.31 0.26 0.19 0.18 0.17 0.18 0.20 0.25 0.24 0.32 0.34 0.31 0.38 0.34 0.31
0.02 0.01 0.00 0.00 0.00 0.00 0.00 0.10 0.13 0.14 0.40 0.44 0.94 0.81 1.55 1.26 1.36 1.11 0.43 0.42 0.47 0.47 0.62 0.56 0.75 1.12 1.82 1.71 1.69 2.18 1.90 1.01 0.61 0.58 0.51 0.34 0.30 0.16 0.13 0.14 0.20 0.23 0.25 0.29 0.42 0.46 0.55 0.72 0.73
0.01 0.01 0.01 0.01 0.04 0.04 0.00 0.07 0.11 0.13 0.26 0.20 0.51 0.69 1.56 2.07 1.79 1.61 1.61 0.94 0.79 0.80 0.87 0.61 0.81 0.95 1.15 1.45 1.27 1.23 1.76 1.78 1.52 0.94 0.79 0.74 0.52 0.39 0.21 0.14 0.14 0.21 0.26 0.29 0.40 0.43 0.47 0.57 0.58
0.02 0.06 0.08 0.06 0.15 0.12 0.00 0.01 0.16 0.04 0.07 0.18 0.62 0.88 1.68 2.36 2.10 2.13 2.21 2.01 1.94 1.72 1.24 0.90 0.76 1.47 0.89 1.28 1.01 0.82 0.81 1.02 1.39 1.57 1.22 0.95 0.86 0.76 0.45 0.27 0.31 0.31 0.31 0.40 0.43 0.34 0.36 0.39 0.43
0.05 0.11 0.30 0.54 0.33 0.14 0.00 0.04 0.12 0.01 0.01 0.06 0.56 0.73 1.38 1.68 2.11 1.55 1.88 2.02 1.77 1.57 0.94 0.44 0.51 1.50 1.24 0.98 0.84 0.73 0.87 0.68 0.76 0.91 1.08 1.24 1.02 0.87 0.92 0.64 0.58 0.63 0.58 0.44 0.38 0.36 0.29 0.19 0.17
0.04 0.10 0.14 0.26 0.15 0.09 0.06 0.01 0.00 0.00 0.00 0.00 0.16 0.65 1.35 1.26 1.25 1.37 1.71 1.53 1.18 0.61 0.73 0.57 0.48 0.55 1.14 1.04 0.99 0.74 0.62 0.55 0.55 0.65 0.69 0.65 0.80 0.96 1.03 1.01 0.91 0.90 0.96 0.79 0.59 0.41 0.37 0.34 0.26
0.05 0.07 0.10 0.12 0.08 0.14 0.07 0.05 0.10 0.00 0.00 0.00 0.01 0.15 0.29 0.58 0.72 0.84 0.92 1.13 0.96 0.77 0.97 0.77 0.60 0.51 0.54 1.24 0.93 1.07 0.74 0.47 0.65 0.62 0.59 0.69 0.64 0.62 0.79 1.02 0.92 0.80 0.92 1.00 0.83 0.71 0.57 0.47 0.43
0.02 0.03 0.05 0.26 0.11 0.26 0.28 0.28 0.10 0.00 0.00 0.00 0.00 0.00 0.01 0.07 0.22 0.19 0.13 0.13 0.33 0.44 0.46 0.48 0.66 0.56 0.55 0.77 1.07 1.23 1.41 0.89 0.86 0.84 0.60 0.62 0.72 0.55 0.56 0.66 0.82 0.75 0.58 0.65 0.68 0.57 0.59 0.48 0.34
0.02 0.01 0.00 0.04 0.14 0.07 0.25 0.39 0.02 0.00 0.00 0.00 0.00 0.00 0.00 0.00 0.02 0.10 0.06 0.01 0.06 0.16 0.22 0.28 0.36 0.61 0.59 0.54 0.64 0.90 1.05 1.78 1.40 1.32 1.08 0.82 0.69 0.58 0.54 0.57 0.57 0.56 0.51 0.56 0.61 0.48 0.49 0.59 0.53

GFSSGP_prec_precacc24_135.txt.gz
Total_Precipitation_Accumulation
0.00 0.00 0.00 0.01 0.04 0.04 0.00 0.00 0.00 0.00 0.00 0.00 0.00 0.00 0.00 0.00 0.01 0.01 0.00 0.00 0.00 0.00 0.00 0.02 0.06 0.06 0.06 0.10 0.05 0.09 0.04 0.02 0.02 0.04 0.03 0.01 0.00 0.01 0.03 0.02 0.03 0.05 0.04 0.08 0.10 0.09 0.10 0.05 0.01
0.00 0.00 0.01 0.02 0.03 0.01 0.00 0.00 0.00 0.00 0.00 0.00 0.00 0.00 0.00 0.00 0.00 0.00 0.00 0.00 0.00 0.00 0.00 0.03 0.07 0.09 0.08 0.13 0.09 0.04 0.06 0.03 0.04 0.04 0.05 0.03 0.03 0.02 0.05 0.02 0.06 0.07 0.06 0.08 0.04 0.04 0.02 0.00 0.00
0.00 0.00 0.02 0.03 0.02 0.01 0.00 0.00 0.00 0.00 0.00 0.00 0.00 0.00 0.00 0.00 0.00 0.00 0.00 0.00 0.00 0.00 0.01 0.05 0.11 0.09 0.09 0.16 0.16 0.09 0.05 0.04 0.04 0.05 0.06 0.08 0.09 0.06 0.03 0.03 0.07 0.05 0.05 0.03 0.01 0.00 0.00 0.00 0.00
0.00 0.01 0.04 0.03 0.00 0.00 0.00 0.00 0.00 0.00 0.00 0.00 0.00 0.00 0.00 0.00 0.00 0.00 0.00 0.00 0.01 0.01 0.03 0.09 0.20 0.19 0.14 0.23 0.20 0.14 0.11 0.06 0.07 0.05 0.08 0.08 0.13 0.05 0.02 0.03 0.04 0.03 0.02 0.01 0.00 0.00 0.00 0.00 0.00
0.00 0.01 0.01 0.00 0.00 0.00 0.00 0.00 0.00 0.00 0.00 0.00 0.01 0.00 0.00 0.01 0.01 0.02 0.02 0.02 0.02 0.03 0.05 0.06 0.30 0.39 0.35 0.37 0.21 0.14 0.14 0.09 0.09 0.09 0.10 0.08 0.14 0.02 0.03 0.02 0.01 0.02 0.01 0.01 0.00 0.00 0.00 0.00 0.00
0.00 0.00 0.00 0.00 0.00 0.00 0.00 0.00 0.00 0.00 0.00 0.00 0.00 0.01 0.02 0.07 0.07 0.13 0.12 0.10 0.06 0.05 0.05 0.05 0.18 0.39 0.52 0.44 0.35 0.28 0.19 0.15 0.14 0.12 0.10 0.11 0.15 0.03 0.02 0.01 0.01 0.01 0.01 0.01 0.00 0.00 0.00 0.00 0.00
0.00 0.02 0.00 0.00 0.00 0.00 0.00 0.00 0.02 0.01 0.01 0.00 0.00 0.03 0.11 0.24 0.21 0.28 0.31 0.26 0.20 0.07 0.05 0.07 0.10 0.28 0.47 0.52 0.43 0.41 0.30 0.17 0.20 0.16 0.09 0.11 0.12 0.08 0.06 0.01 0.01 0.00 0.02 0.01 0.00 0.00 0.00 0.00 0.00
0.02 0.06 0.02 0.00 0.00 0.00 0.00 0.00 0.00 0.02 0.02 0.00 0.01 0.09 0.15 0.40 0.28 0.39 0.55 0.41 0.33 0.19 0.10 0.08 0.08 0.26 0.41 0.53 0.46 0.45 0.43 0.23 0.16 0.14 0.07 0.04 0.05 0.06 0.09 0.02 0.01 0.01 0.01 0.00 0.00 0.00 0.00 0.00 0.00
0.10 0.14 0.03 0.00 0.00 0.00 0.00 0.02 0.01 0.01 0.06 0.02 0.02 0.05 0.04 0.20 0.65 0.42 0.58 0.65 0.57 0.42 0.24 0.15 0.13 0.17 0.36 0.53 0.60 0.54 0.42 0.47 0.25 0.12 0.11 0.07 0.06 0.04 0.04 0.01 0.01 0.01 0.00 0.00 0.00 0.00 0.00 0.00 0.00
0.06 0.06 0.01 0.00 0.02 0.05 0.05 0.07 0.04 0.05 0.10 0.10 0.03 0.04 0.18 0.25 0.43 0.67 0.41 0.67 0.86 0.58 0.44 0.30 0.20 0.16 0.20 0.31 0.64 0.62 0.57 0.49 0.33 0.13 0.08 0.06 0.04 0.03 0.02 0.01 0.02 0.01 0.00 0.00 0.00 0.00 0.00 0.00 0.00
0.01 0.01 0.00 0.02 0.05 0.09 0.07 0.05 0.06 0.13 0.08 0.05 0.04 0.11 0.52 0.58 0.24 0.70 0.71 0.52 1.09 1.25 0.84 0.39 0.15 0.16 0.13 0.21 0.46 0.52 0.49 0.42 0.34 0.17 0.03 0.02 0.05 0.04 0.03 0.03 0.02 0.01 0.00 0.00 0.00 0.00 0.00 0.00 0.00
0.01 0.00 0.02 0.06 0.08 0.07 0.03 0.05 0.05 0.06 0.03 0.00 0.01 0.15 0.60 0.70 0.69 0.32 1.15 1.34 1.72 1.92 1.54 1.47 0.56 0.29 0.20 0.17 0.26 0.35 0.37 0.32 0.23 0.14 0.06 0.02 0.05 0.05 0.02 0.01 0.01 0.00 0.00 0.00 0.00 0.00 0.00 0.00 0.00
0.05 0.02 0.03 0.04 0.04 0.02 0.02 0.07 0.04 0.00 0.00 0.00 0.04 0.27 0.43 0.81 0.80 0.82 0.88 1.61 2.19 2.03 1.84 0.99 1.16 0.79 0.37 0.28 0.23 0.23 0.29 0.26 0.16 0.20 0.11 0.02 0.02 0.02 0.02 0.00 0.00 0.00 0.00 0.00 0.00 0.00 0.00 0.00 0.00
0.07 0.03 0.02 0.01 0.00 0.00 0.01 0.01 0.01 0.00 0.00 0.04 0.05 0.26 0.50 0.60 0.84 0.95 0.78 0.89 2.20 2.08 2.00 1.65 0.66 0.74 0.52 0.28 0.29 0.21 0.22 0.23 0.21 0.17 0.07 0.04 0.01 0.01 0.02 0.01 0.00 0.00 0.00 0.00 0.00 0.00 0.00 0.00 0.00
0.02 0.03 0.02 0.00 0.00 0.01 0.03 0.00 0.00 0.00 0.02 0.07 0.07 0.13 0.73 0.52 0.57 0.95 0.71 0.81 1.04 1.94 1.76 1.67 0.94 0.60 0.47 0.23 0.20 0.24 0.22 0.19 0.18 0.11 0.10 0.06 0.01 0.01 0.01 0.00 0.00 0.00 0.00 0.00 0.00 0.00 0.00 0.00 0.00
0.01 0.02 0.02 0.00 0.00 0.00 0.01 0.00 0.00 0.00 0.01 0.08 0.05 0.07 0.45 0.49 0.39 0.30 0.63 0.94 1.21 1.38 1.64 1.93 1.12 0.67 0.48 0.29 0.16 0.18 0.20 0.19 0.18 0.14 0.13 0.08 0.01 0.00 0.00 0.00 0.00 0.00 0.00 0.00 0.00 0.00 0.00 0.00 0.00
0.04 0.04 0.02 0.00 0.00 0.00 0.00 0.00 0.00 0.01 0.03 0.01 0.02 0.06 0.33 0.38 0.37 0.17 0.17 0.44 0.89 1.34 1.46 1.89 1.72 0.93 0.52 0.39 0.29 0.21 0.12 0.14 0.11 0.13 0.11 0.11 0.04 0.01 0.00 0.00 0.00 0.00 0.00 0.00 0.00 0.00 0.00 0.00 0.00
0.19 0.16 0.05 0.01 0.00 0.00 0.00 0.00 0.00 0.00 0.02 0.00 0.01 0.03 0.28 0.49 0.42 0.21 0.15 0.16 0.33 0.68 1.22 1.70 2.11 1.58 0.78 0.55 0.40 0.43 0.27 0.15 0.16 0.16 0.13 0.13 0.03 0.02 0.00 0.00 0.00 0.00 0.00 0.00 0.00 0.00 0.00 0.00 0.00
0.12 0.14 0.12 0.02 0.00 0.00 0.00 0.00 0.01 0.09 0.02 0.02 0.02 0.12 0.41 0.78 0.57 0.31 0.19 0.22 0.24 0.30 1.03 1.29 2.19 2.06 1.43 0.77 0.51 0.40 0.44 0.23 0.15 0.16 0.12 0.11 0.04 0.02 0.04 0.02 0.03 0.01 0.00 0.00 0.00 0.00 0.00 0.00 0.00
0.10 0.05 0.02 0.04 0.01 0.00 0.00 0.00 0.14 0.18 0.11 0.17 0.20 0.36 0.66 0.68 0.45 0.25 0.16 0.24 0.20 0.19 0.49 1.34 1.56 2.24 1.70 1.31 0.69 0.41 0.35 0.29 0.19 0.11 0.11 0.10 0.08 0.05 0.05 0.02 0.02 0.04 0.02 0.00 0.01 0.01 0.00 0.00 0.01
0.02 0.03 0.02 0.03 0.00 0.00 0.00 0.00 0.08 0.04 0.08 0.06 0.11 0.28 0.53 0.70 0.27 0.27 0.23 0.19 0.24 0.17 0.23 0.93 1.38 1.87 1.62 1.76 1.55 1.03 0.70 0.92 0.57 0.33 0.24 0.17 0.15 0.13 0.08 0.03 0.03 0.05 0.03 0.03 0.07 0.09 0.06 0.06 0.02
0.02 0.03 0.01 0.00 0.00 0.01 0.00 0.04 0.05 0.04 0.10 0.07 0.19 0.43 0.70 0.49 0.54 0.46 0.32 0.25 0.33 0.32 0.33 0.43 0.87 1.78 1.79 1.70 2.39 1.79 0.86 0.64 0.73 0.38 0.19 0.17 0.16 0.17 0.15 0.17 0.14 0.19 0.18 0.20 0.27 0.27 0.32 0.27 0.28
0.02 0.01 0.00 0.00 0.00 0.00 0.00 0.10 0.13 0.14 0.40 0.44 0.94 0.81 1.54 1.24 1.33 1.07 0.40 0.38 0.40 0.47 0.58 0.39 0.59 0.94 1.59 1.48 1.61 2.17 1.90 1.02 0.64 0.64 0.56 0.34 0.29 0.17 0.14 0.16 0.15 0.11 0.12 0.15 0.25 0.24 0.29 0.51 0.65
0.01 0.01 0.00 0.00 0.03 0.05 0.00 0.07 0.11 0.13 0.26 0.20 0.51 0.69 1.56 2.06 1.77 1.59 1.57 0.84 0.70 0.73 0.89 0.60 0.68 0.86 1.07 1.29 1.22 1.22 1.75 1.75 1.47 0.96 0.84 0.77 0.53 0.39 0.22 0.16 0.15 0.16 0.12 0.11 0.13 0.17 0.36 0.40 0.47
0.01 0.04 0.08 0.06 0.16 0.13 0.00 0.01 0.16 0.04 0.07 0.18 0.61 0.88 1.68 2.36 2.09 2.13 2.22 2.03 1.88 1.67 1.25 0.94 0.69 1.34 0.81 1.22 0.95 0.82 0.80 1.00 1.17 1.36 1.22 0.93 0.83 0.75 0.45 0.27 0.23 0.20 0.15 0.22 0.24 0.26 0.31 0.31 0.41
0.02 0.06 0.26 0.52 0.32 0.14 0.00 0.04 0.12 0.01 0.01 0.06 0.56 0.74 1.38 1.68 2.11 1.55 1.88 2.04 1.78 1.57 0.93 0.44 0.52 1.39 1.12 0.95 0.77 0.60 0.77 0.62 0.64 0.81 1.03 1.25 1.01 0.85 0.90 0.65 0.57 0.59 0.51 0.42 0.40 0.35 0.31 0.24 0.20
0.01 0.04 0.08 0.22 0.14 0.09 0.06 0.01 0.00 0.00 0.00 0.00 0.16 0.66 1.35 1.28 1.28 1.44 1.81 1.65 1.29 0.67 0.87 0.63 0.57 0.51 1.14 1.12 0.99 0.77 0.89 0.68 0.50 0.58 0.68 0.62 0.75 0.89 0.98 0.97 0.89 0.94 0.96 0.85 0.77 0.61 0.51 0.44 0.33
0.03 0.02 0.03 0.05 0.03 0.12 0.07 0.05 0.10 0.00 0.00 0.00 0.01 0.15 0.29 0.58 0.73 0.86 0.98 1.28 1.09 0.91 1.29 0.89 0.67 0.70 0.63 1.33 1.01 1.32 1.15 0.94 0.77 0.63 0.56 0.65 0.58 0.57 0.78 1.08 1.03 0.87 1.05 1.19 1.02 0.93 0.81 0.69 0.61
0.01 0.01 0.00 0.06 0.02 0.22 0.26 0.28 0.10 0.00 0.00 0.00 0.00 0.00 0.01 0.07 0.22 0.19 0.13 0.15 0.44 0.66 0.88 0.72 0.74 0.67 0.71 0.89 1.28 1.63 2.00 1.14 1.13 0.87 0.57 0.60 0.67 0.53 0.58 0.71 0.94 0.94 0.83 0.92 0.96 0.88 0.87 0.74 0.53
0.00 0.00 0.00 0.00 0.03 0.05 0.22 0.35 0.02 0.00 0.00 0.00 0.00 0.00 0.00 0.00 0.02 0.10 0.06 0.03 0.13 0.32 0.48 0.78 0.88 0.95 1.11 0.96 0.79 1.00 1.15 1.85 1.45 1.34 1.07 0.82 0.69 0.57 0.56 0.63 0.67 0.73 0.74 0.83 0.86 0.70 0.69 0.73 0.63

GFSSGP_prec_precacc24_138.txt.gz
Total_Precipitation_Accumulation
0.00 0.00 0.00 0.00 0.01 0.00 0.00 0.00 0.00 0.00 0.00 0.00 0.00 0.00 0.00 0.00 0.01 0.01 0.00 0.00 0.00 0.00 0.00 0.02 0.06 0.07 0.08 0.15 0.08 0.10 0.04 0.02 0.02 0.03 0.02 0.01 0.00 0.01 0.02 0.02 0.03 0.05 0.03 0.08 0.13 0.19 0.21 0.08 0.01
0.00 0.00 0.00 0.01 0.01 0.00 0.00 0.00 0.00 0.00 0.00 0.00 0.00 0.00 0.00 0.00 0.00 0.00 0.00 0.00 0.00 0.00 0.00 0.03 0.07 0.09 0.09 0.17 0.19 0.07 0.07 0.03 0.03 0.03 0.02 0.02 0.03 0.02 0.03 0.01 0.06 0.05 0.07 0.11 0.06 0.06 0.02 0.00 0.00
0.00 0.00 0.01 0.00 0.00 0.00 0.00 0.00 0.00 0.00 0.00 0.00 0.00 0.00 0.00 0.00 0.00 0.00 0.00 0.00 0.00 0.00 0.01 0.05 0.11 0.10 0.11 0.19 0.26 0.15 0.09 0.07 0.05 0.03 0.02 0.03 0.09 0.05 0.02 0.03 0.09 0.04 0.08 0.05 0.01 0.00 0.00 0.00 0.00
0.00 0.00 0.01 0.00 0.00 0.00 0.00 0.00 0.00 0.00 0.00 0.00 0.00 0.00 0.00 0.00 0.00 0.00 0.00 0.00 0.01 0.01 0.03 0.09 0.20 0.19 0.16 0.27 0.28 0.22 0.17 0.08 0.08 0.02 0.02 0.05 0.12 0.05 0.02 0.04 0.05 0.02 0.06 0.01 0.00 0.00 0.00 0.00 0.00
0.00 0.00 0.00 0.00 0.00 0.00 0.00 0.00 0.00 0.00 0.00 0.00 0.00 0.00 0.00 0.01 0.00 0.01 0.02 0.02 0.02 0.03 0.04 0.06 0.30 0.39 0.35 0.40 0.25 0.24 0.23 0.15 0.11 0.06 0.05 0.07 0.13 0.02 0.03 0.03 0.02 0.02 0.04 0.01 0.00 0.00 0.00 0.00 0.00
0.00 0.00 0.00 0.00 0.00 0.00 0.00 0.00 0.00 0.00 0.00 0.00 0.00 0.00 0.01 0.07 0.07 0.12 0.12 0.10 0.06 0.04 0.05 0.05 0.18 0.39 0.51 0.44 0.38 0.33 0.28 0.20 0.13 0.07 0.08 0.11 0.15 0.03 0.02 0.01 0.01 0.01 0.02 0.00 0.00 0.00 0.00 0.00 0.00
0.00 0.01 0.00 0.00 0.00 0.00 0.00 0.00 0.00 0.00 0.00 0.00 0.00 0.00 0.04 0.16 0.21 0.28 0.29 0.25 0.19 0.07 0.05 0.07 0.10 0.28 0.47 0.51 0.43 0.44 0.36 0.25 0.21 0.19 0.12 0.11 0.12 0.08 0.06 0.01 0.00 0.01 0.02 0.00 0.00 0.00 0.00 0.00 0.00
0.01 0.02 0.01 0.00 0.00 0.00 0.00 0.00 0.00 0.00 0.00 0.00 0.00 0.00 0.02 0.21 0.23 0.39 0.53 0.39 0.32 0.18 0.09 0.08 0.08 0.25 0.40 0.53 0.44 0.43 0.44 0.24 0.17 0.15 0.07 0.04 0.05 0.06 0.09 0.02 0.00 0.01 0.01 0.00 0.00 0.00 0.00 0.00 0.00
0.05 0.08 0.02 0.00 0.00 0.00 0.00 0.00 0.00 0.00 0.00 0.00 0.00 0.00 0.00 0.11 0.41 0.41 0.58 0.63 0.55 0.40 0.24 0.15 0.13 0.17 0.35 0.53 0.60 0.54 0.41 0.47 0.27 0.16 0.11 0.07 0.06 0.04 0.04 0.00 0.00 0.01 0.00 0.00 0.00 0.00 0.00 0.00 0.00
0.03 0.04 0.00 0.00 0.00 0.00 0.00 0.02 0.01 0.01 0.00 0.00 0.00 0.00 0.01 0.01 0.21 0.51 0.40 0.62 0.78 0.55 0.43 0.30 0.20 0.16 0.19 0.30 0.64 0.69 0.64 0.47 0.35 0.20 0.09 0.06 0.04 0.03 0.02 0.01 0.01 0.00 0.00 0.00 0.00 0.00 0.00 0.00 0.00
0.00 0.00 0.00 0.00 0.00 0.01 0.02 0.02 0.02 0.03 0.01 0.00 0.00 0.01 0.02 0.02 0.07 0.51 0.67 0.42 0.80 1.13 0.82 0.39 0.15 0.15 0.13 0.20 0.46 0.53 0.55 0.46 0.35 0.20 0.04 0.02 0.05 0.05 0.04 0.04 0.01 0.00 0.00 0.00 0.00 0.00 0.00 0.00 0.00
0.00 0.00 0.00 0.00 0.01 0.03 0.02 0.02 0.01 0.00 0.00 0.00 0.01 0.03 0.01 0.02 0.08 0.28 1.09 1.14 0.83 1.03 1.30 1.46 0.56 0.29 0.20 0.16 0.25 0.34 0.40 0.38 0.25 0.15 0.07 0.02 0.05 0.05 0.03 0.02 0.00 0.00 0.00 0.00 0.00 0.00 0.00 0.00 0.00
0.02 0.00 0.00 0.00 0.00 0.01 0.00 0.00 0.00 0.00 0.00 0.00 0.00 0.03 0.02 0.02 0.20 0.61 0.80 1.44 1.53 0.80 0.86 0.86 1.16 0.79 0.37 0.27 0.23 0.23 0.29 0.30 0.20 0.27 0.14 0.02 0.02 0.02 0.03 0.01 0.00 0.00 0.00 0.00 0.00 0.00 0.00 0.00 0.00
0.01 0.01 0.00 0.00 0.00 0.00 0.01 0.00 0.00 0.00 0.00 0.00 0.00 0.00 0.02 0.01 0.07 0.64 0.70 0.83 1.81 1.22 0.75 1.02 0.60 0.73 0.52 0.28 0.29 0.21 0.22 0.24 0.30 0.25 0.21 0.07 0.01 0.01 0.03 0.01 0.00 0.00 0.00 0.00 0.00 0.00 0.00 0.00 0.00
0.00 0.01 0.00 0.00 0.00 0.01 0.03 0.00 0.00 0.00 0.00 0.00 0.00 0.00 0.01 0.01 0.09 0.80 0.64 0.78 0.96 1.39 0.94 0.90 0.77 0.56 0.44 0.23 0.20 0.24 0.22 0.20 0.22 0.12 0.16 0.20 0.01 0.01 0.01 0.00 0.00 0.00 0.00 0.00 0.00 0.00 0.00 0.00 0.00
0.01 0.01 0.01 0.00 0.00 0.00 0.01 0.00 0.00 0.00 0.00 0.00 0.00 0.01 0.01 0.01 0.05 0.20 0.59 0.92 1.14 1.15 1.12 1.16 0.86 0.57 0.41 0.26 0.16 0.18 0.19 0.20 0.20 0.16 0.19 0.19 0.11 0.02 0.01 0.00 0.00 0.00 0.00 0.00 0.00 0.00 0.00 0.00 0.00
0.04 0.04 0.02 0.00 0.00 0.00 0.00 0.00 0.00 0.00 0.00 0.00 0.00 0.02 0.06 0.07 0.22 0.12 0.16 0.43 0.87 1.23 1.20 1.28 1.37 0.84 0.44 0.31 0.27 0.21 0.12 0.14 0.12 0.15 0.20 0.22 0.17 0.12 0.04 0.00 0.00 0.00 0.00 0.00 0.00 0.00 0.00 0.00 0.00
0.18 0.16 0.06 0.01 0.00 0.00 0.00 0.00 0.00 0.00 0.00 0.00 0.01 0.01 0.13 0.27 0.36 0.20 0.14 0.16 0.32 0.66 1.09 1.18 1.60 1.48 0.76 0.47 0.36 0.41 0.25 0.14 0.16 0.18 0.17 0.23 0.14 0.10 0.09 0.00 0.00 0.00 0.00 0.00 0.00 0.00 0.00 0.00 0.00
0.12 0.14 0.13 0.02 0.00 0.00 0.00 0.00 0.01 0.09 0.02 0.02 0.02 0.07 0.29 0.49 0.45 0.30 0.19 0.21 0.23 0.28 0.56 0.80 1.37 1.80 1.41 0.74 0.49 0.39 0.42 0.22 0.15 0.18 0.16 0.19 0.13 0.07 0.10 0.05 0.04 0.02 0.00 0.00 0.00 0.00 0.00 0.00 0.00
0.10 0.06 0.02 0.04 0.01 0.00 0.00 0.00 0.14 0.18 0.11 0.16 0.19 0.30 0.49 0.44 0.34 0.23 0.15 0.23 0.18 0.16 0.16 0.39 0.84 1.82 1.67 1.30 0.69 0.41 0.35 0.28 0.19 0.12 0.13 0.15 0.14 0.10 0.10 0.07 0.03 0.03 0.01 0.00 0.00 0.00 0.00 0.00 0.00
0.02 0.04 0.02 0.03 0.00 0.00 0.00 0.00 0.08 0.04 0.08 0.05 0.11 0.26 0.45 0.61 0.24 0.22 0.18 0.13 0.19 0.11 0.08 0.18 0.35 1.01 1.36 1.65 1.50 0.99 0.68 0.90 0.57 0.35 0.27 0.22 0.22 0.16 0.13 0.08 0.04 0.05 0.02 0.01 0.03 0.04 0.04 0.00 0.00
0.03 0.03 0.01 0.00 0.00 0.00 0.00 0.03 0.05 0.04 0.10 0.07 0.19 0.40 0.64 0.36 0.44 0.41 0.24 0.15 0.16 0.18 0.18 0.18 0.28 0.71 1.00 1.33 2.12 1.59 0.76 0.61 0.73 0.38 0.21 0.24 0.23 0.21 0.14 0.13 0.07 0.10 0.08 0.06 0.10 0.13 0.21 0.13 0.15
0.03 0.01 0.00 0.00 0.00 0.00 0.00 0.10 0.10 0.13 0.39 0.44 0.94 0.80 1.46 1.16 1.29 1.05 0.37 0.34 0.31 0.42 0.49 0.31 0.34 0.56 1.00 1.00 1.27 2.01 1.77 0.94 0.60 0.64 0.56 0.40 0.47 0.27 0.18 0.19 0.15 0.10 0.12 0.13 0.15 0.15 0.18 0.21 0.28
0.02 0.01 0.00 0.00 0.03 0.05 0.00 0.07 0.06 0.12 0.25 0.18 0.50 0.68 1.55 2.00 1.65 1.54 1.56 0.78 0.56 0.69 0.88 0.58 0.61 0.69 0.86 0.97 0.94 1.11 1.72 1.72 1.44 0.97 0.85 0.78 0.60 0.74 0.38 0.23 0.34 0.21 0.14 0.15 0.16 0.16 0.19 0.21 0.23
0.00 0.03 0.10 0.06 0.16 0.15 0.00 0.01 0.16 0.04 0.06 0.17 0.57 0.85 1.68 2.34 2.05 2.08 2.19 2.00 1.80 1.63 1.25 0.94 0.69 1.30 0.72 1.07 0.77 0.74 0.75 0.98 1.18 1.40 1.25 0.96 0.87 0.83 0.74 0.40 0.28 0.23 0.16 0.25 0.29 0.29 0.29 0.23 0.27
0.00 0.02 0.21 0.40 0.28 0.12 0.00 0.04 0.11 0.01 0.01 0.05 0.51 0.71 1.38 1.69 2.11 1.53 1.84 2.00 1.67 1.43 0.88 0.44 0.52 1.40 1.11 0.90 0.69 0.56 0.75 0.59 0.65 0.84 1.09 1.33 1.03 0.87 0.93 0.67 0.57 0.59 0.53 0.48 0.53 0.44 0.36 0.26 0.22
0.00 0.02 0.05 0.17 0.13 0.09 0.06 0.01 0.00 0.00 0.00 0.00 0.15 0.66 1.35 1.28 1.28 1.44 1.81 1.65 1.28 0.64 0.87 0.60 0.57 0.49 1.14 1.11 0.88 0.67 0.88 0.63 0.44 0.47 0.63 0.68 0.85 0.94 1.00 1.00 0.91 0.95 0.96 0.79 0.75 0.73 0.65 0.59 0.47
0.00 0.00 0.00 0.01 0.01 0.11 0.06 0.05 0.09 0.00 0.00 0.00 0.01 0.15 0.29 0.58 0.73 0.86 0.98 1.28 1.09 0.91 1.29 0.82 0.56 0.58 0.55 1.25 1.01 1.36 1.17 0.99 0.65 0.51 0.52 0.62 0.64 0.59 0.75 1.05 1.01 0.83 0.97 1.03 0.86 0.86 0.80 0.70 0.64
0.00 0.00 0.00 0.00 0.00 0.12 0.12 0.25 0.10 0.00 0.00 0.00 0.00 0.00 0.01 0.07 0.22 0.19 0.13 0.15 0.44 0.66 0.90 0.79 0.76 0.64 0.68 0.78 1.31 1.84 2.69 1.39 1.24 0.95 0.66 0.63 0.59 0.54 0.54 0.59 0.84 0.89 0.78 0.85 0.92 0.91 0.97 0.93 0.76
0.00 0.00 0.00 0.00 0.00 0.03 0.09 0.20 0.02 0.00 0.00 0.00 0.00 0.00 0.00 0.00 0.02 0.10 0.06 0.02 0.13 0.33 0.49 0.95 1.12 1.07 1.40 1.18 1.56 1.67 1.85 2.50 1.74 1.77 1.51 0.98 0.74 0.59 0.59 0.65 0.68 0.76 0.77 0.88 0.95 0.83 0.88 0.98 0.91

GFSSGP_prec_precacc24_141.txt.gz
Total_Precipitation_Accumulation
0.00 0.00 0.00 0.00 0.00 0.00 0.00 0.00 0.00 0.00 0.00 0.00 0.00 0.00 0.00 0.00 0.00 0.00 0.00 0.00 0.00 0.00 0.00 0.03 0.08 0.09 0.09 0.19 0.10 0.10 0.04 0.01 0.01 0.02 0.00 0.00 0.00 0.01 0.01 0.02 0.03 0.04 0.03 0.08 0.16 0.25 0.34 0.13 0.01
0.00 0.00 0.00 0.00 0.00 0.00 0.00 0.00 0.00 0.00 0.00 0.00 0.00 0.00 0.00 0.00 0.00 0.00 0.00 0.00 0.00 0.00 0.00 0.03 0.07 0.11 0.12 0.21 0.25 0.10 0.08 0.03 0.03 0.03 0.01 0.00 0.01 0.02 0.02 0.01 0.05 0.03 0.07 0.14 0.16 0.15 0.02 0.00 0.00
0.00 0.00 0.00 0.00 0.00 0.00 0.00 0.00 0.00 0.00 0.00 0.00 0.00 0.00 0.00 0.00 0.00 0.00 0.00 0.00 0.00 0.00 0.01 0.05 0.11 0.11 0.14 0.22 0.33 0.22 0.13 0.08 0.05 0.03 0.00 0.02 0.06 0.02 0.02 0.03 0.07 0.03 0.13 0.07 0.03 0.00 0.00 0.00 0.00
0.00 0.00 0.00 0.00 0.00 0.00 0.00 0.00 0.00 0.00 0.00 0.00 0.00 0.00 0.00 0.00 0.00 0.00 0.00 0.00 0.01 0.01 0.03 0.09 0.20 0.19 0.18 0.31 0.33 0.31 0.22 0.12 0.09 0.03 0.00 0.04 0.08 0.02 0.02 0.05 0.05 0.02 0.11 0.02 0.00 0.00 0.00 0.00 0.00
0.00 0.00 0.00 0.00 0.00 0.00 0.00 0.00 0.00 0.00 0.00 0.00 0.00 0.00 0.00 0.00 0.00 0.01 0.02 0.02 0.02 0.03 0.04 0.06 0.30 0.39 0.35 0.42 0.28 0.30 0.31 0.21 0.13 0.07 0.01 0.04 0.09 0.01 0.03 0.03 0.02 0.02 0.08 0.01 0.00 0.00 0.00 0.00 0.00
0.00 0.00 0.00 0.00 0.00 0.00 0.00 0.00 0.00 0.00 0.00 0.00 0.00 0.00 0.00 0.00 0.04 0.12 0.12 0.10 0.06 0.04 0.05 0.05 0.18 0.39 0.51 0.44 0.40 0.39 0.36 0.29 0.20 0.09 0.05 0.07 0.12 0.03 0.03 0.01 0.01 0.01 0.03 0.00 0.00 0.00 0.00 0.00 0.00
0.00 0.00 0.00 0.00 0.00 0.00 0.00 0.00 0.00 0.00 0.00 0.00 0.00 0.00 0.00 0.00 0.05 0.17 0.25 0.23 0.19 0.07 0.05 0.07 0.10 0.28 0.46 0.51 0.43 0.46 0.40 0.32 0.29 0.22 0.15 0.10 0.11 0.08 0.06 0.01 0.00 0.01 0.02 0.00 0.00 0.00 0.00 0.00 0.00
0.00 0.00 0.00 0.00 0.00 0.00 0.00 0.00 0.00 0.00 0.00 0.00 0.00 0.00 0.00 0.00 0.05 0.13 0.25 0.31 0.29 0.18 0.09 0.08 0.08 0.25 0.39 0.53 0.44 0.43 0.44 0.26 0.17 0.14 0.08 0.03 0.05 0.06 0.09 0.01 0.00 0.01 0.01 0.00 0.00 0.00 0.00 0.00 0.00
0.01 0.01 0.00 0.00 0.00 0.00 0.00 0.00 0.00 0.00 0.00 0.00 0.00 0.00 0.00 0.00 0.01 0.07 0.16 0.41 0.47 0.40 0.23 0.14 0.13 0.16 0.35 0.52 0.60 0.54 0.41 0.46 0.26 0.16 0.11 0.07 0.06 0.04 0.04 0.00 0.00 0.00 0.00 0.00 0.00 0.00 0.00 0.00 0.00
0.01 0.01 0.00 0.00 0.00 0.00 0.00 0.00 0.00 0.00 0.00 0.00 0.00 0.00 0.00 0.00 0.00 0.01 0.04 0.42 0.71 0.54 0.43 0.29 0.20 0.16 0.19 0.30 0.64 0.69 0.68 0.48 0.34 0.20 0.09 0.06 0.04 0.03 0.02 0.01 0.00 0.00 0.00 0.00 0.00 0.00 0.00 0.00 0.00
0.00 0.00 0.00 0.00 0.00 0.00 0.00 0.00 0.00 0.00 0.00 0.00 0.00 0.00 0.00 0.00 0.00 0.00 0.01 0.20 0.62 1.03 0.80 0.36 0.15 0.14 0.13 0.20 0.45 0.53 0.56 0.49 0.40 0.22 0.04 0.02 0.06 0.05 0.04 0.03 0.02 0.00 0.00 0.00 0.00 0.00 0.00 0.00 0.00
0.00 0.00 0.00 0.00 0.00 0.00 0.00 0.00 0.00 0.00 0.00 0.00 0.00 0.00 0.00 0.00 0.00 0.00 0.02 0.30 0.68 0.92 1.26 1.44 0.54 0.26 0.19 0.16 0.25 0.34 0.40 0.41 0.31 0.22 0.10 0.03 0.05 0.05 0.03 0.02 0.00 0.00 0.00 0.00 0.00 0.00 0.00 0.00 0.00
0.00 0.00 0.00 0.00 0.00 0.00 0.00 0.00 0.00 0.00 0.00 0.00 0.00 0.00 0.00 0.00 0.00 0.00 0.00 0.15 0.98 0.68 0.65 0.76 1.12 0.71 0.32 0.26 0.22 0.22 0.29 0.30 0.23 0.38 0.20 0.04 0.02 0.02 0.03 0.01 0.00 0.00 0.00 0.00 0.00 0.00 0.00 0.00 0.00
0.00 0.00 0.00 0.00 0.00 0.00 0.00 0.00 0.00 0.00 0.00 0.00 0.00 0.00 0.00 0.00 0.00 0.00 0.00 0.02 0.92 0.99 0.55 0.43 0.53 0.67 0.43 0.23 0.27 0.20 0.21 0.24 0.33 0.32 0.25 0.12 0.01 0.01 0.03 0.01 0.00 0.00 0.00 0.00 0.00 0.00 0.00 0.00 0.00
0.00 0.00 0.00 0.00 0.00 0.00 0.01 0.00 0.00 0.00 0.00 0.00 0.00 0.00 0.00 0.00 0.00 0.00 0.00 0.00 0.41 1.18 0.84 0.44 0.38 0.54 0.38 0.15 0.15 0.20 0.21 0.19 0.23 0.15 0.22 0.29 0.07 0.01 0.01 0.00 0.00 0.00 0.00 0.00 0.00 0.00 0.00 0.00 0.00
0.01 0.01 0.01 0.00 0.00 0.00 0.00 0.00 0.00 0.00 0.00 0.00 0.00 0.01 0.00 0.00 0.00 0.00 0.00 0.01 0.41 0.93 1.03 0.94 0.45 0.42 0.39 0.20 0.13 0.14 0.18 0.19 0.20 0.18 0.26 0.30 0.16 0.04 0.01 0.00 0.00 0.00 0.00 0.00 0.00 0.00 0.00 0.00 0.00
0.04 0.04 0.02 0.00 0.00 0.00 0.00 0.00 0.00 0.00 0.00 0.00 0.00 0.02 0.06 0.02 0.01 0.01 0.01 0.03 0.33 0.99 1.13 1.10 0.95 0.50 0.38 0.30 0.26 0.19 0.11 0.14 0.12 0.15 0.23 0.32 0.23 0.15 0.08 0.01 0.00 0.00 0.00 0.00 0.00 0.00 0.00 0.00 0.00
0.14 0.12 0.04 0.01 0.00 0.00 0.00 0.00 0.00 0.00 0.00 0.00 0.01 0.01 0.10 0.17 0.11 0.05 0.05 0.07 0.21 0.60 1.07 1.09 1.26 0.96 0.49 0.43 0.35 0.40 0.25 0.14 0.16 0.18 0.17 0.27 0.22 0.12 0.14 0.06 0.01 0.00 0.00 0.00 0.00 0.00 0.00 0.00 0.00
0.12 0.14 0.13 0.02 0.00 0.00 0.00 0.00 0.01 0.09 0.02 0.02 0.02 0.07 0.22 0.36 0.31 0.18 0.09 0.13 0.18 0.27 0.56 0.79 1.22 1.28 0.89 0.58 0.46 0.38 0.42 0.22 0.15 0.19 0.16 0.21 0.19 0.12 0.14 0.08 0.08 0.05 0.00 0.00 0.00 0.00 0.00 0.00 0.00
0.10 0.06 0.01 0.01 0.00 0.00 0.00 0.00 0.14 0.18 0.11 0.16 0.19 0.30 0.42 0.34 0.21 0.13 0.08 0.16 0.15 0.16 0.15 0.38 0.69 1.32 1.23 0.93 0.58 0.38 0.34 0.28 0.18 0.12 0.14 0.17 0.18 0.15 0.16 0.11 0.07 0.06 0.01 0.00 0.00 0.00 0.00 0.00 0.00
0.02 0.04 0.02 0.01 0.00 0.00 0.00 0.00 0.08 0.04 0.08 0.05 0.10 0.22 0.40 0.53 0.18 0.14 0.11 0.08 0.13 0.09 0.06 0.15 0.21 0.59 1.09 1.28 1.26 0.83 0.61 0.86 0.54 0.33 0.26 0.24 0.26 0.22 0.21 0.15 0.08 0.08 0.04 0.01 0.00 0.01 0.00 0.00 0.00
0.03 0.03 0.01 0.00 0.00 0.00 0.00 0.03 0.05 0.04 0.10 0.06 0.19 0.33 0.58 0.31 0.29 0.31 0.16 0.12 0.10 0.13 0.14 0.15 0.17 0.28 0.60 1.08 1.84 1.37 0.67 0.57 0.72 0.38 0.20 0.26 0.26 0.26 0.20 0.18 0.12 0.11 0.09 0.04 0.02 0.01 0.04 0.03 0.05
0.03 0.01 0.00 0.00 0.00 0.00 0.00 0.08 0.04 0.12 0.38 0.43 0.92 0.73 1.29 1.06 1.18 0.95 0.30 0.27 0.28 0.38 0.38 0.22 0.21 0.26 0.42 0.63 0.95 1.76 1.63 0.81 0.53 0.63 0.55 0.41 0.50 0.32 0.24 0.25 0.20 0.15 0.16 0.10 0.07 0.04 0.02 0.03 0.07
0.02 0.01 0.00 0.00 0.03 0.05 0.00 0.05 0.01 0.11 0.19 0.11 0.47 0.66 1.42 1.77 1.39 1.38 1.52 0.76 0.55 0.66 0.82 0.52 0.47 0.44 0.32 0.38 0.63 0.91 1.58 1.57 1.25 0.90 0.83 0.78 0.61 0.79 0.47 0.30 0.43 0.45 0.29 0.29 0.19 0.14 0.16 0.13 0.14
0.00 0.03 0.11 0.05 0.17 0.15 0.00 0.01 0.15 0.04 0.06 0.11 0.54 0.83 1.64 2.20 1.82 1.92 2.14 1.99 1.80 1.61 1.23 0.90 0.65 1.21 0.43 0.34 0.43 0.53 0.64 0.92 1.07 1.23 1.13 0.91 0.86 0.81 0.95 0.90 0.44 0.51 0.51 0.44 0.50 0.45 0.36 0.23 0.27
0.00 0.01 0.12 0.18 0.20 0.08 0.00 0.04 0.11 0.01 0.01 0.04 0.38 0.67 1.37 1.68 2.03 1.38 1.74 1.87 1.58 1.40 0.87 0.43 0.51 1.37 0.99 0.48 0.34 0.35 0.59 0.44 0.58 0.78 1.06 1.28 1.01 0.86 0.94 1.13 1.46 1.04 0.81 0.76 0.74 0.73 0.63 0.38 0.22
0.00 0.01 0.04 0.12 0.09 0.02 0.04 0.01 0.00 0.00 0.00 0.00 0.08 0.46 1.33 1.28 1.28 1.42 1.78 1.54 1.12 0.58 0.85 0.59 0.53 0.47 1.12 1.01 0.71 0.58 0.79 0.54 0.32 0.42 0.62 0.68 0.84 0.93 1.02 1.04 1.10 1.56 1.56 1.13 1.10 1.11 1.04 1.06 0.59
0.00 0.00 0.00 0.00 0.01 0.03 0.01 0.05 0.09 0.00 0.00 0.00 0.01 0.10 0.27 0.58 0.73 0.86 0.98 1.28 1.08 0.90 1.28 0.76 0.48 0.50 0.53 1.24 0.98 1.33 1.14 0.98 0.62 0.47 0.50 0.61 0.64 0.61 0.81 1.10 1.07 1.04 1.22 1.48 1.21 1.07 1.06 0.82 0.83
0.00 0.00 0.00 0.00 0.00 0.02 0.01 0.14 0.09 0.00 0.00 0.00 0.00 0.00 0.01 0.07 0.21 0.19 0.13 0.15 0.44 0.66 0.90 0.76 0.61 0.53 0.61 0.68 1.22 1.67 2.55 1.30 1.11 0.81 0.61 0.61 0.55 0.55 0.62 0.63 0.85 0.97 0.98 0.96 0.99 0.93 1.04 1.09 0.83
0.00 0.00 0.00 0.00 0.00 0.00 0.00 0.10 0.02 0.00 0.00 0.00 0.00 0.00 0.00 0.00 0.02 0.10 0.06 0.02 0.13 0.33 0.49 0.95 1.10 1.04 1.37 1.09 1.40 1.46 1.62 2.34 1.59 1.65 1.46 0.99 0.75 0.56 0.60 0.71 0.72 0.73 0.72 0.92 1.10 0.99 0.91 0.95 0.92

GFSSGP_prec_precacc24_144.txt.gz
Total_Precipitation_Accumulation
0.00 0.00 0.00 0.00 0.00 0.00 0.00 0.00 0.00 0.00 0.00 0.00 0.00 0.00 0.00 0.00 0.00 0.00 0.00 0.00 0.00 0.00 0.00 0.03 0.09 0.14 0.19 0.28 0.13 0.10 0.04 0.01 0.01 0.02 0.00 0.00 0.00 0.00 0.01 0.01 0.02 0.04 0.02 0.06 0.15 0.28 0.48 0.13 0.01
0.00 0.00 0.00 0.00 0.00 0.00 0.00 0.00 0.00 0.00 0.00 0.00 0.00 0.00 0.00 0.00 0.00 0.00 0.00 0.00 0.00 0.00 0.00 0.03 0.07 0.13 0.19 0.32 0.37 0.16 0.10 0.03 0.03 0.03 0.01 0.00 0.00 0.01 0.02 0.01 0.05 0.03 0.06 0.15 0.20 0.28 0.08 0.00 0.00
0.00 0.00 0.00 0.00 0.00 0.00 0.00 0.00 0.00 0.00 0.00 0.00 0.00 0.00 0.00 0.00 0.00 0.00 0.00 0.00 0.00 0.00 0.01 0.05 0.11 0.12 0.18 0.29 0.45 0.34 0.20 0.10 0.04 0.02 0.00 0.00 0.01 0.02 0.01 0.03 0.07 0.03 0.14 0.09 0.10 0.04 0.00 0.00 0.00
0.00 0.00 0.00 0.00 0.00 0.00 0.00 0.00 0.00 0.00 0.00 0.00 0.00 0.00 0.00 0.00 0.00 0.00 0.00 0.00 0.01 0.01 0.03 0.09 0.20 0.20 0.19 0.34 0.40 0.41 0.29 0.17 0.13 0.04 0.00 0.01 0.02 0.02 0.02 0.04 0.05 0.03 0.12 0.02 0.01 0.00 0.00 0.00 0.00
0.00 0.00 0.00 0.00 0.00 0.00 0.00 0.00 0.00 0.00 0.00 0.00 0.00 0.00 0.00 0.00 0.00 0.00 0.01 0.02 0.02 0.03 0.04 0.06 0.30 0.39 0.35 0.43 0.31 0.36 0.39 0.27 0.17 0.10 0.00 0.01 0.04 0.01 0.03 0.03 0.03 0.02 0.10 0.01 0.00 0.00 0.00 0.00 0.00
0.00 0.00 0.00 0.00 0.00 0.00 0.00 0.00 0.00 0.00 0.00 0.00 0.00 0.00 0.00 0.00 0.00 0.01 0.03 0.05 0.05 0.04 0.05 0.05 0.17 0.39 0.51 0.44 0.40 0.42 0.41 0.35 0.26 0.15 0.05 0.03 0.08 0.03 0.03 0.02 0.01 0.02 0.03 0.00 0.00 0.00 0.00 0.00 0.00
0.00 0.00 0.00 0.00 0.00 0.00 0.00 0.00 0.00 0.00 0.00 0.00 0.00 0.00 0.00 0.00 0.00 0.00 0.03 0.04 0.09 0.05 0.05 0.07 0.10 0.28 0.46 0.51 0.43 0.47 0.47 0.37 0.32 0.26 0.16 0.07 0.09 0.08 0.07 0.01 0.01 0.01 0.02 0.00 0.00 0.00 0.00 0.00 0.00
0.00 0.00 0.00 0.00 0.00 0.00 0.00 0.00 0.00 0.00 0.00 0.00 0.00 0.00 0.00 0.00 0.00 0.00 0.01 0.04 0.07 0.12 0.09 0.08 0.08 0.25 0.39 0.53 0.44 0.42 0.46 0.31 0.19 0.15 0.08 0.03 0.04 0.06 0.09 0.02 0.01 0.01 0.01 0.00 0.00 0.00 0.00 0.00 0.00
0.00 0.00 0.00 0.00 0.00 0.00 0.00 0.00 0.00 0.00 0.00 0.00 0.00 0.00 0.00 0.00 0.00 0.00 0.00 0.02 0.06 0.25 0.23 0.14 0.13 0.16 0.35 0.52 0.59 0.53 0.40 0.51 0.34 0.20 0.12 0.07 0.06 0.04 0.04 0.00 0.00 0.00 0.00 0.00 0.00 0.00 0.00 0.00 0.00
0.00 0.00 0.00 0.00 0.00 0.00 0.00 0.00 0.00 0.00 0.00 0.00 0.00 0.00 0.00 0.00 0.00 0.00 0.00 0.01 0.03 0.15 0.32 0.26 0.19 0.16 0.18 0.30 0.63 0.67 0.66 0.51 0.39 0.22 0.09 0.07 0.04 0.03 0.02 0.01 0.00 0.01 0.01 0.00 0.00 0.00 0.00 0.00 0.00
0.00 0.00 0.00 0.00 0.00 0.00 0.00 0.00 0.00 0.00 0.00 0.00 0.00 0.00 0.00 0.00 0.00 0.00 0.00 0.00 0.01 0.04 0.40 0.25 0.14 0.14 0.12 0.20 0.45 0.52 0.55 0.49 0.44 0.30 0.09 0.02 0.06 0.05 0.04 0.03 0.02 0.01 0.01 0.01 0.00 0.00 0.00 0.00 0.00
0.00 0.00 0.00 0.00 0.00 0.00 0.00 0.00 0.00 0.00 0.00 0.00 0.00 0.00 0.00 0.00 0.00 0.00 0.00 0.00 0.00 0.01 0.54 1.23 0.53 0.26 0.18 0.15 0.23 0.32 0.39 0.40 0.32 0.26 0.22 0.08 0.07 0.05 0.03 0.02 0.00 0.00 0.00 0.00 0.00 0.00 0.00 0.00 0.00
0.00 0.00 0.00 0.00 0.00 0.00 0.00 0.00 0.00 0.00 0.00 0.00 0.00 0.00 0.00 0.00 0.00 0.00 0.00 0.00 0.00 0.00 0.02 0.52 1.11 0.70 0.32 0.26 0.21 0.21 0.29 0.29 0.22 0.40 0.29 0.15 0.07 0.03 0.03 0.01 0.00 0.00 0.00 0.00 0.00 0.00 0.00 0.00 0.00
0.00 0.00 0.00 0.00 0.00 0.00 0.00 0.00 0.00 0.00 0.00 0.00 0.00 0.00 0.00 0.00 0.00 0.00 0.00 0.00 0.00 0.00 0.00 0.17 0.50 0.66 0.43 0.23 0.27 0.20 0.21 0.23 0.33 0.31 0.28 0.20 0.07 0.04 0.03 0.01 0.00 0.00 0.00 0.00 0.00 0.00 0.00 0.00 0.00
0.00 0.00 0.00 0.00 0.00 0.00 0.00 0.00 0.00 0.00 0.00 0.00 0.00 0.00 0.00 0.00 0.00 0.00 0.00 0.00 0.00 0.00 0.00 0.17 0.35 0.54 0.38 0.15 0.14 0.20 0.19 0.18 0.21 0.15 0.24 0.34 0.15 0.05 0.03 0.00 0.00 0.00 0.00 0.00 0.00 0.00 0.00 0.00 0.00
0.01 0.01 0.01 0.00 0.00 0.00 0.00 0.00 0.00 0.00 0.00 0.00 0.00 0.00 0.00 0.00 0.00 0.00 0.00 0.00 0.00 0.00 0.05 0.36 0.26 0.40 0.39 0.18 0.10 0.13 0.16 0.17 0.18 0.17 0.25 0.31 0.22 0.10 0.03 0.00 0.00 0.00 0.00 0.00 0.00 0.00 0.00 0.00 0.00
0.04 0.04 0.03 0.01 0.00 0.00 0.00 0.00 0.00 0.00 0.00 0.00 0.00 0.00 0.00 0.00 0.00 0.01 0.01 0.01 0.00 0.03 0.16 0.46 0.67 0.43 0.36 0.28 0.18 0.16 0.09 0.13 0.12 0.15 0.23 0.32 0.25 0.20 0.11 0.01 0.01 0.00 0.00 0.00 0.00 0.00 0.00 0.00 0.00
0.14 0.12 0.05 0.01 0.00 0.00 0.00 0.00 0.00 0.00 0.00 0.00 0.00 0.00 0.02 0.08 0.04 0.03 0.04 0.02 0.01 0.03 0.06 0.25 0.86 0.75 0.41 0.38 0.26 0.31 0.18 0.11 0.16 0.18 0.17 0.28 0.23 0.17 0.18 0.08 0.01 0.02 0.02 0.00 0.00 0.00 0.00 0.00 0.00
0.11 0.14 0.13 0.02 0.00 0.00 0.00 0.00 0.01 0.09 0.02 0.02 0.01 0.02 0.11 0.26 0.22 0.14 0.07 0.08 0.02 0.01 0.05 0.15 0.65 1.09 0.79 0.54 0.40 0.29 0.33 0.18 0.14 0.19 0.16 0.21 0.21 0.17 0.19 0.12 0.11 0.06 0.05 0.03 0.01 0.00 0.00 0.00 0.00
0.09 0.06 0.01 0.00 0.00 0.00 0.00 0.00 0.12 0.17 0.11 0.16 0.16 0.26 0.35 0.20 0.16 0.09 0.04 0.09 0.08 0.04 0.04 0.11 0.50 1.24 1.18 0.89 0.55 0.35 0.23 0.22 0.17 0.12 0.14 0.17 0.19 0.18 0.22 0.17 0.12 0.09 0.05 0.05 0.04 0.01 0.00 0.00 0.00
0.03 0.03 0.01 0.00 0.00 0.00 0.00 0.00 0.06 0.04 0.07 0.04 0.09 0.20 0.33 0.41 0.14 0.09 0.05 0.05 0.09 0.07 0.05 0.10 0.18 0.56 1.04 1.16 1.14 0.78 0.55 0.78 0.48 0.32 0.26 0.24 0.27 0.22 0.24 0.21 0.17 0.14 0.07 0.04 0.03 0.02 0.01 0.00 0.00
0.03 0.03 0.01 0.00 0.00 0.00 0.00 0.03 0.04 0.02 0.08 0.04 0.12 0.18 0.44 0.18 0.23 0.29 0.13 0.09 0.07 0.09 0.13 0.13 0.17 0.25 0.55 0.94 1.59 1.21 0.62 0.54 0.66 0.36 0.20 0.26 0.26 0.28 0.22 0.22 0.19 0.24 0.17 0.08 0.03 0.02 0.03 0.02 0.00
0.03 0.01 0.00 0.00 0.00 0.00 0.00 0.06 0.01 0.06 0.21 0.25 0.86 0.62 1.15 0.94 1.09 0.91 0.23 0.12 0.21 0.25 0.28 0.18 0.17 0.25 0.35 0.55 0.75 1.49 1.39 0.68 0.48 0.60 0.53 0.40 0.50 0.33 0.28 0.31 0.29 0.26 0.35 0.21 0.11 0.06 0.04 0.03 0.02
0.02 0.01 0.00 0.00 0.03 0.04 0.00 0.02 0.01 0.10 0.17 0.10 0.45 0.63 1.32 1.61 1.29 1.29 1.43 0.62 0.48 0.62 0.74 0.38 0.26 0.31 0.26 0.31 0.49 0.62 1.33 1.36 0.98 0.76 0.80 0.76 0.59 0.79 0.48 0.34 0.52 0.58 0.46 0.43 0.32 0.20 0.19 0.15 0.14
0.00 0.03 0.11 0.05 0.16 0.10 0.00 0.01 0.10 0.04 0.03 0.07 0.45 0.77 1.54 1.84 1.65 1.83 2.06 1.96 1.79 1.61 1.21 0.79 0.36 0.57 0.31 0.29 0.36 0.41 0.47 0.81 0.92 0.97 0.92 0.84 0.83 0.79 0.94 0.91 0.48 0.60 0.70 0.61 0.65 0.74 0.56 0.32 0.30
0.00 0.01 0.06 0.10 0.15 0.04 0.00 0.02 0.07 0.01 0.00 0.03 0.30 0.62 1.35 1.35 1.53 0.98 1.46 1.75 1.54 1.38 0.84 0.37 0.30 0.73 0.59 0.36 0.29 0.29 0.48 0.36 0.53 0.66 0.89 1.01 0.75 0.66 0.75 1.06 1.44 0.99 0.91 1.07 0.88 0.82 0.84 0.70 0.40
0.00 0.01 0.03 0.04 0.01 0.01 0.02 0.00 0.00 0.00 0.00 0.00 0.04 0.37 1.31 1.25 1.05 0.91 1.36 1.23 0.95 0.53 0.82 0.53 0.44 0.32 0.85 0.74 0.57 0.50 0.72 0.46 0.25 0.33 0.52 0.60 0.72 0.79 0.92 0.96 1.05 1.47 1.54 1.34 1.74 1.51 1.11 1.25 1.15
0.00 0.00 0.00 0.00 0.00 0.00 0.00 0.03 0.05 0.00 0.00 0.00 0.01 0.07 0.25 0.58 0.72 0.85 0.88 1.21 1.02 0.85 1.21 0.65 0.31 0.39 0.42 1.03 0.81 1.24 1.06 0.91 0.54 0.34 0.36 0.50 0.57 0.55 0.75 1.07 1.06 1.02 1.20 1.50 1.39 1.83 1.76 1.00 1.02
0.00 0.00 0.00 0.00 0.00 0.00 0.00 0.06 0.06 0.00 0.00 0.00 0.00 0.00 0.01 0.07 0.21 0.19 0.13 0.15 0.44 0.66 0.89 0.70 0.40 0.30 0.48 0.56 1.02 1.50 2.45 1.24 1.02 0.72 0.51 0.50 0.47 0.50 0.58 0.61 0.85 0.98 0.98 0.98 1.10 1.25 1.47 1.84 1.41
0.00 0.00 0.00 0.00 0.00 0.00 0.00 0.05 0.01 0.00 0.00 0.00 0.00 0.00 0.00 0.00 0.02 0.10 0.06 0.02 0.13 0.33 0.49 0.95 1.01 0.75 1.17 1.01 1.29 1.26 1.44 2.07 1.41 1.48 1.26 0.89 0.65 0.47 0.54 0.66 0.67 0.77 0.74 0.92 1.07 1.09 1.22 1.14 1.30